<?xml version="1.0" encoding="UTF-8" standalone="no" ?>
<gpx xmlns="http://www.topografix.com/GPX/1/1" xmlns:xsi="http://www.w3.org/2001/XMLSchema-instance" xsi:schemaLocation="http://www.topografix.com/GPX/1/1 http://www.topografix.com/GPX/1/1/gpx.xsd" version="1.1" creator="VisuGPX - https://www.visugpx.com">
  <metadata>
    <name>Huit de Bellecombe</name>
    <desc><![CDATA[Montée Intense et descente très ludique !
Intérêt global : ***
]]></desc>
  </metadata>
  <trk>
    <name><![CDATA[HuitdeBellecombe]]></name>
    <trkseg>
      <trkpt lat="45.50145" lon="5.99772">
        <ele>328.2</ele>
        <time>2013-10-03T14:28:57Z</time>
      </trkpt>
      <trkpt lat="45.50136" lon="5.99777">
        <ele>328</ele>
        <time>2013-10-03T14:28:59Z</time>
      </trkpt>
      <trkpt lat="45.50136" lon="5.99777">
        <ele>328</ele>
        <time>2013-10-03T14:28:59Z</time>
      </trkpt>
      <trkpt lat="45.50131" lon="5.9978">
        <ele>327.9</ele>
        <time>2013-10-03T14:29:00Z</time>
      </trkpt>
      <trkpt lat="45.50126" lon="5.99784">
        <ele>327.8</ele>
        <time>2013-10-03T14:29:01Z</time>
      </trkpt>
      <trkpt lat="45.50121" lon="5.99788">
        <ele>327.7</ele>
        <time>2013-10-03T14:29:02Z</time>
      </trkpt>
      <trkpt lat="45.50116" lon="5.99792">
        <ele>327.5</ele>
        <time>2013-10-03T14:29:03Z</time>
      </trkpt>
      <trkpt lat="45.50111" lon="5.99796">
        <ele>327.6</ele>
        <time>2013-10-03T14:29:04Z</time>
      </trkpt>
      <trkpt lat="45.50106" lon="5.99801">
        <ele>327.3</ele>
        <time>2013-10-03T14:29:05Z</time>
      </trkpt>
      <trkpt lat="45.50102" lon="5.99807">
        <ele>327.1</ele>
        <time>2013-10-03T14:29:06Z</time>
      </trkpt>
      <trkpt lat="45.50097" lon="5.99813">
        <ele>327.1</ele>
        <time>2013-10-03T14:29:07Z</time>
      </trkpt>
      <trkpt lat="45.50093" lon="5.99819">
        <ele>326.9</ele>
        <time>2013-10-03T14:29:08Z</time>
      </trkpt>
      <trkpt lat="45.50088" lon="5.99826">
        <ele>326.6</ele>
        <time>2013-10-03T14:29:09Z</time>
      </trkpt>
      <trkpt lat="45.50084" lon="5.99833">
        <ele>326.3</ele>
        <time>2013-10-03T14:29:10Z</time>
      </trkpt>
      <trkpt lat="45.5008" lon="5.99839">
        <ele>326.1</ele>
        <time>2013-10-03T14:29:11Z</time>
      </trkpt>
      <trkpt lat="45.50075" lon="5.99846">
        <ele>325.8</ele>
        <time>2013-10-03T14:29:12Z</time>
      </trkpt>
      <trkpt lat="45.5007" lon="5.99853">
        <ele>325.7</ele>
        <time>2013-10-03T14:29:13Z</time>
      </trkpt>
      <trkpt lat="45.50065" lon="5.9986">
        <ele>325.6</ele>
        <time>2013-10-03T14:29:14Z</time>
      </trkpt>
      <trkpt lat="45.5006" lon="5.99867">
        <ele>325.2</ele>
        <time>2013-10-03T14:29:15Z</time>
      </trkpt>
      <trkpt lat="45.50055" lon="5.99874">
        <ele>325</ele>
        <time>2013-10-03T14:29:16Z</time>
      </trkpt>
      <trkpt lat="45.5005" lon="5.99881">
        <ele>324.9</ele>
        <time>2013-10-03T14:29:17Z</time>
      </trkpt>
      <trkpt lat="45.50044" lon="5.99887">
        <ele>324.6</ele>
        <time>2013-10-03T14:29:18Z</time>
      </trkpt>
      <trkpt lat="45.50038" lon="5.99893">
        <ele>324.3</ele>
        <time>2013-10-03T14:29:19Z</time>
      </trkpt>
      <trkpt lat="45.50031" lon="5.99899">
        <ele>324.1</ele>
        <time>2013-10-03T14:29:20Z</time>
      </trkpt>
      <trkpt lat="45.50025" lon="5.99906">
        <ele>323.9</ele>
        <time>2013-10-03T14:29:21Z</time>
      </trkpt>
      <trkpt lat="45.50018" lon="5.99912">
        <ele>323.7</ele>
        <time>2013-10-03T14:29:22Z</time>
      </trkpt>
      <trkpt lat="45.50011" lon="5.99917">
        <ele>323.3</ele>
        <time>2013-10-03T14:29:23Z</time>
      </trkpt>
      <trkpt lat="45.50004" lon="5.99923">
        <ele>323</ele>
        <time>2013-10-03T14:29:24Z</time>
      </trkpt>
      <trkpt lat="45.49996" lon="5.99929">
        <ele>322.6</ele>
        <time>2013-10-03T14:29:25Z</time>
      </trkpt>
      <trkpt lat="45.49989" lon="5.99935">
        <ele>322.6</ele>
        <time>2013-10-03T14:29:26Z</time>
      </trkpt>
      <trkpt lat="45.49982" lon="5.99941">
        <ele>322.2</ele>
        <time>2013-10-03T14:29:27Z</time>
      </trkpt>
      <trkpt lat="45.49975" lon="5.99947">
        <ele>321.8</ele>
        <time>2013-10-03T14:29:28Z</time>
      </trkpt>
      <trkpt lat="45.49969" lon="5.99952">
        <ele>321.1</ele>
        <time>2013-10-03T14:29:29Z</time>
      </trkpt>
      <trkpt lat="45.49963" lon="5.99958">
        <ele>320.9</ele>
        <time>2013-10-03T14:29:30Z</time>
      </trkpt>
      <trkpt lat="45.49958" lon="5.99963">
        <ele>320.7</ele>
        <time>2013-10-03T14:29:31Z</time>
      </trkpt>
      <trkpt lat="45.49953" lon="5.99969">
        <ele>320.5</ele>
        <time>2013-10-03T14:29:32Z</time>
      </trkpt>
      <trkpt lat="45.49948" lon="5.99976">
        <ele>320.2</ele>
        <time>2013-10-03T14:29:33Z</time>
      </trkpt>
      <trkpt lat="45.49943" lon="5.99982">
        <ele>320</ele>
        <time>2013-10-03T14:29:34Z</time>
      </trkpt>
      <trkpt lat="45.49937" lon="5.99987">
        <ele>319.9</ele>
        <time>2013-10-03T14:29:35Z</time>
      </trkpt>
      <trkpt lat="45.49932" lon="5.99992">
        <ele>319.6</ele>
        <time>2013-10-03T14:29:36Z</time>
      </trkpt>
      <trkpt lat="45.49926" lon="5.99998">
        <ele>319.6</ele>
        <time>2013-10-03T14:29:37Z</time>
      </trkpt>
      <trkpt lat="45.49921" lon="6.00003">
        <ele>319.4</ele>
        <time>2013-10-03T14:29:38Z</time>
      </trkpt>
      <trkpt lat="45.49916" lon="6.00009">
        <ele>319.1</ele>
        <time>2013-10-03T14:29:39Z</time>
      </trkpt>
      <trkpt lat="45.49911" lon="6.00014">
        <ele>319</ele>
        <time>2013-10-03T14:29:40Z</time>
      </trkpt>
      <trkpt lat="45.49906" lon="6.0002">
        <ele>318.9</ele>
        <time>2013-10-03T14:29:41Z</time>
      </trkpt>
      <trkpt lat="45.49902" lon="6.00025">
        <ele>318.8</ele>
        <time>2013-10-03T14:29:42Z</time>
      </trkpt>
      <trkpt lat="45.49898" lon="6.0003">
        <ele>318.8</ele>
        <time>2013-10-03T14:29:43Z</time>
      </trkpt>
      <trkpt lat="45.4989" lon="6.00031">
        <ele>318.7</ele>
        <time>2013-10-03T14:29:45Z</time>
      </trkpt>
      <trkpt lat="45.49883" lon="6.00028">
        <ele>318.6</ele>
        <time>2013-10-03T14:29:47Z</time>
      </trkpt>
      <trkpt lat="45.49875" lon="6.00025">
        <ele>318.6</ele>
        <time>2013-10-03T14:29:49Z</time>
      </trkpt>
      <trkpt lat="45.49869" lon="6.00017">
        <ele>318.5</ele>
        <time>2013-10-03T14:29:51Z</time>
      </trkpt>
      <trkpt lat="45.49866" lon="6.00012">
        <ele>318.3</ele>
        <time>2013-10-03T14:29:52Z</time>
      </trkpt>
      <trkpt lat="45.49862" lon="6.00006">
        <ele>318.2</ele>
        <time>2013-10-03T14:29:53Z</time>
      </trkpt>
      <trkpt lat="45.49859" lon="6.00001">
        <ele>318</ele>
        <time>2013-10-03T14:29:54Z</time>
      </trkpt>
      <trkpt lat="45.49855" lon="5.99995">
        <ele>317.3</ele>
        <time>2013-10-03T14:29:55Z</time>
      </trkpt>
      <trkpt lat="45.49851" lon="5.99989">
        <ele>317.1</ele>
        <time>2013-10-03T14:29:56Z</time>
      </trkpt>
      <trkpt lat="45.49846" lon="5.99982">
        <ele>316.5</ele>
        <time>2013-10-03T14:29:57Z</time>
      </trkpt>
      <trkpt lat="45.4984" lon="5.99975">
        <ele>315.7</ele>
        <time>2013-10-03T14:29:58Z</time>
      </trkpt>
      <trkpt lat="45.49833" lon="5.99967">
        <ele>314.9</ele>
        <time>2013-10-03T14:29:59Z</time>
      </trkpt>
      <trkpt lat="45.49826" lon="5.99958">
        <ele>314.1</ele>
        <time>2013-10-03T14:30:00Z</time>
      </trkpt>
      <trkpt lat="45.49819" lon="5.99949">
        <ele>313.1</ele>
        <time>2013-10-03T14:30:01Z</time>
      </trkpt>
      <trkpt lat="45.49811" lon="5.99939">
        <ele>311.9</ele>
        <time>2013-10-03T14:30:02Z</time>
      </trkpt>
      <trkpt lat="45.49802" lon="5.99929">
        <ele>310.9</ele>
        <time>2013-10-03T14:30:03Z</time>
      </trkpt>
      <trkpt lat="45.49793" lon="5.99918">
        <ele>310.1</ele>
        <time>2013-10-03T14:30:04Z</time>
      </trkpt>
      <trkpt lat="45.49783" lon="5.99907">
        <ele>308.7</ele>
        <time>2013-10-03T14:30:05Z</time>
      </trkpt>
      <trkpt lat="45.49774" lon="5.99896">
        <ele>308</ele>
        <time>2013-10-03T14:30:06Z</time>
      </trkpt>
      <trkpt lat="45.49765" lon="5.99886">
        <ele>306.6</ele>
        <time>2013-10-03T14:30:07Z</time>
      </trkpt>
      <trkpt lat="45.49757" lon="5.99875">
        <ele>306.1</ele>
        <time>2013-10-03T14:30:08Z</time>
      </trkpt>
      <trkpt lat="45.49749" lon="5.99865">
        <ele>305.7</ele>
        <time>2013-10-03T14:30:09Z</time>
      </trkpt>
      <trkpt lat="45.49742" lon="5.99855">
        <ele>305.4</ele>
        <time>2013-10-03T14:30:10Z</time>
      </trkpt>
      <trkpt lat="45.49735" lon="5.99846">
        <ele>304.9</ele>
        <time>2013-10-03T14:30:11Z</time>
      </trkpt>
      <trkpt lat="45.49728" lon="5.99836">
        <ele>304.6</ele>
        <time>2013-10-03T14:30:12Z</time>
      </trkpt>
      <trkpt lat="45.49721" lon="5.99828">
        <ele>304.1</ele>
        <time>2013-10-03T14:30:13Z</time>
      </trkpt>
      <trkpt lat="45.49714" lon="5.99819">
        <ele>303.5</ele>
        <time>2013-10-03T14:30:14Z</time>
      </trkpt>
      <trkpt lat="45.49707" lon="5.99811">
        <ele>303.3</ele>
        <time>2013-10-03T14:30:15Z</time>
      </trkpt>
      <trkpt lat="45.497" lon="5.99802">
        <ele>302.9</ele>
        <time>2013-10-03T14:30:16Z</time>
      </trkpt>
      <trkpt lat="45.49694" lon="5.99793">
        <ele>302.6</ele>
        <time>2013-10-03T14:30:17Z</time>
      </trkpt>
      <trkpt lat="45.49687" lon="5.99784">
        <ele>302.2</ele>
        <time>2013-10-03T14:30:18Z</time>
      </trkpt>
      <trkpt lat="45.4968" lon="5.99776">
        <ele>301.9</ele>
        <time>2013-10-03T14:30:19Z</time>
      </trkpt>
      <trkpt lat="45.49674" lon="5.99768">
        <ele>301.6</ele>
        <time>2013-10-03T14:30:20Z</time>
      </trkpt>
      <trkpt lat="45.49667" lon="5.99761">
        <ele>301.2</ele>
        <time>2013-10-03T14:30:21Z</time>
      </trkpt>
      <trkpt lat="45.49661" lon="5.99754">
        <ele>300.8</ele>
        <time>2013-10-03T14:30:22Z</time>
      </trkpt>
      <trkpt lat="45.49656" lon="5.99746">
        <ele>300.5</ele>
        <time>2013-10-03T14:30:23Z</time>
      </trkpt>
      <trkpt lat="45.49653" lon="5.99735">
        <ele>300</ele>
        <time>2013-10-03T14:30:25Z</time>
      </trkpt>
      <trkpt lat="45.49654" lon="5.99724">
        <ele>299.5</ele>
        <time>2013-10-03T14:30:27Z</time>
      </trkpt>
      <trkpt lat="45.49655" lon="5.99712">
        <ele>299</ele>
        <time>2013-10-03T14:30:29Z</time>
      </trkpt>
      <trkpt lat="45.49656" lon="5.99705">
        <ele>298.9</ele>
        <time>2013-10-03T14:30:30Z</time>
      </trkpt>
      <trkpt lat="45.49656" lon="5.99698">
        <ele>299</ele>
        <time>2013-10-03T14:30:31Z</time>
      </trkpt>
      <trkpt lat="45.49657" lon="5.9969">
        <ele>298.9</ele>
        <time>2013-10-03T14:30:32Z</time>
      </trkpt>
      <trkpt lat="45.49658" lon="5.99683">
        <ele>298.7</ele>
        <time>2013-10-03T14:30:33Z</time>
      </trkpt>
      <trkpt lat="45.49658" lon="5.99675">
        <ele>298.7</ele>
        <time>2013-10-03T14:30:34Z</time>
      </trkpt>
      <trkpt lat="45.49658" lon="5.99666">
        <ele>298.7</ele>
        <time>2013-10-03T14:30:35Z</time>
      </trkpt>
      <trkpt lat="45.49657" lon="5.99658">
        <ele>298.7</ele>
        <time>2013-10-03T14:30:36Z</time>
      </trkpt>
      <trkpt lat="45.49657" lon="5.9965">
        <ele>298.7</ele>
        <time>2013-10-03T14:30:37Z</time>
      </trkpt>
      <trkpt lat="45.49656" lon="5.99642">
        <ele>298.6</ele>
        <time>2013-10-03T14:30:38Z</time>
      </trkpt>
      <trkpt lat="45.49656" lon="5.99633">
        <ele>298.5</ele>
        <time>2013-10-03T14:30:39Z</time>
      </trkpt>
      <trkpt lat="45.49655" lon="5.99625">
        <ele>298.4</ele>
        <time>2013-10-03T14:30:40Z</time>
      </trkpt>
      <trkpt lat="45.49654" lon="5.99616">
        <ele>298.5</ele>
        <time>2013-10-03T14:30:41Z</time>
      </trkpt>
      <trkpt lat="45.49653" lon="5.99608">
        <ele>298.4</ele>
        <time>2013-10-03T14:30:42Z</time>
      </trkpt>
      <trkpt lat="45.49652" lon="5.99599">
        <ele>298.5</ele>
        <time>2013-10-03T14:30:43Z</time>
      </trkpt>
      <trkpt lat="45.49651" lon="5.99591">
        <ele>298.5</ele>
        <time>2013-10-03T14:30:44Z</time>
      </trkpt>
      <trkpt lat="45.4965" lon="5.99582">
        <ele>298.3</ele>
        <time>2013-10-03T14:30:45Z</time>
      </trkpt>
      <trkpt lat="45.49649" lon="5.99574">
        <ele>298.4</ele>
        <time>2013-10-03T14:30:46Z</time>
      </trkpt>
      <trkpt lat="45.49647" lon="5.99566">
        <ele>298.5</ele>
        <time>2013-10-03T14:30:47Z</time>
      </trkpt>
      <trkpt lat="45.49645" lon="5.99558">
        <ele>298.3</ele>
        <time>2013-10-03T14:30:48Z</time>
      </trkpt>
      <trkpt lat="45.49643" lon="5.99549">
        <ele>298.3</ele>
        <time>2013-10-03T14:30:49Z</time>
      </trkpt>
      <trkpt lat="45.49641" lon="5.99541">
        <ele>298.2</ele>
        <time>2013-10-03T14:30:50Z</time>
      </trkpt>
      <trkpt lat="45.49639" lon="5.99532">
        <ele>298.5</ele>
        <time>2013-10-03T14:30:51Z</time>
      </trkpt>
      <trkpt lat="45.49637" lon="5.99523">
        <ele>298.5</ele>
        <time>2013-10-03T14:30:52Z</time>
      </trkpt>
      <trkpt lat="45.49635" lon="5.99515">
        <ele>298.1</ele>
        <time>2013-10-03T14:30:53Z</time>
      </trkpt>
      <trkpt lat="45.49632" lon="5.99506">
        <ele>298.1</ele>
        <time>2013-10-03T14:30:54Z</time>
      </trkpt>
      <trkpt lat="45.4963" lon="5.99496">
        <ele>298</ele>
        <time>2013-10-03T14:30:55Z</time>
      </trkpt>
      <trkpt lat="45.49628" lon="5.99487">
        <ele>298.1</ele>
        <time>2013-10-03T14:30:56Z</time>
      </trkpt>
      <trkpt lat="45.49625" lon="5.99478">
        <ele>298.1</ele>
        <time>2013-10-03T14:30:57Z</time>
      </trkpt>
      <trkpt lat="45.49624" lon="5.99469">
        <ele>298.1</ele>
        <time>2013-10-03T14:30:58Z</time>
      </trkpt>
      <trkpt lat="45.49621" lon="5.99459">
        <ele>298.2</ele>
        <time>2013-10-03T14:30:59Z</time>
      </trkpt>
      <trkpt lat="45.49619" lon="5.9945">
        <ele>298.3</ele>
        <time>2013-10-03T14:31:00Z</time>
      </trkpt>
      <trkpt lat="45.49616" lon="5.99441">
        <ele>298.1</ele>
        <time>2013-10-03T14:31:01Z</time>
      </trkpt>
      <trkpt lat="45.49614" lon="5.99432">
        <ele>298.2</ele>
        <time>2013-10-03T14:31:02Z</time>
      </trkpt>
      <trkpt lat="45.49611" lon="5.99423">
        <ele>298.2</ele>
        <time>2013-10-03T14:31:03Z</time>
      </trkpt>
      <trkpt lat="45.49609" lon="5.99414">
        <ele>298.1</ele>
        <time>2013-10-03T14:31:04Z</time>
      </trkpt>
      <trkpt lat="45.49607" lon="5.99405">
        <ele>298</ele>
        <time>2013-10-03T14:31:05Z</time>
      </trkpt>
      <trkpt lat="45.49605" lon="5.99396">
        <ele>298</ele>
        <time>2013-10-03T14:31:06Z</time>
      </trkpt>
      <trkpt lat="45.49603" lon="5.99387">
        <ele>298.1</ele>
        <time>2013-10-03T14:31:07Z</time>
      </trkpt>
      <trkpt lat="45.49601" lon="5.99378">
        <ele>298.1</ele>
        <time>2013-10-03T14:31:08Z</time>
      </trkpt>
      <trkpt lat="45.49598" lon="5.99369">
        <ele>298.4</ele>
        <time>2013-10-03T14:31:09Z</time>
      </trkpt>
      <trkpt lat="45.49596" lon="5.99359">
        <ele>298.6</ele>
        <time>2013-10-03T14:31:10Z</time>
      </trkpt>
      <trkpt lat="45.49594" lon="5.9935">
        <ele>298.7</ele>
        <time>2013-10-03T14:31:11Z</time>
      </trkpt>
      <trkpt lat="45.49592" lon="5.99342">
        <ele>298.6</ele>
        <time>2013-10-03T14:31:12Z</time>
      </trkpt>
      <trkpt lat="45.4959" lon="5.99333">
        <ele>298.7</ele>
        <time>2013-10-03T14:31:13Z</time>
      </trkpt>
      <trkpt lat="45.49587" lon="5.99324">
        <ele>298.7</ele>
        <time>2013-10-03T14:31:14Z</time>
      </trkpt>
      <trkpt lat="45.49585" lon="5.99316">
        <ele>298.5</ele>
        <time>2013-10-03T14:31:15Z</time>
      </trkpt>
      <trkpt lat="45.49583" lon="5.99307">
        <ele>298.6</ele>
        <time>2013-10-03T14:31:16Z</time>
      </trkpt>
      <trkpt lat="45.49581" lon="5.99299">
        <ele>298.7</ele>
        <time>2013-10-03T14:31:17Z</time>
      </trkpt>
      <trkpt lat="45.49579" lon="5.9929">
        <ele>298.5</ele>
        <time>2013-10-03T14:31:18Z</time>
      </trkpt>
      <trkpt lat="45.49577" lon="5.99282">
        <ele>298.4</ele>
        <time>2013-10-03T14:31:19Z</time>
      </trkpt>
      <trkpt lat="45.49575" lon="5.99274">
        <ele>298.5</ele>
        <time>2013-10-03T14:31:20Z</time>
      </trkpt>
      <trkpt lat="45.49573" lon="5.99266">
        <ele>298.4</ele>
        <time>2013-10-03T14:31:21Z</time>
      </trkpt>
      <trkpt lat="45.49571" lon="5.99258">
        <ele>298.5</ele>
        <time>2013-10-03T14:31:22Z</time>
      </trkpt>
      <trkpt lat="45.49569" lon="5.9925">
        <ele>298.7</ele>
        <time>2013-10-03T14:31:23Z</time>
      </trkpt>
      <trkpt lat="45.49567" lon="5.99242">
        <ele>298.8</ele>
        <time>2013-10-03T14:31:24Z</time>
      </trkpt>
      <trkpt lat="45.49565" lon="5.99235">
        <ele>299</ele>
        <time>2013-10-03T14:31:25Z</time>
      </trkpt>
      <trkpt lat="45.49564" lon="5.99227">
        <ele>299.1</ele>
        <time>2013-10-03T14:31:26Z</time>
      </trkpt>
      <trkpt lat="45.49562" lon="5.9922">
        <ele>298.9</ele>
        <time>2013-10-03T14:31:27Z</time>
      </trkpt>
      <trkpt lat="45.4956" lon="5.99212">
        <ele>299</ele>
        <time>2013-10-03T14:31:28Z</time>
      </trkpt>
      <trkpt lat="45.49559" lon="5.99204">
        <ele>299.1</ele>
        <time>2013-10-03T14:31:29Z</time>
      </trkpt>
      <trkpt lat="45.49558" lon="5.99197">
        <ele>299</ele>
        <time>2013-10-03T14:31:30Z</time>
      </trkpt>
      <trkpt lat="45.49556" lon="5.9919">
        <ele>299.1</ele>
        <time>2013-10-03T14:31:31Z</time>
      </trkpt>
      <trkpt lat="45.49554" lon="5.99183">
        <ele>299.2</ele>
        <time>2013-10-03T14:31:32Z</time>
      </trkpt>
      <trkpt lat="45.49552" lon="5.99177">
        <ele>299.1</ele>
        <time>2013-10-03T14:31:33Z</time>
      </trkpt>
      <trkpt lat="45.4955" lon="5.9917">
        <ele>299.5</ele>
        <time>2013-10-03T14:31:34Z</time>
      </trkpt>
      <trkpt lat="45.49548" lon="5.99163">
        <ele>299.3</ele>
        <time>2013-10-03T14:31:35Z</time>
      </trkpt>
      <trkpt lat="45.49546" lon="5.99156">
        <ele>299.3</ele>
        <time>2013-10-03T14:31:36Z</time>
      </trkpt>
      <trkpt lat="45.49544" lon="5.99149">
        <ele>299.3</ele>
        <time>2013-10-03T14:31:37Z</time>
      </trkpt>
      <trkpt lat="45.49542" lon="5.99142">
        <ele>299.2</ele>
        <time>2013-10-03T14:31:38Z</time>
      </trkpt>
      <trkpt lat="45.4954" lon="5.99135">
        <ele>299.1</ele>
        <time>2013-10-03T14:31:39Z</time>
      </trkpt>
      <trkpt lat="45.49539" lon="5.99128">
        <ele>299.1</ele>
        <time>2013-10-03T14:31:40Z</time>
      </trkpt>
      <trkpt lat="45.49537" lon="5.99121">
        <ele>299.3</ele>
        <time>2013-10-03T14:31:41Z</time>
      </trkpt>
      <trkpt lat="45.49535" lon="5.99114">
        <ele>299.3</ele>
        <time>2013-10-03T14:31:42Z</time>
      </trkpt>
      <trkpt lat="45.49532" lon="5.99108">
        <ele>299.2</ele>
        <time>2013-10-03T14:31:43Z</time>
      </trkpt>
      <trkpt lat="45.4953" lon="5.99101">
        <ele>299.3</ele>
        <time>2013-10-03T14:31:44Z</time>
      </trkpt>
      <trkpt lat="45.49528" lon="5.99094">
        <ele>299.3</ele>
        <time>2013-10-03T14:31:45Z</time>
      </trkpt>
      <trkpt lat="45.49526" lon="5.99086">
        <ele>299.1</ele>
        <time>2013-10-03T14:31:46Z</time>
      </trkpt>
      <trkpt lat="45.49524" lon="5.99077">
        <ele>299</ele>
        <time>2013-10-03T14:31:47Z</time>
      </trkpt>
      <trkpt lat="45.49522" lon="5.99069">
        <ele>299</ele>
        <time>2013-10-03T14:31:48Z</time>
      </trkpt>
      <trkpt lat="45.49519" lon="5.99062">
        <ele>299</ele>
        <time>2013-10-03T14:31:49Z</time>
      </trkpt>
      <trkpt lat="45.49515" lon="5.99056">
        <ele>298.8</ele>
        <time>2013-10-03T14:31:50Z</time>
      </trkpt>
      <trkpt lat="45.4951" lon="5.99051">
        <ele>298.8</ele>
        <time>2013-10-03T14:31:51Z</time>
      </trkpt>
      <trkpt lat="45.49506" lon="5.99045">
        <ele>298.5</ele>
        <time>2013-10-03T14:31:52Z</time>
      </trkpt>
      <trkpt lat="45.49502" lon="5.99039">
        <ele>298.5</ele>
        <time>2013-10-03T14:31:53Z</time>
      </trkpt>
      <trkpt lat="45.49499" lon="5.99032">
        <ele>298.2</ele>
        <time>2013-10-03T14:31:54Z</time>
      </trkpt>
      <trkpt lat="45.49495" lon="5.99025">
        <ele>298.2</ele>
        <time>2013-10-03T14:31:55Z</time>
      </trkpt>
      <trkpt lat="45.49492" lon="5.99018">
        <ele>298</ele>
        <time>2013-10-03T14:31:56Z</time>
      </trkpt>
      <trkpt lat="45.49488" lon="5.99012">
        <ele>297.9</ele>
        <time>2013-10-03T14:31:57Z</time>
      </trkpt>
      <trkpt lat="45.49484" lon="5.99006">
        <ele>298.1</ele>
        <time>2013-10-03T14:31:58Z</time>
      </trkpt>
      <trkpt lat="45.4948" lon="5.98999">
        <ele>298.1</ele>
        <time>2013-10-03T14:31:59Z</time>
      </trkpt>
      <trkpt lat="45.49476" lon="5.98993">
        <ele>298.1</ele>
        <time>2013-10-03T14:32:00Z</time>
      </trkpt>
      <trkpt lat="45.49472" lon="5.98987">
        <ele>298</ele>
        <time>2013-10-03T14:32:01Z</time>
      </trkpt>
      <trkpt lat="45.49468" lon="5.98981">
        <ele>298.1</ele>
        <time>2013-10-03T14:32:02Z</time>
      </trkpt>
      <trkpt lat="45.49464" lon="5.98974">
        <ele>298.1</ele>
        <time>2013-10-03T14:32:03Z</time>
      </trkpt>
      <trkpt lat="45.4946" lon="5.98968">
        <ele>298.2</ele>
        <time>2013-10-03T14:32:04Z</time>
      </trkpt>
      <trkpt lat="45.49456" lon="5.98962">
        <ele>298.1</ele>
        <time>2013-10-03T14:32:05Z</time>
      </trkpt>
      <trkpt lat="45.49452" lon="5.98956">
        <ele>297.9</ele>
        <time>2013-10-03T14:32:06Z</time>
      </trkpt>
      <trkpt lat="45.49447" lon="5.9895">
        <ele>297.8</ele>
        <time>2013-10-03T14:32:07Z</time>
      </trkpt>
      <trkpt lat="45.49443" lon="5.98943">
        <ele>297.7</ele>
        <time>2013-10-03T14:32:08Z</time>
      </trkpt>
      <trkpt lat="45.49438" lon="5.98937">
        <ele>297.7</ele>
        <time>2013-10-03T14:32:09Z</time>
      </trkpt>
      <trkpt lat="45.49434" lon="5.9893">
        <ele>297.5</ele>
        <time>2013-10-03T14:32:10Z</time>
      </trkpt>
      <trkpt lat="45.49429" lon="5.98924">
        <ele>297.3</ele>
        <time>2013-10-03T14:32:11Z</time>
      </trkpt>
      <trkpt lat="45.49424" lon="5.98917">
        <ele>297.3</ele>
        <time>2013-10-03T14:32:12Z</time>
      </trkpt>
      <trkpt lat="45.4942" lon="5.9891">
        <ele>297.3</ele>
        <time>2013-10-03T14:32:13Z</time>
      </trkpt>
      <trkpt lat="45.49415" lon="5.98903">
        <ele>297.3</ele>
        <time>2013-10-03T14:32:14Z</time>
      </trkpt>
      <trkpt lat="45.4941" lon="5.98896">
        <ele>297.2</ele>
        <time>2013-10-03T14:32:15Z</time>
      </trkpt>
      <trkpt lat="45.49406" lon="5.98889">
        <ele>297</ele>
        <time>2013-10-03T14:32:16Z</time>
      </trkpt>
      <trkpt lat="45.49401" lon="5.98882">
        <ele>297.2</ele>
        <time>2013-10-03T14:32:17Z</time>
      </trkpt>
      <trkpt lat="45.49396" lon="5.98875">
        <ele>297.2</ele>
        <time>2013-10-03T14:32:18Z</time>
      </trkpt>
      <trkpt lat="45.49392" lon="5.98868">
        <ele>297.1</ele>
        <time>2013-10-03T14:32:19Z</time>
      </trkpt>
      <trkpt lat="45.49387" lon="5.98861">
        <ele>297</ele>
        <time>2013-10-03T14:32:20Z</time>
      </trkpt>
      <trkpt lat="45.49383" lon="5.98855">
        <ele>297.1</ele>
        <time>2013-10-03T14:32:21Z</time>
      </trkpt>
      <trkpt lat="45.49378" lon="5.98848">
        <ele>297.1</ele>
        <time>2013-10-03T14:32:22Z</time>
      </trkpt>
      <trkpt lat="45.49373" lon="5.98841">
        <ele>297</ele>
        <time>2013-10-03T14:32:23Z</time>
      </trkpt>
      <trkpt lat="45.49368" lon="5.98835">
        <ele>296.8</ele>
        <time>2013-10-03T14:32:24Z</time>
      </trkpt>
      <trkpt lat="45.49364" lon="5.98828">
        <ele>296.9</ele>
        <time>2013-10-03T14:32:25Z</time>
      </trkpt>
      <trkpt lat="45.49359" lon="5.98822">
        <ele>297</ele>
        <time>2013-10-03T14:32:26Z</time>
      </trkpt>
      <trkpt lat="45.49354" lon="5.98815">
        <ele>296.9</ele>
        <time>2013-10-03T14:32:27Z</time>
      </trkpt>
      <trkpt lat="45.49349" lon="5.98809">
        <ele>296.9</ele>
        <time>2013-10-03T14:32:28Z</time>
      </trkpt>
      <trkpt lat="45.49345" lon="5.98802">
        <ele>296.9</ele>
        <time>2013-10-03T14:32:29Z</time>
      </trkpt>
      <trkpt lat="45.4934" lon="5.98796">
        <ele>296.8</ele>
        <time>2013-10-03T14:32:30Z</time>
      </trkpt>
      <trkpt lat="45.49336" lon="5.9879">
        <ele>296.7</ele>
        <time>2013-10-03T14:32:31Z</time>
      </trkpt>
      <trkpt lat="45.49331" lon="5.98784">
        <ele>296.8</ele>
        <time>2013-10-03T14:32:32Z</time>
      </trkpt>
      <trkpt lat="45.49327" lon="5.98778">
        <ele>296.8</ele>
        <time>2013-10-03T14:32:33Z</time>
      </trkpt>
      <trkpt lat="45.49322" lon="5.98772">
        <ele>296.7</ele>
        <time>2013-10-03T14:32:34Z</time>
      </trkpt>
      <trkpt lat="45.49318" lon="5.98766">
        <ele>296.8</ele>
        <time>2013-10-03T14:32:35Z</time>
      </trkpt>
      <trkpt lat="45.49313" lon="5.9876">
        <ele>296.9</ele>
        <time>2013-10-03T14:32:36Z</time>
      </trkpt>
      <trkpt lat="45.49309" lon="5.98753">
        <ele>297</ele>
        <time>2013-10-03T14:32:37Z</time>
      </trkpt>
      <trkpt lat="45.49305" lon="5.98747">
        <ele>297.1</ele>
        <time>2013-10-03T14:32:38Z</time>
      </trkpt>
      <trkpt lat="45.49301" lon="5.9874">
        <ele>297.1</ele>
        <time>2013-10-03T14:32:39Z</time>
      </trkpt>
      <trkpt lat="45.49297" lon="5.98735">
        <ele>297.2</ele>
        <time>2013-10-03T14:32:40Z</time>
      </trkpt>
      <trkpt lat="45.49293" lon="5.98729">
        <ele>297.3</ele>
        <time>2013-10-03T14:32:41Z</time>
      </trkpt>
      <trkpt lat="45.49289" lon="5.98723">
        <ele>297.5</ele>
        <time>2013-10-03T14:32:42Z</time>
      </trkpt>
      <trkpt lat="45.49285" lon="5.98717">
        <ele>297.9</ele>
        <time>2013-10-03T14:32:43Z</time>
      </trkpt>
      <trkpt lat="45.49281" lon="5.98711">
        <ele>298.2</ele>
        <time>2013-10-03T14:32:44Z</time>
      </trkpt>
      <trkpt lat="45.49277" lon="5.98706">
        <ele>298.4</ele>
        <time>2013-10-03T14:32:45Z</time>
      </trkpt>
      <trkpt lat="45.49273" lon="5.98701">
        <ele>298.3</ele>
        <time>2013-10-03T14:32:46Z</time>
      </trkpt>
      <trkpt lat="45.49269" lon="5.98695">
        <ele>298.5</ele>
        <time>2013-10-03T14:32:47Z</time>
      </trkpt>
      <trkpt lat="45.49265" lon="5.9869">
        <ele>298.6</ele>
        <time>2013-10-03T14:32:48Z</time>
      </trkpt>
      <trkpt lat="45.49261" lon="5.98684">
        <ele>298.7</ele>
        <time>2013-10-03T14:32:49Z</time>
      </trkpt>
      <trkpt lat="45.49258" lon="5.98678">
        <ele>298.9</ele>
        <time>2013-10-03T14:32:50Z</time>
      </trkpt>
      <trkpt lat="45.49253" lon="5.98673">
        <ele>299</ele>
        <time>2013-10-03T14:32:51Z</time>
      </trkpt>
      <trkpt lat="45.4925" lon="5.98667">
        <ele>299.2</ele>
        <time>2013-10-03T14:32:52Z</time>
      </trkpt>
      <trkpt lat="45.49246" lon="5.9866">
        <ele>299.3</ele>
        <time>2013-10-03T14:32:53Z</time>
      </trkpt>
      <trkpt lat="45.49241" lon="5.98654">
        <ele>299.4</ele>
        <time>2013-10-03T14:32:54Z</time>
      </trkpt>
      <trkpt lat="45.49237" lon="5.98648">
        <ele>299.4</ele>
        <time>2013-10-03T14:32:55Z</time>
      </trkpt>
      <trkpt lat="45.49233" lon="5.98642">
        <ele>299.3</ele>
        <time>2013-10-03T14:32:56Z</time>
      </trkpt>
      <trkpt lat="45.49228" lon="5.98636">
        <ele>299</ele>
        <time>2013-10-03T14:32:57Z</time>
      </trkpt>
      <trkpt lat="45.49223" lon="5.9863">
        <ele>299.1</ele>
        <time>2013-10-03T14:32:58Z</time>
      </trkpt>
      <trkpt lat="45.49219" lon="5.98624">
        <ele>299.1</ele>
        <time>2013-10-03T14:32:59Z</time>
      </trkpt>
      <trkpt lat="45.49214" lon="5.98617">
        <ele>298.9</ele>
        <time>2013-10-03T14:33:00Z</time>
      </trkpt>
      <trkpt lat="45.4921" lon="5.98611">
        <ele>298.8</ele>
        <time>2013-10-03T14:33:01Z</time>
      </trkpt>
      <trkpt lat="45.49206" lon="5.98604">
        <ele>299</ele>
        <time>2013-10-03T14:33:02Z</time>
      </trkpt>
      <trkpt lat="45.49202" lon="5.98598">
        <ele>298.7</ele>
        <time>2013-10-03T14:33:03Z</time>
      </trkpt>
      <trkpt lat="45.49198" lon="5.98592">
        <ele>298.8</ele>
        <time>2013-10-03T14:33:04Z</time>
      </trkpt>
      <trkpt lat="45.49194" lon="5.98587">
        <ele>298.9</ele>
        <time>2013-10-03T14:33:05Z</time>
      </trkpt>
      <trkpt lat="45.49191" lon="5.98581">
        <ele>298.9</ele>
        <time>2013-10-03T14:33:06Z</time>
      </trkpt>
      <trkpt lat="45.49187" lon="5.98576">
        <ele>299</ele>
        <time>2013-10-03T14:33:07Z</time>
      </trkpt>
      <trkpt lat="45.49184" lon="5.98571">
        <ele>299</ele>
        <time>2013-10-03T14:33:08Z</time>
      </trkpt>
      <trkpt lat="45.49181" lon="5.98565">
        <ele>299.2</ele>
        <time>2013-10-03T14:33:09Z</time>
      </trkpt>
      <trkpt lat="45.49178" lon="5.9856">
        <ele>299.2</ele>
        <time>2013-10-03T14:33:10Z</time>
      </trkpt>
      <trkpt lat="45.49175" lon="5.98554">
        <ele>299.6</ele>
        <time>2013-10-03T14:33:11Z</time>
      </trkpt>
      <trkpt lat="45.49172" lon="5.98548">
        <ele>299.9</ele>
        <time>2013-10-03T14:33:12Z</time>
      </trkpt>
      <trkpt lat="45.49169" lon="5.98542">
        <ele>300.2</ele>
        <time>2013-10-03T14:33:13Z</time>
      </trkpt>
      <trkpt lat="45.49166" lon="5.98536">
        <ele>300.5</ele>
        <time>2013-10-03T14:33:14Z</time>
      </trkpt>
      <trkpt lat="45.49164" lon="5.9853">
        <ele>300.6</ele>
        <time>2013-10-03T14:33:15Z</time>
      </trkpt>
      <trkpt lat="45.49162" lon="5.98523">
        <ele>301</ele>
        <time>2013-10-03T14:33:16Z</time>
      </trkpt>
      <trkpt lat="45.4916" lon="5.98516">
        <ele>301.1</ele>
        <time>2013-10-03T14:33:17Z</time>
      </trkpt>
      <trkpt lat="45.49158" lon="5.98509">
        <ele>301.3</ele>
        <time>2013-10-03T14:33:18Z</time>
      </trkpt>
      <trkpt lat="45.49157" lon="5.98502">
        <ele>301.5</ele>
        <time>2013-10-03T14:33:19Z</time>
      </trkpt>
      <trkpt lat="45.49156" lon="5.98494">
        <ele>301.8</ele>
        <time>2013-10-03T14:33:20Z</time>
      </trkpt>
      <trkpt lat="45.49155" lon="5.98487">
        <ele>301.6</ele>
        <time>2013-10-03T14:33:21Z</time>
      </trkpt>
      <trkpt lat="45.49154" lon="5.98479">
        <ele>301.7</ele>
        <time>2013-10-03T14:33:22Z</time>
      </trkpt>
      <trkpt lat="45.49153" lon="5.98472">
        <ele>301.7</ele>
        <time>2013-10-03T14:33:23Z</time>
      </trkpt>
      <trkpt lat="45.49152" lon="5.98464">
        <ele>301.6</ele>
        <time>2013-10-03T14:33:24Z</time>
      </trkpt>
      <trkpt lat="45.49152" lon="5.98457">
        <ele>301.9</ele>
        <time>2013-10-03T14:33:25Z</time>
      </trkpt>
      <trkpt lat="45.49151" lon="5.98449">
        <ele>302.2</ele>
        <time>2013-10-03T14:33:26Z</time>
      </trkpt>
      <trkpt lat="45.49151" lon="5.98442">
        <ele>301.9</ele>
        <time>2013-10-03T14:33:27Z</time>
      </trkpt>
      <trkpt lat="45.4915" lon="5.98435">
        <ele>302.3</ele>
        <time>2013-10-03T14:33:28Z</time>
      </trkpt>
      <trkpt lat="45.4915" lon="5.98427">
        <ele>302.6</ele>
        <time>2013-10-03T14:33:29Z</time>
      </trkpt>
      <trkpt lat="45.49149" lon="5.9842">
        <ele>302.7</ele>
        <time>2013-10-03T14:33:30Z</time>
      </trkpt>
      <trkpt lat="45.49149" lon="5.98413">
        <ele>303</ele>
        <time>2013-10-03T14:33:31Z</time>
      </trkpt>
      <trkpt lat="45.49149" lon="5.98405">
        <ele>303.1</ele>
        <time>2013-10-03T14:33:32Z</time>
      </trkpt>
      <trkpt lat="45.4915" lon="5.98398">
        <ele>303</ele>
        <time>2013-10-03T14:33:33Z</time>
      </trkpt>
      <trkpt lat="45.4915" lon="5.98391">
        <ele>303</ele>
        <time>2013-10-03T14:33:34Z</time>
      </trkpt>
      <trkpt lat="45.49149" lon="5.98384">
        <ele>302.9</ele>
        <time>2013-10-03T14:33:35Z</time>
      </trkpt>
      <trkpt lat="45.49148" lon="5.98378">
        <ele>302.7</ele>
        <time>2013-10-03T14:33:36Z</time>
      </trkpt>
      <trkpt lat="45.49145" lon="5.98373">
        <ele>302.8</ele>
        <time>2013-10-03T14:33:37Z</time>
      </trkpt>
      <trkpt lat="45.49141" lon="5.98369">
        <ele>302.9</ele>
        <time>2013-10-03T14:33:38Z</time>
      </trkpt>
      <trkpt lat="45.49137" lon="5.98367">
        <ele>303</ele>
        <time>2013-10-03T14:33:39Z</time>
      </trkpt>
      <trkpt lat="45.49132" lon="5.98366">
        <ele>303</ele>
        <time>2013-10-03T14:33:40Z</time>
      </trkpt>
      <trkpt lat="45.49127" lon="5.98368">
        <ele>303.1</ele>
        <time>2013-10-03T14:33:41Z</time>
      </trkpt>
      <trkpt lat="45.49123" lon="5.98371">
        <ele>302.8</ele>
        <time>2013-10-03T14:33:42Z</time>
      </trkpt>
      <trkpt lat="45.49119" lon="5.98375">
        <ele>302.5</ele>
        <time>2013-10-03T14:33:43Z</time>
      </trkpt>
      <trkpt lat="45.49115" lon="5.98381">
        <ele>302.6</ele>
        <time>2013-10-03T14:33:44Z</time>
      </trkpt>
      <trkpt lat="45.49111" lon="5.98386">
        <ele>302.4</ele>
        <time>2013-10-03T14:33:45Z</time>
      </trkpt>
      <trkpt lat="45.49107" lon="5.98393">
        <ele>302.3</ele>
        <time>2013-10-03T14:33:46Z</time>
      </trkpt>
      <trkpt lat="45.49102" lon="5.98399">
        <ele>301.9</ele>
        <time>2013-10-03T14:33:47Z</time>
      </trkpt>
      <trkpt lat="45.49096" lon="5.98406">
        <ele>301.3</ele>
        <time>2013-10-03T14:33:48Z</time>
      </trkpt>
      <trkpt lat="45.49089" lon="5.98411">
        <ele>301.1</ele>
        <time>2013-10-03T14:33:49Z</time>
      </trkpt>
      <trkpt lat="45.49081" lon="5.98414">
        <ele>300.3</ele>
        <time>2013-10-03T14:33:50Z</time>
      </trkpt>
      <trkpt lat="45.49072" lon="5.98418">
        <ele>299.8</ele>
        <time>2013-10-03T14:33:51Z</time>
      </trkpt>
      <trkpt lat="45.49063" lon="5.98423">
        <ele>299.1</ele>
        <time>2013-10-03T14:33:52Z</time>
      </trkpt>
      <trkpt lat="45.49053" lon="5.98428">
        <ele>298.6</ele>
        <time>2013-10-03T14:33:53Z</time>
      </trkpt>
      <trkpt lat="45.49044" lon="5.98436">
        <ele>298.1</ele>
        <time>2013-10-03T14:33:54Z</time>
      </trkpt>
      <trkpt lat="45.49035" lon="5.98444">
        <ele>297.4</ele>
        <time>2013-10-03T14:33:55Z</time>
      </trkpt>
      <trkpt lat="45.49025" lon="5.98453">
        <ele>296.6</ele>
        <time>2013-10-03T14:33:56Z</time>
      </trkpt>
      <trkpt lat="45.49015" lon="5.98462">
        <ele>295.4</ele>
        <time>2013-10-03T14:33:57Z</time>
      </trkpt>
      <trkpt lat="45.49006" lon="5.98473">
        <ele>294.4</ele>
        <time>2013-10-03T14:33:58Z</time>
      </trkpt>
      <trkpt lat="45.48997" lon="5.98483">
        <ele>293.4</ele>
        <time>2013-10-03T14:33:59Z</time>
      </trkpt>
      <trkpt lat="45.48988" lon="5.98493">
        <ele>292.2</ele>
        <time>2013-10-03T14:34:00Z</time>
      </trkpt>
      <trkpt lat="45.48979" lon="5.98499">
        <ele>291.5</ele>
        <time>2013-10-03T14:34:01Z</time>
      </trkpt>
      <trkpt lat="45.48969" lon="5.98501">
        <ele>290.9</ele>
        <time>2013-10-03T14:34:02Z</time>
      </trkpt>
      <trkpt lat="45.48959" lon="5.985">
        <ele>290.3</ele>
        <time>2013-10-03T14:34:03Z</time>
      </trkpt>
      <trkpt lat="45.4895" lon="5.98497">
        <ele>289.5</ele>
        <time>2013-10-03T14:34:04Z</time>
      </trkpt>
      <trkpt lat="45.4894" lon="5.98494">
        <ele>288.9</ele>
        <time>2013-10-03T14:34:05Z</time>
      </trkpt>
      <trkpt lat="45.48931" lon="5.98491">
        <ele>288.6</ele>
        <time>2013-10-03T14:34:06Z</time>
      </trkpt>
      <trkpt lat="45.48921" lon="5.98491">
        <ele>288.2</ele>
        <time>2013-10-03T14:34:07Z</time>
      </trkpt>
      <trkpt lat="45.48912" lon="5.98491">
        <ele>288</ele>
        <time>2013-10-03T14:34:08Z</time>
      </trkpt>
      <trkpt lat="45.48903" lon="5.98491">
        <ele>287.7</ele>
        <time>2013-10-03T14:34:09Z</time>
      </trkpt>
      <trkpt lat="45.48894" lon="5.98491">
        <ele>287.7</ele>
        <time>2013-10-03T14:34:10Z</time>
      </trkpt>
      <trkpt lat="45.48885" lon="5.98489">
        <ele>287.3</ele>
        <time>2013-10-03T14:34:11Z</time>
      </trkpt>
      <trkpt lat="45.48876" lon="5.98484">
        <ele>287</ele>
        <time>2013-10-03T14:34:12Z</time>
      </trkpt>
      <trkpt lat="45.48869" lon="5.98478">
        <ele>286.8</ele>
        <time>2013-10-03T14:34:13Z</time>
      </trkpt>
      <trkpt lat="45.48862" lon="5.98472">
        <ele>286.6</ele>
        <time>2013-10-03T14:34:14Z</time>
      </trkpt>
      <trkpt lat="45.48855" lon="5.98466">
        <ele>286.5</ele>
        <time>2013-10-03T14:34:15Z</time>
      </trkpt>
      <trkpt lat="45.48848" lon="5.98462">
        <ele>286.4</ele>
        <time>2013-10-03T14:34:16Z</time>
      </trkpt>
      <trkpt lat="45.4884" lon="5.9846">
        <ele>286.9</ele>
        <time>2013-10-03T14:34:17Z</time>
      </trkpt>
      <trkpt lat="45.48833" lon="5.98458">
        <ele>286.8</ele>
        <time>2013-10-03T14:34:18Z</time>
      </trkpt>
      <trkpt lat="45.48826" lon="5.98458">
        <ele>287</ele>
        <time>2013-10-03T14:34:19Z</time>
      </trkpt>
      <trkpt lat="45.48819" lon="5.98457">
        <ele>287.2</ele>
        <time>2013-10-03T14:34:20Z</time>
      </trkpt>
      <trkpt lat="45.48812" lon="5.98457">
        <ele>287.1</ele>
        <time>2013-10-03T14:34:21Z</time>
      </trkpt>
      <trkpt lat="45.48805" lon="5.98458">
        <ele>287.1</ele>
        <time>2013-10-03T14:34:22Z</time>
      </trkpt>
      <trkpt lat="45.48798" lon="5.9846">
        <ele>287.4</ele>
        <time>2013-10-03T14:34:23Z</time>
      </trkpt>
      <trkpt lat="45.48791" lon="5.98462">
        <ele>287.4</ele>
        <time>2013-10-03T14:34:24Z</time>
      </trkpt>
      <trkpt lat="45.48784" lon="5.98462">
        <ele>287.6</ele>
        <time>2013-10-03T14:34:25Z</time>
      </trkpt>
      <trkpt lat="45.48776" lon="5.98462">
        <ele>287.5</ele>
        <time>2013-10-03T14:34:26Z</time>
      </trkpt>
      <trkpt lat="45.48768" lon="5.98459">
        <ele>287.3</ele>
        <time>2013-10-03T14:34:27Z</time>
      </trkpt>
      <trkpt lat="45.48761" lon="5.98455">
        <ele>287.4</ele>
        <time>2013-10-03T14:34:28Z</time>
      </trkpt>
      <trkpt lat="45.48753" lon="5.98451">
        <ele>287</ele>
        <time>2013-10-03T14:34:29Z</time>
      </trkpt>
      <trkpt lat="45.48745" lon="5.98448">
        <ele>287</ele>
        <time>2013-10-03T14:34:30Z</time>
      </trkpt>
      <trkpt lat="45.48738" lon="5.98445">
        <ele>286.7</ele>
        <time>2013-10-03T14:34:31Z</time>
      </trkpt>
      <trkpt lat="45.4873" lon="5.98443">
        <ele>286.6</ele>
        <time>2013-10-03T14:34:32Z</time>
      </trkpt>
      <trkpt lat="45.48723" lon="5.9844">
        <ele>286.4</ele>
        <time>2013-10-03T14:34:33Z</time>
      </trkpt>
      <trkpt lat="45.48717" lon="5.98436">
        <ele>286.1</ele>
        <time>2013-10-03T14:34:34Z</time>
      </trkpt>
      <trkpt lat="45.48711" lon="5.98429">
        <ele>285.7</ele>
        <time>2013-10-03T14:34:35Z</time>
      </trkpt>
      <trkpt lat="45.48705" lon="5.98422">
        <ele>285.9</ele>
        <time>2013-10-03T14:34:36Z</time>
      </trkpt>
      <trkpt lat="45.487" lon="5.98414">
        <ele>285.6</ele>
        <time>2013-10-03T14:34:37Z</time>
      </trkpt>
      <trkpt lat="45.48694" lon="5.98406">
        <ele>285.4</ele>
        <time>2013-10-03T14:34:38Z</time>
      </trkpt>
      <trkpt lat="45.48688" lon="5.98397">
        <ele>285.3</ele>
        <time>2013-10-03T14:34:39Z</time>
      </trkpt>
      <trkpt lat="45.48682" lon="5.98389">
        <ele>285.4</ele>
        <time>2013-10-03T14:34:40Z</time>
      </trkpt>
      <trkpt lat="45.48676" lon="5.98381">
        <ele>284.9</ele>
        <time>2013-10-03T14:34:41Z</time>
      </trkpt>
      <trkpt lat="45.4867" lon="5.98373">
        <ele>284.5</ele>
        <time>2013-10-03T14:34:42Z</time>
      </trkpt>
      <trkpt lat="45.48664" lon="5.98365">
        <ele>284.2</ele>
        <time>2013-10-03T14:34:43Z</time>
      </trkpt>
      <trkpt lat="45.48657" lon="5.98358">
        <ele>284</ele>
        <time>2013-10-03T14:34:44Z</time>
      </trkpt>
      <trkpt lat="45.48651" lon="5.98352">
        <ele>283.8</ele>
        <time>2013-10-03T14:34:45Z</time>
      </trkpt>
      <trkpt lat="45.48644" lon="5.98346">
        <ele>283.7</ele>
        <time>2013-10-03T14:34:46Z</time>
      </trkpt>
      <trkpt lat="45.48636" lon="5.98341">
        <ele>283.4</ele>
        <time>2013-10-03T14:34:47Z</time>
      </trkpt>
      <trkpt lat="45.48628" lon="5.98336">
        <ele>283</ele>
        <time>2013-10-03T14:34:48Z</time>
      </trkpt>
      <trkpt lat="45.48619" lon="5.98334">
        <ele>282.4</ele>
        <time>2013-10-03T14:34:49Z</time>
      </trkpt>
      <trkpt lat="45.4861" lon="5.98333">
        <ele>281.7</ele>
        <time>2013-10-03T14:34:50Z</time>
      </trkpt>
      <trkpt lat="45.48601" lon="5.98332">
        <ele>281.4</ele>
        <time>2013-10-03T14:34:51Z</time>
      </trkpt>
      <trkpt lat="45.48592" lon="5.98329">
        <ele>281.2</ele>
        <time>2013-10-03T14:34:52Z</time>
      </trkpt>
      <trkpt lat="45.48583" lon="5.98326">
        <ele>281</ele>
        <time>2013-10-03T14:34:53Z</time>
      </trkpt>
      <trkpt lat="45.48575" lon="5.9832">
        <ele>280.7</ele>
        <time>2013-10-03T14:34:54Z</time>
      </trkpt>
      <trkpt lat="45.48568" lon="5.98312">
        <ele>280.9</ele>
        <time>2013-10-03T14:34:55Z</time>
      </trkpt>
      <trkpt lat="45.48561" lon="5.98304">
        <ele>280.7</ele>
        <time>2013-10-03T14:34:56Z</time>
      </trkpt>
      <trkpt lat="45.48556" lon="5.98295">
        <ele>280.4</ele>
        <time>2013-10-03T14:34:57Z</time>
      </trkpt>
      <trkpt lat="45.4855" lon="5.98285">
        <ele>280</ele>
        <time>2013-10-03T14:34:58Z</time>
      </trkpt>
      <trkpt lat="45.48545" lon="5.98276">
        <ele>279.3</ele>
        <time>2013-10-03T14:34:59Z</time>
      </trkpt>
      <trkpt lat="45.4854" lon="5.98267">
        <ele>279.4</ele>
        <time>2013-10-03T14:35:00Z</time>
      </trkpt>
      <trkpt lat="45.48534" lon="5.98259">
        <ele>279.6</ele>
        <time>2013-10-03T14:35:01Z</time>
      </trkpt>
      <trkpt lat="45.48528" lon="5.98251">
        <ele>279.3</ele>
        <time>2013-10-03T14:35:02Z</time>
      </trkpt>
      <trkpt lat="45.48521" lon="5.98245">
        <ele>279.3</ele>
        <time>2013-10-03T14:35:03Z</time>
      </trkpt>
      <trkpt lat="45.48514" lon="5.9824">
        <ele>279.3</ele>
        <time>2013-10-03T14:35:04Z</time>
      </trkpt>
      <trkpt lat="45.48507" lon="5.98236">
        <ele>278.8</ele>
        <time>2013-10-03T14:35:05Z</time>
      </trkpt>
      <trkpt lat="45.48498" lon="5.98234">
        <ele>278.3</ele>
        <time>2013-10-03T14:35:06Z</time>
      </trkpt>
      <trkpt lat="45.4849" lon="5.98234">
        <ele>277.9</ele>
        <time>2013-10-03T14:35:07Z</time>
      </trkpt>
      <trkpt lat="45.48482" lon="5.98235">
        <ele>277.5</ele>
        <time>2013-10-03T14:35:08Z</time>
      </trkpt>
      <trkpt lat="45.48474" lon="5.98237">
        <ele>277.6</ele>
        <time>2013-10-03T14:35:09Z</time>
      </trkpt>
      <trkpt lat="45.48465" lon="5.9824">
        <ele>277.3</ele>
        <time>2013-10-03T14:35:10Z</time>
      </trkpt>
      <trkpt lat="45.48457" lon="5.98243">
        <ele>277.1</ele>
        <time>2013-10-03T14:35:11Z</time>
      </trkpt>
      <trkpt lat="45.48449" lon="5.98245">
        <ele>277.2</ele>
        <time>2013-10-03T14:35:12Z</time>
      </trkpt>
      <trkpt lat="45.48441" lon="5.98247">
        <ele>276.9</ele>
        <time>2013-10-03T14:35:13Z</time>
      </trkpt>
      <trkpt lat="45.48432" lon="5.9825">
        <ele>276.7</ele>
        <time>2013-10-03T14:35:14Z</time>
      </trkpt>
      <trkpt lat="45.48424" lon="5.98252">
        <ele>276.7</ele>
        <time>2013-10-03T14:35:15Z</time>
      </trkpt>
      <trkpt lat="45.48416" lon="5.98255">
        <ele>276.6</ele>
        <time>2013-10-03T14:35:16Z</time>
      </trkpt>
      <trkpt lat="45.48408" lon="5.98257">
        <ele>276.3</ele>
        <time>2013-10-03T14:35:17Z</time>
      </trkpt>
      <trkpt lat="45.48399" lon="5.98259">
        <ele>275.9</ele>
        <time>2013-10-03T14:35:18Z</time>
      </trkpt>
      <trkpt lat="45.48391" lon="5.9826">
        <ele>275.7</ele>
        <time>2013-10-03T14:35:19Z</time>
      </trkpt>
      <trkpt lat="45.48382" lon="5.98262">
        <ele>275.5</ele>
        <time>2013-10-03T14:35:20Z</time>
      </trkpt>
      <trkpt lat="45.48373" lon="5.98264">
        <ele>275.3</ele>
        <time>2013-10-03T14:35:21Z</time>
      </trkpt>
      <trkpt lat="45.48364" lon="5.98266">
        <ele>275.2</ele>
        <time>2013-10-03T14:35:22Z</time>
      </trkpt>
      <trkpt lat="45.48355" lon="5.98268">
        <ele>275</ele>
        <time>2013-10-03T14:35:23Z</time>
      </trkpt>
      <trkpt lat="45.48346" lon="5.98269">
        <ele>274.2</ele>
        <time>2013-10-03T14:35:24Z</time>
      </trkpt>
      <trkpt lat="45.48337" lon="5.98271">
        <ele>274.1</ele>
        <time>2013-10-03T14:35:25Z</time>
      </trkpt>
      <trkpt lat="45.48328" lon="5.98273">
        <ele>273.7</ele>
        <time>2013-10-03T14:35:26Z</time>
      </trkpt>
      <trkpt lat="45.48318" lon="5.98274">
        <ele>273.2</ele>
        <time>2013-10-03T14:35:27Z</time>
      </trkpt>
      <trkpt lat="45.48309" lon="5.98276">
        <ele>272.8</ele>
        <time>2013-10-03T14:35:28Z</time>
      </trkpt>
      <trkpt lat="45.483" lon="5.98278">
        <ele>272.4</ele>
        <time>2013-10-03T14:35:29Z</time>
      </trkpt>
      <trkpt lat="45.4829" lon="5.98279">
        <ele>272.1</ele>
        <time>2013-10-03T14:35:30Z</time>
      </trkpt>
      <trkpt lat="45.48281" lon="5.9828">
        <ele>272.1</ele>
        <time>2013-10-03T14:35:31Z</time>
      </trkpt>
      <trkpt lat="45.48272" lon="5.98279">
        <ele>272.2</ele>
        <time>2013-10-03T14:35:32Z</time>
      </trkpt>
      <trkpt lat="45.48263" lon="5.98277">
        <ele>271.8</ele>
        <time>2013-10-03T14:35:33Z</time>
      </trkpt>
      <trkpt lat="45.48254" lon="5.98275">
        <ele>271.6</ele>
        <time>2013-10-03T14:35:34Z</time>
      </trkpt>
      <trkpt lat="45.48246" lon="5.98271">
        <ele>270.9</ele>
        <time>2013-10-03T14:35:35Z</time>
      </trkpt>
      <trkpt lat="45.48238" lon="5.98268">
        <ele>270.8</ele>
        <time>2013-10-03T14:35:36Z</time>
      </trkpt>
      <trkpt lat="45.4823" lon="5.98265">
        <ele>271</ele>
        <time>2013-10-03T14:35:37Z</time>
      </trkpt>
      <trkpt lat="45.48222" lon="5.98262">
        <ele>271</ele>
        <time>2013-10-03T14:35:38Z</time>
      </trkpt>
      <trkpt lat="45.48215" lon="5.98258">
        <ele>271.2</ele>
        <time>2013-10-03T14:35:39Z</time>
      </trkpt>
      <trkpt lat="45.48207" lon="5.98254">
        <ele>271.1</ele>
        <time>2013-10-03T14:35:40Z</time>
      </trkpt>
      <trkpt lat="45.482" lon="5.9825">
        <ele>271</ele>
        <time>2013-10-03T14:35:41Z</time>
      </trkpt>
      <trkpt lat="45.48193" lon="5.98246">
        <ele>270.7</ele>
        <time>2013-10-03T14:35:42Z</time>
      </trkpt>
      <trkpt lat="45.48186" lon="5.98241">
        <ele>270.7</ele>
        <time>2013-10-03T14:35:43Z</time>
      </trkpt>
      <trkpt lat="45.48179" lon="5.98235">
        <ele>270.1</ele>
        <time>2013-10-03T14:35:44Z</time>
      </trkpt>
      <trkpt lat="45.48172" lon="5.98229">
        <ele>269.6</ele>
        <time>2013-10-03T14:35:45Z</time>
      </trkpt>
      <trkpt lat="45.48166" lon="5.98222">
        <ele>269.7</ele>
        <time>2013-10-03T14:35:46Z</time>
      </trkpt>
      <trkpt lat="45.4816" lon="5.98215">
        <ele>269.6</ele>
        <time>2013-10-03T14:35:47Z</time>
      </trkpt>
      <trkpt lat="45.48154" lon="5.98208">
        <ele>269.2</ele>
        <time>2013-10-03T14:35:48Z</time>
      </trkpt>
      <trkpt lat="45.48149" lon="5.98201">
        <ele>269.3</ele>
        <time>2013-10-03T14:35:49Z</time>
      </trkpt>
      <trkpt lat="45.48143" lon="5.98195">
        <ele>269.2</ele>
        <time>2013-10-03T14:35:50Z</time>
      </trkpt>
      <trkpt lat="45.48136" lon="5.9819">
        <ele>269.3</ele>
        <time>2013-10-03T14:35:51Z</time>
      </trkpt>
      <trkpt lat="45.4813" lon="5.98186">
        <ele>269.6</ele>
        <time>2013-10-03T14:35:52Z</time>
      </trkpt>
      <trkpt lat="45.48123" lon="5.98184">
        <ele>269.7</ele>
        <time>2013-10-03T14:35:53Z</time>
      </trkpt>
      <trkpt lat="45.48116" lon="5.98181">
        <ele>269.7</ele>
        <time>2013-10-03T14:35:54Z</time>
      </trkpt>
      <trkpt lat="45.48109" lon="5.98179">
        <ele>269.9</ele>
        <time>2013-10-03T14:35:55Z</time>
      </trkpt>
      <trkpt lat="45.48102" lon="5.98177">
        <ele>270</ele>
        <time>2013-10-03T14:35:56Z</time>
      </trkpt>
      <trkpt lat="45.48095" lon="5.98176">
        <ele>269.9</ele>
        <time>2013-10-03T14:35:57Z</time>
      </trkpt>
      <trkpt lat="45.48088" lon="5.98176">
        <ele>269.6</ele>
        <time>2013-10-03T14:35:58Z</time>
      </trkpt>
      <trkpt lat="45.48081" lon="5.98176">
        <ele>269.8</ele>
        <time>2013-10-03T14:35:59Z</time>
      </trkpt>
      <trkpt lat="45.48073" lon="5.98176">
        <ele>270</ele>
        <time>2013-10-03T14:36:00Z</time>
      </trkpt>
      <trkpt lat="45.48066" lon="5.98177">
        <ele>270</ele>
        <time>2013-10-03T14:36:01Z</time>
      </trkpt>
      <trkpt lat="45.48059" lon="5.98177">
        <ele>269.8</ele>
        <time>2013-10-03T14:36:02Z</time>
      </trkpt>
      <trkpt lat="45.48052" lon="5.98179">
        <ele>269.9</ele>
        <time>2013-10-03T14:36:03Z</time>
      </trkpt>
      <trkpt lat="45.48045" lon="5.9818">
        <ele>270</ele>
        <time>2013-10-03T14:36:04Z</time>
      </trkpt>
      <trkpt lat="45.48037" lon="5.98181">
        <ele>270</ele>
        <time>2013-10-03T14:36:05Z</time>
      </trkpt>
      <trkpt lat="45.4803" lon="5.98183">
        <ele>269.9</ele>
        <time>2013-10-03T14:36:06Z</time>
      </trkpt>
      <trkpt lat="45.48023" lon="5.98184">
        <ele>269.8</ele>
        <time>2013-10-03T14:36:07Z</time>
      </trkpt>
      <trkpt lat="45.48016" lon="5.98185">
        <ele>270</ele>
        <time>2013-10-03T14:36:08Z</time>
      </trkpt>
      <trkpt lat="45.48009" lon="5.98187">
        <ele>270.1</ele>
        <time>2013-10-03T14:36:09Z</time>
      </trkpt>
      <trkpt lat="45.48002" lon="5.98188">
        <ele>269.8</ele>
        <time>2013-10-03T14:36:10Z</time>
      </trkpt>
      <trkpt lat="45.47996" lon="5.9819">
        <ele>269.9</ele>
        <time>2013-10-03T14:36:11Z</time>
      </trkpt>
      <trkpt lat="45.47988" lon="5.98191">
        <ele>270.2</ele>
        <time>2013-10-03T14:36:12Z</time>
      </trkpt>
      <trkpt lat="45.47982" lon="5.98193">
        <ele>270.2</ele>
        <time>2013-10-03T14:36:13Z</time>
      </trkpt>
      <trkpt lat="45.47975" lon="5.98194">
        <ele>270.2</ele>
        <time>2013-10-03T14:36:14Z</time>
      </trkpt>
      <trkpt lat="45.47968" lon="5.98194">
        <ele>270.2</ele>
        <time>2013-10-03T14:36:15Z</time>
      </trkpt>
      <trkpt lat="45.47961" lon="5.98193">
        <ele>270.4</ele>
        <time>2013-10-03T14:36:16Z</time>
      </trkpt>
      <trkpt lat="45.47954" lon="5.98192">
        <ele>270.2</ele>
        <time>2013-10-03T14:36:17Z</time>
      </trkpt>
      <trkpt lat="45.47947" lon="5.98191">
        <ele>270.7</ele>
        <time>2013-10-03T14:36:18Z</time>
      </trkpt>
      <trkpt lat="45.4794" lon="5.98188">
        <ele>270.3</ele>
        <time>2013-10-03T14:36:19Z</time>
      </trkpt>
      <trkpt lat="45.47933" lon="5.98186">
        <ele>270.1</ele>
        <time>2013-10-03T14:36:20Z</time>
      </trkpt>
      <trkpt lat="45.47926" lon="5.98182">
        <ele>269.9</ele>
        <time>2013-10-03T14:36:21Z</time>
      </trkpt>
      <trkpt lat="45.4792" lon="5.98177">
        <ele>269.6</ele>
        <time>2013-10-03T14:36:22Z</time>
      </trkpt>
      <trkpt lat="45.47913" lon="5.98173">
        <ele>269.5</ele>
        <time>2013-10-03T14:36:23Z</time>
      </trkpt>
      <trkpt lat="45.47906" lon="5.98169">
        <ele>269.4</ele>
        <time>2013-10-03T14:36:24Z</time>
      </trkpt>
      <trkpt lat="45.479" lon="5.98166">
        <ele>269.2</ele>
        <time>2013-10-03T14:36:25Z</time>
      </trkpt>
      <trkpt lat="45.47893" lon="5.98164">
        <ele>269.5</ele>
        <time>2013-10-03T14:36:26Z</time>
      </trkpt>
      <trkpt lat="45.47886" lon="5.98162">
        <ele>269.9</ele>
        <time>2013-10-03T14:36:27Z</time>
      </trkpt>
      <trkpt lat="45.47879" lon="5.98161">
        <ele>269.6</ele>
        <time>2013-10-03T14:36:28Z</time>
      </trkpt>
      <trkpt lat="45.47872" lon="5.98159">
        <ele>269.8</ele>
        <time>2013-10-03T14:36:29Z</time>
      </trkpt>
      <trkpt lat="45.47865" lon="5.98157">
        <ele>269.7</ele>
        <time>2013-10-03T14:36:30Z</time>
      </trkpt>
      <trkpt lat="45.47858" lon="5.98156">
        <ele>269.6</ele>
        <time>2013-10-03T14:36:31Z</time>
      </trkpt>
      <trkpt lat="45.47851" lon="5.98155">
        <ele>269.7</ele>
        <time>2013-10-03T14:36:32Z</time>
      </trkpt>
      <trkpt lat="45.47844" lon="5.98154">
        <ele>269.8</ele>
        <time>2013-10-03T14:36:33Z</time>
      </trkpt>
      <trkpt lat="45.47837" lon="5.98153">
        <ele>269.7</ele>
        <time>2013-10-03T14:36:34Z</time>
      </trkpt>
      <trkpt lat="45.4783" lon="5.98152">
        <ele>269.7</ele>
        <time>2013-10-03T14:36:35Z</time>
      </trkpt>
      <trkpt lat="45.47824" lon="5.98151">
        <ele>269.8</ele>
        <time>2013-10-03T14:36:36Z</time>
      </trkpt>
      <trkpt lat="45.47817" lon="5.9815">
        <ele>269.9</ele>
        <time>2013-10-03T14:36:37Z</time>
      </trkpt>
      <trkpt lat="45.4781" lon="5.98149">
        <ele>269.8</ele>
        <time>2013-10-03T14:36:38Z</time>
      </trkpt>
      <trkpt lat="45.47803" lon="5.98148">
        <ele>269.6</ele>
        <time>2013-10-03T14:36:39Z</time>
      </trkpt>
      <trkpt lat="45.47796" lon="5.98147">
        <ele>269.7</ele>
        <time>2013-10-03T14:36:40Z</time>
      </trkpt>
      <trkpt lat="45.4779" lon="5.98146">
        <ele>269.5</ele>
        <time>2013-10-03T14:36:41Z</time>
      </trkpt>
      <trkpt lat="45.47783" lon="5.98145">
        <ele>269.8</ele>
        <time>2013-10-03T14:36:42Z</time>
      </trkpt>
      <trkpt lat="45.47777" lon="5.98144">
        <ele>269.9</ele>
        <time>2013-10-03T14:36:43Z</time>
      </trkpt>
      <trkpt lat="45.4777" lon="5.98143">
        <ele>269.8</ele>
        <time>2013-10-03T14:36:44Z</time>
      </trkpt>
      <trkpt lat="45.47764" lon="5.98142">
        <ele>270</ele>
        <time>2013-10-03T14:36:45Z</time>
      </trkpt>
      <trkpt lat="45.47757" lon="5.98141">
        <ele>270.1</ele>
        <time>2013-10-03T14:36:46Z</time>
      </trkpt>
      <trkpt lat="45.47751" lon="5.98141">
        <ele>270.2</ele>
        <time>2013-10-03T14:36:47Z</time>
      </trkpt>
      <trkpt lat="45.47745" lon="5.98141">
        <ele>270.3</ele>
        <time>2013-10-03T14:36:48Z</time>
      </trkpt>
      <trkpt lat="45.47739" lon="5.98142">
        <ele>270.6</ele>
        <time>2013-10-03T14:36:49Z</time>
      </trkpt>
      <trkpt lat="45.47733" lon="5.98142">
        <ele>270.4</ele>
        <time>2013-10-03T14:36:50Z</time>
      </trkpt>
      <trkpt lat="45.47727" lon="5.98143">
        <ele>270.8</ele>
        <time>2013-10-03T14:36:51Z</time>
      </trkpt>
      <trkpt lat="45.47722" lon="5.98144">
        <ele>271.3</ele>
        <time>2013-10-03T14:36:52Z</time>
      </trkpt>
      <trkpt lat="45.47716" lon="5.98146">
        <ele>271.4</ele>
        <time>2013-10-03T14:36:53Z</time>
      </trkpt>
      <trkpt lat="45.4771" lon="5.98147">
        <ele>271.4</ele>
        <time>2013-10-03T14:36:54Z</time>
      </trkpt>
      <trkpt lat="45.47705" lon="5.98149">
        <ele>271.5</ele>
        <time>2013-10-03T14:36:55Z</time>
      </trkpt>
      <trkpt lat="45.477" lon="5.98151">
        <ele>271.7</ele>
        <time>2013-10-03T14:36:56Z</time>
      </trkpt>
      <trkpt lat="45.47694" lon="5.98152">
        <ele>271.8</ele>
        <time>2013-10-03T14:36:57Z</time>
      </trkpt>
      <trkpt lat="45.47689" lon="5.98155">
        <ele>271.9</ele>
        <time>2013-10-03T14:36:58Z</time>
      </trkpt>
      <trkpt lat="45.47684" lon="5.98157">
        <ele>272.3</ele>
        <time>2013-10-03T14:36:59Z</time>
      </trkpt>
      <trkpt lat="45.47678" lon="5.98158">
        <ele>272.6</ele>
        <time>2013-10-03T14:37:00Z</time>
      </trkpt>
      <trkpt lat="45.47673" lon="5.9816">
        <ele>272.5</ele>
        <time>2013-10-03T14:37:01Z</time>
      </trkpt>
      <trkpt lat="45.47668" lon="5.98162">
        <ele>272.7</ele>
        <time>2013-10-03T14:37:02Z</time>
      </trkpt>
      <trkpt lat="45.47662" lon="5.98163">
        <ele>273</ele>
        <time>2013-10-03T14:37:03Z</time>
      </trkpt>
      <trkpt lat="45.47657" lon="5.98165">
        <ele>273.3</ele>
        <time>2013-10-03T14:37:04Z</time>
      </trkpt>
      <trkpt lat="45.47651" lon="5.98167">
        <ele>273.2</ele>
        <time>2013-10-03T14:37:05Z</time>
      </trkpt>
      <trkpt lat="45.47646" lon="5.98169">
        <ele>273.2</ele>
        <time>2013-10-03T14:37:06Z</time>
      </trkpt>
      <trkpt lat="45.4764" lon="5.98171">
        <ele>273.2</ele>
        <time>2013-10-03T14:37:07Z</time>
      </trkpt>
      <trkpt lat="45.47635" lon="5.98173">
        <ele>273.5</ele>
        <time>2013-10-03T14:37:08Z</time>
      </trkpt>
      <trkpt lat="45.47629" lon="5.98175">
        <ele>273.7</ele>
        <time>2013-10-03T14:37:09Z</time>
      </trkpt>
      <trkpt lat="45.47624" lon="5.98177">
        <ele>274</ele>
        <time>2013-10-03T14:37:10Z</time>
      </trkpt>
      <trkpt lat="45.47618" lon="5.98179">
        <ele>274.1</ele>
        <time>2013-10-03T14:37:11Z</time>
      </trkpt>
      <trkpt lat="45.47612" lon="5.98181">
        <ele>274.1</ele>
        <time>2013-10-03T14:37:12Z</time>
      </trkpt>
      <trkpt lat="45.47607" lon="5.98183">
        <ele>274.4</ele>
        <time>2013-10-03T14:37:13Z</time>
      </trkpt>
      <trkpt lat="45.47601" lon="5.98185">
        <ele>274.8</ele>
        <time>2013-10-03T14:37:14Z</time>
      </trkpt>
      <trkpt lat="45.47596" lon="5.98187">
        <ele>275</ele>
        <time>2013-10-03T14:37:15Z</time>
      </trkpt>
      <trkpt lat="45.47591" lon="5.9819">
        <ele>274.9</ele>
        <time>2013-10-03T14:37:16Z</time>
      </trkpt>
      <trkpt lat="45.47586" lon="5.98193">
        <ele>275.2</ele>
        <time>2013-10-03T14:37:17Z</time>
      </trkpt>
      <trkpt lat="45.47581" lon="5.98196">
        <ele>275.2</ele>
        <time>2013-10-03T14:37:18Z</time>
      </trkpt>
      <trkpt lat="45.47577" lon="5.982">
        <ele>275.4</ele>
        <time>2013-10-03T14:37:19Z</time>
      </trkpt>
      <trkpt lat="45.47572" lon="5.98205">
        <ele>275.6</ele>
        <time>2013-10-03T14:37:20Z</time>
      </trkpt>
      <trkpt lat="45.47568" lon="5.9821">
        <ele>275.8</ele>
        <time>2013-10-03T14:37:21Z</time>
      </trkpt>
      <trkpt lat="45.47563" lon="5.98215">
        <ele>275.7</ele>
        <time>2013-10-03T14:37:22Z</time>
      </trkpt>
      <trkpt lat="45.47559" lon="5.98219">
        <ele>276</ele>
        <time>2013-10-03T14:37:23Z</time>
      </trkpt>
      <trkpt lat="45.47554" lon="5.98223">
        <ele>276.2</ele>
        <time>2013-10-03T14:37:24Z</time>
      </trkpt>
      <trkpt lat="45.4755" lon="5.98227">
        <ele>276.4</ele>
        <time>2013-10-03T14:37:25Z</time>
      </trkpt>
      <trkpt lat="45.47545" lon="5.98231">
        <ele>276.2</ele>
        <time>2013-10-03T14:37:26Z</time>
      </trkpt>
      <trkpt lat="45.47541" lon="5.98236">
        <ele>276.3</ele>
        <time>2013-10-03T14:37:27Z</time>
      </trkpt>
      <trkpt lat="45.47536" lon="5.9824">
        <ele>276.4</ele>
        <time>2013-10-03T14:37:28Z</time>
      </trkpt>
      <trkpt lat="45.47531" lon="5.98243">
        <ele>276.3</ele>
        <time>2013-10-03T14:37:29Z</time>
      </trkpt>
      <trkpt lat="45.47526" lon="5.98246">
        <ele>276.2</ele>
        <time>2013-10-03T14:37:30Z</time>
      </trkpt>
      <trkpt lat="45.4752" lon="5.98249">
        <ele>275.9</ele>
        <time>2013-10-03T14:37:31Z</time>
      </trkpt>
      <trkpt lat="45.47515" lon="5.98253">
        <ele>275.7</ele>
        <time>2013-10-03T14:37:32Z</time>
      </trkpt>
      <trkpt lat="45.47509" lon="5.98256">
        <ele>275.6</ele>
        <time>2013-10-03T14:37:33Z</time>
      </trkpt>
      <trkpt lat="45.47503" lon="5.9826">
        <ele>275.5</ele>
        <time>2013-10-03T14:37:34Z</time>
      </trkpt>
      <trkpt lat="45.47497" lon="5.98262">
        <ele>275.6</ele>
        <time>2013-10-03T14:37:35Z</time>
      </trkpt>
      <trkpt lat="45.47492" lon="5.98265">
        <ele>275.5</ele>
        <time>2013-10-03T14:37:36Z</time>
      </trkpt>
      <trkpt lat="45.47486" lon="5.98266">
        <ele>275.3</ele>
        <time>2013-10-03T14:37:37Z</time>
      </trkpt>
      <trkpt lat="45.4748" lon="5.98265">
        <ele>274.8</ele>
        <time>2013-10-03T14:37:38Z</time>
      </trkpt>
      <trkpt lat="45.47474" lon="5.98265">
        <ele>274.6</ele>
        <time>2013-10-03T14:37:39Z</time>
      </trkpt>
      <trkpt lat="45.47468" lon="5.98266">
        <ele>274.6</ele>
        <time>2013-10-03T14:37:40Z</time>
      </trkpt>
      <trkpt lat="45.47463" lon="5.98267">
        <ele>274.6</ele>
        <time>2013-10-03T14:37:41Z</time>
      </trkpt>
      <trkpt lat="45.47458" lon="5.98268">
        <ele>274.8</ele>
        <time>2013-10-03T14:37:42Z</time>
      </trkpt>
      <trkpt lat="45.47452" lon="5.98269">
        <ele>274.8</ele>
        <time>2013-10-03T14:37:43Z</time>
      </trkpt>
      <trkpt lat="45.47447" lon="5.9827">
        <ele>274.6</ele>
        <time>2013-10-03T14:37:44Z</time>
      </trkpt>
      <trkpt lat="45.47441" lon="5.98271">
        <ele>274.8</ele>
        <time>2013-10-03T14:37:45Z</time>
      </trkpt>
      <trkpt lat="45.47436" lon="5.98271">
        <ele>272.4</ele>
        <time>2013-10-03T14:37:46Z</time>
      </trkpt>
      <trkpt lat="45.4743" lon="5.98272">
        <ele>273.9</ele>
        <time>2013-10-03T14:37:47Z</time>
      </trkpt>
      <trkpt lat="45.47425" lon="5.98272">
        <ele>274.9</ele>
        <time>2013-10-03T14:37:48Z</time>
      </trkpt>
      <trkpt lat="45.47419" lon="5.98273">
        <ele>275.1</ele>
        <time>2013-10-03T14:37:49Z</time>
      </trkpt>
      <trkpt lat="45.47414" lon="5.98274">
        <ele>275.1</ele>
        <time>2013-10-03T14:37:50Z</time>
      </trkpt>
      <trkpt lat="45.47408" lon="5.98275">
        <ele>275.2</ele>
        <time>2013-10-03T14:37:51Z</time>
      </trkpt>
      <trkpt lat="45.47402" lon="5.98275">
        <ele>275</ele>
        <time>2013-10-03T14:37:52Z</time>
      </trkpt>
      <trkpt lat="45.47396" lon="5.98275">
        <ele>274.9</ele>
        <time>2013-10-03T14:37:53Z</time>
      </trkpt>
      <trkpt lat="45.4739" lon="5.98275">
        <ele>274.7</ele>
        <time>2013-10-03T14:37:54Z</time>
      </trkpt>
      <trkpt lat="45.47384" lon="5.98274">
        <ele>274.7</ele>
        <time>2013-10-03T14:37:55Z</time>
      </trkpt>
      <trkpt lat="45.47377" lon="5.98273">
        <ele>274.4</ele>
        <time>2013-10-03T14:37:56Z</time>
      </trkpt>
      <trkpt lat="45.47371" lon="5.98271">
        <ele>274.1</ele>
        <time>2013-10-03T14:37:57Z</time>
      </trkpt>
      <trkpt lat="45.47365" lon="5.98269">
        <ele>273.8</ele>
        <time>2013-10-03T14:37:58Z</time>
      </trkpt>
      <trkpt lat="45.47359" lon="5.98266">
        <ele>273.6</ele>
        <time>2013-10-03T14:37:59Z</time>
      </trkpt>
      <trkpt lat="45.47353" lon="5.98263">
        <ele>273.2</ele>
        <time>2013-10-03T14:38:00Z</time>
      </trkpt>
      <trkpt lat="45.47347" lon="5.9826">
        <ele>273.2</ele>
        <time>2013-10-03T14:38:01Z</time>
      </trkpt>
      <trkpt lat="45.47341" lon="5.98256">
        <ele>273.1</ele>
        <time>2013-10-03T14:38:02Z</time>
      </trkpt>
      <trkpt lat="45.47336" lon="5.98251">
        <ele>272.9</ele>
        <time>2013-10-03T14:38:03Z</time>
      </trkpt>
      <trkpt lat="45.47331" lon="5.98247">
        <ele>272.8</ele>
        <time>2013-10-03T14:38:04Z</time>
      </trkpt>
      <trkpt lat="45.47326" lon="5.98242">
        <ele>272.8</ele>
        <time>2013-10-03T14:38:05Z</time>
      </trkpt>
      <trkpt lat="45.47321" lon="5.98236">
        <ele>272.8</ele>
        <time>2013-10-03T14:38:06Z</time>
      </trkpt>
      <trkpt lat="45.47316" lon="5.98231">
        <ele>272.7</ele>
        <time>2013-10-03T14:38:07Z</time>
      </trkpt>
      <trkpt lat="45.47311" lon="5.98226">
        <ele>272.7</ele>
        <time>2013-10-03T14:38:08Z</time>
      </trkpt>
      <trkpt lat="45.47306" lon="5.98221">
        <ele>272.8</ele>
        <time>2013-10-03T14:38:09Z</time>
      </trkpt>
      <trkpt lat="45.47301" lon="5.98217">
        <ele>272.4</ele>
        <time>2013-10-03T14:38:10Z</time>
      </trkpt>
      <trkpt lat="45.47296" lon="5.98213">
        <ele>272.3</ele>
        <time>2013-10-03T14:38:11Z</time>
      </trkpt>
      <trkpt lat="45.47291" lon="5.98208">
        <ele>272.2</ele>
        <time>2013-10-03T14:38:12Z</time>
      </trkpt>
      <trkpt lat="45.47286" lon="5.98204">
        <ele>272.3</ele>
        <time>2013-10-03T14:38:13Z</time>
      </trkpt>
      <trkpt lat="45.4728" lon="5.982">
        <ele>272.3</ele>
        <time>2013-10-03T14:38:14Z</time>
      </trkpt>
      <trkpt lat="45.47275" lon="5.98195">
        <ele>272.2</ele>
        <time>2013-10-03T14:38:15Z</time>
      </trkpt>
      <trkpt lat="45.47269" lon="5.98191">
        <ele>272.3</ele>
        <time>2013-10-03T14:38:16Z</time>
      </trkpt>
      <trkpt lat="45.47264" lon="5.98187">
        <ele>272.2</ele>
        <time>2013-10-03T14:38:17Z</time>
      </trkpt>
      <trkpt lat="45.47259" lon="5.98184">
        <ele>272.3</ele>
        <time>2013-10-03T14:38:18Z</time>
      </trkpt>
      <trkpt lat="45.47254" lon="5.9818">
        <ele>272.3</ele>
        <time>2013-10-03T14:38:19Z</time>
      </trkpt>
      <trkpt lat="45.47249" lon="5.98176">
        <ele>272.5</ele>
        <time>2013-10-03T14:38:20Z</time>
      </trkpt>
      <trkpt lat="45.47244" lon="5.98172">
        <ele>272.5</ele>
        <time>2013-10-03T14:38:21Z</time>
      </trkpt>
      <trkpt lat="45.47239" lon="5.98169">
        <ele>272.4</ele>
        <time>2013-10-03T14:38:22Z</time>
      </trkpt>
      <trkpt lat="45.47234" lon="5.98166">
        <ele>272.3</ele>
        <time>2013-10-03T14:38:23Z</time>
      </trkpt>
      <trkpt lat="45.47229" lon="5.98162">
        <ele>272.3</ele>
        <time>2013-10-03T14:38:24Z</time>
      </trkpt>
      <trkpt lat="45.47224" lon="5.98158">
        <ele>272.2</ele>
        <time>2013-10-03T14:38:25Z</time>
      </trkpt>
      <trkpt lat="45.47219" lon="5.98153">
        <ele>272.5</ele>
        <time>2013-10-03T14:38:26Z</time>
      </trkpt>
      <trkpt lat="45.47214" lon="5.98148">
        <ele>272.2</ele>
        <time>2013-10-03T14:38:27Z</time>
      </trkpt>
      <trkpt lat="45.47209" lon="5.98144">
        <ele>272.3</ele>
        <time>2013-10-03T14:38:28Z</time>
      </trkpt>
      <trkpt lat="45.47205" lon="5.98139">
        <ele>272.3</ele>
        <time>2013-10-03T14:38:29Z</time>
      </trkpt>
      <trkpt lat="45.472" lon="5.98135">
        <ele>272</ele>
        <time>2013-10-03T14:38:30Z</time>
      </trkpt>
      <trkpt lat="45.47195" lon="5.9813">
        <ele>272.1</ele>
        <time>2013-10-03T14:38:31Z</time>
      </trkpt>
      <trkpt lat="45.47191" lon="5.98126">
        <ele>272.2</ele>
        <time>2013-10-03T14:38:32Z</time>
      </trkpt>
      <trkpt lat="45.47186" lon="5.98122">
        <ele>272.3</ele>
        <time>2013-10-03T14:38:33Z</time>
      </trkpt>
      <trkpt lat="45.47181" lon="5.98119">
        <ele>272.6</ele>
        <time>2013-10-03T14:38:34Z</time>
      </trkpt>
      <trkpt lat="45.47177" lon="5.98116">
        <ele>272.8</ele>
        <time>2013-10-03T14:38:35Z</time>
      </trkpt>
      <trkpt lat="45.47169" lon="5.98113">
        <ele>273.2</ele>
        <time>2013-10-03T14:38:37Z</time>
      </trkpt>
      <trkpt lat="45.47161" lon="5.9811">
        <ele>273.9</ele>
        <time>2013-10-03T14:38:40Z</time>
      </trkpt>
      <trkpt lat="45.47153" lon="5.98107">
        <ele>274.9</ele>
        <time>2013-10-03T14:38:44Z</time>
      </trkpt>
      <trkpt lat="45.47146" lon="5.98101">
        <ele>275.9</ele>
        <time>2013-10-03T14:38:48Z</time>
      </trkpt>
      <trkpt lat="45.47139" lon="5.98094">
        <ele>276.9</ele>
        <time>2013-10-03T14:38:52Z</time>
      </trkpt>
      <trkpt lat="45.47132" lon="5.98089">
        <ele>277.9</ele>
        <time>2013-10-03T14:38:55Z</time>
      </trkpt>
      <trkpt lat="45.47127" lon="5.98083">
        <ele>278.5</ele>
        <time>2013-10-03T14:38:58Z</time>
      </trkpt>
      <trkpt lat="45.47122" lon="5.98076">
        <ele>279.2</ele>
        <time>2013-10-03T14:39:01Z</time>
      </trkpt>
      <trkpt lat="45.47116" lon="5.98071">
        <ele>280.2</ele>
        <time>2013-10-03T14:39:04Z</time>
      </trkpt>
      <trkpt lat="45.47111" lon="5.98063">
        <ele>281.1</ele>
        <time>2013-10-03T14:39:07Z</time>
      </trkpt>
      <trkpt lat="45.47104" lon="5.98057">
        <ele>281.8</ele>
        <time>2013-10-03T14:39:10Z</time>
      </trkpt>
      <trkpt lat="45.47101" lon="5.98056">
        <ele>281.9</ele>
        <time>2013-10-03T14:39:11Z</time>
      </trkpt>
      <trkpt lat="45.47092" lon="5.98052">
        <ele>282.3</ele>
        <time>2013-10-03T14:39:14Z</time>
      </trkpt>
      <trkpt lat="45.47086" lon="5.98049">
        <ele>282.6</ele>
        <time>2013-10-03T14:39:16Z</time>
      </trkpt>
      <trkpt lat="45.47079" lon="5.98047">
        <ele>282.8</ele>
        <time>2013-10-03T14:39:18Z</time>
      </trkpt>
      <trkpt lat="45.4708" lon="5.98037">
        <ele>283.3</ele>
        <time>2013-10-03T14:39:26Z</time>
      </trkpt>
      <trkpt lat="45.47082" lon="5.98025">
        <ele>283.7</ele>
        <time>2013-10-03T14:39:30Z</time>
      </trkpt>
      <trkpt lat="45.47085" lon="5.98013">
        <ele>284.7</ele>
        <time>2013-10-03T14:39:34Z</time>
      </trkpt>
      <trkpt lat="45.47083" lon="5.98001">
        <ele>286.1</ele>
        <time>2013-10-03T14:39:38Z</time>
      </trkpt>
      <trkpt lat="45.47077" lon="5.97997">
        <ele>286.6</ele>
        <time>2013-10-03T14:39:41Z</time>
      </trkpt>
      <trkpt lat="45.47069" lon="5.97995">
        <ele>287</ele>
        <time>2013-10-03T14:39:44Z</time>
      </trkpt>
      <trkpt lat="45.47063" lon="5.97995">
        <ele>287.3</ele>
        <time>2013-10-03T14:39:46Z</time>
      </trkpt>
      <trkpt lat="45.47057" lon="5.97994">
        <ele>287.7</ele>
        <time>2013-10-03T14:39:48Z</time>
      </trkpt>
      <trkpt lat="45.47051" lon="5.97994">
        <ele>287.8</ele>
        <time>2013-10-03T14:39:50Z</time>
      </trkpt>
      <trkpt lat="45.47044" lon="5.97994">
        <ele>287.9</ele>
        <time>2013-10-03T14:39:52Z</time>
      </trkpt>
      <trkpt lat="45.47036" lon="5.97992">
        <ele>288.3</ele>
        <time>2013-10-03T14:39:54Z</time>
      </trkpt>
      <trkpt lat="45.47028" lon="5.9799">
        <ele>288.5</ele>
        <time>2013-10-03T14:39:56Z</time>
      </trkpt>
      <trkpt lat="45.4702" lon="5.97988">
        <ele>288.5</ele>
        <time>2013-10-03T14:39:58Z</time>
      </trkpt>
      <trkpt lat="45.47012" lon="5.97987">
        <ele>288.4</ele>
        <time>2013-10-03T14:40:00Z</time>
      </trkpt>
      <trkpt lat="45.47004" lon="5.97985">
        <ele>288.2</ele>
        <time>2013-10-03T14:40:02Z</time>
      </trkpt>
      <trkpt lat="45.47" lon="5.97984">
        <ele>288.4</ele>
        <time>2013-10-03T14:40:03Z</time>
      </trkpt>
      <trkpt lat="45.46995" lon="5.97982">
        <ele>288.4</ele>
        <time>2013-10-03T14:40:04Z</time>
      </trkpt>
      <trkpt lat="45.46991" lon="5.97981">
        <ele>288.5</ele>
        <time>2013-10-03T14:40:05Z</time>
      </trkpt>
      <trkpt lat="45.46986" lon="5.9798">
        <ele>288.7</ele>
        <time>2013-10-03T14:40:06Z</time>
      </trkpt>
      <trkpt lat="45.46982" lon="5.9798">
        <ele>288.6</ele>
        <time>2013-10-03T14:40:07Z</time>
      </trkpt>
      <trkpt lat="45.46973" lon="5.97979">
        <ele>288.8</ele>
        <time>2013-10-03T14:40:09Z</time>
      </trkpt>
      <trkpt lat="45.46965" lon="5.97979">
        <ele>288.8</ele>
        <time>2013-10-03T14:40:11Z</time>
      </trkpt>
      <trkpt lat="45.46961" lon="5.97979">
        <ele>288.8</ele>
        <time>2013-10-03T14:40:12Z</time>
      </trkpt>
      <trkpt lat="45.46949" lon="5.97981">
        <ele>289.7</ele>
        <time>2013-10-03T14:40:15Z</time>
      </trkpt>
      <trkpt lat="45.46943" lon="5.97981">
        <ele>289.9</ele>
        <time>2013-10-03T14:40:17Z</time>
      </trkpt>
      <trkpt lat="45.46934" lon="5.97983">
        <ele>290.4</ele>
        <time>2013-10-03T14:40:20Z</time>
      </trkpt>
      <trkpt lat="45.46928" lon="5.97985">
        <ele>291</ele>
        <time>2013-10-03T14:40:22Z</time>
      </trkpt>
      <trkpt lat="45.46922" lon="5.97988">
        <ele>291.8</ele>
        <time>2013-10-03T14:40:24Z</time>
      </trkpt>
      <trkpt lat="45.46917" lon="5.97994">
        <ele>292</ele>
        <time>2013-10-03T14:40:26Z</time>
      </trkpt>
      <trkpt lat="45.46911" lon="5.98001">
        <ele>292.7</ele>
        <time>2013-10-03T14:40:28Z</time>
      </trkpt>
      <trkpt lat="45.46908" lon="5.98006">
        <ele>292.5</ele>
        <time>2013-10-03T14:40:29Z</time>
      </trkpt>
      <trkpt lat="45.46904" lon="5.98011">
        <ele>292.1</ele>
        <time>2013-10-03T14:40:30Z</time>
      </trkpt>
      <trkpt lat="45.469" lon="5.98015">
        <ele>292</ele>
        <time>2013-10-03T14:40:31Z</time>
      </trkpt>
      <trkpt lat="45.46892" lon="5.98019">
        <ele>291.8</ele>
        <time>2013-10-03T14:40:33Z</time>
      </trkpt>
      <trkpt lat="45.46885" lon="5.98021">
        <ele>292</ele>
        <time>2013-10-03T14:40:35Z</time>
      </trkpt>
      <trkpt lat="45.46879" lon="5.98024">
        <ele>292.6</ele>
        <time>2013-10-03T14:40:37Z</time>
      </trkpt>
      <trkpt lat="45.46874" lon="5.98028">
        <ele>292.8</ele>
        <time>2013-10-03T14:40:39Z</time>
      </trkpt>
      <trkpt lat="45.46865" lon="5.98031">
        <ele>293.4</ele>
        <time>2013-10-03T14:40:42Z</time>
      </trkpt>
      <trkpt lat="45.46859" lon="5.98033">
        <ele>293.9</ele>
        <time>2013-10-03T14:40:44Z</time>
      </trkpt>
      <trkpt lat="45.4685" lon="5.98036">
        <ele>294.5</ele>
        <time>2013-10-03T14:40:47Z</time>
      </trkpt>
      <trkpt lat="45.46842" lon="5.9804">
        <ele>295.2</ele>
        <time>2013-10-03T14:40:50Z</time>
      </trkpt>
      <trkpt lat="45.46834" lon="5.98044">
        <ele>296.3</ele>
        <time>2013-10-03T14:40:53Z</time>
      </trkpt>
      <trkpt lat="45.46828" lon="5.98047">
        <ele>296.8</ele>
        <time>2013-10-03T14:40:55Z</time>
      </trkpt>
      <trkpt lat="45.4682" lon="5.9805">
        <ele>297.4</ele>
        <time>2013-10-03T14:40:58Z</time>
      </trkpt>
      <trkpt lat="45.46811" lon="5.98055">
        <ele>297.8</ele>
        <time>2013-10-03T14:41:01Z</time>
      </trkpt>
      <trkpt lat="45.46806" lon="5.98058">
        <ele>298.2</ele>
        <time>2013-10-03T14:41:03Z</time>
      </trkpt>
      <trkpt lat="45.468" lon="5.98061">
        <ele>298.9</ele>
        <time>2013-10-03T14:41:05Z</time>
      </trkpt>
      <trkpt lat="45.46792" lon="5.98065">
        <ele>300</ele>
        <time>2013-10-03T14:41:08Z</time>
      </trkpt>
      <trkpt lat="45.46786" lon="5.98068">
        <ele>300.4</ele>
        <time>2013-10-03T14:41:10Z</time>
      </trkpt>
      <trkpt lat="45.4678" lon="5.98071">
        <ele>300.9</ele>
        <time>2013-10-03T14:41:12Z</time>
      </trkpt>
      <trkpt lat="45.46778" lon="5.98073">
        <ele>301.3</ele>
        <time>2013-10-03T14:41:13Z</time>
      </trkpt>
      <trkpt lat="45.46767" lon="5.9808">
        <ele>302.6</ele>
        <time>2013-10-03T14:41:17Z</time>
      </trkpt>
      <trkpt lat="45.46761" lon="5.98085">
        <ele>303.1</ele>
        <time>2013-10-03T14:41:19Z</time>
      </trkpt>
      <trkpt lat="45.46757" lon="5.98091">
        <ele>303.6</ele>
        <time>2013-10-03T14:41:21Z</time>
      </trkpt>
      <trkpt lat="45.46753" lon="5.98099">
        <ele>304.1</ele>
        <time>2013-10-03T14:41:23Z</time>
      </trkpt>
      <trkpt lat="45.46749" lon="5.98106">
        <ele>304.6</ele>
        <time>2013-10-03T14:41:25Z</time>
      </trkpt>
      <trkpt lat="45.46744" lon="5.98113">
        <ele>305.3</ele>
        <time>2013-10-03T14:41:27Z</time>
      </trkpt>
      <trkpt lat="45.46741" lon="5.98121">
        <ele>305.7</ele>
        <time>2013-10-03T14:41:29Z</time>
      </trkpt>
      <trkpt lat="45.46737" lon="5.98128">
        <ele>306.5</ele>
        <time>2013-10-03T14:41:31Z</time>
      </trkpt>
      <trkpt lat="45.46733" lon="5.98135">
        <ele>306.6</ele>
        <time>2013-10-03T14:41:33Z</time>
      </trkpt>
      <trkpt lat="45.46729" lon="5.98141">
        <ele>307.1</ele>
        <time>2013-10-03T14:41:35Z</time>
      </trkpt>
      <trkpt lat="45.46724" lon="5.98148">
        <ele>307.6</ele>
        <time>2013-10-03T14:41:37Z</time>
      </trkpt>
      <trkpt lat="45.46717" lon="5.98155">
        <ele>308.4</ele>
        <time>2013-10-03T14:41:40Z</time>
      </trkpt>
      <trkpt lat="45.46708" lon="5.98157">
        <ele>309.2</ele>
        <time>2013-10-03T14:41:43Z</time>
      </trkpt>
      <trkpt lat="45.46701" lon="5.98155">
        <ele>309.8</ele>
        <time>2013-10-03T14:41:46Z</time>
      </trkpt>
      <trkpt lat="45.46695" lon="5.98161">
        <ele>310.8</ele>
        <time>2013-10-03T14:41:50Z</time>
      </trkpt>
      <trkpt lat="45.46693" lon="5.98173">
        <ele>310.5</ele>
        <time>2013-10-03T14:41:53Z</time>
      </trkpt>
      <trkpt lat="45.4669" lon="5.98183">
        <ele>310.4</ele>
        <time>2013-10-03T14:41:55Z</time>
      </trkpt>
      <trkpt lat="45.46689" lon="5.98188">
        <ele>310.2</ele>
        <time>2013-10-03T14:41:56Z</time>
      </trkpt>
      <trkpt lat="45.46687" lon="5.98195">
        <ele>309.7</ele>
        <time>2013-10-03T14:41:57Z</time>
      </trkpt>
      <trkpt lat="45.46686" lon="5.98203">
        <ele>309.3</ele>
        <time>2013-10-03T14:41:58Z</time>
      </trkpt>
      <trkpt lat="45.46684" lon="5.98211">
        <ele>309.2</ele>
        <time>2013-10-03T14:41:59Z</time>
      </trkpt>
      <trkpt lat="45.46683" lon="5.98219">
        <ele>308.9</ele>
        <time>2013-10-03T14:42:00Z</time>
      </trkpt>
      <trkpt lat="45.46681" lon="5.98229">
        <ele>308.5</ele>
        <time>2013-10-03T14:42:01Z</time>
      </trkpt>
      <trkpt lat="45.46679" lon="5.98239">
        <ele>308.2</ele>
        <time>2013-10-03T14:42:02Z</time>
      </trkpt>
      <trkpt lat="45.46676" lon="5.98249">
        <ele>307.9</ele>
        <time>2013-10-03T14:42:03Z</time>
      </trkpt>
      <trkpt lat="45.46674" lon="5.9826">
        <ele>307.2</ele>
        <time>2013-10-03T14:42:04Z</time>
      </trkpt>
      <trkpt lat="45.46672" lon="5.98272">
        <ele>306.9</ele>
        <time>2013-10-03T14:42:05Z</time>
      </trkpt>
      <trkpt lat="45.4667" lon="5.98284">
        <ele>306.3</ele>
        <time>2013-10-03T14:42:06Z</time>
      </trkpt>
      <trkpt lat="45.46668" lon="5.98296">
        <ele>305.8</ele>
        <time>2013-10-03T14:42:07Z</time>
      </trkpt>
      <trkpt lat="45.46666" lon="5.98309">
        <ele>305.5</ele>
        <time>2013-10-03T14:42:08Z</time>
      </trkpt>
      <trkpt lat="45.46664" lon="5.98323">
        <ele>305.2</ele>
        <time>2013-10-03T14:42:09Z</time>
      </trkpt>
      <trkpt lat="45.46661" lon="5.98336">
        <ele>304.1</ele>
        <time>2013-10-03T14:42:10Z</time>
      </trkpt>
      <trkpt lat="45.46659" lon="5.9835">
        <ele>303.3</ele>
        <time>2013-10-03T14:42:11Z</time>
      </trkpt>
      <trkpt lat="45.46656" lon="5.98364">
        <ele>303.3</ele>
        <time>2013-10-03T14:42:12Z</time>
      </trkpt>
      <trkpt lat="45.46653" lon="5.98379">
        <ele>302.9</ele>
        <time>2013-10-03T14:42:13Z</time>
      </trkpt>
      <trkpt lat="45.4665" lon="5.98394">
        <ele>302</ele>
        <time>2013-10-03T14:42:14Z</time>
      </trkpt>
      <trkpt lat="45.46648" lon="5.98409">
        <ele>301.2</ele>
        <time>2013-10-03T14:42:15Z</time>
      </trkpt>
      <trkpt lat="45.46644" lon="5.98424">
        <ele>300.4</ele>
        <time>2013-10-03T14:42:16Z</time>
      </trkpt>
      <trkpt lat="45.4664" lon="5.9844">
        <ele>299.6</ele>
        <time>2013-10-03T14:42:17Z</time>
      </trkpt>
      <trkpt lat="45.46634" lon="5.98454">
        <ele>299.3</ele>
        <time>2013-10-03T14:42:18Z</time>
      </trkpt>
      <trkpt lat="45.46628" lon="5.98468">
        <ele>298.3</ele>
        <time>2013-10-03T14:42:19Z</time>
      </trkpt>
      <trkpt lat="45.46621" lon="5.98482">
        <ele>297.4</ele>
        <time>2013-10-03T14:42:20Z</time>
      </trkpt>
      <trkpt lat="45.46614" lon="5.98495">
        <ele>297.1</ele>
        <time>2013-10-03T14:42:21Z</time>
      </trkpt>
      <trkpt lat="45.46607" lon="5.98509">
        <ele>295.9</ele>
        <time>2013-10-03T14:42:22Z</time>
      </trkpt>
      <trkpt lat="45.46601" lon="5.98524">
        <ele>295.1</ele>
        <time>2013-10-03T14:42:23Z</time>
      </trkpt>
      <trkpt lat="45.46595" lon="5.9854">
        <ele>294.1</ele>
        <time>2013-10-03T14:42:24Z</time>
      </trkpt>
      <trkpt lat="45.4659" lon="5.98555">
        <ele>293</ele>
        <time>2013-10-03T14:42:25Z</time>
      </trkpt>
      <trkpt lat="45.46586" lon="5.9857">
        <ele>291.9</ele>
        <time>2013-10-03T14:42:26Z</time>
      </trkpt>
      <trkpt lat="45.46583" lon="5.98584">
        <ele>290.9</ele>
        <time>2013-10-03T14:42:27Z</time>
      </trkpt>
      <trkpt lat="45.46579" lon="5.98596">
        <ele>290.2</ele>
        <time>2013-10-03T14:42:28Z</time>
      </trkpt>
      <trkpt lat="45.46576" lon="5.98607">
        <ele>289.4</ele>
        <time>2013-10-03T14:42:29Z</time>
      </trkpt>
      <trkpt lat="45.46574" lon="5.98617">
        <ele>288.6</ele>
        <time>2013-10-03T14:42:30Z</time>
      </trkpt>
      <trkpt lat="45.46572" lon="5.98627">
        <ele>288</ele>
        <time>2013-10-03T14:42:31Z</time>
      </trkpt>
      <trkpt lat="45.4657" lon="5.98636">
        <ele>287.4</ele>
        <time>2013-10-03T14:42:32Z</time>
      </trkpt>
      <trkpt lat="45.46567" lon="5.98643">
        <ele>286.9</ele>
        <time>2013-10-03T14:42:33Z</time>
      </trkpt>
      <trkpt lat="45.46564" lon="5.98649">
        <ele>286.3</ele>
        <time>2013-10-03T14:42:34Z</time>
      </trkpt>
      <trkpt lat="45.46556" lon="5.98655">
        <ele>285.3</ele>
        <time>2013-10-03T14:42:36Z</time>
      </trkpt>
      <trkpt lat="45.46547" lon="5.98651">
        <ele>284.8</ele>
        <time>2013-10-03T14:42:38Z</time>
      </trkpt>
      <trkpt lat="45.46542" lon="5.98643">
        <ele>284.8</ele>
        <time>2013-10-03T14:42:40Z</time>
      </trkpt>
      <trkpt lat="45.46539" lon="5.98635">
        <ele>285.1</ele>
        <time>2013-10-03T14:42:42Z</time>
      </trkpt>
      <trkpt lat="45.46537" lon="5.98623">
        <ele>285.9</ele>
        <time>2013-10-03T14:42:45Z</time>
      </trkpt>
      <trkpt lat="45.46535" lon="5.98612">
        <ele>286.6</ele>
        <time>2013-10-03T14:42:48Z</time>
      </trkpt>
      <trkpt lat="45.46532" lon="5.98601">
        <ele>287.3</ele>
        <time>2013-10-03T14:42:51Z</time>
      </trkpt>
      <trkpt lat="45.4653" lon="5.98591">
        <ele>287.9</ele>
        <time>2013-10-03T14:42:54Z</time>
      </trkpt>
      <trkpt lat="45.46528" lon="5.98581">
        <ele>288.6</ele>
        <time>2013-10-03T14:42:57Z</time>
      </trkpt>
      <trkpt lat="45.46526" lon="5.98571">
        <ele>289.1</ele>
        <time>2013-10-03T14:43:00Z</time>
      </trkpt>
      <trkpt lat="45.46522" lon="5.98561">
        <ele>289.7</ele>
        <time>2013-10-03T14:43:03Z</time>
      </trkpt>
      <trkpt lat="45.46519" lon="5.9855">
        <ele>290.6</ele>
        <time>2013-10-03T14:43:06Z</time>
      </trkpt>
      <trkpt lat="45.46517" lon="5.9854">
        <ele>291.3</ele>
        <time>2013-10-03T14:43:09Z</time>
      </trkpt>
      <trkpt lat="45.46515" lon="5.9853">
        <ele>292.1</ele>
        <time>2013-10-03T14:43:12Z</time>
      </trkpt>
      <trkpt lat="45.46513" lon="5.98521">
        <ele>292.8</ele>
        <time>2013-10-03T14:43:15Z</time>
      </trkpt>
      <trkpt lat="45.46508" lon="5.9851">
        <ele>293.8</ele>
        <time>2013-10-03T14:43:19Z</time>
      </trkpt>
      <trkpt lat="45.46506" lon="5.98509">
        <ele>294</ele>
        <time>2013-10-03T14:43:20Z</time>
      </trkpt>
      <trkpt lat="45.46493" lon="5.98514">
        <ele>294.6</ele>
        <time>2013-10-03T14:43:26Z</time>
      </trkpt>
      <trkpt lat="45.46487" lon="5.98519">
        <ele>295.2</ele>
        <time>2013-10-03T14:43:29Z</time>
      </trkpt>
      <trkpt lat="45.46482" lon="5.98526">
        <ele>296.2</ele>
        <time>2013-10-03T14:43:32Z</time>
      </trkpt>
      <trkpt lat="45.46479" lon="5.98536">
        <ele>297</ele>
        <time>2013-10-03T14:43:35Z</time>
      </trkpt>
      <trkpt lat="45.46477" lon="5.98545">
        <ele>297.4</ele>
        <time>2013-10-03T14:43:38Z</time>
      </trkpt>
      <trkpt lat="45.46475" lon="5.98557">
        <ele>298.6</ele>
        <time>2013-10-03T14:43:42Z</time>
      </trkpt>
      <trkpt lat="45.46474" lon="5.9857">
        <ele>299.4</ele>
        <time>2013-10-03T14:43:46Z</time>
      </trkpt>
      <trkpt lat="45.46471" lon="5.9858">
        <ele>300.7</ele>
        <time>2013-10-03T14:43:50Z</time>
      </trkpt>
      <trkpt lat="45.46467" lon="5.98588">
        <ele>301.5</ele>
        <time>2013-10-03T14:43:54Z</time>
      </trkpt>
      <trkpt lat="45.46461" lon="5.98593">
        <ele>302.6</ele>
        <time>2013-10-03T14:43:58Z</time>
      </trkpt>
      <trkpt lat="45.46453" lon="5.98594">
        <ele>303.5</ele>
        <time>2013-10-03T14:44:02Z</time>
      </trkpt>
      <trkpt lat="45.46446" lon="5.98589">
        <ele>304.4</ele>
        <time>2013-10-03T14:44:06Z</time>
      </trkpt>
      <trkpt lat="45.46444" lon="5.98578">
        <ele>305.4</ele>
        <time>2013-10-03T14:44:11Z</time>
      </trkpt>
      <trkpt lat="45.46442" lon="5.98566">
        <ele>306.5</ele>
        <time>2013-10-03T14:44:16Z</time>
      </trkpt>
      <trkpt lat="45.46442" lon="5.98555">
        <ele>307.6</ele>
        <time>2013-10-03T14:44:20Z</time>
      </trkpt>
      <trkpt lat="45.46442" lon="5.98553">
        <ele>307.8</ele>
        <time>2013-10-03T14:44:21Z</time>
      </trkpt>
      <trkpt lat="45.46442" lon="5.98534">
        <ele>309.3</ele>
        <time>2013-10-03T14:44:28Z</time>
      </trkpt>
      <trkpt lat="45.46439" lon="5.98522">
        <ele>310.6</ele>
        <time>2013-10-03T14:44:33Z</time>
      </trkpt>
      <trkpt lat="45.46436" lon="5.98511">
        <ele>311.6</ele>
        <time>2013-10-03T14:44:37Z</time>
      </trkpt>
      <trkpt lat="45.46432" lon="5.98502">
        <ele>312.5</ele>
        <time>2013-10-03T14:44:41Z</time>
      </trkpt>
      <trkpt lat="45.46426" lon="5.98492">
        <ele>313.2</ele>
        <time>2013-10-03T14:44:46Z</time>
      </trkpt>
      <trkpt lat="45.46421" lon="5.98484">
        <ele>314.1</ele>
        <time>2013-10-03T14:44:50Z</time>
      </trkpt>
      <trkpt lat="45.46415" lon="5.98477">
        <ele>314.9</ele>
        <time>2013-10-03T14:44:54Z</time>
      </trkpt>
      <trkpt lat="45.46408" lon="5.98471">
        <ele>315.5</ele>
        <time>2013-10-03T14:44:58Z</time>
      </trkpt>
      <trkpt lat="45.46401" lon="5.98466">
        <ele>316.6</ele>
        <time>2013-10-03T14:45:02Z</time>
      </trkpt>
      <trkpt lat="45.46394" lon="5.9846">
        <ele>317.1</ele>
        <time>2013-10-03T14:45:06Z</time>
      </trkpt>
      <trkpt lat="45.46387" lon="5.98453">
        <ele>318</ele>
        <time>2013-10-03T14:45:10Z</time>
      </trkpt>
      <trkpt lat="45.4638" lon="5.98447">
        <ele>318.6</ele>
        <time>2013-10-03T14:45:14Z</time>
      </trkpt>
      <trkpt lat="45.46373" lon="5.98441">
        <ele>319.4</ele>
        <time>2013-10-03T14:45:18Z</time>
      </trkpt>
      <trkpt lat="45.46366" lon="5.98435">
        <ele>320.3</ele>
        <time>2013-10-03T14:45:22Z</time>
      </trkpt>
      <trkpt lat="45.46364" lon="5.98433">
        <ele>320.5</ele>
        <time>2013-10-03T14:45:23Z</time>
      </trkpt>
      <trkpt lat="45.46353" lon="5.98421">
        <ele>321.7</ele>
        <time>2013-10-03T14:45:30Z</time>
      </trkpt>
      <trkpt lat="45.46346" lon="5.98416">
        <ele>322.4</ele>
        <time>2013-10-03T14:45:34Z</time>
      </trkpt>
      <trkpt lat="45.46339" lon="5.98412">
        <ele>323.2</ele>
        <time>2013-10-03T14:45:38Z</time>
      </trkpt>
      <trkpt lat="45.46331" lon="5.98405">
        <ele>324.1</ele>
        <time>2013-10-03T14:45:43Z</time>
      </trkpt>
      <trkpt lat="45.46326" lon="5.98398">
        <ele>325.3</ele>
        <time>2013-10-03T14:45:48Z</time>
      </trkpt>
      <trkpt lat="45.46321" lon="5.98389">
        <ele>326.4</ele>
        <time>2013-10-03T14:45:53Z</time>
      </trkpt>
      <trkpt lat="45.46316" lon="5.9838">
        <ele>327.6</ele>
        <time>2013-10-03T14:45:57Z</time>
      </trkpt>
      <trkpt lat="45.46311" lon="5.9837">
        <ele>328.1</ele>
        <time>2013-10-03T14:46:01Z</time>
      </trkpt>
      <trkpt lat="45.46308" lon="5.9836">
        <ele>328.3</ele>
        <time>2013-10-03T14:46:05Z</time>
      </trkpt>
      <trkpt lat="45.46306" lon="5.98348">
        <ele>328.8</ele>
        <time>2013-10-03T14:46:09Z</time>
      </trkpt>
      <trkpt lat="45.46304" lon="5.98337">
        <ele>329.2</ele>
        <time>2013-10-03T14:46:13Z</time>
      </trkpt>
      <trkpt lat="45.46305" lon="5.98327">
        <ele>329.9</ele>
        <time>2013-10-03T14:46:17Z</time>
      </trkpt>
      <trkpt lat="45.46305" lon="5.98314">
        <ele>330.9</ele>
        <time>2013-10-03T14:46:22Z</time>
      </trkpt>
      <trkpt lat="45.46302" lon="5.98305">
        <ele>331.3</ele>
        <time>2013-10-03T14:46:25Z</time>
      </trkpt>
      <trkpt lat="45.46301" lon="5.98302">
        <ele>331.5</ele>
        <time>2013-10-03T14:46:26Z</time>
      </trkpt>
      <trkpt lat="45.46294" lon="5.98284">
        <ele>332.3</ele>
        <time>2013-10-03T14:46:31Z</time>
      </trkpt>
      <trkpt lat="45.46291" lon="5.98275">
        <ele>332.9</ele>
        <time>2013-10-03T14:46:34Z</time>
      </trkpt>
      <trkpt lat="45.46288" lon="5.98264">
        <ele>333.2</ele>
        <time>2013-10-03T14:46:38Z</time>
      </trkpt>
      <trkpt lat="45.46287" lon="5.98252">
        <ele>334.6</ele>
        <time>2013-10-03T14:46:42Z</time>
      </trkpt>
      <trkpt lat="45.46286" lon="5.98241">
        <ele>335.2</ele>
        <time>2013-10-03T14:46:46Z</time>
      </trkpt>
      <trkpt lat="45.46285" lon="5.98229">
        <ele>335.8</ele>
        <time>2013-10-03T14:46:50Z</time>
      </trkpt>
      <trkpt lat="45.46284" lon="5.98218">
        <ele>336.9</ele>
        <time>2013-10-03T14:46:54Z</time>
      </trkpt>
      <trkpt lat="45.46283" lon="5.98206">
        <ele>338.2</ele>
        <time>2013-10-03T14:46:59Z</time>
      </trkpt>
      <trkpt lat="45.46279" lon="5.98198">
        <ele>339.4</ele>
        <time>2013-10-03T14:47:03Z</time>
      </trkpt>
      <trkpt lat="45.46273" lon="5.98193">
        <ele>340</ele>
        <time>2013-10-03T14:47:06Z</time>
      </trkpt>
      <trkpt lat="45.46265" lon="5.98198">
        <ele>341.5</ele>
        <time>2013-10-03T14:47:12Z</time>
      </trkpt>
      <trkpt lat="45.46263" lon="5.98208">
        <ele>342.7</ele>
        <time>2013-10-03T14:47:17Z</time>
      </trkpt>
      <trkpt lat="45.46264" lon="5.98218">
        <ele>343.6</ele>
        <time>2013-10-03T14:47:21Z</time>
      </trkpt>
      <trkpt lat="45.46264" lon="5.98228">
        <ele>344.2</ele>
        <time>2013-10-03T14:47:25Z</time>
      </trkpt>
      <trkpt lat="45.46261" lon="5.98241">
        <ele>344.7</ele>
        <time>2013-10-03T14:47:30Z</time>
      </trkpt>
      <trkpt lat="45.46261" lon="5.98243">
        <ele>345.1</ele>
        <time>2013-10-03T14:47:31Z</time>
      </trkpt>
      <trkpt lat="45.46262" lon="5.98263">
        <ele>347</ele>
        <time>2013-10-03T14:47:40Z</time>
      </trkpt>
      <trkpt lat="45.46259" lon="5.98274">
        <ele>348.1</ele>
        <time>2013-10-03T14:47:45Z</time>
      </trkpt>
      <trkpt lat="45.46256" lon="5.98284">
        <ele>349</ele>
        <time>2013-10-03T14:47:50Z</time>
      </trkpt>
      <trkpt lat="45.46255" lon="5.98296">
        <ele>350.5</ele>
        <time>2013-10-03T14:47:55Z</time>
      </trkpt>
      <trkpt lat="45.46254" lon="5.98308">
        <ele>351.5</ele>
        <time>2013-10-03T14:48:00Z</time>
      </trkpt>
      <trkpt lat="45.46253" lon="5.98319">
        <ele>352.6</ele>
        <time>2013-10-03T14:48:05Z</time>
      </trkpt>
      <trkpt lat="45.46253" lon="5.98332">
        <ele>353.1</ele>
        <time>2013-10-03T14:48:10Z</time>
      </trkpt>
      <trkpt lat="45.46252" lon="5.98342">
        <ele>353.9</ele>
        <time>2013-10-03T14:48:14Z</time>
      </trkpt>
      <trkpt lat="45.46249" lon="5.98352">
        <ele>355.1</ele>
        <time>2013-10-03T14:48:18Z</time>
      </trkpt>
      <trkpt lat="45.46246" lon="5.98362">
        <ele>356</ele>
        <time>2013-10-03T14:48:22Z</time>
      </trkpt>
      <trkpt lat="45.46243" lon="5.98372">
        <ele>357</ele>
        <time>2013-10-03T14:48:27Z</time>
      </trkpt>
      <trkpt lat="45.46238" lon="5.98379">
        <ele>357.7</ele>
        <time>2013-10-03T14:48:31Z</time>
      </trkpt>
      <trkpt lat="45.46236" lon="5.9838">
        <ele>358</ele>
        <time>2013-10-03T14:48:32Z</time>
      </trkpt>
      <trkpt lat="45.46223" lon="5.98389">
        <ele>360</ele>
        <time>2013-10-03T14:48:41Z</time>
      </trkpt>
      <trkpt lat="45.46214" lon="5.98391">
        <ele>361.1</ele>
        <time>2013-10-03T14:48:46Z</time>
      </trkpt>
      <trkpt lat="45.46206" lon="5.98392">
        <ele>362.5</ele>
        <time>2013-10-03T14:48:51Z</time>
      </trkpt>
      <trkpt lat="45.46197" lon="5.98394">
        <ele>363</ele>
        <time>2013-10-03T14:48:56Z</time>
      </trkpt>
      <trkpt lat="45.4619" lon="5.98399">
        <ele>364.2</ele>
        <time>2013-10-03T14:49:01Z</time>
      </trkpt>
      <trkpt lat="45.46183" lon="5.98404">
        <ele>365.3</ele>
        <time>2013-10-03T14:49:06Z</time>
      </trkpt>
      <trkpt lat="45.46177" lon="5.98412">
        <ele>366.1</ele>
        <time>2013-10-03T14:49:11Z</time>
      </trkpt>
      <trkpt lat="45.4617" lon="5.9842">
        <ele>367.2</ele>
        <time>2013-10-03T14:49:16Z</time>
      </trkpt>
      <trkpt lat="45.46164" lon="5.98428">
        <ele>368.7</ele>
        <time>2013-10-03T14:49:21Z</time>
      </trkpt>
      <trkpt lat="45.46158" lon="5.98435">
        <ele>369.9</ele>
        <time>2013-10-03T14:49:26Z</time>
      </trkpt>
      <trkpt lat="45.46151" lon="5.98442">
        <ele>370.9</ele>
        <time>2013-10-03T14:49:32Z</time>
      </trkpt>
      <trkpt lat="45.46149" lon="5.98443">
        <ele>371.1</ele>
        <time>2013-10-03T14:49:33Z</time>
      </trkpt>
      <trkpt lat="45.46136" lon="5.98455">
        <ele>373.2</ele>
        <time>2013-10-03T14:49:42Z</time>
      </trkpt>
      <trkpt lat="45.46129" lon="5.9846">
        <ele>374.3</ele>
        <time>2013-10-03T14:49:46Z</time>
      </trkpt>
      <trkpt lat="45.46122" lon="5.98467">
        <ele>375.1</ele>
        <time>2013-10-03T14:49:51Z</time>
      </trkpt>
      <trkpt lat="45.46115" lon="5.9847">
        <ele>375.9</ele>
        <time>2013-10-03T14:49:55Z</time>
      </trkpt>
      <trkpt lat="45.46107" lon="5.98474">
        <ele>376.9</ele>
        <time>2013-10-03T14:50:00Z</time>
      </trkpt>
      <trkpt lat="45.46099" lon="5.98474">
        <ele>377.9</ele>
        <time>2013-10-03T14:50:05Z</time>
      </trkpt>
      <trkpt lat="45.46091" lon="5.98475">
        <ele>378.6</ele>
        <time>2013-10-03T14:50:10Z</time>
      </trkpt>
      <trkpt lat="45.46082" lon="5.98476">
        <ele>380</ele>
        <time>2013-10-03T14:50:15Z</time>
      </trkpt>
      <trkpt lat="45.46074" lon="5.98478">
        <ele>380.7</ele>
        <time>2013-10-03T14:50:20Z</time>
      </trkpt>
      <trkpt lat="45.46067" lon="5.98483">
        <ele>382.5</ele>
        <time>2013-10-03T14:50:25Z</time>
      </trkpt>
      <trkpt lat="45.4606" lon="5.98486">
        <ele>383.7</ele>
        <time>2013-10-03T14:50:30Z</time>
      </trkpt>
      <trkpt lat="45.46051" lon="5.98489">
        <ele>384.7</ele>
        <time>2013-10-03T14:50:35Z</time>
      </trkpt>
      <trkpt lat="45.46049" lon="5.98489">
        <ele>384.8</ele>
        <time>2013-10-03T14:50:36Z</time>
      </trkpt>
      <trkpt lat="45.46036" lon="5.98489">
        <ele>386.8</ele>
        <time>2013-10-03T14:50:44Z</time>
      </trkpt>
      <trkpt lat="45.46029" lon="5.98486">
        <ele>387.7</ele>
        <time>2013-10-03T14:50:48Z</time>
      </trkpt>
      <trkpt lat="45.46022" lon="5.98481">
        <ele>389</ele>
        <time>2013-10-03T14:50:53Z</time>
      </trkpt>
      <trkpt lat="45.46016" lon="5.98474">
        <ele>390.3</ele>
        <time>2013-10-03T14:50:58Z</time>
      </trkpt>
      <trkpt lat="45.46009" lon="5.98467">
        <ele>391.1</ele>
        <time>2013-10-03T14:51:03Z</time>
      </trkpt>
      <trkpt lat="45.46003" lon="5.98458">
        <ele>392.2</ele>
        <time>2013-10-03T14:51:09Z</time>
      </trkpt>
      <trkpt lat="45.45998" lon="5.9845">
        <ele>393.4</ele>
        <time>2013-10-03T14:51:14Z</time>
      </trkpt>
      <trkpt lat="45.45993" lon="5.98443">
        <ele>394.7</ele>
        <time>2013-10-03T14:51:18Z</time>
      </trkpt>
      <trkpt lat="45.45988" lon="5.98435">
        <ele>395.1</ele>
        <time>2013-10-03T14:51:22Z</time>
      </trkpt>
      <trkpt lat="45.45983" lon="5.98425">
        <ele>396.8</ele>
        <time>2013-10-03T14:51:28Z</time>
      </trkpt>
      <trkpt lat="45.45977" lon="5.98416">
        <ele>397.7</ele>
        <time>2013-10-03T14:51:33Z</time>
      </trkpt>
      <trkpt lat="45.45973" lon="5.98407">
        <ele>398.4</ele>
        <time>2013-10-03T14:51:38Z</time>
      </trkpt>
      <trkpt lat="45.45973" lon="5.98405">
        <ele>398.8</ele>
        <time>2013-10-03T14:51:39Z</time>
      </trkpt>
      <trkpt lat="45.4597" lon="5.98384">
        <ele>400.8</ele>
        <time>2013-10-03T14:51:48Z</time>
      </trkpt>
      <trkpt lat="45.45968" lon="5.98373">
        <ele>401.2</ele>
        <time>2013-10-03T14:51:52Z</time>
      </trkpt>
      <trkpt lat="45.4596" lon="5.98367">
        <ele>402.5</ele>
        <time>2013-10-03T14:51:58Z</time>
      </trkpt>
      <trkpt lat="45.45957" lon="5.98366">
        <ele>398.7</ele>
        <time>2013-10-03T14:53:20Z</time>
      </trkpt>
      <trkpt lat="45.45949" lon="5.98365">
        <ele>398.4</ele>
        <time>2013-10-03T14:53:21Z</time>
      </trkpt>
      <trkpt lat="45.45941" lon="5.98362">
        <ele>394.4</ele>
        <time>2013-10-03T14:53:28Z</time>
      </trkpt>
      <trkpt lat="45.45935" lon="5.9836">
        <ele>390.1</ele>
        <time>2013-10-03T14:53:56Z</time>
      </trkpt>
      <trkpt lat="45.45927" lon="5.9836">
        <ele>389.2</ele>
        <time>2013-10-03T14:54:00Z</time>
      </trkpt>
      <trkpt lat="45.45919" lon="5.98357">
        <ele>386.8</ele>
        <time>2013-10-03T14:54:05Z</time>
      </trkpt>
      <trkpt lat="45.45911" lon="5.98357">
        <ele>385.7</ele>
        <time>2013-10-03T14:54:19Z</time>
      </trkpt>
      <trkpt lat="45.45902" lon="5.98356">
        <ele>383.4</ele>
        <time>2013-10-03T14:54:25Z</time>
      </trkpt>
      <trkpt lat="45.45901" lon="5.98357">
        <ele>382.8</ele>
        <time>2013-10-03T14:54:26Z</time>
      </trkpt>
      <trkpt lat="45.45891" lon="5.98368">
        <ele>376.2</ele>
        <time>2013-10-03T14:55:13Z</time>
      </trkpt>
      <trkpt lat="45.45885" lon="5.98364">
        <ele>374.7</ele>
        <time>2013-10-03T14:55:30Z</time>
      </trkpt>
      <trkpt lat="45.45883" lon="5.9836">
        <ele>374.4</ele>
        <time>2013-10-03T14:55:31Z</time>
      </trkpt>
      <trkpt lat="45.45873" lon="5.9836">
        <ele>372.6</ele>
        <time>2013-10-03T14:55:47Z</time>
      </trkpt>
      <trkpt lat="45.45864" lon="5.98359">
        <ele>371.4</ele>
        <time>2013-10-03T14:55:51Z</time>
      </trkpt>
      <trkpt lat="45.45858" lon="5.98362">
        <ele>369.8</ele>
        <time>2013-10-03T14:55:54Z</time>
      </trkpt>
      <trkpt lat="45.45851" lon="5.98369">
        <ele>366.8</ele>
        <time>2013-10-03T14:55:59Z</time>
      </trkpt>
      <trkpt lat="45.45849" lon="5.98381">
        <ele>363.4</ele>
        <time>2013-10-03T14:56:07Z</time>
      </trkpt>
      <trkpt lat="45.45849" lon="5.98393">
        <ele>360.2</ele>
        <time>2013-10-03T14:56:15Z</time>
      </trkpt>
      <trkpt lat="45.4585" lon="5.98404">
        <ele>356.7</ele>
        <time>2013-10-03T14:56:22Z</time>
      </trkpt>
      <trkpt lat="45.4585" lon="5.98417">
        <ele>353.3</ele>
        <time>2013-10-03T14:56:28Z</time>
      </trkpt>
      <trkpt lat="45.4585" lon="5.98429">
        <ele>350</ele>
        <time>2013-10-03T14:56:35Z</time>
      </trkpt>
      <trkpt lat="45.4585" lon="5.98431">
        <ele>349.4</ele>
        <time>2013-10-03T14:56:36Z</time>
      </trkpt>
      <trkpt lat="45.45848" lon="5.98451">
        <ele>344.3</ele>
        <time>2013-10-03T14:56:46Z</time>
      </trkpt>
      <trkpt lat="45.45846" lon="5.98462">
        <ele>341.7</ele>
        <time>2013-10-03T14:56:52Z</time>
      </trkpt>
      <trkpt lat="45.45844" lon="5.98474">
        <ele>338.5</ele>
        <time>2013-10-03T14:56:58Z</time>
      </trkpt>
      <trkpt lat="45.45844" lon="5.98487">
        <ele>335.9</ele>
        <time>2013-10-03T14:57:03Z</time>
      </trkpt>
      <trkpt lat="45.4584" lon="5.98498">
        <ele>333.7</ele>
        <time>2013-10-03T14:57:08Z</time>
      </trkpt>
      <trkpt lat="45.45835" lon="5.98507">
        <ele>331.3</ele>
        <time>2013-10-03T14:57:14Z</time>
      </trkpt>
      <trkpt lat="45.45829" lon="5.98516">
        <ele>329.3</ele>
        <time>2013-10-03T14:57:19Z</time>
      </trkpt>
      <trkpt lat="45.45822" lon="5.98523">
        <ele>327.8</ele>
        <time>2013-10-03T14:57:26Z</time>
      </trkpt>
      <trkpt lat="45.45815" lon="5.9853">
        <ele>325.4</ele>
        <time>2013-10-03T14:57:32Z</time>
      </trkpt>
      <trkpt lat="45.45807" lon="5.98532">
        <ele>323</ele>
        <time>2013-10-03T14:57:40Z</time>
      </trkpt>
      <trkpt lat="45.45805" lon="5.98532">
        <ele>322.6</ele>
        <time>2013-10-03T14:57:41Z</time>
      </trkpt>
      <trkpt lat="45.45791" lon="5.98541">
        <ele>320.5</ele>
        <time>2013-10-03T14:57:49Z</time>
      </trkpt>
      <trkpt lat="45.45783" lon="5.98546">
        <ele>319.2</ele>
        <time>2013-10-03T14:57:54Z</time>
      </trkpt>
      <trkpt lat="45.45774" lon="5.98544">
        <ele>318</ele>
        <time>2013-10-03T14:58:01Z</time>
      </trkpt>
      <trkpt lat="45.45766" lon="5.98542">
        <ele>317.6</ele>
        <time>2013-10-03T14:58:16Z</time>
      </trkpt>
      <trkpt lat="45.45758" lon="5.98538">
        <ele>317.2</ele>
        <time>2013-10-03T14:58:30Z</time>
      </trkpt>
      <trkpt lat="45.45751" lon="5.98533">
        <ele>316.6</ele>
        <time>2013-10-03T14:58:38Z</time>
      </trkpt>
      <trkpt lat="45.45743" lon="5.98528">
        <ele>316.1</ele>
        <time>2013-10-03T14:58:46Z</time>
      </trkpt>
      <trkpt lat="45.45742" lon="5.98527">
        <ele>316.1</ele>
        <time>2013-10-03T14:58:47Z</time>
      </trkpt>
      <trkpt lat="45.45728" lon="5.98517">
        <ele>316</ele>
        <time>2013-10-03T14:59:01Z</time>
      </trkpt>
      <trkpt lat="45.4572" lon="5.98514">
        <ele>315.7</ele>
        <time>2013-10-03T14:59:07Z</time>
      </trkpt>
      <trkpt lat="45.45713" lon="5.98513">
        <ele>315.7</ele>
        <time>2013-10-03T14:59:11Z</time>
      </trkpt>
      <trkpt lat="45.45704" lon="5.9851">
        <ele>315.8</ele>
        <time>2013-10-03T14:59:16Z</time>
      </trkpt>
      <trkpt lat="45.45699" lon="5.98501">
        <ele>315.5</ele>
        <time>2013-10-03T15:00:09Z</time>
      </trkpt>
      <trkpt lat="45.45698" lon="5.98499">
        <ele>315.6</ele>
        <time>2013-10-03T15:00:10Z</time>
      </trkpt>
      <trkpt lat="45.45691" lon="5.98483">
        <ele>315.9</ele>
        <time>2013-10-03T15:00:16Z</time>
      </trkpt>
      <trkpt lat="45.45685" lon="5.98475">
        <ele>316</ele>
        <time>2013-10-03T15:00:19Z</time>
      </trkpt>
      <trkpt lat="45.45679" lon="5.98469">
        <ele>316.3</ele>
        <time>2013-10-03T15:00:22Z</time>
      </trkpt>
      <trkpt lat="45.45671" lon="5.98464">
        <ele>316.7</ele>
        <time>2013-10-03T15:00:25Z</time>
      </trkpt>
      <trkpt lat="45.45663" lon="5.9846">
        <ele>316.8</ele>
        <time>2013-10-03T15:00:28Z</time>
      </trkpt>
      <trkpt lat="45.45655" lon="5.98457">
        <ele>317</ele>
        <time>2013-10-03T15:00:31Z</time>
      </trkpt>
      <trkpt lat="45.45648" lon="5.98455">
        <ele>317.3</ele>
        <time>2013-10-03T15:00:33Z</time>
      </trkpt>
      <trkpt lat="45.45642" lon="5.98455">
        <ele>317.6</ele>
        <time>2013-10-03T15:00:35Z</time>
      </trkpt>
      <trkpt lat="45.45636" lon="5.98455">
        <ele>317.9</ele>
        <time>2013-10-03T15:00:37Z</time>
      </trkpt>
      <trkpt lat="45.4563" lon="5.98455">
        <ele>318.1</ele>
        <time>2013-10-03T15:00:39Z</time>
      </trkpt>
      <trkpt lat="45.45624" lon="5.98458">
        <ele>318.3</ele>
        <time>2013-10-03T15:00:41Z</time>
      </trkpt>
      <trkpt lat="45.45618" lon="5.98461">
        <ele>318.7</ele>
        <time>2013-10-03T15:00:43Z</time>
      </trkpt>
      <trkpt lat="45.45612" lon="5.98464">
        <ele>318.8</ele>
        <time>2013-10-03T15:00:45Z</time>
      </trkpt>
      <trkpt lat="45.45606" lon="5.98465">
        <ele>319.1</ele>
        <time>2013-10-03T15:00:47Z</time>
      </trkpt>
      <trkpt lat="45.456" lon="5.98464">
        <ele>319.3</ele>
        <time>2013-10-03T15:00:49Z</time>
      </trkpt>
      <trkpt lat="45.45591" lon="5.98459">
        <ele>319.8</ele>
        <time>2013-10-03T15:00:52Z</time>
      </trkpt>
      <trkpt lat="45.45586" lon="5.98453">
        <ele>320.3</ele>
        <time>2013-10-03T15:00:55Z</time>
      </trkpt>
      <trkpt lat="45.45581" lon="5.98445">
        <ele>320.6</ele>
        <time>2013-10-03T15:00:58Z</time>
      </trkpt>
      <trkpt lat="45.45577" lon="5.98437">
        <ele>321.1</ele>
        <time>2013-10-03T15:01:01Z</time>
      </trkpt>
      <trkpt lat="45.45573" lon="5.98429">
        <ele>322.1</ele>
        <time>2013-10-03T15:01:04Z</time>
      </trkpt>
      <trkpt lat="45.45569" lon="5.9842">
        <ele>322.4</ele>
        <time>2013-10-03T15:01:07Z</time>
      </trkpt>
      <trkpt lat="45.45565" lon="5.9841">
        <ele>322.7</ele>
        <time>2013-10-03T15:01:10Z</time>
      </trkpt>
      <trkpt lat="45.45564" lon="5.98408">
        <ele>323</ele>
        <time>2013-10-03T15:01:11Z</time>
      </trkpt>
      <trkpt lat="45.45558" lon="5.98391">
        <ele>322.7</ele>
        <time>2013-10-03T15:01:16Z</time>
      </trkpt>
      <trkpt lat="45.45553" lon="5.98381">
        <ele>322.5</ele>
        <time>2013-10-03T15:01:19Z</time>
      </trkpt>
      <trkpt lat="45.45548" lon="5.98373">
        <ele>322.6</ele>
        <time>2013-10-03T15:01:22Z</time>
      </trkpt>
      <trkpt lat="45.45542" lon="5.98365">
        <ele>322.4</ele>
        <time>2013-10-03T15:01:25Z</time>
      </trkpt>
      <trkpt lat="45.45537" lon="5.98358">
        <ele>322.3</ele>
        <time>2013-10-03T15:01:28Z</time>
      </trkpt>
      <trkpt lat="45.45529" lon="5.98352">
        <ele>322.7</ele>
        <time>2013-10-03T15:01:32Z</time>
      </trkpt>
      <trkpt lat="45.45522" lon="5.98346">
        <ele>323</ele>
        <time>2013-10-03T15:01:36Z</time>
      </trkpt>
      <trkpt lat="45.45516" lon="5.9834">
        <ele>323.3</ele>
        <time>2013-10-03T15:01:39Z</time>
      </trkpt>
      <trkpt lat="45.4551" lon="5.98331">
        <ele>323.7</ele>
        <time>2013-10-03T15:01:43Z</time>
      </trkpt>
      <trkpt lat="45.45507" lon="5.98319">
        <ele>325.6</ele>
        <time>2013-10-03T15:01:50Z</time>
      </trkpt>
      <trkpt lat="45.45507" lon="5.98307">
        <ele>326.1</ele>
        <time>2013-10-03T15:01:55Z</time>
      </trkpt>
      <trkpt lat="45.45508" lon="5.98295">
        <ele>326.4</ele>
        <time>2013-10-03T15:02:00Z</time>
      </trkpt>
      <trkpt lat="45.45511" lon="5.98284">
        <ele>327.3</ele>
        <time>2013-10-03T15:02:05Z</time>
      </trkpt>
      <trkpt lat="45.45516" lon="5.98274">
        <ele>328</ele>
        <time>2013-10-03T15:02:10Z</time>
      </trkpt>
      <trkpt lat="45.45519" lon="5.98264">
        <ele>328.9</ele>
        <time>2013-10-03T15:02:13Z</time>
      </trkpt>
      <trkpt lat="45.45519" lon="5.98261">
        <ele>329</ele>
        <time>2013-10-03T15:02:14Z</time>
      </trkpt>
      <trkpt lat="45.45526" lon="5.98246">
        <ele>329.6</ele>
        <time>2013-10-03T15:02:21Z</time>
      </trkpt>
      <trkpt lat="45.45533" lon="5.98239">
        <ele>330</ele>
        <time>2013-10-03T15:02:26Z</time>
      </trkpt>
      <trkpt lat="45.45539" lon="5.98233">
        <ele>330.1</ele>
        <time>2013-10-03T15:02:29Z</time>
      </trkpt>
      <trkpt lat="45.45547" lon="5.98226">
        <ele>330.1</ele>
        <time>2013-10-03T15:02:32Z</time>
      </trkpt>
      <trkpt lat="45.45553" lon="5.98217">
        <ele>330</ele>
        <time>2013-10-03T15:02:35Z</time>
      </trkpt>
      <trkpt lat="45.45556" lon="5.98207">
        <ele>330.3</ele>
        <time>2013-10-03T15:02:38Z</time>
      </trkpt>
      <trkpt lat="45.45559" lon="5.98196">
        <ele>330.5</ele>
        <time>2013-10-03T15:02:41Z</time>
      </trkpt>
      <trkpt lat="45.45563" lon="5.98188">
        <ele>330.7</ele>
        <time>2013-10-03T15:02:43Z</time>
      </trkpt>
      <trkpt lat="45.45566" lon="5.98178">
        <ele>331.2</ele>
        <time>2013-10-03T15:02:46Z</time>
      </trkpt>
      <trkpt lat="45.45569" lon="5.98169">
        <ele>331.6</ele>
        <time>2013-10-03T15:02:49Z</time>
      </trkpt>
      <trkpt lat="45.45574" lon="5.98158">
        <ele>332</ele>
        <time>2013-10-03T15:02:53Z</time>
      </trkpt>
      <trkpt lat="45.45577" lon="5.98149">
        <ele>332.9</ele>
        <time>2013-10-03T15:02:56Z</time>
      </trkpt>
      <trkpt lat="45.4558" lon="5.98139">
        <ele>333</ele>
        <time>2013-10-03T15:02:59Z</time>
      </trkpt>
      <trkpt lat="45.45582" lon="5.98129">
        <ele>333.8</ele>
        <time>2013-10-03T15:03:02Z</time>
      </trkpt>
      <trkpt lat="45.45584" lon="5.98118">
        <ele>333.8</ele>
        <time>2013-10-03T15:03:05Z</time>
      </trkpt>
      <trkpt lat="45.45583" lon="5.98106">
        <ele>334.3</ele>
        <time>2013-10-03T15:03:09Z</time>
      </trkpt>
      <trkpt lat="45.4558" lon="5.98094">
        <ele>335.2</ele>
        <time>2013-10-03T15:03:14Z</time>
      </trkpt>
      <trkpt lat="45.45575" lon="5.98085">
        <ele>336.2</ele>
        <time>2013-10-03T15:03:20Z</time>
      </trkpt>
      <trkpt lat="45.45575" lon="5.98083">
        <ele>336.5</ele>
        <time>2013-10-03T15:03:21Z</time>
      </trkpt>
      <trkpt lat="45.45562" lon="5.98086">
        <ele>341.8</ele>
        <time>2013-10-03T15:03:47Z</time>
      </trkpt>
      <trkpt lat="45.45556" lon="5.98096">
        <ele>343.8</ele>
        <time>2013-10-03T15:03:57Z</time>
      </trkpt>
      <trkpt lat="45.45551" lon="5.98106">
        <ele>346.4</ele>
        <time>2013-10-03T15:04:07Z</time>
      </trkpt>
      <trkpt lat="45.45546" lon="5.98115">
        <ele>348.1</ele>
        <time>2013-10-03T15:04:22Z</time>
      </trkpt>
      <trkpt lat="45.45545" lon="5.98116">
        <ele>348</ele>
        <time>2013-10-03T15:04:23Z</time>
      </trkpt>
      <trkpt lat="45.45533" lon="5.98129">
        <ele>349.8</ele>
        <time>2013-10-03T15:04:44Z</time>
      </trkpt>
      <trkpt lat="45.45527" lon="5.98134">
        <ele>350.5</ele>
        <time>2013-10-03T15:04:50Z</time>
      </trkpt>
      <trkpt lat="45.4552" lon="5.98139">
        <ele>351.1</ele>
        <time>2013-10-03T15:04:55Z</time>
      </trkpt>
      <trkpt lat="45.45511" lon="5.98141">
        <ele>353.1</ele>
        <time>2013-10-03T15:05:01Z</time>
      </trkpt>
      <trkpt lat="45.45502" lon="5.98145">
        <ele>355.1</ele>
        <time>2013-10-03T15:05:08Z</time>
      </trkpt>
      <trkpt lat="45.45497" lon="5.98154">
        <ele>357.3</ele>
        <time>2013-10-03T15:05:14Z</time>
      </trkpt>
      <trkpt lat="45.45489" lon="5.9816">
        <ele>360.2</ele>
        <time>2013-10-03T15:05:22Z</time>
      </trkpt>
      <trkpt lat="45.45482" lon="5.98167">
        <ele>364.9</ele>
        <time>2013-10-03T15:05:51Z</time>
      </trkpt>
      <trkpt lat="45.45482" lon="5.98168">
        <ele>364.7</ele>
        <time>2013-10-03T15:05:52Z</time>
      </trkpt>
      <trkpt lat="45.45475" lon="5.98189">
        <ele>368.5</ele>
        <time>2013-10-03T15:06:13Z</time>
      </trkpt>
      <trkpt lat="45.45469" lon="5.98199">
        <ele>371.8</ele>
        <time>2013-10-03T15:06:25Z</time>
      </trkpt>
      <trkpt lat="45.45463" lon="5.98207">
        <ele>374.4</ele>
        <time>2013-10-03T15:06:36Z</time>
      </trkpt>
      <trkpt lat="45.45458" lon="5.98216">
        <ele>376</ele>
        <time>2013-10-03T15:06:44Z</time>
      </trkpt>
      <trkpt lat="45.4545" lon="5.98222">
        <ele>377.6</ele>
        <time>2013-10-03T15:06:53Z</time>
      </trkpt>
      <trkpt lat="45.45449" lon="5.98223">
        <ele>377.7</ele>
        <time>2013-10-03T15:06:54Z</time>
      </trkpt>
      <trkpt lat="45.4544" lon="5.98241">
        <ele>375.4</ele>
        <time>2013-10-03T15:07:05Z</time>
      </trkpt>
      <trkpt lat="45.45437" lon="5.98249">
        <ele>376.8</ele>
        <time>2013-10-03T15:07:08Z</time>
      </trkpt>
      <trkpt lat="45.45437" lon="5.9826">
        <ele>377.3</ele>
        <time>2013-10-03T15:07:11Z</time>
      </trkpt>
      <trkpt lat="45.45436" lon="5.98272">
        <ele>377.5</ele>
        <time>2013-10-03T15:07:14Z</time>
      </trkpt>
      <trkpt lat="45.45435" lon="5.98284">
        <ele>378.1</ele>
        <time>2013-10-03T15:07:18Z</time>
      </trkpt>
      <trkpt lat="45.45432" lon="5.98294">
        <ele>378.2</ele>
        <time>2013-10-03T15:07:22Z</time>
      </trkpt>
      <trkpt lat="45.45428" lon="5.98305">
        <ele>379</ele>
        <time>2013-10-03T15:07:27Z</time>
      </trkpt>
      <trkpt lat="45.45426" lon="5.98315">
        <ele>379.8</ele>
        <time>2013-10-03T15:07:30Z</time>
      </trkpt>
      <trkpt lat="45.45424" lon="5.98326">
        <ele>380.5</ele>
        <time>2013-10-03T15:07:34Z</time>
      </trkpt>
      <trkpt lat="45.4542" lon="5.98337">
        <ele>381.1</ele>
        <time>2013-10-03T15:07:38Z</time>
      </trkpt>
      <trkpt lat="45.45415" lon="5.98346">
        <ele>382</ele>
        <time>2013-10-03T15:07:43Z</time>
      </trkpt>
      <trkpt lat="45.45411" lon="5.98353">
        <ele>382.2</ele>
        <time>2013-10-03T15:07:46Z</time>
      </trkpt>
      <trkpt lat="45.45404" lon="5.9836">
        <ele>382.4</ele>
        <time>2013-10-03T15:07:49Z</time>
      </trkpt>
      <trkpt lat="45.45398" lon="5.98366">
        <ele>381.9</ele>
        <time>2013-10-03T15:07:51Z</time>
      </trkpt>
      <trkpt lat="45.45394" lon="5.9837">
        <ele>381.4</ele>
        <time>2013-10-03T15:07:52Z</time>
      </trkpt>
      <trkpt lat="45.45388" lon="5.98377">
        <ele>380.8</ele>
        <time>2013-10-03T15:07:54Z</time>
      </trkpt>
      <trkpt lat="45.45383" lon="5.98385">
        <ele>379.8</ele>
        <time>2013-10-03T15:07:56Z</time>
      </trkpt>
      <trkpt lat="45.45382" lon="5.98389">
        <ele>379.2</ele>
        <time>2013-10-03T15:07:57Z</time>
      </trkpt>
      <trkpt lat="45.45379" lon="5.98403">
        <ele>378.5</ele>
        <time>2013-10-03T15:08:00Z</time>
      </trkpt>
      <trkpt lat="45.4538" lon="5.9841">
        <ele>377.8</ele>
        <time>2013-10-03T15:08:01Z</time>
      </trkpt>
      <trkpt lat="45.45381" lon="5.98416">
        <ele>377.3</ele>
        <time>2013-10-03T15:08:02Z</time>
      </trkpt>
      <trkpt lat="45.45381" lon="5.98423">
        <ele>377.1</ele>
        <time>2013-10-03T15:08:03Z</time>
      </trkpt>
      <trkpt lat="45.4538" lon="5.98431">
        <ele>375.8</ele>
        <time>2013-10-03T15:08:04Z</time>
      </trkpt>
      <trkpt lat="45.45379" lon="5.98439">
        <ele>375.7</ele>
        <time>2013-10-03T15:08:05Z</time>
      </trkpt>
      <trkpt lat="45.45377" lon="5.98447">
        <ele>374.7</ele>
        <time>2013-10-03T15:08:06Z</time>
      </trkpt>
      <trkpt lat="45.45375" lon="5.98456">
        <ele>374.1</ele>
        <time>2013-10-03T15:08:07Z</time>
      </trkpt>
      <trkpt lat="45.45375" lon="5.98464">
        <ele>373.8</ele>
        <time>2013-10-03T15:08:08Z</time>
      </trkpt>
      <trkpt lat="45.45373" lon="5.98471">
        <ele>373.2</ele>
        <time>2013-10-03T15:08:09Z</time>
      </trkpt>
      <trkpt lat="45.45369" lon="5.98483">
        <ele>372.1</ele>
        <time>2013-10-03T15:08:11Z</time>
      </trkpt>
      <trkpt lat="45.45364" lon="5.9849">
        <ele>371.2</ele>
        <time>2013-10-03T15:08:13Z</time>
      </trkpt>
      <trkpt lat="45.45358" lon="5.98499">
        <ele>371.6</ele>
        <time>2013-10-03T15:08:18Z</time>
      </trkpt>
      <trkpt lat="45.45351" lon="5.98503">
        <ele>372.6</ele>
        <time>2013-10-03T15:08:23Z</time>
      </trkpt>
      <trkpt lat="45.45344" lon="5.98501">
        <ele>373.5</ele>
        <time>2013-10-03T15:08:28Z</time>
      </trkpt>
      <trkpt lat="45.45335" lon="5.985">
        <ele>374.6</ele>
        <time>2013-10-03T15:08:34Z</time>
      </trkpt>
      <trkpt lat="45.45327" lon="5.985">
        <ele>376</ele>
        <time>2013-10-03T15:08:40Z</time>
      </trkpt>
      <trkpt lat="45.45319" lon="5.98498">
        <ele>376.9</ele>
        <time>2013-10-03T15:08:45Z</time>
      </trkpt>
      <trkpt lat="45.45312" lon="5.98495">
        <ele>378.4</ele>
        <time>2013-10-03T15:08:50Z</time>
      </trkpt>
      <trkpt lat="45.45303" lon="5.98493">
        <ele>379.6</ele>
        <time>2013-10-03T15:08:56Z</time>
      </trkpt>
      <trkpt lat="45.45296" lon="5.98495">
        <ele>380.3</ele>
        <time>2013-10-03T15:09:01Z</time>
      </trkpt>
      <trkpt lat="45.45294" lon="5.98496">
        <ele>380.4</ele>
        <time>2013-10-03T15:09:02Z</time>
      </trkpt>
      <trkpt lat="45.45279" lon="5.985">
        <ele>382.7</ele>
        <time>2013-10-03T15:09:13Z</time>
      </trkpt>
      <trkpt lat="45.45271" lon="5.98502">
        <ele>384.3</ele>
        <time>2013-10-03T15:09:19Z</time>
      </trkpt>
      <trkpt lat="45.45264" lon="5.98507">
        <ele>385.6</ele>
        <time>2013-10-03T15:09:25Z</time>
      </trkpt>
      <trkpt lat="45.45256" lon="5.98511">
        <ele>387.1</ele>
        <time>2013-10-03T15:09:31Z</time>
      </trkpt>
      <trkpt lat="45.45248" lon="5.98513">
        <ele>387.8</ele>
        <time>2013-10-03T15:09:37Z</time>
      </trkpt>
      <trkpt lat="45.45241" lon="5.98514">
        <ele>387.9</ele>
        <time>2013-10-03T15:09:41Z</time>
      </trkpt>
      <trkpt lat="45.45233" lon="5.98513">
        <ele>387.8</ele>
        <time>2013-10-03T15:09:44Z</time>
      </trkpt>
      <trkpt lat="45.45225" lon="5.98511">
        <ele>387.6</ele>
        <time>2013-10-03T15:09:46Z</time>
      </trkpt>
      <trkpt lat="45.45217" lon="5.98508">
        <ele>387.5</ele>
        <time>2013-10-03T15:09:48Z</time>
      </trkpt>
      <trkpt lat="45.45209" lon="5.98503">
        <ele>386.7</ele>
        <time>2013-10-03T15:09:50Z</time>
      </trkpt>
      <trkpt lat="45.45204" lon="5.985">
        <ele>386.8</ele>
        <time>2013-10-03T15:09:51Z</time>
      </trkpt>
      <trkpt lat="45.45199" lon="5.98498">
        <ele>386.4</ele>
        <time>2013-10-03T15:09:52Z</time>
      </trkpt>
      <trkpt lat="45.45194" lon="5.98495">
        <ele>386</ele>
        <time>2013-10-03T15:09:53Z</time>
      </trkpt>
      <trkpt lat="45.45189" lon="5.98492">
        <ele>386.1</ele>
        <time>2013-10-03T15:09:54Z</time>
      </trkpt>
      <trkpt lat="45.45184" lon="5.98489">
        <ele>385.7</ele>
        <time>2013-10-03T15:09:55Z</time>
      </trkpt>
      <trkpt lat="45.45178" lon="5.98486">
        <ele>385.6</ele>
        <time>2013-10-03T15:09:56Z</time>
      </trkpt>
      <trkpt lat="45.45172" lon="5.98485">
        <ele>385</ele>
        <time>2013-10-03T15:09:57Z</time>
      </trkpt>
      <trkpt lat="45.45166" lon="5.98483">
        <ele>384.5</ele>
        <time>2013-10-03T15:09:58Z</time>
      </trkpt>
      <trkpt lat="45.4516" lon="5.98481">
        <ele>384.3</ele>
        <time>2013-10-03T15:09:59Z</time>
      </trkpt>
      <trkpt lat="45.45154" lon="5.98479">
        <ele>383.6</ele>
        <time>2013-10-03T15:10:00Z</time>
      </trkpt>
      <trkpt lat="45.45149" lon="5.98476">
        <ele>382.8</ele>
        <time>2013-10-03T15:10:01Z</time>
      </trkpt>
      <trkpt lat="45.45143" lon="5.98474">
        <ele>383.5</ele>
        <time>2013-10-03T15:10:02Z</time>
      </trkpt>
      <trkpt lat="45.45137" lon="5.98471">
        <ele>383.1</ele>
        <time>2013-10-03T15:10:03Z</time>
      </trkpt>
      <trkpt lat="45.45132" lon="5.98469">
        <ele>382.2</ele>
        <time>2013-10-03T15:10:04Z</time>
      </trkpt>
      <trkpt lat="45.45126" lon="5.98466">
        <ele>381.5</ele>
        <time>2013-10-03T15:10:05Z</time>
      </trkpt>
      <trkpt lat="45.4512" lon="5.98463">
        <ele>381.3</ele>
        <time>2013-10-03T15:10:06Z</time>
      </trkpt>
      <trkpt lat="45.45113" lon="5.98459">
        <ele>380.5</ele>
        <time>2013-10-03T15:10:07Z</time>
      </trkpt>
      <trkpt lat="45.45106" lon="5.98456">
        <ele>380.4</ele>
        <time>2013-10-03T15:10:08Z</time>
      </trkpt>
      <trkpt lat="45.45099" lon="5.98453">
        <ele>380.4</ele>
        <time>2013-10-03T15:10:09Z</time>
      </trkpt>
      <trkpt lat="45.45092" lon="5.9845">
        <ele>379.8</ele>
        <time>2013-10-03T15:10:10Z</time>
      </trkpt>
      <trkpt lat="45.45085" lon="5.98447">
        <ele>379.4</ele>
        <time>2013-10-03T15:10:11Z</time>
      </trkpt>
      <trkpt lat="45.45078" lon="5.98444">
        <ele>378.9</ele>
        <time>2013-10-03T15:10:12Z</time>
      </trkpt>
      <trkpt lat="45.45071" lon="5.98442">
        <ele>378.7</ele>
        <time>2013-10-03T15:10:13Z</time>
      </trkpt>
      <trkpt lat="45.45063" lon="5.98441">
        <ele>378.1</ele>
        <time>2013-10-03T15:10:14Z</time>
      </trkpt>
      <trkpt lat="45.45056" lon="5.98442">
        <ele>377.9</ele>
        <time>2013-10-03T15:10:15Z</time>
      </trkpt>
      <trkpt lat="45.45048" lon="5.98443">
        <ele>377.7</ele>
        <time>2013-10-03T15:10:16Z</time>
      </trkpt>
      <trkpt lat="45.45041" lon="5.98445">
        <ele>377.7</ele>
        <time>2013-10-03T15:10:17Z</time>
      </trkpt>
      <trkpt lat="45.45033" lon="5.98445">
        <ele>377.3</ele>
        <time>2013-10-03T15:10:18Z</time>
      </trkpt>
      <trkpt lat="45.45025" lon="5.98444">
        <ele>376.8</ele>
        <time>2013-10-03T15:10:19Z</time>
      </trkpt>
      <trkpt lat="45.45017" lon="5.98445">
        <ele>376.2</ele>
        <time>2013-10-03T15:10:20Z</time>
      </trkpt>
      <trkpt lat="45.4501" lon="5.98443">
        <ele>375.3</ele>
        <time>2013-10-03T15:10:21Z</time>
      </trkpt>
      <trkpt lat="45.45002" lon="5.98441">
        <ele>375.5</ele>
        <time>2013-10-03T15:10:22Z</time>
      </trkpt>
      <trkpt lat="45.44995" lon="5.98439">
        <ele>375.9</ele>
        <time>2013-10-03T15:10:23Z</time>
      </trkpt>
      <trkpt lat="45.44988" lon="5.98437">
        <ele>375.2</ele>
        <time>2013-10-03T15:10:24Z</time>
      </trkpt>
      <trkpt lat="45.4498" lon="5.98435">
        <ele>374.6</ele>
        <time>2013-10-03T15:10:25Z</time>
      </trkpt>
      <trkpt lat="45.44972" lon="5.98435">
        <ele>374.1</ele>
        <time>2013-10-03T15:10:26Z</time>
      </trkpt>
      <trkpt lat="45.44965" lon="5.98435">
        <ele>374</ele>
        <time>2013-10-03T15:10:27Z</time>
      </trkpt>
      <trkpt lat="45.44958" lon="5.98436">
        <ele>373.2</ele>
        <time>2013-10-03T15:10:28Z</time>
      </trkpt>
      <trkpt lat="45.44951" lon="5.98437">
        <ele>372.8</ele>
        <time>2013-10-03T15:10:29Z</time>
      </trkpt>
      <trkpt lat="45.44944" lon="5.98437">
        <ele>371.5</ele>
        <time>2013-10-03T15:10:30Z</time>
      </trkpt>
      <trkpt lat="45.44937" lon="5.98437">
        <ele>371.1</ele>
        <time>2013-10-03T15:10:31Z</time>
      </trkpt>
      <trkpt lat="45.44931" lon="5.98436">
        <ele>371.3</ele>
        <time>2013-10-03T15:10:32Z</time>
      </trkpt>
      <trkpt lat="45.44925" lon="5.98435">
        <ele>370.8</ele>
        <time>2013-10-03T15:10:33Z</time>
      </trkpt>
      <trkpt lat="45.44919" lon="5.98431">
        <ele>370.1</ele>
        <time>2013-10-03T15:10:34Z</time>
      </trkpt>
      <trkpt lat="45.44913" lon="5.98426">
        <ele>369.9</ele>
        <time>2013-10-03T15:10:35Z</time>
      </trkpt>
      <trkpt lat="45.44907" lon="5.9842">
        <ele>369.7</ele>
        <time>2013-10-03T15:10:36Z</time>
      </trkpt>
      <trkpt lat="45.449" lon="5.98414">
        <ele>370</ele>
        <time>2013-10-03T15:10:37Z</time>
      </trkpt>
      <trkpt lat="45.44893" lon="5.98409">
        <ele>369.3</ele>
        <time>2013-10-03T15:10:38Z</time>
      </trkpt>
      <trkpt lat="45.44887" lon="5.98404">
        <ele>368.4</ele>
        <time>2013-10-03T15:10:39Z</time>
      </trkpt>
      <trkpt lat="45.4488" lon="5.98398">
        <ele>367.9</ele>
        <time>2013-10-03T15:10:40Z</time>
      </trkpt>
      <trkpt lat="45.44873" lon="5.98393">
        <ele>367.5</ele>
        <time>2013-10-03T15:10:41Z</time>
      </trkpt>
      <trkpt lat="45.44866" lon="5.98388">
        <ele>367</ele>
        <time>2013-10-03T15:10:42Z</time>
      </trkpt>
      <trkpt lat="45.44858" lon="5.98385">
        <ele>366.7</ele>
        <time>2013-10-03T15:10:43Z</time>
      </trkpt>
      <trkpt lat="45.44851" lon="5.98382">
        <ele>366.3</ele>
        <time>2013-10-03T15:10:44Z</time>
      </trkpt>
      <trkpt lat="45.44843" lon="5.9838">
        <ele>366.2</ele>
        <time>2013-10-03T15:10:45Z</time>
      </trkpt>
      <trkpt lat="45.44835" lon="5.98379">
        <ele>365.9</ele>
        <time>2013-10-03T15:10:46Z</time>
      </trkpt>
      <trkpt lat="45.44827" lon="5.98378">
        <ele>366.2</ele>
        <time>2013-10-03T15:10:47Z</time>
      </trkpt>
      <trkpt lat="45.44819" lon="5.98377">
        <ele>365</ele>
        <time>2013-10-03T15:10:48Z</time>
      </trkpt>
      <trkpt lat="45.44811" lon="5.98378">
        <ele>364.5</ele>
        <time>2013-10-03T15:10:49Z</time>
      </trkpt>
      <trkpt lat="45.44803" lon="5.9838">
        <ele>364.4</ele>
        <time>2013-10-03T15:10:50Z</time>
      </trkpt>
      <trkpt lat="45.44794" lon="5.98382">
        <ele>362.7</ele>
        <time>2013-10-03T15:10:51Z</time>
      </trkpt>
      <trkpt lat="45.44786" lon="5.98385">
        <ele>362.2</ele>
        <time>2013-10-03T15:10:52Z</time>
      </trkpt>
      <trkpt lat="45.44777" lon="5.98386">
        <ele>361.9</ele>
        <time>2013-10-03T15:10:53Z</time>
      </trkpt>
      <trkpt lat="45.44768" lon="5.98386">
        <ele>360.8</ele>
        <time>2013-10-03T15:10:54Z</time>
      </trkpt>
      <trkpt lat="45.44759" lon="5.98385">
        <ele>359.9</ele>
        <time>2013-10-03T15:10:55Z</time>
      </trkpt>
      <trkpt lat="45.4475" lon="5.98383">
        <ele>360.5</ele>
        <time>2013-10-03T15:10:56Z</time>
      </trkpt>
      <trkpt lat="45.44741" lon="5.98381">
        <ele>360.1</ele>
        <time>2013-10-03T15:10:57Z</time>
      </trkpt>
      <trkpt lat="45.44733" lon="5.98378">
        <ele>359.5</ele>
        <time>2013-10-03T15:10:58Z</time>
      </trkpt>
      <trkpt lat="45.44725" lon="5.98375">
        <ele>359</ele>
        <time>2013-10-03T15:10:59Z</time>
      </trkpt>
      <trkpt lat="45.44717" lon="5.98371">
        <ele>358.6</ele>
        <time>2013-10-03T15:11:00Z</time>
      </trkpt>
      <trkpt lat="45.44708" lon="5.98368">
        <ele>358.4</ele>
        <time>2013-10-03T15:11:01Z</time>
      </trkpt>
      <trkpt lat="45.447" lon="5.98364">
        <ele>358</ele>
        <time>2013-10-03T15:11:02Z</time>
      </trkpt>
      <trkpt lat="45.44692" lon="5.98361">
        <ele>357.5</ele>
        <time>2013-10-03T15:11:03Z</time>
      </trkpt>
      <trkpt lat="45.44684" lon="5.98357">
        <ele>357.2</ele>
        <time>2013-10-03T15:11:04Z</time>
      </trkpt>
      <trkpt lat="45.44677" lon="5.98353">
        <ele>356.9</ele>
        <time>2013-10-03T15:11:05Z</time>
      </trkpt>
      <trkpt lat="45.44669" lon="5.98348">
        <ele>356.8</ele>
        <time>2013-10-03T15:11:06Z</time>
      </trkpt>
      <trkpt lat="45.44663" lon="5.98343">
        <ele>356.4</ele>
        <time>2013-10-03T15:11:07Z</time>
      </trkpt>
      <trkpt lat="45.44656" lon="5.98337">
        <ele>356.1</ele>
        <time>2013-10-03T15:11:08Z</time>
      </trkpt>
      <trkpt lat="45.4465" lon="5.98333">
        <ele>355.9</ele>
        <time>2013-10-03T15:11:09Z</time>
      </trkpt>
      <trkpt lat="45.44643" lon="5.98328">
        <ele>355.9</ele>
        <time>2013-10-03T15:11:10Z</time>
      </trkpt>
      <trkpt lat="45.44637" lon="5.98324">
        <ele>355.5</ele>
        <time>2013-10-03T15:11:11Z</time>
      </trkpt>
      <trkpt lat="45.44631" lon="5.98319">
        <ele>355.4</ele>
        <time>2013-10-03T15:11:12Z</time>
      </trkpt>
      <trkpt lat="45.44625" lon="5.98315">
        <ele>355.3</ele>
        <time>2013-10-03T15:11:13Z</time>
      </trkpt>
      <trkpt lat="45.44619" lon="5.9831">
        <ele>355.4</ele>
        <time>2013-10-03T15:11:14Z</time>
      </trkpt>
      <trkpt lat="45.44614" lon="5.98306">
        <ele>355.5</ele>
        <time>2013-10-03T15:11:15Z</time>
      </trkpt>
      <trkpt lat="45.44608" lon="5.98302">
        <ele>355.4</ele>
        <time>2013-10-03T15:11:16Z</time>
      </trkpt>
      <trkpt lat="45.44603" lon="5.98298">
        <ele>355.5</ele>
        <time>2013-10-03T15:11:17Z</time>
      </trkpt>
      <trkpt lat="45.44598" lon="5.98295">
        <ele>355.7</ele>
        <time>2013-10-03T15:11:18Z</time>
      </trkpt>
      <trkpt lat="45.44593" lon="5.98291">
        <ele>355.7</ele>
        <time>2013-10-03T15:11:19Z</time>
      </trkpt>
      <trkpt lat="45.44589" lon="5.98288">
        <ele>355.5</ele>
        <time>2013-10-03T15:11:20Z</time>
      </trkpt>
      <trkpt lat="45.44585" lon="5.98284">
        <ele>355.6</ele>
        <time>2013-10-03T15:11:21Z</time>
      </trkpt>
      <trkpt lat="45.44581" lon="5.98281">
        <ele>355.7</ele>
        <time>2013-10-03T15:11:22Z</time>
      </trkpt>
      <trkpt lat="45.44577" lon="5.98277">
        <ele>356.1</ele>
        <time>2013-10-03T15:11:23Z</time>
      </trkpt>
      <trkpt lat="45.44569" lon="5.98271">
        <ele>356.3</ele>
        <time>2013-10-03T15:11:25Z</time>
      </trkpt>
      <trkpt lat="45.44563" lon="5.98264">
        <ele>356.4</ele>
        <time>2013-10-03T15:11:27Z</time>
      </trkpt>
      <trkpt lat="45.44557" lon="5.98258">
        <ele>356.6</ele>
        <time>2013-10-03T15:11:29Z</time>
      </trkpt>
      <trkpt lat="45.44551" lon="5.98251">
        <ele>357.2</ele>
        <time>2013-10-03T15:11:31Z</time>
      </trkpt>
      <trkpt lat="45.44545" lon="5.98246">
        <ele>357.6</ele>
        <time>2013-10-03T15:11:33Z</time>
      </trkpt>
      <trkpt lat="45.4454" lon="5.98239">
        <ele>357.9</ele>
        <time>2013-10-03T15:11:35Z</time>
      </trkpt>
      <trkpt lat="45.44535" lon="5.98233">
        <ele>358</ele>
        <time>2013-10-03T15:11:37Z</time>
      </trkpt>
      <trkpt lat="45.44529" lon="5.98227">
        <ele>358.1</ele>
        <time>2013-10-03T15:11:39Z</time>
      </trkpt>
      <trkpt lat="45.44523" lon="5.98222">
        <ele>358.1</ele>
        <time>2013-10-03T15:11:41Z</time>
      </trkpt>
      <trkpt lat="45.44516" lon="5.98216">
        <ele>358.2</ele>
        <time>2013-10-03T15:11:44Z</time>
      </trkpt>
      <trkpt lat="45.4451" lon="5.98214">
        <ele>358.2</ele>
        <time>2013-10-03T15:11:46Z</time>
      </trkpt>
      <trkpt lat="45.44503" lon="5.98214">
        <ele>358.1</ele>
        <time>2013-10-03T15:11:48Z</time>
      </trkpt>
      <trkpt lat="45.44494" lon="5.98215">
        <ele>358.1</ele>
        <time>2013-10-03T15:11:50Z</time>
      </trkpt>
      <trkpt lat="45.44486" lon="5.98214">
        <ele>358</ele>
        <time>2013-10-03T15:11:52Z</time>
      </trkpt>
      <trkpt lat="45.44478" lon="5.9821">
        <ele>358.1</ele>
        <time>2013-10-03T15:11:54Z</time>
      </trkpt>
      <trkpt lat="45.44471" lon="5.98204">
        <ele>358.2</ele>
        <time>2013-10-03T15:11:56Z</time>
      </trkpt>
      <trkpt lat="45.44464" lon="5.98197">
        <ele>358.2</ele>
        <time>2013-10-03T15:11:58Z</time>
      </trkpt>
      <trkpt lat="45.44457" lon="5.9819">
        <ele>358.2</ele>
        <time>2013-10-03T15:12:00Z</time>
      </trkpt>
      <trkpt lat="45.44451" lon="5.98183">
        <ele>358.4</ele>
        <time>2013-10-03T15:12:02Z</time>
      </trkpt>
      <trkpt lat="45.44444" lon="5.98176">
        <ele>358.5</ele>
        <time>2013-10-03T15:12:04Z</time>
      </trkpt>
      <trkpt lat="45.44438" lon="5.98169">
        <ele>358.7</ele>
        <time>2013-10-03T15:12:06Z</time>
      </trkpt>
      <trkpt lat="45.44432" lon="5.98161">
        <ele>358.8</ele>
        <time>2013-10-03T15:12:08Z</time>
      </trkpt>
      <trkpt lat="45.44428" lon="5.98158">
        <ele>358.9</ele>
        <time>2013-10-03T15:12:09Z</time>
      </trkpt>
      <trkpt lat="45.44417" lon="5.98148">
        <ele>358.7</ele>
        <time>2013-10-03T15:12:12Z</time>
      </trkpt>
      <trkpt lat="45.4441" lon="5.98142">
        <ele>358.8</ele>
        <time>2013-10-03T15:12:14Z</time>
      </trkpt>
      <trkpt lat="45.44403" lon="5.98135">
        <ele>358.7</ele>
        <time>2013-10-03T15:12:16Z</time>
      </trkpt>
      <trkpt lat="45.44396" lon="5.98129">
        <ele>358.6</ele>
        <time>2013-10-03T15:12:18Z</time>
      </trkpt>
      <trkpt lat="45.44389" lon="5.98122">
        <ele>358.3</ele>
        <time>2013-10-03T15:12:20Z</time>
      </trkpt>
      <trkpt lat="45.44385" lon="5.98118">
        <ele>358.2</ele>
        <time>2013-10-03T15:12:21Z</time>
      </trkpt>
      <trkpt lat="45.44382" lon="5.98114">
        <ele>358.3</ele>
        <time>2013-10-03T15:12:22Z</time>
      </trkpt>
      <trkpt lat="45.44375" lon="5.98106">
        <ele>358.2</ele>
        <time>2013-10-03T15:12:24Z</time>
      </trkpt>
      <trkpt lat="45.44371" lon="5.98103">
        <ele>358.2</ele>
        <time>2013-10-03T15:12:25Z</time>
      </trkpt>
      <trkpt lat="45.44364" lon="5.98095">
        <ele>358.1</ele>
        <time>2013-10-03T15:12:27Z</time>
      </trkpt>
      <trkpt lat="45.44358" lon="5.98089">
        <ele>357.7</ele>
        <time>2013-10-03T15:12:29Z</time>
      </trkpt>
      <trkpt lat="45.44359" lon="5.98077">
        <ele>357.9</ele>
        <time>2013-10-03T15:12:35Z</time>
      </trkpt>
      <trkpt lat="45.44368" lon="5.98076">
        <ele>358.4</ele>
        <time>2013-10-03T15:12:40Z</time>
      </trkpt>
      <trkpt lat="45.44376" lon="5.98076">
        <ele>359.3</ele>
        <time>2013-10-03T15:12:44Z</time>
      </trkpt>
      <trkpt lat="45.44384" lon="5.98072">
        <ele>359.8</ele>
        <time>2013-10-03T15:12:48Z</time>
      </trkpt>
      <trkpt lat="45.44391" lon="5.98067">
        <ele>360.6</ele>
        <time>2013-10-03T15:12:52Z</time>
      </trkpt>
      <trkpt lat="45.44398" lon="5.98063">
        <ele>361.8</ele>
        <time>2013-10-03T15:12:56Z</time>
      </trkpt>
      <trkpt lat="45.44404" lon="5.98056">
        <ele>362.6</ele>
        <time>2013-10-03T15:13:00Z</time>
      </trkpt>
      <trkpt lat="45.4441" lon="5.98048">
        <ele>363.7</ele>
        <time>2013-10-03T15:13:04Z</time>
      </trkpt>
      <trkpt lat="45.44418" lon="5.98042">
        <ele>364.4</ele>
        <time>2013-10-03T15:13:08Z</time>
      </trkpt>
      <trkpt lat="45.44426" lon="5.98038">
        <ele>365.1</ele>
        <time>2013-10-03T15:13:12Z</time>
      </trkpt>
      <trkpt lat="45.44428" lon="5.98037">
        <ele>365.1</ele>
        <time>2013-10-03T15:13:13Z</time>
      </trkpt>
      <trkpt lat="45.44439" lon="5.98035">
        <ele>365.8</ele>
        <time>2013-10-03T15:13:18Z</time>
      </trkpt>
      <trkpt lat="45.44446" lon="5.98034">
        <ele>366.5</ele>
        <time>2013-10-03T15:13:21Z</time>
      </trkpt>
      <trkpt lat="45.44455" lon="5.98032">
        <ele>367.1</ele>
        <time>2013-10-03T15:13:25Z</time>
      </trkpt>
      <trkpt lat="45.44462" lon="5.98031">
        <ele>367.8</ele>
        <time>2013-10-03T15:13:28Z</time>
      </trkpt>
      <trkpt lat="45.4447" lon="5.98029">
        <ele>368.5</ele>
        <time>2013-10-03T15:13:32Z</time>
      </trkpt>
      <trkpt lat="45.44479" lon="5.98026">
        <ele>369.3</ele>
        <time>2013-10-03T15:13:36Z</time>
      </trkpt>
      <trkpt lat="45.44487" lon="5.98022">
        <ele>370.2</ele>
        <time>2013-10-03T15:13:40Z</time>
      </trkpt>
      <trkpt lat="45.44495" lon="5.98017">
        <ele>370.9</ele>
        <time>2013-10-03T15:13:44Z</time>
      </trkpt>
      <trkpt lat="45.44503" lon="5.98012">
        <ele>371.2</ele>
        <time>2013-10-03T15:13:48Z</time>
      </trkpt>
      <trkpt lat="45.44512" lon="5.98009">
        <ele>371.9</ele>
        <time>2013-10-03T15:13:52Z</time>
      </trkpt>
      <trkpt lat="45.4452" lon="5.98006">
        <ele>372.6</ele>
        <time>2013-10-03T15:13:56Z</time>
      </trkpt>
      <trkpt lat="45.44529" lon="5.98006">
        <ele>373</ele>
        <time>2013-10-03T15:14:00Z</time>
      </trkpt>
      <trkpt lat="45.44536" lon="5.98008">
        <ele>373.5</ele>
        <time>2013-10-03T15:14:03Z</time>
      </trkpt>
      <trkpt lat="45.44543" lon="5.98008">
        <ele>374.2</ele>
        <time>2013-10-03T15:14:06Z</time>
      </trkpt>
      <trkpt lat="45.44552" lon="5.98008">
        <ele>374.5</ele>
        <time>2013-10-03T15:14:10Z</time>
      </trkpt>
      <trkpt lat="45.44558" lon="5.98009">
        <ele>375.3</ele>
        <time>2013-10-03T15:14:14Z</time>
      </trkpt>
      <trkpt lat="45.44561" lon="5.9801">
        <ele>375.5</ele>
        <time>2013-10-03T15:14:15Z</time>
      </trkpt>
      <trkpt lat="45.44574" lon="5.98011">
        <ele>376.4</ele>
        <time>2013-10-03T15:14:21Z</time>
      </trkpt>
      <trkpt lat="45.44581" lon="5.98011">
        <ele>376.8</ele>
        <time>2013-10-03T15:14:24Z</time>
      </trkpt>
      <trkpt lat="45.44589" lon="5.98011">
        <ele>377.2</ele>
        <time>2013-10-03T15:14:27Z</time>
      </trkpt>
      <trkpt lat="45.44596" lon="5.98009">
        <ele>377.9</ele>
        <time>2013-10-03T15:14:30Z</time>
      </trkpt>
      <trkpt lat="45.44604" lon="5.98006">
        <ele>378.6</ele>
        <time>2013-10-03T15:14:33Z</time>
      </trkpt>
      <trkpt lat="45.44611" lon="5.98002">
        <ele>379</ele>
        <time>2013-10-03T15:14:36Z</time>
      </trkpt>
      <trkpt lat="45.44617" lon="5.97997">
        <ele>379.4</ele>
        <time>2013-10-03T15:14:39Z</time>
      </trkpt>
      <trkpt lat="45.44623" lon="5.9799">
        <ele>379.9</ele>
        <time>2013-10-03T15:14:42Z</time>
      </trkpt>
      <trkpt lat="45.44628" lon="5.97982">
        <ele>380.5</ele>
        <time>2013-10-03T15:14:45Z</time>
      </trkpt>
      <trkpt lat="45.44633" lon="5.97976">
        <ele>381.2</ele>
        <time>2013-10-03T15:14:48Z</time>
      </trkpt>
      <trkpt lat="45.4464" lon="5.97969">
        <ele>382.3</ele>
        <time>2013-10-03T15:14:52Z</time>
      </trkpt>
      <trkpt lat="45.44647" lon="5.97965">
        <ele>383.4</ele>
        <time>2013-10-03T15:14:56Z</time>
      </trkpt>
      <trkpt lat="45.44653" lon="5.9796">
        <ele>384.1</ele>
        <time>2013-10-03T15:14:59Z</time>
      </trkpt>
      <trkpt lat="45.44661" lon="5.97957">
        <ele>385</ele>
        <time>2013-10-03T15:15:03Z</time>
      </trkpt>
      <trkpt lat="45.44669" lon="5.97956">
        <ele>386.4</ele>
        <time>2013-10-03T15:15:07Z</time>
      </trkpt>
      <trkpt lat="45.44678" lon="5.97952">
        <ele>387.5</ele>
        <time>2013-10-03T15:15:11Z</time>
      </trkpt>
      <trkpt lat="45.44686" lon="5.97949">
        <ele>388.3</ele>
        <time>2013-10-03T15:15:15Z</time>
      </trkpt>
      <trkpt lat="45.44688" lon="5.97948">
        <ele>388.5</ele>
        <time>2013-10-03T15:15:16Z</time>
      </trkpt>
      <trkpt lat="45.44703" lon="5.97943">
        <ele>390</ele>
        <time>2013-10-03T15:15:23Z</time>
      </trkpt>
      <trkpt lat="45.4471" lon="5.9794">
        <ele>390.7</ele>
        <time>2013-10-03T15:15:27Z</time>
      </trkpt>
      <trkpt lat="45.44718" lon="5.97936">
        <ele>391.6</ele>
        <time>2013-10-03T15:15:31Z</time>
      </trkpt>
      <trkpt lat="45.44726" lon="5.97932">
        <ele>392.4</ele>
        <time>2013-10-03T15:15:35Z</time>
      </trkpt>
      <trkpt lat="45.44734" lon="5.97933">
        <ele>393.2</ele>
        <time>2013-10-03T15:15:39Z</time>
      </trkpt>
      <trkpt lat="45.44742" lon="5.97936">
        <ele>394.3</ele>
        <time>2013-10-03T15:15:43Z</time>
      </trkpt>
      <trkpt lat="45.44748" lon="5.97937">
        <ele>394.9</ele>
        <time>2013-10-03T15:15:46Z</time>
      </trkpt>
      <trkpt lat="45.44755" lon="5.9794">
        <ele>395.8</ele>
        <time>2013-10-03T15:15:49Z</time>
      </trkpt>
      <trkpt lat="45.44762" lon="5.97942">
        <ele>396.6</ele>
        <time>2013-10-03T15:15:52Z</time>
      </trkpt>
      <trkpt lat="45.44769" lon="5.97943">
        <ele>397.5</ele>
        <time>2013-10-03T15:15:55Z</time>
      </trkpt>
      <trkpt lat="45.44777" lon="5.97943">
        <ele>398.5</ele>
        <time>2013-10-03T15:15:59Z</time>
      </trkpt>
      <trkpt lat="45.44784" lon="5.97943">
        <ele>399</ele>
        <time>2013-10-03T15:16:02Z</time>
      </trkpt>
      <trkpt lat="45.44791" lon="5.97942">
        <ele>399.7</ele>
        <time>2013-10-03T15:16:05Z</time>
      </trkpt>
      <trkpt lat="45.44798" lon="5.97945">
        <ele>400.7</ele>
        <time>2013-10-03T15:16:08Z</time>
      </trkpt>
      <trkpt lat="45.44806" lon="5.97946">
        <ele>401.3</ele>
        <time>2013-10-03T15:16:12Z</time>
      </trkpt>
      <trkpt lat="45.44814" lon="5.97948">
        <ele>402.3</ele>
        <time>2013-10-03T15:16:16Z</time>
      </trkpt>
      <trkpt lat="45.44816" lon="5.97948">
        <ele>402.2</ele>
        <time>2013-10-03T15:16:17Z</time>
      </trkpt>
      <trkpt lat="45.44829" lon="5.97948">
        <ele>403.9</ele>
        <time>2013-10-03T15:16:23Z</time>
      </trkpt>
      <trkpt lat="45.44838" lon="5.97947">
        <ele>405</ele>
        <time>2013-10-03T15:16:28Z</time>
      </trkpt>
      <trkpt lat="45.44844" lon="5.97948">
        <ele>405.9</ele>
        <time>2013-10-03T15:16:31Z</time>
      </trkpt>
      <trkpt lat="45.44852" lon="5.97946">
        <ele>407.3</ele>
        <time>2013-10-03T15:16:34Z</time>
      </trkpt>
      <trkpt lat="45.4486" lon="5.97945">
        <ele>407.7</ele>
        <time>2013-10-03T15:16:38Z</time>
      </trkpt>
      <trkpt lat="45.44868" lon="5.97946">
        <ele>408.6</ele>
        <time>2013-10-03T15:16:42Z</time>
      </trkpt>
      <trkpt lat="45.44877" lon="5.97946">
        <ele>409.1</ele>
        <time>2013-10-03T15:16:46Z</time>
      </trkpt>
      <trkpt lat="45.44884" lon="5.97948">
        <ele>410.3</ele>
        <time>2013-10-03T15:16:50Z</time>
      </trkpt>
      <trkpt lat="45.44891" lon="5.97951">
        <ele>410.9</ele>
        <time>2013-10-03T15:16:54Z</time>
      </trkpt>
      <trkpt lat="45.44899" lon="5.97951">
        <ele>411.8</ele>
        <time>2013-10-03T15:16:59Z</time>
      </trkpt>
      <trkpt lat="45.44907" lon="5.9795">
        <ele>412.5</ele>
        <time>2013-10-03T15:17:03Z</time>
      </trkpt>
      <trkpt lat="45.44915" lon="5.97951">
        <ele>413.5</ele>
        <time>2013-10-03T15:17:07Z</time>
      </trkpt>
      <trkpt lat="45.44923" lon="5.97951">
        <ele>414.2</ele>
        <time>2013-10-03T15:17:12Z</time>
      </trkpt>
      <trkpt lat="45.44932" lon="5.97952">
        <ele>415.1</ele>
        <time>2013-10-03T15:17:17Z</time>
      </trkpt>
      <trkpt lat="45.4494" lon="5.97952">
        <ele>416.1</ele>
        <time>2013-10-03T15:17:22Z</time>
      </trkpt>
      <trkpt lat="45.44942" lon="5.97952">
        <ele>416.4</ele>
        <time>2013-10-03T15:17:23Z</time>
      </trkpt>
      <trkpt lat="45.44957" lon="5.97952">
        <ele>418</ele>
        <time>2013-10-03T15:17:32Z</time>
      </trkpt>
      <trkpt lat="45.44965" lon="5.97951">
        <ele>419</ele>
        <time>2013-10-03T15:17:37Z</time>
      </trkpt>
      <trkpt lat="45.44973" lon="5.9795">
        <ele>419.9</ele>
        <time>2013-10-03T15:17:42Z</time>
      </trkpt>
      <trkpt lat="45.44981" lon="5.97952">
        <ele>420.9</ele>
        <time>2013-10-03T15:17:47Z</time>
      </trkpt>
      <trkpt lat="45.44988" lon="5.97953">
        <ele>422.4</ele>
        <time>2013-10-03T15:17:53Z</time>
      </trkpt>
      <trkpt lat="45.44996" lon="5.97952">
        <ele>423.8</ele>
        <time>2013-10-03T15:17:59Z</time>
      </trkpt>
      <trkpt lat="45.45004" lon="5.97953">
        <ele>424.9</ele>
        <time>2013-10-03T15:18:06Z</time>
      </trkpt>
      <trkpt lat="45.45013" lon="5.97952">
        <ele>426</ele>
        <time>2013-10-03T15:18:12Z</time>
      </trkpt>
      <trkpt lat="45.45021" lon="5.97954">
        <ele>427</ele>
        <time>2013-10-03T15:18:17Z</time>
      </trkpt>
      <trkpt lat="45.45029" lon="5.97954">
        <ele>427.9</ele>
        <time>2013-10-03T15:18:22Z</time>
      </trkpt>
      <trkpt lat="45.45037" lon="5.97952">
        <ele>429.4</ele>
        <time>2013-10-03T15:18:29Z</time>
      </trkpt>
      <trkpt lat="45.45038" lon="5.97952">
        <ele>429.6</ele>
        <time>2013-10-03T15:18:30Z</time>
      </trkpt>
      <trkpt lat="45.45054" lon="5.97952">
        <ele>431.2</ele>
        <time>2013-10-03T15:18:40Z</time>
      </trkpt>
      <trkpt lat="45.45063" lon="5.97949">
        <ele>432</ele>
        <time>2013-10-03T15:18:45Z</time>
      </trkpt>
      <trkpt lat="45.4507" lon="5.97944">
        <ele>432.9</ele>
        <time>2013-10-03T15:18:50Z</time>
      </trkpt>
      <trkpt lat="45.45078" lon="5.97937">
        <ele>433.8</ele>
        <time>2013-10-03T15:18:55Z</time>
      </trkpt>
      <trkpt lat="45.45085" lon="5.97933">
        <ele>434.8</ele>
        <time>2013-10-03T15:19:00Z</time>
      </trkpt>
      <trkpt lat="45.45093" lon="5.97927">
        <ele>436.2</ele>
        <time>2013-10-03T15:19:05Z</time>
      </trkpt>
      <trkpt lat="45.451" lon="5.97924">
        <ele>437.1</ele>
        <time>2013-10-03T15:19:10Z</time>
      </trkpt>
      <trkpt lat="45.45108" lon="5.97922">
        <ele>438.6</ele>
        <time>2013-10-03T15:19:15Z</time>
      </trkpt>
      <trkpt lat="45.45116" lon="5.97919">
        <ele>439.1</ele>
        <time>2013-10-03T15:19:21Z</time>
      </trkpt>
      <trkpt lat="45.45124" lon="5.97917">
        <ele>440.1</ele>
        <time>2013-10-03T15:19:25Z</time>
      </trkpt>
      <trkpt lat="45.45131" lon="5.97911">
        <ele>441.1</ele>
        <time>2013-10-03T15:19:30Z</time>
      </trkpt>
      <trkpt lat="45.4514" lon="5.97907">
        <ele>441.8</ele>
        <time>2013-10-03T15:19:35Z</time>
      </trkpt>
      <trkpt lat="45.45141" lon="5.97906">
        <ele>441.9</ele>
        <time>2013-10-03T15:19:36Z</time>
      </trkpt>
      <trkpt lat="45.45155" lon="5.97897">
        <ele>444.6</ele>
        <time>2013-10-03T15:19:46Z</time>
      </trkpt>
      <trkpt lat="45.45161" lon="5.97889">
        <ele>445.9</ele>
        <time>2013-10-03T15:19:52Z</time>
      </trkpt>
      <trkpt lat="45.45167" lon="5.97881">
        <ele>446.9</ele>
        <time>2013-10-03T15:19:58Z</time>
      </trkpt>
      <trkpt lat="45.45173" lon="5.97872">
        <ele>448.4</ele>
        <time>2013-10-03T15:20:04Z</time>
      </trkpt>
      <trkpt lat="45.45179" lon="5.97863">
        <ele>449.6</ele>
        <time>2013-10-03T15:20:10Z</time>
      </trkpt>
      <trkpt lat="45.45183" lon="5.97853">
        <ele>450.5</ele>
        <time>2013-10-03T15:20:15Z</time>
      </trkpt>
      <trkpt lat="45.45191" lon="5.97848">
        <ele>452.1</ele>
        <time>2013-10-03T15:20:21Z</time>
      </trkpt>
      <trkpt lat="45.45199" lon="5.97845">
        <ele>454</ele>
        <time>2013-10-03T15:20:28Z</time>
      </trkpt>
      <trkpt lat="45.45207" lon="5.97847">
        <ele>455.3</ele>
        <time>2013-10-03T15:20:35Z</time>
      </trkpt>
      <trkpt lat="45.45215" lon="5.97852">
        <ele>457.1</ele>
        <time>2013-10-03T15:20:42Z</time>
      </trkpt>
      <trkpt lat="45.45216" lon="5.97852">
        <ele>457.7</ele>
        <time>2013-10-03T15:20:43Z</time>
      </trkpt>
      <trkpt lat="45.4523" lon="5.97857">
        <ele>460</ele>
        <time>2013-10-03T15:20:54Z</time>
      </trkpt>
      <trkpt lat="45.45239" lon="5.9786">
        <ele>461.6</ele>
        <time>2013-10-03T15:21:01Z</time>
      </trkpt>
      <trkpt lat="45.45247" lon="5.97862">
        <ele>463.6</ele>
        <time>2013-10-03T15:21:07Z</time>
      </trkpt>
      <trkpt lat="45.45256" lon="5.97863">
        <ele>465.1</ele>
        <time>2013-10-03T15:21:14Z</time>
      </trkpt>
      <trkpt lat="45.45263" lon="5.97862">
        <ele>466.5</ele>
        <time>2013-10-03T15:21:20Z</time>
      </trkpt>
      <trkpt lat="45.45271" lon="5.97862">
        <ele>467.4</ele>
        <time>2013-10-03T15:21:24Z</time>
      </trkpt>
      <trkpt lat="45.45279" lon="5.97866">
        <ele>468.8</ele>
        <time>2013-10-03T15:21:29Z</time>
      </trkpt>
      <trkpt lat="45.45287" lon="5.97867">
        <ele>470.2</ele>
        <time>2013-10-03T15:21:35Z</time>
      </trkpt>
      <trkpt lat="45.45295" lon="5.97869">
        <ele>471.4</ele>
        <time>2013-10-03T15:21:41Z</time>
      </trkpt>
      <trkpt lat="45.45304" lon="5.97869">
        <ele>472.5</ele>
        <time>2013-10-03T15:21:47Z</time>
      </trkpt>
      <trkpt lat="45.45305" lon="5.9787">
        <ele>472.6</ele>
        <time>2013-10-03T15:21:48Z</time>
      </trkpt>
      <trkpt lat="45.45318" lon="5.97872">
        <ele>473.9</ele>
        <time>2013-10-03T15:21:54Z</time>
      </trkpt>
      <trkpt lat="45.45326" lon="5.97871">
        <ele>474.7</ele>
        <time>2013-10-03T15:22:00Z</time>
      </trkpt>
      <trkpt lat="45.45333" lon="5.97867">
        <ele>476</ele>
        <time>2013-10-03T15:22:06Z</time>
      </trkpt>
      <trkpt lat="45.45341" lon="5.97862">
        <ele>477.1</ele>
        <time>2013-10-03T15:22:12Z</time>
      </trkpt>
      <trkpt lat="45.45344" lon="5.97852">
        <ele>478.1</ele>
        <time>2013-10-03T15:22:18Z</time>
      </trkpt>
      <trkpt lat="45.45343" lon="5.97841">
        <ele>479.6</ele>
        <time>2013-10-03T15:22:25Z</time>
      </trkpt>
      <trkpt lat="45.4534" lon="5.97829">
        <ele>480.6</ele>
        <time>2013-10-03T15:22:33Z</time>
      </trkpt>
      <trkpt lat="45.45335" lon="5.9782">
        <ele>481.8</ele>
        <time>2013-10-03T15:22:39Z</time>
      </trkpt>
      <trkpt lat="45.4533" lon="5.97811">
        <ele>482.8</ele>
        <time>2013-10-03T15:22:44Z</time>
      </trkpt>
      <trkpt lat="45.45325" lon="5.97803">
        <ele>484</ele>
        <time>2013-10-03T15:22:50Z</time>
      </trkpt>
      <trkpt lat="45.45324" lon="5.97801">
        <ele>484.1</ele>
        <time>2013-10-03T15:22:51Z</time>
      </trkpt>
      <trkpt lat="45.45316" lon="5.97784">
        <ele>485.8</ele>
        <time>2013-10-03T15:23:01Z</time>
      </trkpt>
      <trkpt lat="45.45312" lon="5.97774">
        <ele>487.1</ele>
        <time>2013-10-03T15:23:07Z</time>
      </trkpt>
      <trkpt lat="45.45308" lon="5.97765">
        <ele>488.2</ele>
        <time>2013-10-03T15:23:12Z</time>
      </trkpt>
      <trkpt lat="45.45304" lon="5.97755">
        <ele>489.6</ele>
        <time>2013-10-03T15:23:17Z</time>
      </trkpt>
      <trkpt lat="45.45302" lon="5.97744">
        <ele>490.5</ele>
        <time>2013-10-03T15:23:22Z</time>
      </trkpt>
      <trkpt lat="45.45301" lon="5.97733">
        <ele>491.7</ele>
        <time>2013-10-03T15:23:27Z</time>
      </trkpt>
      <trkpt lat="45.453" lon="5.97722">
        <ele>492.5</ele>
        <time>2013-10-03T15:23:32Z</time>
      </trkpt>
      <trkpt lat="45.45302" lon="5.9771">
        <ele>493.9</ele>
        <time>2013-10-03T15:23:38Z</time>
      </trkpt>
      <trkpt lat="45.45306" lon="5.977">
        <ele>494.6</ele>
        <time>2013-10-03T15:23:44Z</time>
      </trkpt>
      <trkpt lat="45.45312" lon="5.97691">
        <ele>496.2</ele>
        <time>2013-10-03T15:23:50Z</time>
      </trkpt>
      <trkpt lat="45.45317" lon="5.97683">
        <ele>497.4</ele>
        <time>2013-10-03T15:23:56Z</time>
      </trkpt>
      <trkpt lat="45.45318" lon="5.97681">
        <ele>497.5</ele>
        <time>2013-10-03T15:23:57Z</time>
      </trkpt>
      <trkpt lat="45.45327" lon="5.97663">
        <ele>499.6</ele>
        <time>2013-10-03T15:24:08Z</time>
      </trkpt>
      <trkpt lat="45.45332" lon="5.97653">
        <ele>499.9</ele>
        <time>2013-10-03T15:24:14Z</time>
      </trkpt>
      <trkpt lat="45.45337" lon="5.97644">
        <ele>500.9</ele>
        <time>2013-10-03T15:24:20Z</time>
      </trkpt>
      <trkpt lat="45.4534" lon="5.97633">
        <ele>501.8</ele>
        <time>2013-10-03T15:24:25Z</time>
      </trkpt>
      <trkpt lat="45.45343" lon="5.97622">
        <ele>502.5</ele>
        <time>2013-10-03T15:24:31Z</time>
      </trkpt>
      <trkpt lat="45.45344" lon="5.97611">
        <ele>503.7</ele>
        <time>2013-10-03T15:24:37Z</time>
      </trkpt>
      <trkpt lat="45.45348" lon="5.97601">
        <ele>504.6</ele>
        <time>2013-10-03T15:24:43Z</time>
      </trkpt>
      <trkpt lat="45.4535" lon="5.97591">
        <ele>505.4</ele>
        <time>2013-10-03T15:24:49Z</time>
      </trkpt>
      <trkpt lat="45.45354" lon="5.97579">
        <ele>506.5</ele>
        <time>2013-10-03T15:24:56Z</time>
      </trkpt>
      <trkpt lat="45.45355" lon="5.97568">
        <ele>507.3</ele>
        <time>2013-10-03T15:25:00Z</time>
      </trkpt>
      <trkpt lat="45.45356" lon="5.97566">
        <ele>507.5</ele>
        <time>2013-10-03T15:25:01Z</time>
      </trkpt>
      <trkpt lat="45.45354" lon="5.97545">
        <ele>509.9</ele>
        <time>2013-10-03T15:25:13Z</time>
      </trkpt>
      <trkpt lat="45.45356" lon="5.97534">
        <ele>511.1</ele>
        <time>2013-10-03T15:25:19Z</time>
      </trkpt>
      <trkpt lat="45.45357" lon="5.97523">
        <ele>512.2</ele>
        <time>2013-10-03T15:25:24Z</time>
      </trkpt>
      <trkpt lat="45.45361" lon="5.97512">
        <ele>513.5</ele>
        <time>2013-10-03T15:25:29Z</time>
      </trkpt>
      <trkpt lat="45.45361" lon="5.975">
        <ele>514.9</ele>
        <time>2013-10-03T15:25:34Z</time>
      </trkpt>
      <trkpt lat="45.45364" lon="5.97488">
        <ele>516.4</ele>
        <time>2013-10-03T15:25:40Z</time>
      </trkpt>
      <trkpt lat="45.45367" lon="5.97478">
        <ele>517.6</ele>
        <time>2013-10-03T15:25:46Z</time>
      </trkpt>
      <trkpt lat="45.45372" lon="5.97468">
        <ele>519.5</ele>
        <time>2013-10-03T15:25:53Z</time>
      </trkpt>
      <trkpt lat="45.45375" lon="5.97459">
        <ele>521.5</ele>
        <time>2013-10-03T15:25:59Z</time>
      </trkpt>
      <trkpt lat="45.4538" lon="5.97451">
        <ele>523</ele>
        <time>2013-10-03T15:26:03Z</time>
      </trkpt>
      <trkpt lat="45.4538" lon="5.97449">
        <ele>523.3</ele>
        <time>2013-10-03T15:26:04Z</time>
      </trkpt>
      <trkpt lat="45.45387" lon="5.9743">
        <ele>527</ele>
        <time>2013-10-03T15:26:16Z</time>
      </trkpt>
      <trkpt lat="45.45391" lon="5.9742">
        <ele>528.9</ele>
        <time>2013-10-03T15:26:23Z</time>
      </trkpt>
      <trkpt lat="45.45394" lon="5.97409">
        <ele>530.6</ele>
        <time>2013-10-03T15:26:29Z</time>
      </trkpt>
      <trkpt lat="45.45395" lon="5.97397">
        <ele>531.1</ele>
        <time>2013-10-03T15:26:33Z</time>
      </trkpt>
      <trkpt lat="45.45396" lon="5.97384">
        <ele>532.7</ele>
        <time>2013-10-03T15:26:39Z</time>
      </trkpt>
      <trkpt lat="45.45399" lon="5.97372">
        <ele>534.1</ele>
        <time>2013-10-03T15:26:46Z</time>
      </trkpt>
      <trkpt lat="45.454" lon="5.9736">
        <ele>535.3</ele>
        <time>2013-10-03T15:26:52Z</time>
      </trkpt>
      <trkpt lat="45.45399" lon="5.97349">
        <ele>536.3</ele>
        <time>2013-10-03T15:26:58Z</time>
      </trkpt>
      <trkpt lat="45.45398" lon="5.97337">
        <ele>537.4</ele>
        <time>2013-10-03T15:27:04Z</time>
      </trkpt>
      <trkpt lat="45.45397" lon="5.97335">
        <ele>537.7</ele>
        <time>2013-10-03T15:27:05Z</time>
      </trkpt>
      <trkpt lat="45.45395" lon="5.97315">
        <ele>540.5</ele>
        <time>2013-10-03T15:27:16Z</time>
      </trkpt>
      <trkpt lat="45.45395" lon="5.97304">
        <ele>541.9</ele>
        <time>2013-10-03T15:27:22Z</time>
      </trkpt>
      <trkpt lat="45.45395" lon="5.97293">
        <ele>543.3</ele>
        <time>2013-10-03T15:27:28Z</time>
      </trkpt>
      <trkpt lat="45.45393" lon="5.97281">
        <ele>544.8</ele>
        <time>2013-10-03T15:27:33Z</time>
      </trkpt>
      <trkpt lat="45.45393" lon="5.97269">
        <ele>546</ele>
        <time>2013-10-03T15:27:39Z</time>
      </trkpt>
      <trkpt lat="45.45394" lon="5.97258">
        <ele>547.7</ele>
        <time>2013-10-03T15:27:45Z</time>
      </trkpt>
      <trkpt lat="45.45397" lon="5.97246">
        <ele>548.9</ele>
        <time>2013-10-03T15:27:51Z</time>
      </trkpt>
      <trkpt lat="45.454" lon="5.97235">
        <ele>550.5</ele>
        <time>2013-10-03T15:27:57Z</time>
      </trkpt>
      <trkpt lat="45.45406" lon="5.97225">
        <ele>552.2</ele>
        <time>2013-10-03T15:28:03Z</time>
      </trkpt>
      <trkpt lat="45.4541" lon="5.97215">
        <ele>553.6</ele>
        <time>2013-10-03T15:28:09Z</time>
      </trkpt>
      <trkpt lat="45.4541" lon="5.97213">
        <ele>553.7</ele>
        <time>2013-10-03T15:28:10Z</time>
      </trkpt>
      <trkpt lat="45.45416" lon="5.97192">
        <ele>556.9</ele>
        <time>2013-10-03T15:28:22Z</time>
      </trkpt>
      <trkpt lat="45.45417" lon="5.97181">
        <ele>558.2</ele>
        <time>2013-10-03T15:28:28Z</time>
      </trkpt>
      <trkpt lat="45.45418" lon="5.97169">
        <ele>559.5</ele>
        <time>2013-10-03T15:28:34Z</time>
      </trkpt>
      <trkpt lat="45.4542" lon="5.97159">
        <ele>561</ele>
        <time>2013-10-03T15:28:40Z</time>
      </trkpt>
      <trkpt lat="45.45421" lon="5.97149">
        <ele>562.3</ele>
        <time>2013-10-03T15:28:45Z</time>
      </trkpt>
      <trkpt lat="45.45422" lon="5.97137">
        <ele>563.7</ele>
        <time>2013-10-03T15:28:51Z</time>
      </trkpt>
      <trkpt lat="45.45424" lon="5.97126">
        <ele>564.9</ele>
        <time>2013-10-03T15:28:57Z</time>
      </trkpt>
      <trkpt lat="45.45427" lon="5.97115">
        <ele>566.4</ele>
        <time>2013-10-03T15:29:03Z</time>
      </trkpt>
      <trkpt lat="45.45425" lon="5.97103">
        <ele>568.6</ele>
        <time>2013-10-03T15:29:11Z</time>
      </trkpt>
      <trkpt lat="45.45424" lon="5.97102">
        <ele>568.9</ele>
        <time>2013-10-03T15:29:12Z</time>
      </trkpt>
      <trkpt lat="45.45415" lon="5.97086">
        <ele>572</ele>
        <time>2013-10-03T15:29:23Z</time>
      </trkpt>
      <trkpt lat="45.45413" lon="5.97074">
        <ele>574.1</ele>
        <time>2013-10-03T15:29:30Z</time>
      </trkpt>
      <trkpt lat="45.4541" lon="5.97062">
        <ele>576.6</ele>
        <time>2013-10-03T15:29:38Z</time>
      </trkpt>
      <trkpt lat="45.45403" lon="5.97055">
        <ele>578.9</ele>
        <time>2013-10-03T15:29:45Z</time>
      </trkpt>
      <trkpt lat="45.45396" lon="5.9705">
        <ele>580.3</ele>
        <time>2013-10-03T15:29:51Z</time>
      </trkpt>
      <trkpt lat="45.45389" lon="5.97047">
        <ele>582</ele>
        <time>2013-10-03T15:29:57Z</time>
      </trkpt>
      <trkpt lat="45.4538" lon="5.97045">
        <ele>584.1</ele>
        <time>2013-10-03T15:30:04Z</time>
      </trkpt>
      <trkpt lat="45.45372" lon="5.9704">
        <ele>587.4</ele>
        <time>2013-10-03T15:31:51Z</time>
      </trkpt>
      <trkpt lat="45.45371" lon="5.9704">
        <ele>587.5</ele>
        <time>2013-10-03T15:31:52Z</time>
      </trkpt>
      <trkpt lat="45.45356" lon="5.97043">
        <ele>590.2</ele>
        <time>2013-10-03T15:32:07Z</time>
      </trkpt>
      <trkpt lat="45.45348" lon="5.97039">
        <ele>592.5</ele>
        <time>2013-10-03T15:32:14Z</time>
      </trkpt>
      <trkpt lat="45.4534" lon="5.97039">
        <ele>595.3</ele>
        <time>2013-10-03T15:32:29Z</time>
      </trkpt>
      <trkpt lat="45.45332" lon="5.97039">
        <ele>597.1</ele>
        <time>2013-10-03T15:32:46Z</time>
      </trkpt>
      <trkpt lat="45.45323" lon="5.97036">
        <ele>599</ele>
        <time>2013-10-03T15:32:58Z</time>
      </trkpt>
      <trkpt lat="45.45322" lon="5.97035">
        <ele>599.1</ele>
        <time>2013-10-03T15:32:59Z</time>
      </trkpt>
      <trkpt lat="45.45311" lon="5.97019">
        <ele>603.6</ele>
        <time>2013-10-03T15:33:25Z</time>
      </trkpt>
      <trkpt lat="45.45318" lon="5.97011">
        <ele>605.8</ele>
        <time>2013-10-03T15:33:54Z</time>
      </trkpt>
      <trkpt lat="45.45325" lon="5.97007">
        <ele>607</ele>
        <time>2013-10-03T15:33:59Z</time>
      </trkpt>
      <trkpt lat="45.45326" lon="5.97006">
        <ele>607.4</ele>
        <time>2013-10-03T15:34:00Z</time>
      </trkpt>
      <trkpt lat="45.45338" lon="5.96993">
        <ele>610.7</ele>
        <time>2013-10-03T15:34:11Z</time>
      </trkpt>
      <trkpt lat="45.45343" lon="5.96985">
        <ele>612</ele>
        <time>2013-10-03T15:34:17Z</time>
      </trkpt>
      <trkpt lat="45.45347" lon="5.96975">
        <ele>614.1</ele>
        <time>2013-10-03T15:34:23Z</time>
      </trkpt>
      <trkpt lat="45.45353" lon="5.96965">
        <ele>615.3</ele>
        <time>2013-10-03T15:34:28Z</time>
      </trkpt>
      <trkpt lat="45.45359" lon="5.96958">
        <ele>616.9</ele>
        <time>2013-10-03T15:34:35Z</time>
      </trkpt>
      <trkpt lat="45.45365" lon="5.9695">
        <ele>618.4</ele>
        <time>2013-10-03T15:34:42Z</time>
      </trkpt>
      <trkpt lat="45.45371" lon="5.9694">
        <ele>620.6</ele>
        <time>2013-10-03T15:34:49Z</time>
      </trkpt>
      <trkpt lat="45.45375" lon="5.96931">
        <ele>621.9</ele>
        <time>2013-10-03T15:34:56Z</time>
      </trkpt>
      <trkpt lat="45.45379" lon="5.9692">
        <ele>623.3</ele>
        <time>2013-10-03T15:35:05Z</time>
      </trkpt>
      <trkpt lat="45.4538" lon="5.96919">
        <ele>623.3</ele>
        <time>2013-10-03T15:35:06Z</time>
      </trkpt>
      <trkpt lat="45.4539" lon="5.96901">
        <ele>627.2</ele>
        <time>2013-10-03T15:35:23Z</time>
      </trkpt>
      <trkpt lat="45.45397" lon="5.96894">
        <ele>629.2</ele>
        <time>2013-10-03T15:36:42Z</time>
      </trkpt>
      <trkpt lat="45.45398" lon="5.96892">
        <ele>629.2</ele>
        <time>2013-10-03T15:36:43Z</time>
      </trkpt>
      <trkpt lat="45.45403" lon="5.96872">
        <ele>631.4</ele>
        <time>2013-10-03T15:36:54Z</time>
      </trkpt>
      <trkpt lat="45.45405" lon="5.9686">
        <ele>633.2</ele>
        <time>2013-10-03T15:36:59Z</time>
      </trkpt>
      <trkpt lat="45.45407" lon="5.96848">
        <ele>635.2</ele>
        <time>2013-10-03T15:37:06Z</time>
      </trkpt>
      <trkpt lat="45.45411" lon="5.96837">
        <ele>637.7</ele>
        <time>2013-10-03T15:37:13Z</time>
      </trkpt>
      <trkpt lat="45.45412" lon="5.96825">
        <ele>638.7</ele>
        <time>2013-10-03T15:37:18Z</time>
      </trkpt>
      <trkpt lat="45.45411" lon="5.96812">
        <ele>640.8</ele>
        <time>2013-10-03T15:37:25Z</time>
      </trkpt>
      <trkpt lat="45.45412" lon="5.968">
        <ele>642.5</ele>
        <time>2013-10-03T15:37:31Z</time>
      </trkpt>
      <trkpt lat="45.45416" lon="5.96789">
        <ele>645.4</ele>
        <time>2013-10-03T15:37:38Z</time>
      </trkpt>
      <trkpt lat="45.45418" lon="5.96777">
        <ele>647.5</ele>
        <time>2013-10-03T15:37:45Z</time>
      </trkpt>
      <trkpt lat="45.45418" lon="5.96775">
        <ele>647.8</ele>
        <time>2013-10-03T15:37:46Z</time>
      </trkpt>
      <trkpt lat="45.45423" lon="5.96756">
        <ele>650.3</ele>
        <time>2013-10-03T15:37:58Z</time>
      </trkpt>
      <trkpt lat="45.45428" lon="5.96746">
        <ele>652.1</ele>
        <time>2013-10-03T15:38:04Z</time>
      </trkpt>
      <trkpt lat="45.45432" lon="5.96737">
        <ele>652.8</ele>
        <time>2013-10-03T15:38:10Z</time>
      </trkpt>
      <trkpt lat="45.45437" lon="5.96727">
        <ele>655.9</ele>
        <time>2013-10-03T15:38:26Z</time>
      </trkpt>
      <trkpt lat="45.45445" lon="5.96721">
        <ele>657.5</ele>
        <time>2013-10-03T15:38:37Z</time>
      </trkpt>
      <trkpt lat="45.45452" lon="5.96713">
        <ele>659</ele>
        <time>2013-10-03T15:38:49Z</time>
      </trkpt>
      <trkpt lat="45.45453" lon="5.96712">
        <ele>658.9</ele>
        <time>2013-10-03T15:38:50Z</time>
      </trkpt>
      <trkpt lat="45.45463" lon="5.96695">
        <ele>660</ele>
        <time>2013-10-03T15:39:00Z</time>
      </trkpt>
      <trkpt lat="45.45467" lon="5.96686">
        <ele>660.6</ele>
        <time>2013-10-03T15:39:05Z</time>
      </trkpt>
      <trkpt lat="45.45473" lon="5.96678">
        <ele>660.4</ele>
        <time>2013-10-03T15:39:09Z</time>
      </trkpt>
      <trkpt lat="45.45477" lon="5.9667">
        <ele>661.2</ele>
        <time>2013-10-03T15:39:13Z</time>
      </trkpt>
      <trkpt lat="45.45482" lon="5.96663">
        <ele>662.2</ele>
        <time>2013-10-03T15:39:17Z</time>
      </trkpt>
      <trkpt lat="45.45489" lon="5.96654">
        <ele>662.3</ele>
        <time>2013-10-03T15:39:22Z</time>
      </trkpt>
      <trkpt lat="45.45493" lon="5.96643">
        <ele>663.5</ele>
        <time>2013-10-03T15:39:27Z</time>
      </trkpt>
      <trkpt lat="45.45496" lon="5.96632">
        <ele>664.2</ele>
        <time>2013-10-03T15:39:33Z</time>
      </trkpt>
      <trkpt lat="45.45498" lon="5.9662">
        <ele>665.9</ele>
        <time>2013-10-03T15:39:39Z</time>
      </trkpt>
      <trkpt lat="45.45501" lon="5.96609">
        <ele>667.3</ele>
        <time>2013-10-03T15:39:47Z</time>
      </trkpt>
      <trkpt lat="45.455" lon="5.96596">
        <ele>668.7</ele>
        <time>2013-10-03T15:39:54Z</time>
      </trkpt>
      <trkpt lat="45.455" lon="5.96595">
        <ele>668.9</ele>
        <time>2013-10-03T15:39:55Z</time>
      </trkpt>
      <trkpt lat="45.45495" lon="5.96573">
        <ele>671.5</ele>
        <time>2013-10-03T15:40:09Z</time>
      </trkpt>
      <trkpt lat="45.45494" lon="5.9656">
        <ele>672.8</ele>
        <time>2013-10-03T15:40:19Z</time>
      </trkpt>
      <trkpt lat="45.45495" lon="5.9655">
        <ele>674.2</ele>
        <time>2013-10-03T15:40:25Z</time>
      </trkpt>
      <trkpt lat="45.45494" lon="5.96538">
        <ele>675.1</ele>
        <time>2013-10-03T15:40:31Z</time>
      </trkpt>
      <trkpt lat="45.45493" lon="5.96527">
        <ele>677</ele>
        <time>2013-10-03T15:40:38Z</time>
      </trkpt>
      <trkpt lat="45.4549" lon="5.96515">
        <ele>678.2</ele>
        <time>2013-10-03T15:40:44Z</time>
      </trkpt>
      <trkpt lat="45.45484" lon="5.96505">
        <ele>679.7</ele>
        <time>2013-10-03T15:40:50Z</time>
      </trkpt>
      <trkpt lat="45.4548" lon="5.96495">
        <ele>680.8</ele>
        <time>2013-10-03T15:40:56Z</time>
      </trkpt>
      <trkpt lat="45.4548" lon="5.96494">
        <ele>680.9</ele>
        <time>2013-10-03T15:40:57Z</time>
      </trkpt>
      <trkpt lat="45.45477" lon="5.96473">
        <ele>681.9</ele>
        <time>2013-10-03T15:41:06Z</time>
      </trkpt>
      <trkpt lat="45.45476" lon="5.96463">
        <ele>682.1</ele>
        <time>2013-10-03T15:41:10Z</time>
      </trkpt>
      <trkpt lat="45.45473" lon="5.96453">
        <ele>682.8</ele>
        <time>2013-10-03T15:41:14Z</time>
      </trkpt>
      <trkpt lat="45.45469" lon="5.96445">
        <ele>683.3</ele>
        <time>2013-10-03T15:41:18Z</time>
      </trkpt>
      <trkpt lat="45.45464" lon="5.96437">
        <ele>683.4</ele>
        <time>2013-10-03T15:41:22Z</time>
      </trkpt>
      <trkpt lat="45.45458" lon="5.96428">
        <ele>684.2</ele>
        <time>2013-10-03T15:41:26Z</time>
      </trkpt>
      <trkpt lat="45.45454" lon="5.9642">
        <ele>684.2</ele>
        <time>2013-10-03T15:41:30Z</time>
      </trkpt>
      <trkpt lat="45.45447" lon="5.96415">
        <ele>684.2</ele>
        <time>2013-10-03T15:41:34Z</time>
      </trkpt>
      <trkpt lat="45.45441" lon="5.96406">
        <ele>684.5</ele>
        <time>2013-10-03T15:41:39Z</time>
      </trkpt>
      <trkpt lat="45.45437" lon="5.96396">
        <ele>684.9</ele>
        <time>2013-10-03T15:41:44Z</time>
      </trkpt>
      <trkpt lat="45.45435" lon="5.96383">
        <ele>685.4</ele>
        <time>2013-10-03T15:41:48Z</time>
      </trkpt>
      <trkpt lat="45.45435" lon="5.96371">
        <ele>686.3</ele>
        <time>2013-10-03T15:41:59Z</time>
      </trkpt>
      <trkpt lat="45.45435" lon="5.9637">
        <ele>686.4</ele>
        <time>2013-10-03T15:42:00Z</time>
      </trkpt>
      <trkpt lat="45.45443" lon="5.96349">
        <ele>687.9</ele>
        <time>2013-10-03T15:42:16Z</time>
      </trkpt>
      <trkpt lat="45.45445" lon="5.96338">
        <ele>689.3</ele>
        <time>2013-10-03T15:42:34Z</time>
      </trkpt>
      <trkpt lat="45.45449" lon="5.96329">
        <ele>689.2</ele>
        <time>2013-10-03T15:42:38Z</time>
      </trkpt>
      <trkpt lat="45.45453" lon="5.96318">
        <ele>690.2</ele>
        <time>2013-10-03T15:42:44Z</time>
      </trkpt>
      <trkpt lat="45.45455" lon="5.96307">
        <ele>691.6</ele>
        <time>2013-10-03T15:42:51Z</time>
      </trkpt>
      <trkpt lat="45.45458" lon="5.96296">
        <ele>692.3</ele>
        <time>2013-10-03T15:42:56Z</time>
      </trkpt>
      <trkpt lat="45.45458" lon="5.96284">
        <ele>693.4</ele>
        <time>2013-10-03T15:43:02Z</time>
      </trkpt>
      <trkpt lat="45.45459" lon="5.96282">
        <ele>693.4</ele>
        <time>2013-10-03T15:43:03Z</time>
      </trkpt>
      <trkpt lat="45.45469" lon="5.96267">
        <ele>692.8</ele>
        <time>2013-10-03T15:43:09Z</time>
      </trkpt>
      <trkpt lat="45.45476" lon="5.9626">
        <ele>692.2</ele>
        <time>2013-10-03T15:43:11Z</time>
      </trkpt>
      <trkpt lat="45.45481" lon="5.96252">
        <ele>691.2</ele>
        <time>2013-10-03T15:43:13Z</time>
      </trkpt>
      <trkpt lat="45.45484" lon="5.96247">
        <ele>690.8</ele>
        <time>2013-10-03T15:43:14Z</time>
      </trkpt>
      <trkpt lat="45.45487" lon="5.9624">
        <ele>690.6</ele>
        <time>2013-10-03T15:43:15Z</time>
      </trkpt>
      <trkpt lat="45.45491" lon="5.96232">
        <ele>690.3</ele>
        <time>2013-10-03T15:43:16Z</time>
      </trkpt>
      <trkpt lat="45.45495" lon="5.96224">
        <ele>690</ele>
        <time>2013-10-03T15:43:17Z</time>
      </trkpt>
      <trkpt lat="45.45499" lon="5.96217">
        <ele>689</ele>
        <time>2013-10-03T15:43:18Z</time>
      </trkpt>
      <trkpt lat="45.45501" lon="5.96209">
        <ele>688.8</ele>
        <time>2013-10-03T15:43:19Z</time>
      </trkpt>
      <trkpt lat="45.45503" lon="5.96202">
        <ele>688.5</ele>
        <time>2013-10-03T15:43:20Z</time>
      </trkpt>
      <trkpt lat="45.45503" lon="5.96194">
        <ele>688.2</ele>
        <time>2013-10-03T15:43:21Z</time>
      </trkpt>
      <trkpt lat="45.45502" lon="5.96185">
        <ele>687.6</ele>
        <time>2013-10-03T15:43:22Z</time>
      </trkpt>
      <trkpt lat="45.455" lon="5.96176">
        <ele>686.6</ele>
        <time>2013-10-03T15:43:23Z</time>
      </trkpt>
      <trkpt lat="45.45498" lon="5.9617">
        <ele>686.3</ele>
        <time>2013-10-03T15:43:24Z</time>
      </trkpt>
      <trkpt lat="45.45496" lon="5.96159">
        <ele>685</ele>
        <time>2013-10-03T15:43:26Z</time>
      </trkpt>
      <trkpt lat="45.45497" lon="5.96148">
        <ele>683.6</ele>
        <time>2013-10-03T15:43:28Z</time>
      </trkpt>
      <trkpt lat="45.45504" lon="5.96141">
        <ele>683.2</ele>
        <time>2013-10-03T15:43:32Z</time>
      </trkpt>
      <trkpt lat="45.45513" lon="5.96141">
        <ele>682.2</ele>
        <time>2013-10-03T15:43:35Z</time>
      </trkpt>
      <trkpt lat="45.45521" lon="5.96137">
        <ele>682</ele>
        <time>2013-10-03T15:43:37Z</time>
      </trkpt>
      <trkpt lat="45.45524" lon="5.96133">
        <ele>681.6</ele>
        <time>2013-10-03T15:43:38Z</time>
      </trkpt>
      <trkpt lat="45.45528" lon="5.96128">
        <ele>681.2</ele>
        <time>2013-10-03T15:43:39Z</time>
      </trkpt>
      <trkpt lat="45.45535" lon="5.9612">
        <ele>680.2</ele>
        <time>2013-10-03T15:43:41Z</time>
      </trkpt>
      <trkpt lat="45.4554" lon="5.96114">
        <ele>680.3</ele>
        <time>2013-10-03T15:43:43Z</time>
      </trkpt>
      <trkpt lat="45.45545" lon="5.96107">
        <ele>678.9</ele>
        <time>2013-10-03T15:43:45Z</time>
      </trkpt>
      <trkpt lat="45.45551" lon="5.96102">
        <ele>677</ele>
        <time>2013-10-03T15:43:47Z</time>
      </trkpt>
      <trkpt lat="45.45556" lon="5.96098">
        <ele>675.8</ele>
        <time>2013-10-03T15:43:49Z</time>
      </trkpt>
      <trkpt lat="45.45564" lon="5.96092">
        <ele>673.8</ele>
        <time>2013-10-03T15:43:52Z</time>
      </trkpt>
      <trkpt lat="45.45571" lon="5.96084">
        <ele>672.5</ele>
        <time>2013-10-03T15:43:55Z</time>
      </trkpt>
      <trkpt lat="45.45576" lon="5.96076">
        <ele>670.9</ele>
        <time>2013-10-03T15:43:58Z</time>
      </trkpt>
      <trkpt lat="45.4558" lon="5.96065">
        <ele>670</ele>
        <time>2013-10-03T15:44:01Z</time>
      </trkpt>
      <trkpt lat="45.45582" lon="5.96054">
        <ele>668.8</ele>
        <time>2013-10-03T15:44:03Z</time>
      </trkpt>
      <trkpt lat="45.45583" lon="5.96048">
        <ele>668.5</ele>
        <time>2013-10-03T15:44:04Z</time>
      </trkpt>
      <trkpt lat="45.45583" lon="5.9604">
        <ele>668</ele>
        <time>2013-10-03T15:44:05Z</time>
      </trkpt>
      <trkpt lat="45.45584" lon="5.96032">
        <ele>667.5</ele>
        <time>2013-10-03T15:44:06Z</time>
      </trkpt>
      <trkpt lat="45.45586" lon="5.96025">
        <ele>667.2</ele>
        <time>2013-10-03T15:44:07Z</time>
      </trkpt>
      <trkpt lat="45.45588" lon="5.96017">
        <ele>667.2</ele>
        <time>2013-10-03T15:44:08Z</time>
      </trkpt>
      <trkpt lat="45.45591" lon="5.96011">
        <ele>666.7</ele>
        <time>2013-10-03T15:44:09Z</time>
      </trkpt>
      <trkpt lat="45.45595" lon="5.96006">
        <ele>665.8</ele>
        <time>2013-10-03T15:44:10Z</time>
      </trkpt>
      <trkpt lat="45.45599" lon="5.96002">
        <ele>664.9</ele>
        <time>2013-10-03T15:44:11Z</time>
      </trkpt>
      <trkpt lat="45.45604" lon="5.95998">
        <ele>664.4</ele>
        <time>2013-10-03T15:44:12Z</time>
      </trkpt>
      <trkpt lat="45.45609" lon="5.95998">
        <ele>663.9</ele>
        <time>2013-10-03T15:44:13Z</time>
      </trkpt>
      <trkpt lat="45.45616" lon="5.96003">
        <ele>663.2</ele>
        <time>2013-10-03T15:44:15Z</time>
      </trkpt>
      <trkpt lat="45.45619" lon="5.96008">
        <ele>662.9</ele>
        <time>2013-10-03T15:44:16Z</time>
      </trkpt>
      <trkpt lat="45.45622" lon="5.96014">
        <ele>663</ele>
        <time>2013-10-03T15:44:17Z</time>
      </trkpt>
      <trkpt lat="45.45626" lon="5.96024">
        <ele>662.4</ele>
        <time>2013-10-03T15:44:19Z</time>
      </trkpt>
      <trkpt lat="45.45629" lon="5.96032">
        <ele>662.6</ele>
        <time>2013-10-03T15:44:21Z</time>
      </trkpt>
      <trkpt lat="45.45635" lon="5.96042">
        <ele>662.6</ele>
        <time>2013-10-03T15:44:24Z</time>
      </trkpt>
      <trkpt lat="45.45641" lon="5.96051">
        <ele>662.8</ele>
        <time>2013-10-03T15:44:27Z</time>
      </trkpt>
      <trkpt lat="45.45646" lon="5.96057">
        <ele>663.4</ele>
        <time>2013-10-03T15:44:29Z</time>
      </trkpt>
      <trkpt lat="45.45651" lon="5.96066">
        <ele>663.5</ele>
        <time>2013-10-03T15:44:32Z</time>
      </trkpt>
      <trkpt lat="45.45656" lon="5.96075">
        <ele>664.1</ele>
        <time>2013-10-03T15:44:36Z</time>
      </trkpt>
      <trkpt lat="45.4566" lon="5.96083">
        <ele>665</ele>
        <time>2013-10-03T15:44:40Z</time>
      </trkpt>
      <trkpt lat="45.45664" lon="5.96094">
        <ele>665.6</ele>
        <time>2013-10-03T15:44:43Z</time>
      </trkpt>
      <trkpt lat="45.45666" lon="5.96103">
        <ele>665.9</ele>
        <time>2013-10-03T15:44:46Z</time>
      </trkpt>
      <trkpt lat="45.4567" lon="5.96114">
        <ele>666.6</ele>
        <time>2013-10-03T15:44:50Z</time>
      </trkpt>
      <trkpt lat="45.45674" lon="5.96125">
        <ele>667.4</ele>
        <time>2013-10-03T15:44:54Z</time>
      </trkpt>
      <trkpt lat="45.45678" lon="5.96132">
        <ele>667.8</ele>
        <time>2013-10-03T15:44:57Z</time>
      </trkpt>
      <trkpt lat="45.45684" lon="5.9614">
        <ele>668.4</ele>
        <time>2013-10-03T15:45:01Z</time>
      </trkpt>
      <trkpt lat="45.45691" lon="5.96144">
        <ele>668.9</ele>
        <time>2013-10-03T15:45:05Z</time>
      </trkpt>
      <trkpt lat="45.45692" lon="5.96145">
        <ele>669</ele>
        <time>2013-10-03T15:45:06Z</time>
      </trkpt>
      <trkpt lat="45.45701" lon="5.96159">
        <ele>670.1</ele>
        <time>2013-10-03T15:45:13Z</time>
      </trkpt>
      <trkpt lat="45.45698" lon="5.96169">
        <ele>669.9</ele>
        <time>2013-10-03T15:45:17Z</time>
      </trkpt>
      <trkpt lat="45.45696" lon="5.96181">
        <ele>670.1</ele>
        <time>2013-10-03T15:45:21Z</time>
      </trkpt>
      <trkpt lat="45.45694" lon="5.96191">
        <ele>670</ele>
        <time>2013-10-03T15:45:24Z</time>
      </trkpt>
      <trkpt lat="45.45694" lon="5.962">
        <ele>670.2</ele>
        <time>2013-10-03T15:45:26Z</time>
      </trkpt>
      <trkpt lat="45.45695" lon="5.96211">
        <ele>669.7</ele>
        <time>2013-10-03T15:45:28Z</time>
      </trkpt>
      <trkpt lat="45.45696" lon="5.96217">
        <ele>669.6</ele>
        <time>2013-10-03T15:45:29Z</time>
      </trkpt>
      <trkpt lat="45.45696" lon="5.96225">
        <ele>669.1</ele>
        <time>2013-10-03T15:45:30Z</time>
      </trkpt>
      <trkpt lat="45.45697" lon="5.96233">
        <ele>668.7</ele>
        <time>2013-10-03T15:45:31Z</time>
      </trkpt>
      <trkpt lat="45.45698" lon="5.96241">
        <ele>668.2</ele>
        <time>2013-10-03T15:45:32Z</time>
      </trkpt>
      <trkpt lat="45.45699" lon="5.9625">
        <ele>667.6</ele>
        <time>2013-10-03T15:45:33Z</time>
      </trkpt>
      <trkpt lat="45.45702" lon="5.96258">
        <ele>667.5</ele>
        <time>2013-10-03T15:45:34Z</time>
      </trkpt>
      <trkpt lat="45.45704" lon="5.96266">
        <ele>667.2</ele>
        <time>2013-10-03T15:45:35Z</time>
      </trkpt>
      <trkpt lat="45.45706" lon="5.96276">
        <ele>666.7</ele>
        <time>2013-10-03T15:45:36Z</time>
      </trkpt>
      <trkpt lat="45.45708" lon="5.96286">
        <ele>666.6</ele>
        <time>2013-10-03T15:45:37Z</time>
      </trkpt>
      <trkpt lat="45.4571" lon="5.96296">
        <ele>666</ele>
        <time>2013-10-03T15:45:38Z</time>
      </trkpt>
      <trkpt lat="45.45713" lon="5.96306">
        <ele>665.4</ele>
        <time>2013-10-03T15:45:39Z</time>
      </trkpt>
      <trkpt lat="45.45716" lon="5.96315">
        <ele>664.8</ele>
        <time>2013-10-03T15:45:40Z</time>
      </trkpt>
      <trkpt lat="45.45719" lon="5.96325">
        <ele>664</ele>
        <time>2013-10-03T15:45:41Z</time>
      </trkpt>
      <trkpt lat="45.4572" lon="5.96334">
        <ele>664.1</ele>
        <time>2013-10-03T15:45:42Z</time>
      </trkpt>
      <trkpt lat="45.45721" lon="5.96343">
        <ele>664.1</ele>
        <time>2013-10-03T15:45:43Z</time>
      </trkpt>
      <trkpt lat="45.45723" lon="5.96351">
        <ele>664.2</ele>
        <time>2013-10-03T15:45:44Z</time>
      </trkpt>
      <trkpt lat="45.45725" lon="5.96357">
        <ele>664.1</ele>
        <time>2013-10-03T15:45:45Z</time>
      </trkpt>
      <trkpt lat="45.45732" lon="5.96365">
        <ele>663.9</ele>
        <time>2013-10-03T15:45:47Z</time>
      </trkpt>
      <trkpt lat="45.45738" lon="5.96374">
        <ele>664.1</ele>
        <time>2013-10-03T15:45:49Z</time>
      </trkpt>
      <trkpt lat="45.45744" lon="5.96383">
        <ele>664.3</ele>
        <time>2013-10-03T15:45:52Z</time>
      </trkpt>
      <trkpt lat="45.45749" lon="5.96393">
        <ele>665.3</ele>
        <time>2013-10-03T15:45:56Z</time>
      </trkpt>
      <trkpt lat="45.45754" lon="5.96402">
        <ele>666.1</ele>
        <time>2013-10-03T15:46:00Z</time>
      </trkpt>
      <trkpt lat="45.45759" lon="5.9641">
        <ele>667.1</ele>
        <time>2013-10-03T15:46:05Z</time>
      </trkpt>
      <trkpt lat="45.45762" lon="5.9642">
        <ele>668.2</ele>
        <time>2013-10-03T15:46:10Z</time>
      </trkpt>
      <trkpt lat="45.45763" lon="5.96423">
        <ele>668.4</ele>
        <time>2013-10-03T15:46:11Z</time>
      </trkpt>
      <trkpt lat="45.45768" lon="5.96442">
        <ele>670.1</ele>
        <time>2013-10-03T15:46:19Z</time>
      </trkpt>
      <trkpt lat="45.45772" lon="5.96452">
        <ele>670.9</ele>
        <time>2013-10-03T15:46:23Z</time>
      </trkpt>
      <trkpt lat="45.45775" lon="5.96461">
        <ele>671.5</ele>
        <time>2013-10-03T15:46:27Z</time>
      </trkpt>
      <trkpt lat="45.45779" lon="5.96472">
        <ele>673</ele>
        <time>2013-10-03T15:46:32Z</time>
      </trkpt>
      <trkpt lat="45.45782" lon="5.96484">
        <ele>673.9</ele>
        <time>2013-10-03T15:46:38Z</time>
      </trkpt>
      <trkpt lat="45.45782" lon="5.96494">
        <ele>675.3</ele>
        <time>2013-10-03T15:46:43Z</time>
      </trkpt>
      <trkpt lat="45.45787" lon="5.96505">
        <ele>676.6</ele>
        <time>2013-10-03T15:46:49Z</time>
      </trkpt>
      <trkpt lat="45.45791" lon="5.96516">
        <ele>678.2</ele>
        <time>2013-10-03T15:46:55Z</time>
      </trkpt>
      <trkpt lat="45.45795" lon="5.96527">
        <ele>679.1</ele>
        <time>2013-10-03T15:47:01Z</time>
      </trkpt>
      <trkpt lat="45.45798" lon="5.96537">
        <ele>680.4</ele>
        <time>2013-10-03T15:47:06Z</time>
      </trkpt>
      <trkpt lat="45.45803" lon="5.96546">
        <ele>682</ele>
        <time>2013-10-03T15:47:11Z</time>
      </trkpt>
      <trkpt lat="45.45804" lon="5.96547">
        <ele>682.2</ele>
        <time>2013-10-03T15:47:12Z</time>
      </trkpt>
      <trkpt lat="45.45817" lon="5.9656">
        <ele>684.6</ele>
        <time>2013-10-03T15:47:24Z</time>
      </trkpt>
      <trkpt lat="45.45823" lon="5.96566">
        <ele>685.2</ele>
        <time>2013-10-03T15:47:30Z</time>
      </trkpt>
      <trkpt lat="45.4583" lon="5.96572">
        <ele>686.9</ele>
        <time>2013-10-03T15:47:36Z</time>
      </trkpt>
      <trkpt lat="45.45837" lon="5.96575">
        <ele>687.8</ele>
        <time>2013-10-03T15:47:42Z</time>
      </trkpt>
      <trkpt lat="45.45843" lon="5.96583">
        <ele>688.5</ele>
        <time>2013-10-03T15:47:47Z</time>
      </trkpt>
      <trkpt lat="45.45851" lon="5.96587">
        <ele>689.8</ele>
        <time>2013-10-03T15:47:53Z</time>
      </trkpt>
      <trkpt lat="45.45858" lon="5.96593">
        <ele>691</ele>
        <time>2013-10-03T15:47:59Z</time>
      </trkpt>
      <trkpt lat="45.45863" lon="5.96602">
        <ele>691.5</ele>
        <time>2013-10-03T15:48:05Z</time>
      </trkpt>
      <trkpt lat="45.45862" lon="5.96613">
        <ele>691.3</ele>
        <time>2013-10-03T15:48:08Z</time>
      </trkpt>
      <trkpt lat="45.45859" lon="5.96625">
        <ele>690.9</ele>
        <time>2013-10-03T15:48:10Z</time>
      </trkpt>
      <trkpt lat="45.45858" lon="5.96632">
        <ele>690.9</ele>
        <time>2013-10-03T15:48:11Z</time>
      </trkpt>
      <trkpt lat="45.45856" lon="5.96638">
        <ele>690.6</ele>
        <time>2013-10-03T15:48:12Z</time>
      </trkpt>
      <trkpt lat="45.45856" lon="5.96645">
        <ele>690.3</ele>
        <time>2013-10-03T15:48:13Z</time>
      </trkpt>
      <trkpt lat="45.45855" lon="5.96653">
        <ele>690.3</ele>
        <time>2013-10-03T15:48:14Z</time>
      </trkpt>
      <trkpt lat="45.45855" lon="5.9666">
        <ele>690.3</ele>
        <time>2013-10-03T15:48:15Z</time>
      </trkpt>
      <trkpt lat="45.45861" lon="5.96669">
        <ele>690.1</ele>
        <time>2013-10-03T15:48:17Z</time>
      </trkpt>
      <trkpt lat="45.45869" lon="5.9667">
        <ele>690</ele>
        <time>2013-10-03T15:48:19Z</time>
      </trkpt>
      <trkpt lat="45.45877" lon="5.96674">
        <ele>690</ele>
        <time>2013-10-03T15:48:22Z</time>
      </trkpt>
      <trkpt lat="45.45884" lon="5.96679">
        <ele>690.3</ele>
        <time>2013-10-03T15:48:25Z</time>
      </trkpt>
      <trkpt lat="45.45891" lon="5.96681">
        <ele>690.5</ele>
        <time>2013-10-03T15:48:29Z</time>
      </trkpt>
      <trkpt lat="45.45899" lon="5.96686">
        <ele>690.7</ele>
        <time>2013-10-03T15:48:33Z</time>
      </trkpt>
      <trkpt lat="45.45902" lon="5.96697">
        <ele>691.2</ele>
        <time>2013-10-03T15:48:37Z</time>
      </trkpt>
      <trkpt lat="45.45905" lon="5.96709">
        <ele>691.3</ele>
        <time>2013-10-03T15:48:41Z</time>
      </trkpt>
      <trkpt lat="45.45907" lon="5.96718">
        <ele>691.5</ele>
        <time>2013-10-03T15:48:44Z</time>
      </trkpt>
      <trkpt lat="45.45911" lon="5.96728">
        <ele>691.4</ele>
        <time>2013-10-03T15:48:47Z</time>
      </trkpt>
      <trkpt lat="45.45917" lon="5.96734">
        <ele>691.4</ele>
        <time>2013-10-03T15:48:49Z</time>
      </trkpt>
      <trkpt lat="45.45924" lon="5.96741">
        <ele>691.2</ele>
        <time>2013-10-03T15:48:51Z</time>
      </trkpt>
      <trkpt lat="45.45928" lon="5.96745">
        <ele>691</ele>
        <time>2013-10-03T15:48:52Z</time>
      </trkpt>
      <trkpt lat="45.45933" lon="5.96746">
        <ele>690.5</ele>
        <time>2013-10-03T15:48:53Z</time>
      </trkpt>
      <trkpt lat="45.4594" lon="5.96748">
        <ele>690</ele>
        <time>2013-10-03T15:48:54Z</time>
      </trkpt>
      <trkpt lat="45.45945" lon="5.96749">
        <ele>689.4</ele>
        <time>2013-10-03T15:48:55Z</time>
      </trkpt>
      <trkpt lat="45.4595" lon="5.96751">
        <ele>688.9</ele>
        <time>2013-10-03T15:48:56Z</time>
      </trkpt>
      <trkpt lat="45.45958" lon="5.96757">
        <ele>687.6</ele>
        <time>2013-10-03T15:48:58Z</time>
      </trkpt>
      <trkpt lat="45.45962" lon="5.96766">
        <ele>686.8</ele>
        <time>2013-10-03T15:49:00Z</time>
      </trkpt>
      <trkpt lat="45.45961" lon="5.96777">
        <ele>686.2</ele>
        <time>2013-10-03T15:49:02Z</time>
      </trkpt>
      <trkpt lat="45.45961" lon="5.96787">
        <ele>686</ele>
        <time>2013-10-03T15:49:04Z</time>
      </trkpt>
      <trkpt lat="45.45962" lon="5.96796">
        <ele>685.8</ele>
        <time>2013-10-03T15:49:06Z</time>
      </trkpt>
      <trkpt lat="45.45964" lon="5.96804">
        <ele>685.7</ele>
        <time>2013-10-03T15:49:08Z</time>
      </trkpt>
      <trkpt lat="45.45967" lon="5.96812">
        <ele>685.8</ele>
        <time>2013-10-03T15:49:10Z</time>
      </trkpt>
      <trkpt lat="45.4597" lon="5.9682">
        <ele>686.1</ele>
        <time>2013-10-03T15:49:12Z</time>
      </trkpt>
      <trkpt lat="45.45974" lon="5.96831">
        <ele>686.4</ele>
        <time>2013-10-03T15:49:15Z</time>
      </trkpt>
      <trkpt lat="45.45975" lon="5.96835">
        <ele>686.4</ele>
        <time>2013-10-03T15:49:16Z</time>
      </trkpt>
      <trkpt lat="45.45976" lon="5.96848">
        <ele>686.7</ele>
        <time>2013-10-03T15:49:19Z</time>
      </trkpt>
      <trkpt lat="45.45976" lon="5.96858">
        <ele>686.4</ele>
        <time>2013-10-03T15:49:21Z</time>
      </trkpt>
      <trkpt lat="45.4598" lon="5.96866">
        <ele>685.7</ele>
        <time>2013-10-03T15:49:23Z</time>
      </trkpt>
      <trkpt lat="45.45988" lon="5.96868">
        <ele>684.7</ele>
        <time>2013-10-03T15:49:25Z</time>
      </trkpt>
      <trkpt lat="45.45993" lon="5.96868">
        <ele>682.6</ele>
        <time>2013-10-03T15:49:26Z</time>
      </trkpt>
      <trkpt lat="45.45998" lon="5.96869">
        <ele>682.3</ele>
        <time>2013-10-03T15:49:27Z</time>
      </trkpt>
      <trkpt lat="45.46003" lon="5.9687">
        <ele>681.7</ele>
        <time>2013-10-03T15:49:28Z</time>
      </trkpt>
      <trkpt lat="45.46009" lon="5.9687">
        <ele>681.1</ele>
        <time>2013-10-03T15:49:29Z</time>
      </trkpt>
      <trkpt lat="45.46014" lon="5.96871">
        <ele>680.5</ele>
        <time>2013-10-03T15:49:30Z</time>
      </trkpt>
      <trkpt lat="45.46022" lon="5.96875">
        <ele>678.9</ele>
        <time>2013-10-03T15:49:32Z</time>
      </trkpt>
      <trkpt lat="45.4603" lon="5.96878">
        <ele>676.7</ele>
        <time>2013-10-03T15:49:35Z</time>
      </trkpt>
      <trkpt lat="45.46031" lon="5.96891">
        <ele>672.5</ele>
        <time>2013-10-03T15:49:39Z</time>
      </trkpt>
      <trkpt lat="45.46025" lon="5.969">
        <ele>672.1</ele>
        <time>2013-10-03T15:49:41Z</time>
      </trkpt>
      <trkpt lat="45.4602" lon="5.9691">
        <ele>670.9</ele>
        <time>2013-10-03T15:49:43Z</time>
      </trkpt>
      <trkpt lat="45.46019" lon="5.96916">
        <ele>670</ele>
        <time>2013-10-03T15:49:44Z</time>
      </trkpt>
      <trkpt lat="45.46019" lon="5.96923">
        <ele>668.9</ele>
        <time>2013-10-03T15:49:45Z</time>
      </trkpt>
      <trkpt lat="45.46022" lon="5.96935">
        <ele>667.1</ele>
        <time>2013-10-03T15:49:47Z</time>
      </trkpt>
      <trkpt lat="45.46024" lon="5.96947">
        <ele>666.5</ele>
        <time>2013-10-03T15:49:49Z</time>
      </trkpt>
      <trkpt lat="45.46024" lon="5.96954">
        <ele>665.2</ele>
        <time>2013-10-03T15:49:50Z</time>
      </trkpt>
      <trkpt lat="45.46022" lon="5.96965">
        <ele>663.1</ele>
        <time>2013-10-03T15:49:52Z</time>
      </trkpt>
      <trkpt lat="45.46016" lon="5.96975">
        <ele>661.1</ele>
        <time>2013-10-03T15:49:55Z</time>
      </trkpt>
      <trkpt lat="45.46019" lon="5.96986">
        <ele>656.7</ele>
        <time>2013-10-03T15:50:00Z</time>
      </trkpt>
      <trkpt lat="45.46025" lon="5.96992">
        <ele>654.5</ele>
        <time>2013-10-03T15:50:02Z</time>
      </trkpt>
      <trkpt lat="45.46026" lon="5.96999">
        <ele>654.5</ele>
        <time>2013-10-03T15:50:03Z</time>
      </trkpt>
      <trkpt lat="45.46026" lon="5.97006">
        <ele>653.2</ele>
        <time>2013-10-03T15:50:04Z</time>
      </trkpt>
      <trkpt lat="45.46026" lon="5.97015">
        <ele>652.3</ele>
        <time>2013-10-03T15:50:05Z</time>
      </trkpt>
      <trkpt lat="45.46026" lon="5.97024">
        <ele>651.3</ele>
        <time>2013-10-03T15:50:06Z</time>
      </trkpt>
      <trkpt lat="45.46027" lon="5.97033">
        <ele>649.9</ele>
        <time>2013-10-03T15:50:07Z</time>
      </trkpt>
      <trkpt lat="45.46029" lon="5.9704">
        <ele>648.6</ele>
        <time>2013-10-03T15:50:08Z</time>
      </trkpt>
      <trkpt lat="45.46032" lon="5.97047">
        <ele>648</ele>
        <time>2013-10-03T15:50:09Z</time>
      </trkpt>
      <trkpt lat="45.46036" lon="5.97053">
        <ele>647.3</ele>
        <time>2013-10-03T15:50:10Z</time>
      </trkpt>
      <trkpt lat="45.4604" lon="5.97059">
        <ele>646.4</ele>
        <time>2013-10-03T15:50:11Z</time>
      </trkpt>
      <trkpt lat="45.46044" lon="5.97063">
        <ele>646.1</ele>
        <time>2013-10-03T15:50:12Z</time>
      </trkpt>
      <trkpt lat="45.46051" lon="5.9707">
        <ele>644.8</ele>
        <time>2013-10-03T15:50:14Z</time>
      </trkpt>
      <trkpt lat="45.46055" lon="5.97081">
        <ele>642.8</ele>
        <time>2013-10-03T15:50:17Z</time>
      </trkpt>
      <trkpt lat="45.46053" lon="5.97085">
        <ele>642.4</ele>
        <time>2013-10-03T15:50:18Z</time>
      </trkpt>
      <trkpt lat="45.46046" lon="5.97098">
        <ele>640.3</ele>
        <time>2013-10-03T15:50:21Z</time>
      </trkpt>
      <trkpt lat="45.4604" lon="5.97106">
        <ele>638.4</ele>
        <time>2013-10-03T15:50:23Z</time>
      </trkpt>
      <trkpt lat="45.46034" lon="5.97111">
        <ele>636.9</ele>
        <time>2013-10-03T15:50:25Z</time>
      </trkpt>
      <trkpt lat="45.46034" lon="5.97122">
        <ele>633.5</ele>
        <time>2013-10-03T15:50:30Z</time>
      </trkpt>
      <trkpt lat="45.46042" lon="5.97124">
        <ele>631.9</ele>
        <time>2013-10-03T15:50:32Z</time>
      </trkpt>
      <trkpt lat="45.46049" lon="5.97124">
        <ele>629.6</ele>
        <time>2013-10-03T15:50:34Z</time>
      </trkpt>
      <trkpt lat="45.46057" lon="5.97124">
        <ele>627.1</ele>
        <time>2013-10-03T15:50:37Z</time>
      </trkpt>
      <trkpt lat="45.46066" lon="5.97124">
        <ele>624.1</ele>
        <time>2013-10-03T15:50:40Z</time>
      </trkpt>
      <trkpt lat="45.46073" lon="5.97132">
        <ele>621.8</ele>
        <time>2013-10-03T15:50:43Z</time>
      </trkpt>
      <trkpt lat="45.46071" lon="5.97141">
        <ele>619.9</ele>
        <time>2013-10-03T15:50:45Z</time>
      </trkpt>
      <trkpt lat="45.46069" lon="5.97147">
        <ele>618.5</ele>
        <time>2013-10-03T15:50:46Z</time>
      </trkpt>
      <trkpt lat="45.46066" lon="5.97152">
        <ele>617.9</ele>
        <time>2013-10-03T15:50:47Z</time>
      </trkpt>
      <trkpt lat="45.46063" lon="5.97157">
        <ele>617.9</ele>
        <time>2013-10-03T15:50:48Z</time>
      </trkpt>
      <trkpt lat="45.46055" lon="5.97164">
        <ele>616.3</ele>
        <time>2013-10-03T15:50:50Z</time>
      </trkpt>
      <trkpt lat="45.46051" lon="5.97166">
        <ele>615.2</ele>
        <time>2013-10-03T15:50:51Z</time>
      </trkpt>
      <trkpt lat="45.46046" lon="5.97169">
        <ele>614</ele>
        <time>2013-10-03T15:50:52Z</time>
      </trkpt>
      <trkpt lat="45.46041" lon="5.97172">
        <ele>613</ele>
        <time>2013-10-03T15:50:53Z</time>
      </trkpt>
      <trkpt lat="45.46036" lon="5.97174">
        <ele>612.3</ele>
        <time>2013-10-03T15:50:54Z</time>
      </trkpt>
      <trkpt lat="45.46031" lon="5.97177">
        <ele>611.2</ele>
        <time>2013-10-03T15:50:55Z</time>
      </trkpt>
      <trkpt lat="45.46026" lon="5.9718">
        <ele>609.6</ele>
        <time>2013-10-03T15:50:56Z</time>
      </trkpt>
      <trkpt lat="45.46021" lon="5.97183">
        <ele>608.5</ele>
        <time>2013-10-03T15:50:57Z</time>
      </trkpt>
      <trkpt lat="45.46016" lon="5.97185">
        <ele>607.1</ele>
        <time>2013-10-03T15:50:58Z</time>
      </trkpt>
      <trkpt lat="45.46011" lon="5.97187">
        <ele>605.8</ele>
        <time>2013-10-03T15:50:59Z</time>
      </trkpt>
      <trkpt lat="45.46005" lon="5.97192">
        <ele>603.3</ele>
        <time>2013-10-03T15:51:01Z</time>
      </trkpt>
      <trkpt lat="45.46" lon="5.972">
        <ele>600.4</ele>
        <time>2013-10-03T15:51:04Z</time>
      </trkpt>
      <trkpt lat="45.45997" lon="5.97212">
        <ele>597.2</ele>
        <time>2013-10-03T15:51:08Z</time>
      </trkpt>
      <trkpt lat="45.45996" lon="5.97221">
        <ele>595.1</ele>
        <time>2013-10-03T15:51:11Z</time>
      </trkpt>
      <trkpt lat="45.45995" lon="5.97232">
        <ele>592.5</ele>
        <time>2013-10-03T15:51:14Z</time>
      </trkpt>
      <trkpt lat="45.45993" lon="5.97242">
        <ele>590.3</ele>
        <time>2013-10-03T15:51:17Z</time>
      </trkpt>
      <trkpt lat="45.45994" lon="5.97253">
        <ele>588.4</ele>
        <time>2013-10-03T15:51:21Z</time>
      </trkpt>
      <trkpt lat="45.45996" lon="5.97256">
        <ele>587.7</ele>
        <time>2013-10-03T15:51:22Z</time>
      </trkpt>
      <trkpt lat="45.46004" lon="5.9727">
        <ele>582.2</ele>
        <time>2013-10-03T15:51:31Z</time>
      </trkpt>
      <trkpt lat="45.46003" lon="5.9728">
        <ele>579.9</ele>
        <time>2013-10-03T15:51:35Z</time>
      </trkpt>
      <trkpt lat="45.45999" lon="5.97292">
        <ele>577.3</ele>
        <time>2013-10-03T15:51:39Z</time>
      </trkpt>
      <trkpt lat="45.45995" lon="5.97301">
        <ele>576.2</ele>
        <time>2013-10-03T15:51:43Z</time>
      </trkpt>
      <trkpt lat="45.4599" lon="5.97304">
        <ele>574.6</ele>
        <time>2013-10-03T15:51:45Z</time>
      </trkpt>
      <trkpt lat="45.45987" lon="5.97307">
        <ele>574</ele>
        <time>2013-10-03T15:51:46Z</time>
      </trkpt>
      <trkpt lat="45.45982" lon="5.97311">
        <ele>573.2</ele>
        <time>2013-10-03T15:51:47Z</time>
      </trkpt>
      <trkpt lat="45.45976" lon="5.97315">
        <ele>572.7</ele>
        <time>2013-10-03T15:51:48Z</time>
      </trkpt>
      <trkpt lat="45.4597" lon="5.97318">
        <ele>572</ele>
        <time>2013-10-03T15:51:49Z</time>
      </trkpt>
      <trkpt lat="45.45965" lon="5.97321">
        <ele>571.4</ele>
        <time>2013-10-03T15:51:50Z</time>
      </trkpt>
      <trkpt lat="45.45959" lon="5.97326">
        <ele>569.8</ele>
        <time>2013-10-03T15:51:52Z</time>
      </trkpt>
      <trkpt lat="45.45951" lon="5.97328">
        <ele>566.6</ele>
        <time>2013-10-03T15:51:55Z</time>
      </trkpt>
      <trkpt lat="45.45944" lon="5.97332">
        <ele>564.5</ele>
        <time>2013-10-03T15:51:59Z</time>
      </trkpt>
      <trkpt lat="45.45937" lon="5.97337">
        <ele>561.2</ele>
        <time>2013-10-03T15:52:02Z</time>
      </trkpt>
      <trkpt lat="45.4593" lon="5.97345">
        <ele>558.9</ele>
        <time>2013-10-03T15:52:04Z</time>
      </trkpt>
      <trkpt lat="45.45925" lon="5.97353">
        <ele>556.8</ele>
        <time>2013-10-03T15:52:06Z</time>
      </trkpt>
      <trkpt lat="45.45918" lon="5.97361">
        <ele>554.6</ele>
        <time>2013-10-03T15:52:08Z</time>
      </trkpt>
      <trkpt lat="45.45912" lon="5.97369">
        <ele>552.3</ele>
        <time>2013-10-03T15:52:10Z</time>
      </trkpt>
      <trkpt lat="45.45909" lon="5.97374">
        <ele>550.8</ele>
        <time>2013-10-03T15:52:11Z</time>
      </trkpt>
      <trkpt lat="45.45905" lon="5.97379">
        <ele>550</ele>
        <time>2013-10-03T15:52:12Z</time>
      </trkpt>
      <trkpt lat="45.45899" lon="5.97387">
        <ele>547.8</ele>
        <time>2013-10-03T15:52:14Z</time>
      </trkpt>
      <trkpt lat="45.45895" lon="5.97396">
        <ele>545</ele>
        <time>2013-10-03T15:52:17Z</time>
      </trkpt>
      <trkpt lat="45.45892" lon="5.97405">
        <ele>543.3</ele>
        <time>2013-10-03T15:52:19Z</time>
      </trkpt>
      <trkpt lat="45.45888" lon="5.97414">
        <ele>540.9</ele>
        <time>2013-10-03T15:52:21Z</time>
      </trkpt>
      <trkpt lat="45.45883" lon="5.9742">
        <ele>538.7</ele>
        <time>2013-10-03T15:52:23Z</time>
      </trkpt>
      <trkpt lat="45.4588" lon="5.97424">
        <ele>537.4</ele>
        <time>2013-10-03T15:52:24Z</time>
      </trkpt>
      <trkpt lat="45.45874" lon="5.97437">
        <ele>534.7</ele>
        <time>2013-10-03T15:52:27Z</time>
      </trkpt>
      <trkpt lat="45.45874" lon="5.97448">
        <ele>532.4</ele>
        <time>2013-10-03T15:52:31Z</time>
      </trkpt>
      <trkpt lat="45.4588" lon="5.97455">
        <ele>530.9</ele>
        <time>2013-10-03T15:52:34Z</time>
      </trkpt>
      <trkpt lat="45.45887" lon="5.97458">
        <ele>528.2</ele>
        <time>2013-10-03T15:52:37Z</time>
      </trkpt>
      <trkpt lat="45.45894" lon="5.9746">
        <ele>525.9</ele>
        <time>2013-10-03T15:52:40Z</time>
      </trkpt>
      <trkpt lat="45.45902" lon="5.97462">
        <ele>524.8</ele>
        <time>2013-10-03T15:52:43Z</time>
      </trkpt>
      <trkpt lat="45.4591" lon="5.97463">
        <ele>523.7</ele>
        <time>2013-10-03T15:52:45Z</time>
      </trkpt>
      <trkpt lat="45.45919" lon="5.97464">
        <ele>523</ele>
        <time>2013-10-03T15:52:47Z</time>
      </trkpt>
      <trkpt lat="45.45927" lon="5.97463">
        <ele>521.9</ele>
        <time>2013-10-03T15:52:49Z</time>
      </trkpt>
      <trkpt lat="45.45934" lon="5.97462">
        <ele>520.1</ele>
        <time>2013-10-03T15:52:51Z</time>
      </trkpt>
      <trkpt lat="45.45942" lon="5.97464">
        <ele>519</ele>
        <time>2013-10-03T15:52:53Z</time>
      </trkpt>
      <trkpt lat="45.45947" lon="5.97465">
        <ele>518.5</ele>
        <time>2013-10-03T15:52:54Z</time>
      </trkpt>
      <trkpt lat="45.45952" lon="5.97466">
        <ele>518.4</ele>
        <time>2013-10-03T15:52:55Z</time>
      </trkpt>
      <trkpt lat="45.45959" lon="5.97467">
        <ele>517.8</ele>
        <time>2013-10-03T15:52:56Z</time>
      </trkpt>
      <trkpt lat="45.45964" lon="5.97468">
        <ele>517.1</ele>
        <time>2013-10-03T15:52:57Z</time>
      </trkpt>
      <trkpt lat="45.45971" lon="5.9747">
        <ele>516.7</ele>
        <time>2013-10-03T15:52:58Z</time>
      </trkpt>
      <trkpt lat="45.45977" lon="5.97472">
        <ele>516.2</ele>
        <time>2013-10-03T15:52:59Z</time>
      </trkpt>
      <trkpt lat="45.45982" lon="5.97474">
        <ele>515.6</ele>
        <time>2013-10-03T15:53:00Z</time>
      </trkpt>
      <trkpt lat="45.45988" lon="5.97476">
        <ele>515.1</ele>
        <time>2013-10-03T15:53:01Z</time>
      </trkpt>
      <trkpt lat="45.45994" lon="5.97477">
        <ele>514.8</ele>
        <time>2013-10-03T15:53:02Z</time>
      </trkpt>
      <trkpt lat="45.45999" lon="5.97478">
        <ele>514.5</ele>
        <time>2013-10-03T15:53:03Z</time>
      </trkpt>
      <trkpt lat="45.46004" lon="5.97478">
        <ele>514.1</ele>
        <time>2013-10-03T15:53:04Z</time>
      </trkpt>
      <trkpt lat="45.46009" lon="5.97477">
        <ele>513.8</ele>
        <time>2013-10-03T15:53:05Z</time>
      </trkpt>
      <trkpt lat="45.46017" lon="5.97477">
        <ele>513.8</ele>
        <time>2013-10-03T15:53:07Z</time>
      </trkpt>
      <trkpt lat="45.46021" lon="5.97478">
        <ele>513.7</ele>
        <time>2013-10-03T15:53:08Z</time>
      </trkpt>
      <trkpt lat="45.46026" lon="5.97482">
        <ele>513.1</ele>
        <time>2013-10-03T15:53:09Z</time>
      </trkpt>
      <trkpt lat="45.4603" lon="5.97485">
        <ele>512.3</ele>
        <time>2013-10-03T15:53:10Z</time>
      </trkpt>
      <trkpt lat="45.46037" lon="5.97491">
        <ele>511.2</ele>
        <time>2013-10-03T15:53:12Z</time>
      </trkpt>
      <trkpt lat="45.46045" lon="5.97494">
        <ele>510.2</ele>
        <time>2013-10-03T15:53:14Z</time>
      </trkpt>
      <trkpt lat="45.46053" lon="5.97496">
        <ele>509.3</ele>
        <time>2013-10-03T15:53:16Z</time>
      </trkpt>
      <trkpt lat="45.46062" lon="5.97497">
        <ele>508.6</ele>
        <time>2013-10-03T15:53:18Z</time>
      </trkpt>
      <trkpt lat="45.46071" lon="5.97499">
        <ele>508.2</ele>
        <time>2013-10-03T15:53:20Z</time>
      </trkpt>
      <trkpt lat="45.46076" lon="5.97502">
        <ele>507</ele>
        <time>2013-10-03T15:53:21Z</time>
      </trkpt>
      <trkpt lat="45.46081" lon="5.97504">
        <ele>506.3</ele>
        <time>2013-10-03T15:53:22Z</time>
      </trkpt>
      <trkpt lat="45.46086" lon="5.97506">
        <ele>505.6</ele>
        <time>2013-10-03T15:53:23Z</time>
      </trkpt>
      <trkpt lat="45.46092" lon="5.97507">
        <ele>505.2</ele>
        <time>2013-10-03T15:53:24Z</time>
      </trkpt>
      <trkpt lat="45.46097" lon="5.97506">
        <ele>504.1</ele>
        <time>2013-10-03T15:53:25Z</time>
      </trkpt>
      <trkpt lat="45.46107" lon="5.97507">
        <ele>503.3</ele>
        <time>2013-10-03T15:53:26Z</time>
      </trkpt>
      <trkpt lat="45.46116" lon="5.97505">
        <ele>503</ele>
        <time>2013-10-03T15:53:27Z</time>
      </trkpt>
      <trkpt lat="45.46123" lon="5.97503">
        <ele>501.5</ele>
        <time>2013-10-03T15:53:28Z</time>
      </trkpt>
      <trkpt lat="45.46129" lon="5.97502">
        <ele>501.1</ele>
        <time>2013-10-03T15:53:29Z</time>
      </trkpt>
      <trkpt lat="45.46136" lon="5.97501">
        <ele>499.8</ele>
        <time>2013-10-03T15:53:30Z</time>
      </trkpt>
      <trkpt lat="45.46143" lon="5.97499">
        <ele>499.3</ele>
        <time>2013-10-03T15:53:31Z</time>
      </trkpt>
      <trkpt lat="45.46151" lon="5.97497">
        <ele>499.3</ele>
        <time>2013-10-03T15:53:32Z</time>
      </trkpt>
      <trkpt lat="45.46157" lon="5.97495">
        <ele>499</ele>
        <time>2013-10-03T15:53:33Z</time>
      </trkpt>
      <trkpt lat="45.46163" lon="5.97493">
        <ele>498.8</ele>
        <time>2013-10-03T15:53:34Z</time>
      </trkpt>
      <trkpt lat="45.46171" lon="5.9749">
        <ele>499.1</ele>
        <time>2013-10-03T15:53:36Z</time>
      </trkpt>
      <trkpt lat="45.46178" lon="5.97486">
        <ele>499.5</ele>
        <time>2013-10-03T15:53:39Z</time>
      </trkpt>
      <trkpt lat="45.46186" lon="5.97483">
        <ele>500.4</ele>
        <time>2013-10-03T15:53:43Z</time>
      </trkpt>
      <trkpt lat="45.46193" lon="5.97479">
        <ele>501.4</ele>
        <time>2013-10-03T15:53:47Z</time>
      </trkpt>
      <trkpt lat="45.46201" lon="5.97475">
        <ele>502.5</ele>
        <time>2013-10-03T15:53:51Z</time>
      </trkpt>
      <trkpt lat="45.46209" lon="5.97471">
        <ele>503.5</ele>
        <time>2013-10-03T15:53:55Z</time>
      </trkpt>
      <trkpt lat="45.46215" lon="5.97466">
        <ele>503.9</ele>
        <time>2013-10-03T15:53:57Z</time>
      </trkpt>
      <trkpt lat="45.46222" lon="5.97461">
        <ele>504.5</ele>
        <time>2013-10-03T15:54:00Z</time>
      </trkpt>
      <trkpt lat="45.4623" lon="5.9746">
        <ele>504</ele>
        <time>2013-10-03T15:54:03Z</time>
      </trkpt>
      <trkpt lat="45.46238" lon="5.97455">
        <ele>506.1</ele>
        <time>2013-10-03T15:54:07Z</time>
      </trkpt>
      <trkpt lat="45.46246" lon="5.97452">
        <ele>507.3</ele>
        <time>2013-10-03T15:54:11Z</time>
      </trkpt>
      <trkpt lat="45.46254" lon="5.97448">
        <ele>508.4</ele>
        <time>2013-10-03T15:54:15Z</time>
      </trkpt>
      <trkpt lat="45.46262" lon="5.97445">
        <ele>509.2</ele>
        <time>2013-10-03T15:54:20Z</time>
      </trkpt>
      <trkpt lat="45.46269" lon="5.97441">
        <ele>510.3</ele>
        <time>2013-10-03T15:54:24Z</time>
      </trkpt>
      <trkpt lat="45.46277" lon="5.97435">
        <ele>511.7</ele>
        <time>2013-10-03T15:54:28Z</time>
      </trkpt>
      <trkpt lat="45.46279" lon="5.97434">
        <ele>511.8</ele>
        <time>2013-10-03T15:54:29Z</time>
      </trkpt>
      <trkpt lat="45.46291" lon="5.97426">
        <ele>513.1</ele>
        <time>2013-10-03T15:54:35Z</time>
      </trkpt>
      <trkpt lat="45.46298" lon="5.97422">
        <ele>514.3</ele>
        <time>2013-10-03T15:54:39Z</time>
      </trkpt>
      <trkpt lat="45.46306" lon="5.97417">
        <ele>515.3</ele>
        <time>2013-10-03T15:54:44Z</time>
      </trkpt>
      <trkpt lat="45.46312" lon="5.9741">
        <ele>515.8</ele>
        <time>2013-10-03T15:54:48Z</time>
      </trkpt>
      <trkpt lat="45.46318" lon="5.97403">
        <ele>516.7</ele>
        <time>2013-10-03T15:54:52Z</time>
      </trkpt>
      <trkpt lat="45.46325" lon="5.97396">
        <ele>517.7</ele>
        <time>2013-10-03T15:54:57Z</time>
      </trkpt>
      <trkpt lat="45.4633" lon="5.97388">
        <ele>518.1</ele>
        <time>2013-10-03T15:55:00Z</time>
      </trkpt>
      <trkpt lat="45.46336" lon="5.97381">
        <ele>518.4</ele>
        <time>2013-10-03T15:55:04Z</time>
      </trkpt>
      <trkpt lat="45.46342" lon="5.97375">
        <ele>519</ele>
        <time>2013-10-03T15:55:07Z</time>
      </trkpt>
      <trkpt lat="45.46348" lon="5.97367">
        <ele>519.4</ele>
        <time>2013-10-03T15:55:10Z</time>
      </trkpt>
      <trkpt lat="45.46354" lon="5.97359">
        <ele>519.9</ele>
        <time>2013-10-03T15:55:13Z</time>
      </trkpt>
      <trkpt lat="45.4636" lon="5.97351">
        <ele>520.1</ele>
        <time>2013-10-03T15:55:16Z</time>
      </trkpt>
      <trkpt lat="45.46365" lon="5.97342">
        <ele>520.3</ele>
        <time>2013-10-03T15:55:19Z</time>
      </trkpt>
      <trkpt lat="45.4637" lon="5.97332">
        <ele>520.9</ele>
        <time>2013-10-03T15:55:22Z</time>
      </trkpt>
      <trkpt lat="45.46375" lon="5.97322">
        <ele>522.5</ele>
        <time>2013-10-03T15:55:26Z</time>
      </trkpt>
      <trkpt lat="45.4638" lon="5.97313">
        <ele>523.4</ele>
        <time>2013-10-03T15:55:29Z</time>
      </trkpt>
      <trkpt lat="45.46381" lon="5.97309">
        <ele>523.3</ele>
        <time>2013-10-03T15:55:30Z</time>
      </trkpt>
      <trkpt lat="45.46388" lon="5.97295">
        <ele>524.3</ele>
        <time>2013-10-03T15:55:35Z</time>
      </trkpt>
      <trkpt lat="45.46391" lon="5.97286">
        <ele>525</ele>
        <time>2013-10-03T15:55:38Z</time>
      </trkpt>
      <trkpt lat="45.46394" lon="5.97275">
        <ele>525.3</ele>
        <time>2013-10-03T15:55:41Z</time>
      </trkpt>
      <trkpt lat="45.46398" lon="5.97266">
        <ele>526</ele>
        <time>2013-10-03T15:55:44Z</time>
      </trkpt>
      <trkpt lat="45.46402" lon="5.97256">
        <ele>526.8</ele>
        <time>2013-10-03T15:55:47Z</time>
      </trkpt>
      <trkpt lat="45.46406" lon="5.97245">
        <ele>527.2</ele>
        <time>2013-10-03T15:55:50Z</time>
      </trkpt>
      <trkpt lat="45.4641" lon="5.97235">
        <ele>527.5</ele>
        <time>2013-10-03T15:55:53Z</time>
      </trkpt>
      <trkpt lat="45.46415" lon="5.97228">
        <ele>528.1</ele>
        <time>2013-10-03T15:55:56Z</time>
      </trkpt>
      <trkpt lat="45.46422" lon="5.97222">
        <ele>528.5</ele>
        <time>2013-10-03T15:55:59Z</time>
      </trkpt>
      <trkpt lat="45.46428" lon="5.97219">
        <ele>529.4</ele>
        <time>2013-10-03T15:56:02Z</time>
      </trkpt>
      <trkpt lat="45.46437" lon="5.97221">
        <ele>530.4</ele>
        <time>2013-10-03T15:56:05Z</time>
      </trkpt>
      <trkpt lat="45.46445" lon="5.97226">
        <ele>530.4</ele>
        <time>2013-10-03T15:56:08Z</time>
      </trkpt>
      <trkpt lat="45.46451" lon="5.97229">
        <ele>531.1</ele>
        <time>2013-10-03T15:56:10Z</time>
      </trkpt>
      <trkpt lat="45.46457" lon="5.97232">
        <ele>531.1</ele>
        <time>2013-10-03T15:56:12Z</time>
      </trkpt>
      <trkpt lat="45.46465" lon="5.97236">
        <ele>531.4</ele>
        <time>2013-10-03T15:56:15Z</time>
      </trkpt>
      <trkpt lat="45.46473" lon="5.97239">
        <ele>532</ele>
        <time>2013-10-03T15:56:18Z</time>
      </trkpt>
      <trkpt lat="45.46481" lon="5.97242">
        <ele>532.7</ele>
        <time>2013-10-03T15:56:21Z</time>
      </trkpt>
      <trkpt lat="45.46489" lon="5.97245">
        <ele>533.3</ele>
        <time>2013-10-03T15:56:24Z</time>
      </trkpt>
      <trkpt lat="45.46497" lon="5.97248">
        <ele>533.4</ele>
        <time>2013-10-03T15:56:27Z</time>
      </trkpt>
      <trkpt lat="45.46504" lon="5.97252">
        <ele>534.1</ele>
        <time>2013-10-03T15:56:30Z</time>
      </trkpt>
      <trkpt lat="45.46507" lon="5.97253">
        <ele>534.5</ele>
        <time>2013-10-03T15:56:31Z</time>
      </trkpt>
      <trkpt lat="45.4652" lon="5.97258">
        <ele>534.8</ele>
        <time>2013-10-03T15:56:36Z</time>
      </trkpt>
      <trkpt lat="45.46528" lon="5.97262">
        <ele>534.7</ele>
        <time>2013-10-03T15:56:39Z</time>
      </trkpt>
      <trkpt lat="45.46534" lon="5.97264">
        <ele>535</ele>
        <time>2013-10-03T15:56:41Z</time>
      </trkpt>
      <trkpt lat="45.46541" lon="5.97265">
        <ele>534.6</ele>
        <time>2013-10-03T15:56:43Z</time>
      </trkpt>
      <trkpt lat="45.46547" lon="5.97265">
        <ele>534.9</ele>
        <time>2013-10-03T15:56:45Z</time>
      </trkpt>
      <trkpt lat="45.46556" lon="5.97267">
        <ele>535</ele>
        <time>2013-10-03T15:56:48Z</time>
      </trkpt>
      <trkpt lat="45.46563" lon="5.97268">
        <ele>534.9</ele>
        <time>2013-10-03T15:56:50Z</time>
      </trkpt>
      <trkpt lat="45.46569" lon="5.9727">
        <ele>535.2</ele>
        <time>2013-10-03T15:56:52Z</time>
      </trkpt>
      <trkpt lat="45.46576" lon="5.97271">
        <ele>535.3</ele>
        <time>2013-10-03T15:56:54Z</time>
      </trkpt>
      <trkpt lat="45.46583" lon="5.97271">
        <ele>535.5</ele>
        <time>2013-10-03T15:56:56Z</time>
      </trkpt>
      <trkpt lat="45.4659" lon="5.97272">
        <ele>535.5</ele>
        <time>2013-10-03T15:56:58Z</time>
      </trkpt>
      <trkpt lat="45.46597" lon="5.97272">
        <ele>535.7</ele>
        <time>2013-10-03T15:57:00Z</time>
      </trkpt>
      <trkpt lat="45.46605" lon="5.97273">
        <ele>535.9</ele>
        <time>2013-10-03T15:57:02Z</time>
      </trkpt>
      <trkpt lat="45.46611" lon="5.97275">
        <ele>536.1</ele>
        <time>2013-10-03T15:57:04Z</time>
      </trkpt>
      <trkpt lat="45.46618" lon="5.97274">
        <ele>536.5</ele>
        <time>2013-10-03T15:57:06Z</time>
      </trkpt>
      <trkpt lat="45.46627" lon="5.97274">
        <ele>536.6</ele>
        <time>2013-10-03T15:57:08Z</time>
      </trkpt>
      <trkpt lat="45.46634" lon="5.97274">
        <ele>536.7</ele>
        <time>2013-10-03T15:57:10Z</time>
      </trkpt>
      <trkpt lat="45.46642" lon="5.97276">
        <ele>536.7</ele>
        <time>2013-10-03T15:57:12Z</time>
      </trkpt>
      <trkpt lat="45.46649" lon="5.97278">
        <ele>536.9</ele>
        <time>2013-10-03T15:57:14Z</time>
      </trkpt>
      <trkpt lat="45.46657" lon="5.97281">
        <ele>537.3</ele>
        <time>2013-10-03T15:57:16Z</time>
      </trkpt>
      <trkpt lat="45.46665" lon="5.97285">
        <ele>537.4</ele>
        <time>2013-10-03T15:57:18Z</time>
      </trkpt>
      <trkpt lat="45.46672" lon="5.97288">
        <ele>537.7</ele>
        <time>2013-10-03T15:57:20Z</time>
      </trkpt>
      <trkpt lat="45.4668" lon="5.97291">
        <ele>538.1</ele>
        <time>2013-10-03T15:57:22Z</time>
      </trkpt>
      <trkpt lat="45.46687" lon="5.97293">
        <ele>538.4</ele>
        <time>2013-10-03T15:57:24Z</time>
      </trkpt>
      <trkpt lat="45.46695" lon="5.97297">
        <ele>538.8</ele>
        <time>2013-10-03T15:57:26Z</time>
      </trkpt>
      <trkpt lat="45.46703" lon="5.973">
        <ele>539</ele>
        <time>2013-10-03T15:57:28Z</time>
      </trkpt>
      <trkpt lat="45.4671" lon="5.97301">
        <ele>538.9</ele>
        <time>2013-10-03T15:57:30Z</time>
      </trkpt>
      <trkpt lat="45.46719" lon="5.97304">
        <ele>539.1</ele>
        <time>2013-10-03T15:57:32Z</time>
      </trkpt>
      <trkpt lat="45.46723" lon="5.97305">
        <ele>539.1</ele>
        <time>2013-10-03T15:57:33Z</time>
      </trkpt>
      <trkpt lat="45.46729" lon="5.97306">
        <ele>539.1</ele>
        <time>2013-10-03T15:57:34Z</time>
      </trkpt>
      <trkpt lat="45.46735" lon="5.97306">
        <ele>539.2</ele>
        <time>2013-10-03T15:57:35Z</time>
      </trkpt>
      <trkpt lat="45.4674" lon="5.97308">
        <ele>539.1</ele>
        <time>2013-10-03T15:57:36Z</time>
      </trkpt>
      <trkpt lat="45.46745" lon="5.9731">
        <ele>539.1</ele>
        <time>2013-10-03T15:57:37Z</time>
      </trkpt>
      <trkpt lat="45.46754" lon="5.97313">
        <ele>538.9</ele>
        <time>2013-10-03T15:57:39Z</time>
      </trkpt>
      <trkpt lat="45.46762" lon="5.97314">
        <ele>538.6</ele>
        <time>2013-10-03T15:57:41Z</time>
      </trkpt>
      <trkpt lat="45.4677" lon="5.97316">
        <ele>538.7</ele>
        <time>2013-10-03T15:57:43Z</time>
      </trkpt>
      <trkpt lat="45.46778" lon="5.97318">
        <ele>538.7</ele>
        <time>2013-10-03T15:57:45Z</time>
      </trkpt>
      <trkpt lat="45.46787" lon="5.97319">
        <ele>538.5</ele>
        <time>2013-10-03T15:57:47Z</time>
      </trkpt>
      <trkpt lat="45.46795" lon="5.97321">
        <ele>538.3</ele>
        <time>2013-10-03T15:57:49Z</time>
      </trkpt>
      <trkpt lat="45.46803" lon="5.97323">
        <ele>538.2</ele>
        <time>2013-10-03T15:57:51Z</time>
      </trkpt>
      <trkpt lat="45.46811" lon="5.97326">
        <ele>538.2</ele>
        <time>2013-10-03T15:57:53Z</time>
      </trkpt>
      <trkpt lat="45.46816" lon="5.97328">
        <ele>538.2</ele>
        <time>2013-10-03T15:57:54Z</time>
      </trkpt>
      <trkpt lat="45.46821" lon="5.9733">
        <ele>538.1</ele>
        <time>2013-10-03T15:57:55Z</time>
      </trkpt>
      <trkpt lat="45.46829" lon="5.97334">
        <ele>538</ele>
        <time>2013-10-03T15:57:57Z</time>
      </trkpt>
      <trkpt lat="45.46836" lon="5.97336">
        <ele>537.8</ele>
        <time>2013-10-03T15:57:59Z</time>
      </trkpt>
      <trkpt lat="45.46842" lon="5.97337">
        <ele>537.7</ele>
        <time>2013-10-03T15:58:01Z</time>
      </trkpt>
      <trkpt lat="45.46848" lon="5.97338">
        <ele>537.6</ele>
        <time>2013-10-03T15:58:03Z</time>
      </trkpt>
      <trkpt lat="45.46852" lon="5.97338">
        <ele>537.4</ele>
        <time>2013-10-03T15:58:04Z</time>
      </trkpt>
      <trkpt lat="45.46858" lon="5.97338">
        <ele>537.4</ele>
        <time>2013-10-03T15:58:05Z</time>
      </trkpt>
      <trkpt lat="45.46865" lon="5.97338">
        <ele>537.1</ele>
        <time>2013-10-03T15:58:06Z</time>
      </trkpt>
      <trkpt lat="45.46869" lon="5.97332">
        <ele>536.9</ele>
        <time>2013-10-03T15:58:07Z</time>
      </trkpt>
      <trkpt lat="45.46873" lon="5.97324">
        <ele>536.7</ele>
        <time>2013-10-03T15:58:08Z</time>
      </trkpt>
      <trkpt lat="45.46875" lon="5.97315">
        <ele>536.6</ele>
        <time>2013-10-03T15:58:09Z</time>
      </trkpt>
      <trkpt lat="45.46878" lon="5.97307">
        <ele>536.5</ele>
        <time>2013-10-03T15:58:10Z</time>
      </trkpt>
      <trkpt lat="45.46881" lon="5.97297">
        <ele>536.2</ele>
        <time>2013-10-03T15:58:11Z</time>
      </trkpt>
      <trkpt lat="45.46885" lon="5.97289">
        <ele>535.7</ele>
        <time>2013-10-03T15:58:12Z</time>
      </trkpt>
      <trkpt lat="45.46891" lon="5.97281">
        <ele>535.1</ele>
        <time>2013-10-03T15:58:13Z</time>
      </trkpt>
      <trkpt lat="45.46896" lon="5.97273">
        <ele>534.6</ele>
        <time>2013-10-03T15:58:14Z</time>
      </trkpt>
      <trkpt lat="45.469" lon="5.97266">
        <ele>533.8</ele>
        <time>2013-10-03T15:58:15Z</time>
      </trkpt>
      <trkpt lat="45.46904" lon="5.97259">
        <ele>533.1</ele>
        <time>2013-10-03T15:58:16Z</time>
      </trkpt>
      <trkpt lat="45.46909" lon="5.97253">
        <ele>532.4</ele>
        <time>2013-10-03T15:58:17Z</time>
      </trkpt>
      <trkpt lat="45.46914" lon="5.97248">
        <ele>531.6</ele>
        <time>2013-10-03T15:58:18Z</time>
      </trkpt>
      <trkpt lat="45.46922" lon="5.97246">
        <ele>531</ele>
        <time>2013-10-03T15:58:19Z</time>
      </trkpt>
      <trkpt lat="45.4693" lon="5.97246">
        <ele>530.3</ele>
        <time>2013-10-03T15:58:20Z</time>
      </trkpt>
      <trkpt lat="45.46939" lon="5.97247">
        <ele>529.5</ele>
        <time>2013-10-03T15:58:21Z</time>
      </trkpt>
      <trkpt lat="45.46947" lon="5.97247">
        <ele>528.5</ele>
        <time>2013-10-03T15:58:22Z</time>
      </trkpt>
      <trkpt lat="45.46955" lon="5.97245">
        <ele>527.7</ele>
        <time>2013-10-03T15:58:23Z</time>
      </trkpt>
      <trkpt lat="45.46962" lon="5.9724">
        <ele>526.9</ele>
        <time>2013-10-03T15:58:24Z</time>
      </trkpt>
      <trkpt lat="45.46969" lon="5.97233">
        <ele>526.1</ele>
        <time>2013-10-03T15:58:25Z</time>
      </trkpt>
      <trkpt lat="45.46977" lon="5.97224">
        <ele>525.1</ele>
        <time>2013-10-03T15:58:26Z</time>
      </trkpt>
      <trkpt lat="45.46984" lon="5.97215">
        <ele>524.1</ele>
        <time>2013-10-03T15:58:27Z</time>
      </trkpt>
      <trkpt lat="45.46992" lon="5.97206">
        <ele>523.1</ele>
        <time>2013-10-03T15:58:28Z</time>
      </trkpt>
      <trkpt lat="45.47001" lon="5.97198">
        <ele>522.2</ele>
        <time>2013-10-03T15:58:29Z</time>
      </trkpt>
      <trkpt lat="45.4701" lon="5.97189">
        <ele>521.3</ele>
        <time>2013-10-03T15:58:30Z</time>
      </trkpt>
      <trkpt lat="45.47017" lon="5.9718">
        <ele>520.4</ele>
        <time>2013-10-03T15:58:31Z</time>
      </trkpt>
      <trkpt lat="45.47024" lon="5.97172">
        <ele>519.6</ele>
        <time>2013-10-03T15:58:32Z</time>
      </trkpt>
      <trkpt lat="45.47029" lon="5.97164">
        <ele>518.8</ele>
        <time>2013-10-03T15:58:33Z</time>
      </trkpt>
      <trkpt lat="45.47033" lon="5.97157">
        <ele>518</ele>
        <time>2013-10-03T15:58:34Z</time>
      </trkpt>
      <trkpt lat="45.47038" lon="5.97151">
        <ele>517.5</ele>
        <time>2013-10-03T15:58:35Z</time>
      </trkpt>
      <trkpt lat="45.47043" lon="5.97145">
        <ele>516.7</ele>
        <time>2013-10-03T15:58:36Z</time>
      </trkpt>
      <trkpt lat="45.47049" lon="5.9714">
        <ele>516.1</ele>
        <time>2013-10-03T15:58:37Z</time>
      </trkpt>
      <trkpt lat="45.47056" lon="5.97137">
        <ele>515.5</ele>
        <time>2013-10-03T15:58:38Z</time>
      </trkpt>
      <trkpt lat="45.47062" lon="5.97135">
        <ele>515.1</ele>
        <time>2013-10-03T15:58:39Z</time>
      </trkpt>
      <trkpt lat="45.47069" lon="5.97134">
        <ele>514.6</ele>
        <time>2013-10-03T15:58:40Z</time>
      </trkpt>
      <trkpt lat="45.47076" lon="5.97135">
        <ele>514.1</ele>
        <time>2013-10-03T15:58:41Z</time>
      </trkpt>
      <trkpt lat="45.47084" lon="5.97137">
        <ele>513.8</ele>
        <time>2013-10-03T15:58:42Z</time>
      </trkpt>
      <trkpt lat="45.47091" lon="5.97138">
        <ele>513.2</ele>
        <time>2013-10-03T15:58:43Z</time>
      </trkpt>
      <trkpt lat="45.47099" lon="5.97139">
        <ele>512.7</ele>
        <time>2013-10-03T15:58:44Z</time>
      </trkpt>
      <trkpt lat="45.47107" lon="5.9714">
        <ele>512.3</ele>
        <time>2013-10-03T15:58:45Z</time>
      </trkpt>
      <trkpt lat="45.47114" lon="5.97141">
        <ele>511.8</ele>
        <time>2013-10-03T15:58:46Z</time>
      </trkpt>
      <trkpt lat="45.47122" lon="5.97142">
        <ele>511.4</ele>
        <time>2013-10-03T15:58:47Z</time>
      </trkpt>
      <trkpt lat="45.47129" lon="5.97143">
        <ele>511</ele>
        <time>2013-10-03T15:58:48Z</time>
      </trkpt>
      <trkpt lat="45.47137" lon="5.97144">
        <ele>510.1</ele>
        <time>2013-10-03T15:58:49Z</time>
      </trkpt>
      <trkpt lat="45.47145" lon="5.97146">
        <ele>509.9</ele>
        <time>2013-10-03T15:58:50Z</time>
      </trkpt>
      <trkpt lat="45.47153" lon="5.97146">
        <ele>509.5</ele>
        <time>2013-10-03T15:58:51Z</time>
      </trkpt>
      <trkpt lat="45.47162" lon="5.97146">
        <ele>509</ele>
        <time>2013-10-03T15:58:52Z</time>
      </trkpt>
      <trkpt lat="45.4717" lon="5.97146">
        <ele>508.4</ele>
        <time>2013-10-03T15:58:53Z</time>
      </trkpt>
      <trkpt lat="45.47177" lon="5.97146">
        <ele>507.7</ele>
        <time>2013-10-03T15:58:54Z</time>
      </trkpt>
      <trkpt lat="45.47183" lon="5.97146">
        <ele>507.1</ele>
        <time>2013-10-03T15:58:55Z</time>
      </trkpt>
      <trkpt lat="45.47191" lon="5.97146">
        <ele>506.4</ele>
        <time>2013-10-03T15:58:57Z</time>
      </trkpt>
      <trkpt lat="45.47195" lon="5.97146">
        <ele>505.9</ele>
        <time>2013-10-03T15:58:58Z</time>
      </trkpt>
      <trkpt lat="45.472" lon="5.97146">
        <ele>505.1</ele>
        <time>2013-10-03T15:58:59Z</time>
      </trkpt>
      <trkpt lat="45.47205" lon="5.97145">
        <ele>504.2</ele>
        <time>2013-10-03T15:59:00Z</time>
      </trkpt>
      <trkpt lat="45.47211" lon="5.97145">
        <ele>503.8</ele>
        <time>2013-10-03T15:59:01Z</time>
      </trkpt>
      <trkpt lat="45.47218" lon="5.97145">
        <ele>503.2</ele>
        <time>2013-10-03T15:59:02Z</time>
      </trkpt>
      <trkpt lat="45.47223" lon="5.97147">
        <ele>502</ele>
        <time>2013-10-03T15:59:03Z</time>
      </trkpt>
      <trkpt lat="45.47229" lon="5.97151">
        <ele>502</ele>
        <time>2013-10-03T15:59:04Z</time>
      </trkpt>
      <trkpt lat="45.47234" lon="5.97157">
        <ele>501.2</ele>
        <time>2013-10-03T15:59:05Z</time>
      </trkpt>
      <trkpt lat="45.4724" lon="5.97164">
        <ele>500</ele>
        <time>2013-10-03T15:59:06Z</time>
      </trkpt>
      <trkpt lat="45.47245" lon="5.97169">
        <ele>499.2</ele>
        <time>2013-10-03T15:59:07Z</time>
      </trkpt>
      <trkpt lat="45.47251" lon="5.97171">
        <ele>498.5</ele>
        <time>2013-10-03T15:59:08Z</time>
      </trkpt>
      <trkpt lat="45.47256" lon="5.97171">
        <ele>497.6</ele>
        <time>2013-10-03T15:59:09Z</time>
      </trkpt>
      <trkpt lat="45.47262" lon="5.9717">
        <ele>496.8</ele>
        <time>2013-10-03T15:59:10Z</time>
      </trkpt>
      <trkpt lat="45.47268" lon="5.97167">
        <ele>496.3</ele>
        <time>2013-10-03T15:59:11Z</time>
      </trkpt>
      <trkpt lat="45.47275" lon="5.97164">
        <ele>495.2</ele>
        <time>2013-10-03T15:59:12Z</time>
      </trkpt>
      <trkpt lat="45.47282" lon="5.9716">
        <ele>494.5</ele>
        <time>2013-10-03T15:59:13Z</time>
      </trkpt>
      <trkpt lat="45.4729" lon="5.97156">
        <ele>493.8</ele>
        <time>2013-10-03T15:59:14Z</time>
      </trkpt>
      <trkpt lat="45.47298" lon="5.97152">
        <ele>491.8</ele>
        <time>2013-10-03T15:59:15Z</time>
      </trkpt>
      <trkpt lat="45.47305" lon="5.97149">
        <ele>491.9</ele>
        <time>2013-10-03T15:59:16Z</time>
      </trkpt>
      <trkpt lat="45.47312" lon="5.97146">
        <ele>491</ele>
        <time>2013-10-03T15:59:17Z</time>
      </trkpt>
      <trkpt lat="45.4732" lon="5.97144">
        <ele>489.9</ele>
        <time>2013-10-03T15:59:18Z</time>
      </trkpt>
      <trkpt lat="45.47328" lon="5.97142">
        <ele>488.2</ele>
        <time>2013-10-03T15:59:19Z</time>
      </trkpt>
      <trkpt lat="45.47338" lon="5.97142">
        <ele>487.4</ele>
        <time>2013-10-03T15:59:20Z</time>
      </trkpt>
      <trkpt lat="45.47346" lon="5.97142">
        <ele>485.4</ele>
        <time>2013-10-03T15:59:21Z</time>
      </trkpt>
      <trkpt lat="45.47353" lon="5.97142">
        <ele>484.4</ele>
        <time>2013-10-03T15:59:22Z</time>
      </trkpt>
      <trkpt lat="45.4736" lon="5.9714">
        <ele>483.1</ele>
        <time>2013-10-03T15:59:23Z</time>
      </trkpt>
      <trkpt lat="45.47367" lon="5.97138">
        <ele>482.2</ele>
        <time>2013-10-03T15:59:24Z</time>
      </trkpt>
      <trkpt lat="45.47373" lon="5.97137">
        <ele>481.8</ele>
        <time>2013-10-03T15:59:25Z</time>
      </trkpt>
      <trkpt lat="45.47379" lon="5.97135">
        <ele>480.4</ele>
        <time>2013-10-03T15:59:26Z</time>
      </trkpt>
      <trkpt lat="45.47386" lon="5.97133">
        <ele>479.4</ele>
        <time>2013-10-03T15:59:27Z</time>
      </trkpt>
      <trkpt lat="45.47393" lon="5.97131">
        <ele>479.2</ele>
        <time>2013-10-03T15:59:28Z</time>
      </trkpt>
      <trkpt lat="45.47399" lon="5.9713">
        <ele>477.5</ele>
        <time>2013-10-03T15:59:29Z</time>
      </trkpt>
      <trkpt lat="45.47405" lon="5.97129">
        <ele>476.3</ele>
        <time>2013-10-03T15:59:30Z</time>
      </trkpt>
      <trkpt lat="45.4741" lon="5.97127">
        <ele>475.3</ele>
        <time>2013-10-03T15:59:31Z</time>
      </trkpt>
      <trkpt lat="45.47416" lon="5.97124">
        <ele>474.6</ele>
        <time>2013-10-03T15:59:32Z</time>
      </trkpt>
      <trkpt lat="45.47423" lon="5.9712">
        <ele>474.2</ele>
        <time>2013-10-03T15:59:33Z</time>
      </trkpt>
      <trkpt lat="45.47429" lon="5.97116">
        <ele>473.6</ele>
        <time>2013-10-03T15:59:34Z</time>
      </trkpt>
      <trkpt lat="45.47435" lon="5.97112">
        <ele>473</ele>
        <time>2013-10-03T15:59:35Z</time>
      </trkpt>
      <trkpt lat="45.47441" lon="5.97104">
        <ele>471.7</ele>
        <time>2013-10-03T15:59:37Z</time>
      </trkpt>
      <trkpt lat="45.47444" lon="5.97115">
        <ele>469.1</ele>
        <time>2013-10-03T15:59:44Z</time>
      </trkpt>
      <trkpt lat="45.47443" lon="5.97122">
        <ele>468.8</ele>
        <time>2013-10-03T15:59:45Z</time>
      </trkpt>
      <trkpt lat="45.47442" lon="5.97129">
        <ele>468.5</ele>
        <time>2013-10-03T15:59:46Z</time>
      </trkpt>
      <trkpt lat="45.47441" lon="5.97136">
        <ele>468.1</ele>
        <time>2013-10-03T15:59:47Z</time>
      </trkpt>
      <trkpt lat="45.47439" lon="5.97143">
        <ele>467.6</ele>
        <time>2013-10-03T15:59:48Z</time>
      </trkpt>
      <trkpt lat="45.47438" lon="5.97149">
        <ele>467</ele>
        <time>2013-10-03T15:59:49Z</time>
      </trkpt>
      <trkpt lat="45.47436" lon="5.97156">
        <ele>466.7</ele>
        <time>2013-10-03T15:59:50Z</time>
      </trkpt>
      <trkpt lat="45.47433" lon="5.97163">
        <ele>465.8</ele>
        <time>2013-10-03T15:59:51Z</time>
      </trkpt>
      <trkpt lat="45.4743" lon="5.97169">
        <ele>465.7</ele>
        <time>2013-10-03T15:59:52Z</time>
      </trkpt>
      <trkpt lat="45.47427" lon="5.97175">
        <ele>465.3</ele>
        <time>2013-10-03T15:59:53Z</time>
      </trkpt>
      <trkpt lat="45.47425" lon="5.97181">
        <ele>464.9</ele>
        <time>2013-10-03T15:59:54Z</time>
      </trkpt>
      <trkpt lat="45.47423" lon="5.97187">
        <ele>464.9</ele>
        <time>2013-10-03T15:59:55Z</time>
      </trkpt>
      <trkpt lat="45.4742" lon="5.97199">
        <ele>464.1</ele>
        <time>2013-10-03T15:59:57Z</time>
      </trkpt>
      <trkpt lat="45.47417" lon="5.97209">
        <ele>464.6</ele>
        <time>2013-10-03T15:59:59Z</time>
      </trkpt>
      <trkpt lat="45.47415" lon="5.97219">
        <ele>464.4</ele>
        <time>2013-10-03T16:00:01Z</time>
      </trkpt>
      <trkpt lat="45.47412" lon="5.97231">
        <ele>464.5</ele>
        <time>2013-10-03T16:00:03Z</time>
      </trkpt>
      <trkpt lat="45.47408" lon="5.97241">
        <ele>464</ele>
        <time>2013-10-03T16:00:05Z</time>
      </trkpt>
      <trkpt lat="45.47405" lon="5.97251">
        <ele>464</ele>
        <time>2013-10-03T16:00:07Z</time>
      </trkpt>
      <trkpt lat="45.47403" lon="5.97261">
        <ele>463.8</ele>
        <time>2013-10-03T16:00:09Z</time>
      </trkpt>
      <trkpt lat="45.47401" lon="5.97266">
        <ele>464</ele>
        <time>2013-10-03T16:00:10Z</time>
      </trkpt>
      <trkpt lat="45.47399" lon="5.97274">
        <ele>463.8</ele>
        <time>2013-10-03T16:00:11Z</time>
      </trkpt>
      <trkpt lat="45.47399" lon="5.97281">
        <ele>463.9</ele>
        <time>2013-10-03T16:00:12Z</time>
      </trkpt>
      <trkpt lat="45.47396" lon="5.9729">
        <ele>463.6</ele>
        <time>2013-10-03T16:00:13Z</time>
      </trkpt>
      <trkpt lat="45.47394" lon="5.973">
        <ele>463.2</ele>
        <time>2013-10-03T16:00:14Z</time>
      </trkpt>
      <trkpt lat="45.47391" lon="5.9731">
        <ele>461.9</ele>
        <time>2013-10-03T16:00:15Z</time>
      </trkpt>
      <trkpt lat="45.47388" lon="5.97318">
        <ele>460.6</ele>
        <time>2013-10-03T16:00:16Z</time>
      </trkpt>
      <trkpt lat="45.47386" lon="5.97326">
        <ele>459.8</ele>
        <time>2013-10-03T16:00:17Z</time>
      </trkpt>
      <trkpt lat="45.47387" lon="5.97338">
        <ele>458.2</ele>
        <time>2013-10-03T16:00:19Z</time>
      </trkpt>
      <trkpt lat="45.47392" lon="5.97347">
        <ele>456.4</ele>
        <time>2013-10-03T16:00:23Z</time>
      </trkpt>
      <trkpt lat="45.47399" lon="5.97349">
        <ele>455.1</ele>
        <time>2013-10-03T16:00:26Z</time>
      </trkpt>
      <trkpt lat="45.47408" lon="5.97352">
        <ele>454.1</ele>
        <time>2013-10-03T16:00:28Z</time>
      </trkpt>
      <trkpt lat="45.47412" lon="5.97356">
        <ele>453.3</ele>
        <time>2013-10-03T16:00:29Z</time>
      </trkpt>
      <trkpt lat="45.47416" lon="5.97361">
        <ele>452.9</ele>
        <time>2013-10-03T16:00:30Z</time>
      </trkpt>
      <trkpt lat="45.4742" lon="5.97367">
        <ele>453</ele>
        <time>2013-10-03T16:00:31Z</time>
      </trkpt>
      <trkpt lat="45.47423" lon="5.97374">
        <ele>451.6</ele>
        <time>2013-10-03T16:00:32Z</time>
      </trkpt>
      <trkpt lat="45.47427" lon="5.97382">
        <ele>451.2</ele>
        <time>2013-10-03T16:00:33Z</time>
      </trkpt>
      <trkpt lat="45.4743" lon="5.9739">
        <ele>450.6</ele>
        <time>2013-10-03T16:00:34Z</time>
      </trkpt>
      <trkpt lat="45.47432" lon="5.97397">
        <ele>449.9</ele>
        <time>2013-10-03T16:00:35Z</time>
      </trkpt>
      <trkpt lat="45.47433" lon="5.97403">
        <ele>449.6</ele>
        <time>2013-10-03T16:00:36Z</time>
      </trkpt>
      <trkpt lat="45.47435" lon="5.9741">
        <ele>449.1</ele>
        <time>2013-10-03T16:00:37Z</time>
      </trkpt>
      <trkpt lat="45.47438" lon="5.97417">
        <ele>448.8</ele>
        <time>2013-10-03T16:00:38Z</time>
      </trkpt>
      <trkpt lat="45.4744" lon="5.97424">
        <ele>447.9</ele>
        <time>2013-10-03T16:00:39Z</time>
      </trkpt>
      <trkpt lat="45.47442" lon="5.97432">
        <ele>447.2</ele>
        <time>2013-10-03T16:00:40Z</time>
      </trkpt>
      <trkpt lat="45.47445" lon="5.97441">
        <ele>446.2</ele>
        <time>2013-10-03T16:00:42Z</time>
      </trkpt>
      <trkpt lat="45.47449" lon="5.97449">
        <ele>444.7</ele>
        <time>2013-10-03T16:00:45Z</time>
      </trkpt>
      <trkpt lat="45.47453" lon="5.97459">
        <ele>443.5</ele>
        <time>2013-10-03T16:00:48Z</time>
      </trkpt>
      <trkpt lat="45.47456" lon="5.9747">
        <ele>442</ele>
        <time>2013-10-03T16:00:52Z</time>
      </trkpt>
      <trkpt lat="45.47455" lon="5.97481">
        <ele>439.4</ele>
        <time>2013-10-03T16:00:58Z</time>
      </trkpt>
      <trkpt lat="45.47453" lon="5.97493">
        <ele>436.1</ele>
        <time>2013-10-03T16:01:04Z</time>
      </trkpt>
      <trkpt lat="45.47449" lon="5.97504">
        <ele>432.5</ele>
        <time>2013-10-03T16:01:10Z</time>
      </trkpt>
      <trkpt lat="45.47447" lon="5.97515">
        <ele>430.1</ele>
        <time>2013-10-03T16:01:13Z</time>
      </trkpt>
      <trkpt lat="45.47442" lon="5.97519">
        <ele>429.1</ele>
        <time>2013-10-03T16:01:15Z</time>
      </trkpt>
      <trkpt lat="45.47434" lon="5.97523">
        <ele>427.8</ele>
        <time>2013-10-03T16:01:18Z</time>
      </trkpt>
      <trkpt lat="45.47427" lon="5.97527">
        <ele>425.7</ele>
        <time>2013-10-03T16:01:21Z</time>
      </trkpt>
      <trkpt lat="45.47419" lon="5.97531">
        <ele>423.2</ele>
        <time>2013-10-03T16:01:25Z</time>
      </trkpt>
      <trkpt lat="45.47412" lon="5.97533">
        <ele>421.2</ele>
        <time>2013-10-03T16:01:29Z</time>
      </trkpt>
      <trkpt lat="45.47406" lon="5.97542">
        <ele>418.8</ele>
        <time>2013-10-03T16:01:33Z</time>
      </trkpt>
      <trkpt lat="45.47401" lon="5.97551">
        <ele>416.2</ele>
        <time>2013-10-03T16:01:37Z</time>
      </trkpt>
      <trkpt lat="45.47399" lon="5.97554">
        <ele>415.2</ele>
        <time>2013-10-03T16:01:38Z</time>
      </trkpt>
      <trkpt lat="45.47391" lon="5.97572">
        <ele>411.5</ele>
        <time>2013-10-03T16:01:49Z</time>
      </trkpt>
      <trkpt lat="45.47388" lon="5.97582">
        <ele>407.6</ele>
        <time>2013-10-03T16:02:12Z</time>
      </trkpt>
      <trkpt lat="45.47386" lon="5.97594">
        <ele>405.4</ele>
        <time>2013-10-03T16:02:29Z</time>
      </trkpt>
      <trkpt lat="45.47387" lon="5.97606">
        <ele>403.1</ele>
        <time>2013-10-03T16:02:35Z</time>
      </trkpt>
      <trkpt lat="45.47387" lon="5.97618">
        <ele>401.2</ele>
        <time>2013-10-03T16:02:42Z</time>
      </trkpt>
      <trkpt lat="45.47387" lon="5.97619">
        <ele>401</ele>
        <time>2013-10-03T16:02:43Z</time>
      </trkpt>
      <trkpt lat="45.47393" lon="5.9764">
        <ele>398.2</ele>
        <time>2013-10-03T16:03:12Z</time>
      </trkpt>
      <trkpt lat="45.47399" lon="5.97648">
        <ele>397.3</ele>
        <time>2013-10-03T16:03:16Z</time>
      </trkpt>
      <trkpt lat="45.47401" lon="5.9766">
        <ele>395.9</ele>
        <time>2013-10-03T16:03:19Z</time>
      </trkpt>
      <trkpt lat="45.47403" lon="5.97667">
        <ele>395.4</ele>
        <time>2013-10-03T16:03:20Z</time>
      </trkpt>
      <trkpt lat="45.47406" lon="5.97674">
        <ele>394.8</ele>
        <time>2013-10-03T16:03:21Z</time>
      </trkpt>
      <trkpt lat="45.47409" lon="5.97681">
        <ele>392.5</ele>
        <time>2013-10-03T16:03:22Z</time>
      </trkpt>
      <trkpt lat="45.47413" lon="5.97688">
        <ele>392.6</ele>
        <time>2013-10-03T16:03:23Z</time>
      </trkpt>
      <trkpt lat="45.47417" lon="5.97692">
        <ele>392.3</ele>
        <time>2013-10-03T16:03:24Z</time>
      </trkpt>
      <trkpt lat="45.47425" lon="5.97698">
        <ele>391.9</ele>
        <time>2013-10-03T16:03:26Z</time>
      </trkpt>
      <trkpt lat="45.47432" lon="5.97704">
        <ele>390.5</ele>
        <time>2013-10-03T16:03:29Z</time>
      </trkpt>
      <trkpt lat="45.47439" lon="5.97711">
        <ele>388.4</ele>
        <time>2013-10-03T16:03:34Z</time>
      </trkpt>
      <trkpt lat="45.47446" lon="5.97718">
        <ele>388</ele>
        <time>2013-10-03T16:03:37Z</time>
      </trkpt>
      <trkpt lat="45.4745" lon="5.97721">
        <ele>387.2</ele>
        <time>2013-10-03T16:03:38Z</time>
      </trkpt>
      <trkpt lat="45.47455" lon="5.97724">
        <ele>386.9</ele>
        <time>2013-10-03T16:03:39Z</time>
      </trkpt>
      <trkpt lat="45.47462" lon="5.9773">
        <ele>385.4</ele>
        <time>2013-10-03T16:03:41Z</time>
      </trkpt>
      <trkpt lat="45.47468" lon="5.97735">
        <ele>384.8</ele>
        <time>2013-10-03T16:03:43Z</time>
      </trkpt>
      <trkpt lat="45.47474" lon="5.97741">
        <ele>384.1</ele>
        <time>2013-10-03T16:03:45Z</time>
      </trkpt>
      <trkpt lat="45.47476" lon="5.97743">
        <ele>383.1</ele>
        <time>2013-10-03T16:03:46Z</time>
      </trkpt>
      <trkpt lat="45.47484" lon="5.97758">
        <ele>380.5</ele>
        <time>2013-10-03T16:03:51Z</time>
      </trkpt>
      <trkpt lat="45.47477" lon="5.97765">
        <ele>378.8</ele>
        <time>2013-10-03T16:03:55Z</time>
      </trkpt>
      <trkpt lat="45.47471" lon="5.97762">
        <ele>377.2</ele>
        <time>2013-10-03T16:03:57Z</time>
      </trkpt>
      <trkpt lat="45.47462" lon="5.97758">
        <ele>376.9</ele>
        <time>2013-10-03T16:03:59Z</time>
      </trkpt>
      <trkpt lat="45.47456" lon="5.97757">
        <ele>375.6</ele>
        <time>2013-10-03T16:04:00Z</time>
      </trkpt>
      <trkpt lat="45.47449" lon="5.97757">
        <ele>375.2</ele>
        <time>2013-10-03T16:04:01Z</time>
      </trkpt>
      <trkpt lat="45.47442" lon="5.97759">
        <ele>373.7</ele>
        <time>2013-10-03T16:04:02Z</time>
      </trkpt>
      <trkpt lat="45.47434" lon="5.97761">
        <ele>373</ele>
        <time>2013-10-03T16:04:03Z</time>
      </trkpt>
      <trkpt lat="45.47426" lon="5.97764">
        <ele>372.7</ele>
        <time>2013-10-03T16:04:04Z</time>
      </trkpt>
      <trkpt lat="45.47419" lon="5.97766">
        <ele>371.4</ele>
        <time>2013-10-03T16:04:05Z</time>
      </trkpt>
      <trkpt lat="45.47412" lon="5.97769">
        <ele>371.3</ele>
        <time>2013-10-03T16:04:06Z</time>
      </trkpt>
      <trkpt lat="45.47405" lon="5.97771">
        <ele>370.8</ele>
        <time>2013-10-03T16:04:07Z</time>
      </trkpt>
      <trkpt lat="45.47397" lon="5.97772">
        <ele>369.3</ele>
        <time>2013-10-03T16:04:08Z</time>
      </trkpt>
      <trkpt lat="45.4739" lon="5.97772">
        <ele>367.9</ele>
        <time>2013-10-03T16:04:09Z</time>
      </trkpt>
      <trkpt lat="45.47383" lon="5.9777">
        <ele>366.7</ele>
        <time>2013-10-03T16:04:10Z</time>
      </trkpt>
      <trkpt lat="45.47376" lon="5.97768">
        <ele>365.3</ele>
        <time>2013-10-03T16:04:11Z</time>
      </trkpt>
      <trkpt lat="45.4737" lon="5.97766">
        <ele>364.2</ele>
        <time>2013-10-03T16:04:12Z</time>
      </trkpt>
      <trkpt lat="45.47364" lon="5.97765">
        <ele>363.4</ele>
        <time>2013-10-03T16:04:13Z</time>
      </trkpt>
      <trkpt lat="45.47358" lon="5.97764">
        <ele>362.4</ele>
        <time>2013-10-03T16:04:14Z</time>
      </trkpt>
      <trkpt lat="45.47353" lon="5.97765">
        <ele>361.8</ele>
        <time>2013-10-03T16:04:15Z</time>
      </trkpt>
      <trkpt lat="45.47347" lon="5.97767">
        <ele>361.3</ele>
        <time>2013-10-03T16:04:16Z</time>
      </trkpt>
      <trkpt lat="45.4734" lon="5.97769">
        <ele>360.3</ele>
        <time>2013-10-03T16:04:17Z</time>
      </trkpt>
      <trkpt lat="45.47334" lon="5.9777">
        <ele>360.1</ele>
        <time>2013-10-03T16:04:18Z</time>
      </trkpt>
      <trkpt lat="45.47327" lon="5.9777">
        <ele>359.1</ele>
        <time>2013-10-03T16:04:19Z</time>
      </trkpt>
      <trkpt lat="45.47321" lon="5.97772">
        <ele>358.9</ele>
        <time>2013-10-03T16:04:20Z</time>
      </trkpt>
      <trkpt lat="45.47314" lon="5.97772">
        <ele>358.2</ele>
        <time>2013-10-03T16:04:21Z</time>
      </trkpt>
      <trkpt lat="45.47306" lon="5.97773">
        <ele>357.7</ele>
        <time>2013-10-03T16:04:22Z</time>
      </trkpt>
      <trkpt lat="45.47298" lon="5.97774">
        <ele>357</ele>
        <time>2013-10-03T16:04:23Z</time>
      </trkpt>
      <trkpt lat="45.4729" lon="5.97775">
        <ele>356.4</ele>
        <time>2013-10-03T16:04:24Z</time>
      </trkpt>
      <trkpt lat="45.47283" lon="5.97777">
        <ele>355.7</ele>
        <time>2013-10-03T16:04:25Z</time>
      </trkpt>
      <trkpt lat="45.47276" lon="5.9778">
        <ele>354.6</ele>
        <time>2013-10-03T16:04:26Z</time>
      </trkpt>
      <trkpt lat="45.47268" lon="5.97783">
        <ele>353.9</ele>
        <time>2013-10-03T16:04:27Z</time>
      </trkpt>
      <trkpt lat="45.47259" lon="5.97787">
        <ele>353.3</ele>
        <time>2013-10-03T16:04:28Z</time>
      </trkpt>
      <trkpt lat="45.47251" lon="5.97793">
        <ele>352</ele>
        <time>2013-10-03T16:04:29Z</time>
      </trkpt>
      <trkpt lat="45.47244" lon="5.97799">
        <ele>351.7</ele>
        <time>2013-10-03T16:04:30Z</time>
      </trkpt>
      <trkpt lat="45.47237" lon="5.97805">
        <ele>350.8</ele>
        <time>2013-10-03T16:04:31Z</time>
      </trkpt>
      <trkpt lat="45.47232" lon="5.97811">
        <ele>349.8</ele>
        <time>2013-10-03T16:04:32Z</time>
      </trkpt>
      <trkpt lat="45.47227" lon="5.97817">
        <ele>348.5</ele>
        <time>2013-10-03T16:04:33Z</time>
      </trkpt>
      <trkpt lat="45.47222" lon="5.97824">
        <ele>348.1</ele>
        <time>2013-10-03T16:04:34Z</time>
      </trkpt>
      <trkpt lat="45.47216" lon="5.9783">
        <ele>345.9</ele>
        <time>2013-10-03T16:04:35Z</time>
      </trkpt>
      <trkpt lat="45.47209" lon="5.97836">
        <ele>345.5</ele>
        <time>2013-10-03T16:04:36Z</time>
      </trkpt>
      <trkpt lat="45.47202" lon="5.97842">
        <ele>344.1</ele>
        <time>2013-10-03T16:04:37Z</time>
      </trkpt>
      <trkpt lat="45.47194" lon="5.97846">
        <ele>344</ele>
        <time>2013-10-03T16:04:38Z</time>
      </trkpt>
      <trkpt lat="45.47185" lon="5.97851">
        <ele>343.5</ele>
        <time>2013-10-03T16:04:39Z</time>
      </trkpt>
      <trkpt lat="45.47176" lon="5.97856">
        <ele>342.3</ele>
        <time>2013-10-03T16:04:40Z</time>
      </trkpt>
      <trkpt lat="45.47168" lon="5.97861">
        <ele>340.4</ele>
        <time>2013-10-03T16:04:41Z</time>
      </trkpt>
      <trkpt lat="45.47161" lon="5.97866">
        <ele>338.8</ele>
        <time>2013-10-03T16:04:42Z</time>
      </trkpt>
      <trkpt lat="45.47154" lon="5.97872">
        <ele>337.2</ele>
        <time>2013-10-03T16:04:43Z</time>
      </trkpt>
      <trkpt lat="45.47147" lon="5.97879">
        <ele>335.9</ele>
        <time>2013-10-03T16:04:44Z</time>
      </trkpt>
      <trkpt lat="45.4714" lon="5.97885">
        <ele>334.8</ele>
        <time>2013-10-03T16:04:45Z</time>
      </trkpt>
      <trkpt lat="45.47135" lon="5.97889">
        <ele>332.9</ele>
        <time>2013-10-03T16:04:46Z</time>
      </trkpt>
      <trkpt lat="45.47129" lon="5.97891">
        <ele>331.2</ele>
        <time>2013-10-03T16:04:47Z</time>
      </trkpt>
      <trkpt lat="45.47124" lon="5.97893">
        <ele>330.1</ele>
        <time>2013-10-03T16:04:48Z</time>
      </trkpt>
      <trkpt lat="45.47118" lon="5.979">
        <ele>327.3</ele>
        <time>2013-10-03T16:04:50Z</time>
      </trkpt>
      <trkpt lat="45.47116" lon="5.97905">
        <ele>325.9</ele>
        <time>2013-10-03T16:04:51Z</time>
      </trkpt>
      <trkpt lat="45.47114" lon="5.97912">
        <ele>324.8</ele>
        <time>2013-10-03T16:04:52Z</time>
      </trkpt>
      <trkpt lat="45.47112" lon="5.9792">
        <ele>323.6</ele>
        <time>2013-10-03T16:04:53Z</time>
      </trkpt>
      <trkpt lat="45.47112" lon="5.9793">
        <ele>322.2</ele>
        <time>2013-10-03T16:04:54Z</time>
      </trkpt>
      <trkpt lat="45.47112" lon="5.9794">
        <ele>321.3</ele>
        <time>2013-10-03T16:04:55Z</time>
      </trkpt>
      <trkpt lat="45.47113" lon="5.9795">
        <ele>320.5</ele>
        <time>2013-10-03T16:04:56Z</time>
      </trkpt>
      <trkpt lat="45.47114" lon="5.97959">
        <ele>319.4</ele>
        <time>2013-10-03T16:04:57Z</time>
      </trkpt>
      <trkpt lat="45.47114" lon="5.9797">
        <ele>317.5</ele>
        <time>2013-10-03T16:04:59Z</time>
      </trkpt>
      <trkpt lat="45.4711" lon="5.97981">
        <ele>316.4</ele>
        <time>2013-10-03T16:05:01Z</time>
      </trkpt>
      <trkpt lat="45.47106" lon="5.97986">
        <ele>315.4</ele>
        <time>2013-10-03T16:05:02Z</time>
      </trkpt>
      <trkpt lat="45.47102" lon="5.97992">
        <ele>314.5</ele>
        <time>2013-10-03T16:05:03Z</time>
      </trkpt>
      <trkpt lat="45.47097" lon="5.97998">
        <ele>313.6</ele>
        <time>2013-10-03T16:05:04Z</time>
      </trkpt>
      <trkpt lat="45.47092" lon="5.98004">
        <ele>312.6</ele>
        <time>2013-10-03T16:05:05Z</time>
      </trkpt>
      <trkpt lat="45.47087" lon="5.9801">
        <ele>311.8</ele>
        <time>2013-10-03T16:05:06Z</time>
      </trkpt>
      <trkpt lat="45.47083" lon="5.98016">
        <ele>311</ele>
        <time>2013-10-03T16:05:07Z</time>
      </trkpt>
      <trkpt lat="45.4708" lon="5.98024">
        <ele>309.8</ele>
        <time>2013-10-03T16:05:08Z</time>
      </trkpt>
      <trkpt lat="45.47077" lon="5.98032">
        <ele>308.9</ele>
        <time>2013-10-03T16:05:09Z</time>
      </trkpt>
      <trkpt lat="45.47076" lon="5.98044">
        <ele>307.3</ele>
        <time>2013-10-03T16:05:11Z</time>
      </trkpt>
      <trkpt lat="45.47079" lon="5.98054">
        <ele>306</ele>
        <time>2013-10-03T16:05:13Z</time>
      </trkpt>
      <trkpt lat="45.47086" lon="5.9806">
        <ele>305</ele>
        <time>2013-10-03T16:05:15Z</time>
      </trkpt>
      <trkpt lat="45.47094" lon="5.98063">
        <ele>304.6</ele>
        <time>2013-10-03T16:05:17Z</time>
      </trkpt>
      <trkpt lat="45.471" lon="5.98065">
        <ele>304.1</ele>
        <time>2013-10-03T16:05:19Z</time>
      </trkpt>
      <trkpt lat="45.47107" lon="5.98072">
        <ele>303.8</ele>
        <time>2013-10-03T16:05:21Z</time>
      </trkpt>
      <trkpt lat="45.4711" lon="5.98075">
        <ele>303.6</ele>
        <time>2013-10-03T16:05:22Z</time>
      </trkpt>
      <trkpt lat="45.47114" lon="5.9808">
        <ele>303.3</ele>
        <time>2013-10-03T16:05:23Z</time>
      </trkpt>
      <trkpt lat="45.47118" lon="5.98085">
        <ele>302.9</ele>
        <time>2013-10-03T16:05:24Z</time>
      </trkpt>
      <trkpt lat="45.47123" lon="5.98091">
        <ele>302.5</ele>
        <time>2013-10-03T16:05:25Z</time>
      </trkpt>
      <trkpt lat="45.47129" lon="5.98097">
        <ele>302.1</ele>
        <time>2013-10-03T16:05:26Z</time>
      </trkpt>
      <trkpt lat="45.47135" lon="5.98103">
        <ele>301.6</ele>
        <time>2013-10-03T16:05:27Z</time>
      </trkpt>
      <trkpt lat="45.47142" lon="5.9811">
        <ele>301</ele>
        <time>2013-10-03T16:05:28Z</time>
      </trkpt>
      <trkpt lat="45.4715" lon="5.98115">
        <ele>300.3</ele>
        <time>2013-10-03T16:05:29Z</time>
      </trkpt>
      <trkpt lat="45.47159" lon="5.98119">
        <ele>299.3</ele>
        <time>2013-10-03T16:05:30Z</time>
      </trkpt>
      <trkpt lat="45.47167" lon="5.98123">
        <ele>298.4</ele>
        <time>2013-10-03T16:05:31Z</time>
      </trkpt>
      <trkpt lat="45.47173" lon="5.98125">
        <ele>297.4</ele>
        <time>2013-10-03T16:05:32Z</time>
      </trkpt>
      <trkpt lat="45.47179" lon="5.98133">
        <ele>295.5</ele>
        <time>2013-10-03T16:05:35Z</time>
      </trkpt>
      <trkpt lat="45.47183" lon="5.98143">
        <ele>294.2</ele>
        <time>2013-10-03T16:05:38Z</time>
      </trkpt>
      <trkpt lat="45.4719" lon="5.98143">
        <ele>293.8</ele>
        <time>2013-10-03T16:05:40Z</time>
      </trkpt>
      <trkpt lat="45.47197" lon="5.98144">
        <ele>293.7</ele>
        <time>2013-10-03T16:05:42Z</time>
      </trkpt>
      <trkpt lat="45.47203" lon="5.98149">
        <ele>293.7</ele>
        <time>2013-10-03T16:05:44Z</time>
      </trkpt>
      <trkpt lat="45.4721" lon="5.98154">
        <ele>293.7</ele>
        <time>2013-10-03T16:05:46Z</time>
      </trkpt>
      <trkpt lat="45.47217" lon="5.98161">
        <ele>294</ele>
        <time>2013-10-03T16:05:48Z</time>
      </trkpt>
      <trkpt lat="45.47221" lon="5.98164">
        <ele>293.9</ele>
        <time>2013-10-03T16:05:49Z</time>
      </trkpt>
      <trkpt lat="45.47232" lon="5.98174">
        <ele>293.8</ele>
        <time>2013-10-03T16:05:52Z</time>
      </trkpt>
      <trkpt lat="45.4724" lon="5.9818">
        <ele>294</ele>
        <time>2013-10-03T16:05:54Z</time>
      </trkpt>
      <trkpt lat="45.47247" lon="5.98185">
        <ele>294.2</ele>
        <time>2013-10-03T16:05:56Z</time>
      </trkpt>
      <trkpt lat="45.47253" lon="5.98189">
        <ele>294.3</ele>
        <time>2013-10-03T16:05:58Z</time>
      </trkpt>
      <trkpt lat="45.47259" lon="5.98192">
        <ele>294</ele>
        <time>2013-10-03T16:06:15Z</time>
      </trkpt>
      <trkpt lat="45.47264" lon="5.98195">
        <ele>293.7</ele>
        <time>2013-10-03T16:06:17Z</time>
      </trkpt>
      <trkpt lat="45.47271" lon="5.982">
        <ele>293.7</ele>
        <time>2013-10-03T16:06:19Z</time>
      </trkpt>
      <trkpt lat="45.47279" lon="5.98206">
        <ele>293.7</ele>
        <time>2013-10-03T16:06:21Z</time>
      </trkpt>
      <trkpt lat="45.47286" lon="5.98213">
        <ele>293.9</ele>
        <time>2013-10-03T16:06:23Z</time>
      </trkpt>
      <trkpt lat="45.47294" lon="5.98219">
        <ele>294</ele>
        <time>2013-10-03T16:06:25Z</time>
      </trkpt>
      <trkpt lat="45.47298" lon="5.98222">
        <ele>294.1</ele>
        <time>2013-10-03T16:06:26Z</time>
      </trkpt>
      <trkpt lat="45.47302" lon="5.98226">
        <ele>294.2</ele>
        <time>2013-10-03T16:06:27Z</time>
      </trkpt>
      <trkpt lat="45.47306" lon="5.98229">
        <ele>294.1</ele>
        <time>2013-10-03T16:06:28Z</time>
      </trkpt>
      <trkpt lat="45.4731" lon="5.98233">
        <ele>294.3</ele>
        <time>2013-10-03T16:06:29Z</time>
      </trkpt>
      <trkpt lat="45.47315" lon="5.98238">
        <ele>294.2</ele>
        <time>2013-10-03T16:06:30Z</time>
      </trkpt>
      <trkpt lat="45.47319" lon="5.98242">
        <ele>294.2</ele>
        <time>2013-10-03T16:06:31Z</time>
      </trkpt>
      <trkpt lat="45.47323" lon="5.98246">
        <ele>294.1</ele>
        <time>2013-10-03T16:06:32Z</time>
      </trkpt>
      <trkpt lat="45.47327" lon="5.9825">
        <ele>294.3</ele>
        <time>2013-10-03T16:06:33Z</time>
      </trkpt>
      <trkpt lat="45.47331" lon="5.98255">
        <ele>294.3</ele>
        <time>2013-10-03T16:06:34Z</time>
      </trkpt>
      <trkpt lat="45.47336" lon="5.98258">
        <ele>294.2</ele>
        <time>2013-10-03T16:06:35Z</time>
      </trkpt>
      <trkpt lat="45.4734" lon="5.98262">
        <ele>294.2</ele>
        <time>2013-10-03T16:06:36Z</time>
      </trkpt>
      <trkpt lat="45.47344" lon="5.98266">
        <ele>294.4</ele>
        <time>2013-10-03T16:06:37Z</time>
      </trkpt>
      <trkpt lat="45.47349" lon="5.98269">
        <ele>294.5</ele>
        <time>2013-10-03T16:06:38Z</time>
      </trkpt>
      <trkpt lat="45.47353" lon="5.98272">
        <ele>294.5</ele>
        <time>2013-10-03T16:06:39Z</time>
      </trkpt>
      <trkpt lat="45.47358" lon="5.98275">
        <ele>294.4</ele>
        <time>2013-10-03T16:06:40Z</time>
      </trkpt>
      <trkpt lat="45.47363" lon="5.98278">
        <ele>294.6</ele>
        <time>2013-10-03T16:06:41Z</time>
      </trkpt>
      <trkpt lat="45.47369" lon="5.98281">
        <ele>294.6</ele>
        <time>2013-10-03T16:06:42Z</time>
      </trkpt>
      <trkpt lat="45.47374" lon="5.98282">
        <ele>294.8</ele>
        <time>2013-10-03T16:06:43Z</time>
      </trkpt>
      <trkpt lat="45.47379" lon="5.98284">
        <ele>294.9</ele>
        <time>2013-10-03T16:06:44Z</time>
      </trkpt>
      <trkpt lat="45.47384" lon="5.98284">
        <ele>295</ele>
        <time>2013-10-03T16:06:45Z</time>
      </trkpt>
      <trkpt lat="45.47389" lon="5.98285">
        <ele>295.2</ele>
        <time>2013-10-03T16:06:46Z</time>
      </trkpt>
      <trkpt lat="45.47394" lon="5.98284">
        <ele>295.2</ele>
        <time>2013-10-03T16:06:47Z</time>
      </trkpt>
      <trkpt lat="45.47399" lon="5.98285">
        <ele>295.2</ele>
        <time>2013-10-03T16:06:48Z</time>
      </trkpt>
      <trkpt lat="45.47404" lon="5.98285">
        <ele>295.4</ele>
        <time>2013-10-03T16:06:49Z</time>
      </trkpt>
      <trkpt lat="45.47409" lon="5.98284">
        <ele>295.5</ele>
        <time>2013-10-03T16:06:50Z</time>
      </trkpt>
      <trkpt lat="45.47413" lon="5.98283">
        <ele>295.5</ele>
        <time>2013-10-03T16:06:51Z</time>
      </trkpt>
      <trkpt lat="45.47418" lon="5.98281">
        <ele>295.2</ele>
        <time>2013-10-03T16:06:52Z</time>
      </trkpt>
      <trkpt lat="45.47423" lon="5.9828">
        <ele>295.3</ele>
        <time>2013-10-03T16:06:53Z</time>
      </trkpt>
      <trkpt lat="45.47428" lon="5.98279">
        <ele>295.5</ele>
        <time>2013-10-03T16:06:54Z</time>
      </trkpt>
      <trkpt lat="45.47433" lon="5.98278">
        <ele>295.6</ele>
        <time>2013-10-03T16:06:55Z</time>
      </trkpt>
      <trkpt lat="45.47438" lon="5.98277">
        <ele>295.8</ele>
        <time>2013-10-03T16:06:56Z</time>
      </trkpt>
      <trkpt lat="45.47442" lon="5.98277">
        <ele>296.1</ele>
        <time>2013-10-03T16:06:57Z</time>
      </trkpt>
      <trkpt lat="45.47447" lon="5.98276">
        <ele>296.1</ele>
        <time>2013-10-03T16:06:58Z</time>
      </trkpt>
      <trkpt lat="45.47452" lon="5.98275">
        <ele>296.3</ele>
        <time>2013-10-03T16:06:59Z</time>
      </trkpt>
      <trkpt lat="45.47457" lon="5.98273">
        <ele>296.4</ele>
        <time>2013-10-03T16:07:00Z</time>
      </trkpt>
      <trkpt lat="45.47461" lon="5.98272">
        <ele>296.3</ele>
        <time>2013-10-03T16:07:01Z</time>
      </trkpt>
      <trkpt lat="45.47466" lon="5.98271">
        <ele>296.3</ele>
        <time>2013-10-03T16:07:02Z</time>
      </trkpt>
      <trkpt lat="45.47472" lon="5.9827">
        <ele>296.2</ele>
        <time>2013-10-03T16:07:03Z</time>
      </trkpt>
      <trkpt lat="45.47476" lon="5.9827">
        <ele>296.2</ele>
        <time>2013-10-03T16:07:04Z</time>
      </trkpt>
      <trkpt lat="45.47481" lon="5.9827">
        <ele>296.1</ele>
        <time>2013-10-03T16:07:05Z</time>
      </trkpt>
      <trkpt lat="45.47486" lon="5.9827">
        <ele>296.2</ele>
        <time>2013-10-03T16:07:06Z</time>
      </trkpt>
      <trkpt lat="45.4749" lon="5.98269">
        <ele>296.1</ele>
        <time>2013-10-03T16:07:07Z</time>
      </trkpt>
      <trkpt lat="45.47495" lon="5.98267">
        <ele>296.3</ele>
        <time>2013-10-03T16:07:08Z</time>
      </trkpt>
      <trkpt lat="45.47499" lon="5.98265">
        <ele>296.5</ele>
        <time>2013-10-03T16:07:09Z</time>
      </trkpt>
      <trkpt lat="45.47503" lon="5.98263">
        <ele>296.7</ele>
        <time>2013-10-03T16:07:10Z</time>
      </trkpt>
      <trkpt lat="45.47508" lon="5.9826">
        <ele>296.9</ele>
        <time>2013-10-03T16:07:11Z</time>
      </trkpt>
      <trkpt lat="45.47512" lon="5.98257">
        <ele>297.1</ele>
        <time>2013-10-03T16:07:12Z</time>
      </trkpt>
      <trkpt lat="45.47516" lon="5.98255">
        <ele>297.1</ele>
        <time>2013-10-03T16:07:13Z</time>
      </trkpt>
      <trkpt lat="45.47521" lon="5.98252">
        <ele>297</ele>
        <time>2013-10-03T16:07:14Z</time>
      </trkpt>
      <trkpt lat="45.47525" lon="5.9825">
        <ele>297</ele>
        <time>2013-10-03T16:07:15Z</time>
      </trkpt>
      <trkpt lat="45.47533" lon="5.98246">
        <ele>297.3</ele>
        <time>2013-10-03T16:07:17Z</time>
      </trkpt>
      <trkpt lat="45.47537" lon="5.98242">
        <ele>297.4</ele>
        <time>2013-10-03T16:07:18Z</time>
      </trkpt>
      <trkpt lat="45.47541" lon="5.98238">
        <ele>297.6</ele>
        <time>2013-10-03T16:07:19Z</time>
      </trkpt>
      <trkpt lat="45.47545" lon="5.98236">
        <ele>297.6</ele>
        <time>2013-10-03T16:07:20Z</time>
      </trkpt>
      <trkpt lat="45.47553" lon="5.9823">
        <ele>298</ele>
        <time>2013-10-03T16:07:22Z</time>
      </trkpt>
      <trkpt lat="45.4756" lon="5.98224">
        <ele>298.2</ele>
        <time>2013-10-03T16:07:24Z</time>
      </trkpt>
      <trkpt lat="45.47567" lon="5.98218">
        <ele>298.4</ele>
        <time>2013-10-03T16:07:26Z</time>
      </trkpt>
      <trkpt lat="45.47573" lon="5.98211">
        <ele>298.6</ele>
        <time>2013-10-03T16:07:28Z</time>
      </trkpt>
      <trkpt lat="45.47579" lon="5.98205">
        <ele>298.2</ele>
        <time>2013-10-03T16:07:30Z</time>
      </trkpt>
      <trkpt lat="45.47587" lon="5.98199">
        <ele>297.9</ele>
        <time>2013-10-03T16:07:32Z</time>
      </trkpt>
      <trkpt lat="45.47591" lon="5.98196">
        <ele>297.9</ele>
        <time>2013-10-03T16:07:33Z</time>
      </trkpt>
      <trkpt lat="45.47595" lon="5.98194">
        <ele>297.7</ele>
        <time>2013-10-03T16:07:34Z</time>
      </trkpt>
      <trkpt lat="45.476" lon="5.98192">
        <ele>297.4</ele>
        <time>2013-10-03T16:07:35Z</time>
      </trkpt>
      <trkpt lat="45.47605" lon="5.98191">
        <ele>297.2</ele>
        <time>2013-10-03T16:07:36Z</time>
      </trkpt>
      <trkpt lat="45.4761" lon="5.98189">
        <ele>297.1</ele>
        <time>2013-10-03T16:07:37Z</time>
      </trkpt>
      <trkpt lat="45.47615" lon="5.98187">
        <ele>297</ele>
        <time>2013-10-03T16:07:38Z</time>
      </trkpt>
      <trkpt lat="45.4762" lon="5.98185">
        <ele>296.8</ele>
        <time>2013-10-03T16:07:39Z</time>
      </trkpt>
      <trkpt lat="45.47625" lon="5.98184">
        <ele>296.8</ele>
        <time>2013-10-03T16:07:40Z</time>
      </trkpt>
      <trkpt lat="45.4763" lon="5.98182">
        <ele>296.6</ele>
        <time>2013-10-03T16:07:41Z</time>
      </trkpt>
      <trkpt lat="45.47635" lon="5.98181">
        <ele>296.6</ele>
        <time>2013-10-03T16:07:42Z</time>
      </trkpt>
      <trkpt lat="45.4764" lon="5.98179">
        <ele>296.5</ele>
        <time>2013-10-03T16:07:43Z</time>
      </trkpt>
      <trkpt lat="45.47645" lon="5.98178">
        <ele>296.6</ele>
        <time>2013-10-03T16:07:44Z</time>
      </trkpt>
      <trkpt lat="45.4765" lon="5.98176">
        <ele>296.1</ele>
        <time>2013-10-03T16:07:45Z</time>
      </trkpt>
      <trkpt lat="45.47655" lon="5.98174">
        <ele>296</ele>
        <time>2013-10-03T16:07:46Z</time>
      </trkpt>
      <trkpt lat="45.4766" lon="5.98172">
        <ele>295.9</ele>
        <time>2013-10-03T16:07:47Z</time>
      </trkpt>
      <trkpt lat="45.47665" lon="5.9817">
        <ele>295.7</ele>
        <time>2013-10-03T16:07:48Z</time>
      </trkpt>
      <trkpt lat="45.47671" lon="5.98169">
        <ele>295.7</ele>
        <time>2013-10-03T16:07:49Z</time>
      </trkpt>
      <trkpt lat="45.47676" lon="5.98166">
        <ele>295.4</ele>
        <time>2013-10-03T16:07:50Z</time>
      </trkpt>
      <trkpt lat="45.47681" lon="5.98164">
        <ele>295.3</ele>
        <time>2013-10-03T16:07:51Z</time>
      </trkpt>
      <trkpt lat="45.47687" lon="5.98162">
        <ele>295</ele>
        <time>2013-10-03T16:07:52Z</time>
      </trkpt>
      <trkpt lat="45.47692" lon="5.9816">
        <ele>294.9</ele>
        <time>2013-10-03T16:07:53Z</time>
      </trkpt>
      <trkpt lat="45.47698" lon="5.98158">
        <ele>294.5</ele>
        <time>2013-10-03T16:07:54Z</time>
      </trkpt>
      <trkpt lat="45.47704" lon="5.98156">
        <ele>294.3</ele>
        <time>2013-10-03T16:07:55Z</time>
      </trkpt>
      <trkpt lat="45.47709" lon="5.98155">
        <ele>294.3</ele>
        <time>2013-10-03T16:07:56Z</time>
      </trkpt>
      <trkpt lat="45.47715" lon="5.98153">
        <ele>294.1</ele>
        <time>2013-10-03T16:07:57Z</time>
      </trkpt>
      <trkpt lat="45.47721" lon="5.98152">
        <ele>294</ele>
        <time>2013-10-03T16:07:58Z</time>
      </trkpt>
      <trkpt lat="45.47727" lon="5.9815">
        <ele>294</ele>
        <time>2013-10-03T16:07:59Z</time>
      </trkpt>
      <trkpt lat="45.47733" lon="5.9815">
        <ele>293.7</ele>
        <time>2013-10-03T16:08:00Z</time>
      </trkpt>
      <trkpt lat="45.47739" lon="5.98149">
        <ele>293.6</ele>
        <time>2013-10-03T16:08:01Z</time>
      </trkpt>
      <trkpt lat="45.47745" lon="5.98149">
        <ele>293.5</ele>
        <time>2013-10-03T16:08:02Z</time>
      </trkpt>
      <trkpt lat="45.47751" lon="5.98149">
        <ele>293.2</ele>
        <time>2013-10-03T16:08:03Z</time>
      </trkpt>
      <trkpt lat="45.47758" lon="5.98149">
        <ele>292.9</ele>
        <time>2013-10-03T16:08:04Z</time>
      </trkpt>
      <trkpt lat="45.47764" lon="5.9815">
        <ele>292.8</ele>
        <time>2013-10-03T16:08:05Z</time>
      </trkpt>
      <trkpt lat="45.47771" lon="5.9815">
        <ele>292.7</ele>
        <time>2013-10-03T16:08:06Z</time>
      </trkpt>
      <trkpt lat="45.47777" lon="5.98151">
        <ele>292.6</ele>
        <time>2013-10-03T16:08:07Z</time>
      </trkpt>
      <trkpt lat="45.47783" lon="5.98152">
        <ele>292.5</ele>
        <time>2013-10-03T16:08:08Z</time>
      </trkpt>
      <trkpt lat="45.47789" lon="5.98153">
        <ele>292.5</ele>
        <time>2013-10-03T16:08:09Z</time>
      </trkpt>
      <trkpt lat="45.47796" lon="5.98154">
        <ele>292.4</ele>
        <time>2013-10-03T16:08:10Z</time>
      </trkpt>
      <trkpt lat="45.47802" lon="5.98155">
        <ele>292.5</ele>
        <time>2013-10-03T16:08:11Z</time>
      </trkpt>
      <trkpt lat="45.47808" lon="5.98155">
        <ele>292.3</ele>
        <time>2013-10-03T16:08:12Z</time>
      </trkpt>
      <trkpt lat="45.47814" lon="5.98156">
        <ele>292</ele>
        <time>2013-10-03T16:08:13Z</time>
      </trkpt>
      <trkpt lat="45.4782" lon="5.98157">
        <ele>291.9</ele>
        <time>2013-10-03T16:08:14Z</time>
      </trkpt>
      <trkpt lat="45.47825" lon="5.98158">
        <ele>291.9</ele>
        <time>2013-10-03T16:08:15Z</time>
      </trkpt>
      <trkpt lat="45.47831" lon="5.98158">
        <ele>291.8</ele>
        <time>2013-10-03T16:08:16Z</time>
      </trkpt>
      <trkpt lat="45.47837" lon="5.98159">
        <ele>291.8</ele>
        <time>2013-10-03T16:08:17Z</time>
      </trkpt>
      <trkpt lat="45.47843" lon="5.9816">
        <ele>291.7</ele>
        <time>2013-10-03T16:08:18Z</time>
      </trkpt>
      <trkpt lat="45.47848" lon="5.98162">
        <ele>291.6</ele>
        <time>2013-10-03T16:08:19Z</time>
      </trkpt>
      <trkpt lat="45.47854" lon="5.98163">
        <ele>291.7</ele>
        <time>2013-10-03T16:08:20Z</time>
      </trkpt>
      <trkpt lat="45.47859" lon="5.98163">
        <ele>291.7</ele>
        <time>2013-10-03T16:08:21Z</time>
      </trkpt>
      <trkpt lat="45.47864" lon="5.98164">
        <ele>291.6</ele>
        <time>2013-10-03T16:08:22Z</time>
      </trkpt>
      <trkpt lat="45.4787" lon="5.98165">
        <ele>291.7</ele>
        <time>2013-10-03T16:08:23Z</time>
      </trkpt>
      <trkpt lat="45.47875" lon="5.98166">
        <ele>291.7</ele>
        <time>2013-10-03T16:08:24Z</time>
      </trkpt>
      <trkpt lat="45.47881" lon="5.98167">
        <ele>291.6</ele>
        <time>2013-10-03T16:08:25Z</time>
      </trkpt>
      <trkpt lat="45.47886" lon="5.98168">
        <ele>291.4</ele>
        <time>2013-10-03T16:08:26Z</time>
      </trkpt>
      <trkpt lat="45.47892" lon="5.98169">
        <ele>291.5</ele>
        <time>2013-10-03T16:08:27Z</time>
      </trkpt>
      <trkpt lat="45.47897" lon="5.98171">
        <ele>291.4</ele>
        <time>2013-10-03T16:08:28Z</time>
      </trkpt>
      <trkpt lat="45.47902" lon="5.98173">
        <ele>291.5</ele>
        <time>2013-10-03T16:08:29Z</time>
      </trkpt>
      <trkpt lat="45.47907" lon="5.98176">
        <ele>291.4</ele>
        <time>2013-10-03T16:08:30Z</time>
      </trkpt>
      <trkpt lat="45.47911" lon="5.98178">
        <ele>291.4</ele>
        <time>2013-10-03T16:08:31Z</time>
      </trkpt>
      <trkpt lat="45.47916" lon="5.98181">
        <ele>291.5</ele>
        <time>2013-10-03T16:08:32Z</time>
      </trkpt>
      <trkpt lat="45.47921" lon="5.98183">
        <ele>291.4</ele>
        <time>2013-10-03T16:08:33Z</time>
      </trkpt>
      <trkpt lat="45.47925" lon="5.98186">
        <ele>291.2</ele>
        <time>2013-10-03T16:08:34Z</time>
      </trkpt>
      <trkpt lat="45.4793" lon="5.98189">
        <ele>291.2</ele>
        <time>2013-10-03T16:08:35Z</time>
      </trkpt>
      <trkpt lat="45.47934" lon="5.98191">
        <ele>290.9</ele>
        <time>2013-10-03T16:08:36Z</time>
      </trkpt>
      <trkpt lat="45.47939" lon="5.98194">
        <ele>290.9</ele>
        <time>2013-10-03T16:08:37Z</time>
      </trkpt>
      <trkpt lat="45.47943" lon="5.98196">
        <ele>291</ele>
        <time>2013-10-03T16:08:38Z</time>
      </trkpt>
      <trkpt lat="45.47952" lon="5.98199">
        <ele>291.1</ele>
        <time>2013-10-03T16:08:40Z</time>
      </trkpt>
      <trkpt lat="45.47961" lon="5.982">
        <ele>291.3</ele>
        <time>2013-10-03T16:08:42Z</time>
      </trkpt>
      <trkpt lat="45.47969" lon="5.982">
        <ele>291.7</ele>
        <time>2013-10-03T16:08:44Z</time>
      </trkpt>
      <trkpt lat="45.47978" lon="5.98199">
        <ele>291.8</ele>
        <time>2013-10-03T16:08:46Z</time>
      </trkpt>
      <trkpt lat="45.47986" lon="5.98198">
        <ele>291.8</ele>
        <time>2013-10-03T16:08:48Z</time>
      </trkpt>
      <trkpt lat="45.47995" lon="5.98196">
        <ele>291.9</ele>
        <time>2013-10-03T16:08:50Z</time>
      </trkpt>
      <trkpt lat="45.47999" lon="5.98194">
        <ele>292</ele>
        <time>2013-10-03T16:08:51Z</time>
      </trkpt>
      <trkpt lat="45.48004" lon="5.98194">
        <ele>292.1</ele>
        <time>2013-10-03T16:08:52Z</time>
      </trkpt>
      <trkpt lat="45.48008" lon="5.98193">
        <ele>292.1</ele>
        <time>2013-10-03T16:08:53Z</time>
      </trkpt>
      <trkpt lat="45.48013" lon="5.98192">
        <ele>292</ele>
        <time>2013-10-03T16:08:54Z</time>
      </trkpt>
      <trkpt lat="45.48017" lon="5.98191">
        <ele>292.1</ele>
        <time>2013-10-03T16:08:55Z</time>
      </trkpt>
      <trkpt lat="45.48022" lon="5.98191">
        <ele>292.1</ele>
        <time>2013-10-03T16:08:56Z</time>
      </trkpt>
      <trkpt lat="45.48027" lon="5.9819">
        <ele>292.1</ele>
        <time>2013-10-03T16:08:57Z</time>
      </trkpt>
      <trkpt lat="45.48032" lon="5.98189">
        <ele>292.2</ele>
        <time>2013-10-03T16:08:58Z</time>
      </trkpt>
      <trkpt lat="45.48037" lon="5.98188">
        <ele>292.3</ele>
        <time>2013-10-03T16:08:59Z</time>
      </trkpt>
      <trkpt lat="45.48042" lon="5.98187">
        <ele>292.2</ele>
        <time>2013-10-03T16:09:00Z</time>
      </trkpt>
      <trkpt lat="45.48047" lon="5.98186">
        <ele>292.1</ele>
        <time>2013-10-03T16:09:01Z</time>
      </trkpt>
      <trkpt lat="45.48052" lon="5.98185">
        <ele>292</ele>
        <time>2013-10-03T16:09:02Z</time>
      </trkpt>
      <trkpt lat="45.48057" lon="5.98185">
        <ele>292</ele>
        <time>2013-10-03T16:09:03Z</time>
      </trkpt>
      <trkpt lat="45.48062" lon="5.98184">
        <ele>292.1</ele>
        <time>2013-10-03T16:09:04Z</time>
      </trkpt>
      <trkpt lat="45.48068" lon="5.98184">
        <ele>292.2</ele>
        <time>2013-10-03T16:09:05Z</time>
      </trkpt>
      <trkpt lat="45.48073" lon="5.98183">
        <ele>292.1</ele>
        <time>2013-10-03T16:09:06Z</time>
      </trkpt>
      <trkpt lat="45.48078" lon="5.98183">
        <ele>291.9</ele>
        <time>2013-10-03T16:09:07Z</time>
      </trkpt>
      <trkpt lat="45.48083" lon="5.98183">
        <ele>292</ele>
        <time>2013-10-03T16:09:08Z</time>
      </trkpt>
      <trkpt lat="45.48089" lon="5.98183">
        <ele>292.1</ele>
        <time>2013-10-03T16:09:09Z</time>
      </trkpt>
      <trkpt lat="45.48094" lon="5.98183">
        <ele>292</ele>
        <time>2013-10-03T16:09:10Z</time>
      </trkpt>
      <trkpt lat="45.48099" lon="5.98184">
        <ele>291.8</ele>
        <time>2013-10-03T16:09:11Z</time>
      </trkpt>
      <trkpt lat="45.48104" lon="5.98185">
        <ele>291.8</ele>
        <time>2013-10-03T16:09:12Z</time>
      </trkpt>
      <trkpt lat="45.4811" lon="5.98186">
        <ele>292</ele>
        <time>2013-10-03T16:09:13Z</time>
      </trkpt>
      <trkpt lat="45.48115" lon="5.98188">
        <ele>292</ele>
        <time>2013-10-03T16:09:14Z</time>
      </trkpt>
      <trkpt lat="45.4812" lon="5.9819">
        <ele>292.1</ele>
        <time>2013-10-03T16:09:15Z</time>
      </trkpt>
      <trkpt lat="45.48125" lon="5.98192">
        <ele>292.1</ele>
        <time>2013-10-03T16:09:16Z</time>
      </trkpt>
      <trkpt lat="45.4813" lon="5.98195">
        <ele>292.4</ele>
        <time>2013-10-03T16:09:17Z</time>
      </trkpt>
      <trkpt lat="45.48135" lon="5.98198">
        <ele>292.4</ele>
        <time>2013-10-03T16:09:18Z</time>
      </trkpt>
      <trkpt lat="45.48139" lon="5.98201">
        <ele>292.3</ele>
        <time>2013-10-03T16:09:19Z</time>
      </trkpt>
      <trkpt lat="45.48144" lon="5.98205">
        <ele>292.1</ele>
        <time>2013-10-03T16:09:20Z</time>
      </trkpt>
      <trkpt lat="45.48148" lon="5.98208">
        <ele>292.1</ele>
        <time>2013-10-03T16:09:21Z</time>
      </trkpt>
      <trkpt lat="45.48152" lon="5.98213">
        <ele>292.2</ele>
        <time>2013-10-03T16:09:22Z</time>
      </trkpt>
      <trkpt lat="45.48155" lon="5.98218">
        <ele>292.3</ele>
        <time>2013-10-03T16:09:23Z</time>
      </trkpt>
      <trkpt lat="45.48159" lon="5.98222">
        <ele>292.3</ele>
        <time>2013-10-03T16:09:24Z</time>
      </trkpt>
      <trkpt lat="45.48163" lon="5.98227">
        <ele>292.3</ele>
        <time>2013-10-03T16:09:25Z</time>
      </trkpt>
      <trkpt lat="45.48167" lon="5.98232">
        <ele>292.2</ele>
        <time>2013-10-03T16:09:26Z</time>
      </trkpt>
      <trkpt lat="45.4817" lon="5.98237">
        <ele>292.1</ele>
        <time>2013-10-03T16:09:27Z</time>
      </trkpt>
      <trkpt lat="45.48174" lon="5.98241">
        <ele>291.9</ele>
        <time>2013-10-03T16:09:28Z</time>
      </trkpt>
      <trkpt lat="45.48178" lon="5.98245">
        <ele>292</ele>
        <time>2013-10-03T16:09:29Z</time>
      </trkpt>
      <trkpt lat="45.48183" lon="5.98248">
        <ele>291.9</ele>
        <time>2013-10-03T16:09:30Z</time>
      </trkpt>
      <trkpt lat="45.48187" lon="5.98251">
        <ele>291.9</ele>
        <time>2013-10-03T16:09:31Z</time>
      </trkpt>
      <trkpt lat="45.48192" lon="5.98254">
        <ele>292.1</ele>
        <time>2013-10-03T16:09:32Z</time>
      </trkpt>
      <trkpt lat="45.48196" lon="5.98257">
        <ele>292.2</ele>
        <time>2013-10-03T16:09:33Z</time>
      </trkpt>
      <trkpt lat="45.48201" lon="5.98259">
        <ele>292.5</ele>
        <time>2013-10-03T16:09:34Z</time>
      </trkpt>
      <trkpt lat="45.48205" lon="5.98261">
        <ele>292.5</ele>
        <time>2013-10-03T16:09:35Z</time>
      </trkpt>
      <trkpt lat="45.4821" lon="5.98263">
        <ele>292.5</ele>
        <time>2013-10-03T16:09:36Z</time>
      </trkpt>
      <trkpt lat="45.48215" lon="5.98265">
        <ele>292.4</ele>
        <time>2013-10-03T16:09:37Z</time>
      </trkpt>
      <trkpt lat="45.48219" lon="5.98268">
        <ele>292.6</ele>
        <time>2013-10-03T16:09:38Z</time>
      </trkpt>
      <trkpt lat="45.48224" lon="5.9827">
        <ele>292.6</ele>
        <time>2013-10-03T16:09:39Z</time>
      </trkpt>
      <trkpt lat="45.48228" lon="5.98273">
        <ele>292.6</ele>
        <time>2013-10-03T16:09:40Z</time>
      </trkpt>
      <trkpt lat="45.48233" lon="5.98274">
        <ele>292.6</ele>
        <time>2013-10-03T16:09:41Z</time>
      </trkpt>
      <trkpt lat="45.48238" lon="5.98276">
        <ele>292.7</ele>
        <time>2013-10-03T16:09:42Z</time>
      </trkpt>
      <trkpt lat="45.48242" lon="5.98278">
        <ele>292.8</ele>
        <time>2013-10-03T16:09:43Z</time>
      </trkpt>
      <trkpt lat="45.48251" lon="5.98282">
        <ele>292.9</ele>
        <time>2013-10-03T16:09:45Z</time>
      </trkpt>
      <trkpt lat="45.48255" lon="5.98283">
        <ele>292.8</ele>
        <time>2013-10-03T16:09:46Z</time>
      </trkpt>
      <trkpt lat="45.4826" lon="5.98284">
        <ele>292.9</ele>
        <time>2013-10-03T16:09:47Z</time>
      </trkpt>
      <trkpt lat="45.48268" lon="5.98286">
        <ele>293.1</ele>
        <time>2013-10-03T16:09:49Z</time>
      </trkpt>
      <trkpt lat="45.48277" lon="5.98287">
        <ele>293.3</ele>
        <time>2013-10-03T16:09:51Z</time>
      </trkpt>
      <trkpt lat="45.48285" lon="5.98287">
        <ele>293.5</ele>
        <time>2013-10-03T16:09:53Z</time>
      </trkpt>
      <trkpt lat="45.48289" lon="5.98287">
        <ele>293.5</ele>
        <time>2013-10-03T16:09:54Z</time>
      </trkpt>
      <trkpt lat="45.48302" lon="5.98286">
        <ele>294</ele>
        <time>2013-10-03T16:09:57Z</time>
      </trkpt>
      <trkpt lat="45.48307" lon="5.98284">
        <ele>294.2</ele>
        <time>2013-10-03T16:09:58Z</time>
      </trkpt>
      <trkpt lat="45.48316" lon="5.98282">
        <ele>294.2</ele>
        <time>2013-10-03T16:10:00Z</time>
      </trkpt>
      <trkpt lat="45.48325" lon="5.98281">
        <ele>294.4</ele>
        <time>2013-10-03T16:10:02Z</time>
      </trkpt>
      <trkpt lat="45.48333" lon="5.9828">
        <ele>294.7</ele>
        <time>2013-10-03T16:10:04Z</time>
      </trkpt>
      <trkpt lat="45.48341" lon="5.98278">
        <ele>295.3</ele>
        <time>2013-10-03T16:10:06Z</time>
      </trkpt>
      <trkpt lat="45.48348" lon="5.98276">
        <ele>295.5</ele>
        <time>2013-10-03T16:10:08Z</time>
      </trkpt>
      <trkpt lat="45.48356" lon="5.98274">
        <ele>295.8</ele>
        <time>2013-10-03T16:10:10Z</time>
      </trkpt>
      <trkpt lat="45.48364" lon="5.98272">
        <ele>296.1</ele>
        <time>2013-10-03T16:10:12Z</time>
      </trkpt>
      <trkpt lat="45.48372" lon="5.98271">
        <ele>296.3</ele>
        <time>2013-10-03T16:10:14Z</time>
      </trkpt>
      <trkpt lat="45.48381" lon="5.9827">
        <ele>296.9</ele>
        <time>2013-10-03T16:10:16Z</time>
      </trkpt>
      <trkpt lat="45.48388" lon="5.98268">
        <ele>297.3</ele>
        <time>2013-10-03T16:10:18Z</time>
      </trkpt>
      <trkpt lat="45.48396" lon="5.98267">
        <ele>297.6</ele>
        <time>2013-10-03T16:10:20Z</time>
      </trkpt>
      <trkpt lat="45.48404" lon="5.98265">
        <ele>297.8</ele>
        <time>2013-10-03T16:10:22Z</time>
      </trkpt>
      <trkpt lat="45.48411" lon="5.98262">
        <ele>297.9</ele>
        <time>2013-10-03T16:10:24Z</time>
      </trkpt>
      <trkpt lat="45.48419" lon="5.98259">
        <ele>298.2</ele>
        <time>2013-10-03T16:10:26Z</time>
      </trkpt>
      <trkpt lat="45.48426" lon="5.98258">
        <ele>298.3</ele>
        <time>2013-10-03T16:10:28Z</time>
      </trkpt>
      <trkpt lat="45.48434" lon="5.98256">
        <ele>298.5</ele>
        <time>2013-10-03T16:10:30Z</time>
      </trkpt>
      <trkpt lat="45.48441" lon="5.98255">
        <ele>298.5</ele>
        <time>2013-10-03T16:10:32Z</time>
      </trkpt>
      <trkpt lat="45.48449" lon="5.98253">
        <ele>298.5</ele>
        <time>2013-10-03T16:10:34Z</time>
      </trkpt>
      <trkpt lat="45.48456" lon="5.9825">
        <ele>298.7</ele>
        <time>2013-10-03T16:10:36Z</time>
      </trkpt>
      <trkpt lat="45.48463" lon="5.98247">
        <ele>298.8</ele>
        <time>2013-10-03T16:10:38Z</time>
      </trkpt>
      <trkpt lat="45.48471" lon="5.98244">
        <ele>298.9</ele>
        <time>2013-10-03T16:10:40Z</time>
      </trkpt>
      <trkpt lat="45.4848" lon="5.98243">
        <ele>299.2</ele>
        <time>2013-10-03T16:10:42Z</time>
      </trkpt>
      <trkpt lat="45.48484" lon="5.98243">
        <ele>299.4</ele>
        <time>2013-10-03T16:10:43Z</time>
      </trkpt>
      <trkpt lat="45.48489" lon="5.98243">
        <ele>299.5</ele>
        <time>2013-10-03T16:10:44Z</time>
      </trkpt>
      <trkpt lat="45.48494" lon="5.98243">
        <ele>299.3</ele>
        <time>2013-10-03T16:10:45Z</time>
      </trkpt>
      <trkpt lat="45.48498" lon="5.98243">
        <ele>299.4</ele>
        <time>2013-10-03T16:10:46Z</time>
      </trkpt>
      <trkpt lat="45.48503" lon="5.98244">
        <ele>299.7</ele>
        <time>2013-10-03T16:10:47Z</time>
      </trkpt>
      <trkpt lat="45.48511" lon="5.98247">
        <ele>300</ele>
        <time>2013-10-03T16:10:49Z</time>
      </trkpt>
      <trkpt lat="45.48519" lon="5.98252">
        <ele>300</ele>
        <time>2013-10-03T16:10:51Z</time>
      </trkpt>
      <trkpt lat="45.48526" lon="5.9826">
        <ele>300.3</ele>
        <time>2013-10-03T16:10:53Z</time>
      </trkpt>
      <trkpt lat="45.48533" lon="5.98268">
        <ele>300.6</ele>
        <time>2013-10-03T16:10:55Z</time>
      </trkpt>
      <trkpt lat="45.48537" lon="5.98273">
        <ele>300.8</ele>
        <time>2013-10-03T16:10:56Z</time>
      </trkpt>
      <trkpt lat="45.4854" lon="5.98277">
        <ele>300.9</ele>
        <time>2013-10-03T16:10:57Z</time>
      </trkpt>
      <trkpt lat="45.48543" lon="5.98282">
        <ele>300.8</ele>
        <time>2013-10-03T16:10:58Z</time>
      </trkpt>
      <trkpt lat="45.48546" lon="5.98287">
        <ele>300.9</ele>
        <time>2013-10-03T16:10:59Z</time>
      </trkpt>
      <trkpt lat="45.48549" lon="5.98292">
        <ele>300.9</ele>
        <time>2013-10-03T16:11:00Z</time>
      </trkpt>
      <trkpt lat="45.48552" lon="5.98297">
        <ele>301</ele>
        <time>2013-10-03T16:11:01Z</time>
      </trkpt>
      <trkpt lat="45.48556" lon="5.98302">
        <ele>300.8</ele>
        <time>2013-10-03T16:11:02Z</time>
      </trkpt>
      <trkpt lat="45.48561" lon="5.98311">
        <ele>301.1</ele>
        <time>2013-10-03T16:11:04Z</time>
      </trkpt>
      <trkpt lat="45.48565" lon="5.98315">
        <ele>301</ele>
        <time>2013-10-03T16:11:05Z</time>
      </trkpt>
      <trkpt lat="45.48569" lon="5.98319">
        <ele>301.1</ele>
        <time>2013-10-03T16:11:06Z</time>
      </trkpt>
      <trkpt lat="45.48573" lon="5.98323">
        <ele>301.1</ele>
        <time>2013-10-03T16:11:07Z</time>
      </trkpt>
      <trkpt lat="45.48577" lon="5.98327">
        <ele>301.3</ele>
        <time>2013-10-03T16:11:08Z</time>
      </trkpt>
      <trkpt lat="45.48582" lon="5.9833">
        <ele>301.4</ele>
        <time>2013-10-03T16:11:09Z</time>
      </trkpt>
      <trkpt lat="45.48586" lon="5.98333">
        <ele>301.3</ele>
        <time>2013-10-03T16:11:10Z</time>
      </trkpt>
      <trkpt lat="45.48591" lon="5.98336">
        <ele>301.4</ele>
        <time>2013-10-03T16:11:11Z</time>
      </trkpt>
      <trkpt lat="45.48595" lon="5.98337">
        <ele>301.5</ele>
        <time>2013-10-03T16:11:12Z</time>
      </trkpt>
      <trkpt lat="45.486" lon="5.98338">
        <ele>301.8</ele>
        <time>2013-10-03T16:11:13Z</time>
      </trkpt>
      <trkpt lat="45.48609" lon="5.98339">
        <ele>301.9</ele>
        <time>2013-10-03T16:11:15Z</time>
      </trkpt>
      <trkpt lat="45.48617" lon="5.98339">
        <ele>302.2</ele>
        <time>2013-10-03T16:11:17Z</time>
      </trkpt>
      <trkpt lat="45.48625" lon="5.9834">
        <ele>302.5</ele>
        <time>2013-10-03T16:11:19Z</time>
      </trkpt>
      <trkpt lat="45.48632" lon="5.98344">
        <ele>302.9</ele>
        <time>2013-10-03T16:11:21Z</time>
      </trkpt>
      <trkpt lat="45.48638" lon="5.98348">
        <ele>303.5</ele>
        <time>2013-10-03T16:11:23Z</time>
      </trkpt>
      <trkpt lat="45.48645" lon="5.98352">
        <ele>303.9</ele>
        <time>2013-10-03T16:11:25Z</time>
      </trkpt>
      <trkpt lat="45.48651" lon="5.98356">
        <ele>304.3</ele>
        <time>2013-10-03T16:11:27Z</time>
      </trkpt>
      <trkpt lat="45.48657" lon="5.98361">
        <ele>304.6</ele>
        <time>2013-10-03T16:11:29Z</time>
      </trkpt>
      <trkpt lat="45.48662" lon="5.98368">
        <ele>305.2</ele>
        <time>2013-10-03T16:11:31Z</time>
      </trkpt>
      <trkpt lat="45.48668" lon="5.98375">
        <ele>305.5</ele>
        <time>2013-10-03T16:11:33Z</time>
      </trkpt>
      <trkpt lat="45.48673" lon="5.98382">
        <ele>305.8</ele>
        <time>2013-10-03T16:11:35Z</time>
      </trkpt>
      <trkpt lat="45.48679" lon="5.9839">
        <ele>305.9</ele>
        <time>2013-10-03T16:11:37Z</time>
      </trkpt>
      <trkpt lat="45.48684" lon="5.98397">
        <ele>306.2</ele>
        <time>2013-10-03T16:11:39Z</time>
      </trkpt>
      <trkpt lat="45.48689" lon="5.98404">
        <ele>306.4</ele>
        <time>2013-10-03T16:11:41Z</time>
      </trkpt>
      <trkpt lat="45.48694" lon="5.98411">
        <ele>306.8</ele>
        <time>2013-10-03T16:11:43Z</time>
      </trkpt>
      <trkpt lat="45.48699" lon="5.98419">
        <ele>307.4</ele>
        <time>2013-10-03T16:11:45Z</time>
      </trkpt>
      <trkpt lat="45.48705" lon="5.98427">
        <ele>307.4</ele>
        <time>2013-10-03T16:11:47Z</time>
      </trkpt>
      <trkpt lat="45.48711" lon="5.98433">
        <ele>307.8</ele>
        <time>2013-10-03T16:11:49Z</time>
      </trkpt>
      <trkpt lat="45.48716" lon="5.9844">
        <ele>308.4</ele>
        <time>2013-10-03T16:11:51Z</time>
      </trkpt>
      <trkpt lat="45.48722" lon="5.98446">
        <ele>308.8</ele>
        <time>2013-10-03T16:11:53Z</time>
      </trkpt>
      <trkpt lat="45.48729" lon="5.9845">
        <ele>308.9</ele>
        <time>2013-10-03T16:11:55Z</time>
      </trkpt>
      <trkpt lat="45.48736" lon="5.98453">
        <ele>309.2</ele>
        <time>2013-10-03T16:11:57Z</time>
      </trkpt>
      <trkpt lat="45.4874" lon="5.98454">
        <ele>309.2</ele>
        <time>2013-10-03T16:11:58Z</time>
      </trkpt>
      <trkpt lat="45.48753" lon="5.98457">
        <ele>309.4</ele>
        <time>2013-10-03T16:12:01Z</time>
      </trkpt>
      <trkpt lat="45.48761" lon="5.98461">
        <ele>309.4</ele>
        <time>2013-10-03T16:12:03Z</time>
      </trkpt>
      <trkpt lat="45.48769" lon="5.98465">
        <ele>309.5</ele>
        <time>2013-10-03T16:12:05Z</time>
      </trkpt>
      <trkpt lat="45.48777" lon="5.98468">
        <ele>309.4</ele>
        <time>2013-10-03T16:12:07Z</time>
      </trkpt>
      <trkpt lat="45.48785" lon="5.9847">
        <ele>309.6</ele>
        <time>2013-10-03T16:12:09Z</time>
      </trkpt>
      <trkpt lat="45.48792" lon="5.9847">
        <ele>310</ele>
        <time>2013-10-03T16:12:11Z</time>
      </trkpt>
      <trkpt lat="45.48798" lon="5.98469">
        <ele>310.4</ele>
        <time>2013-10-03T16:12:13Z</time>
      </trkpt>
      <trkpt lat="45.48804" lon="5.98467">
        <ele>310.8</ele>
        <time>2013-10-03T16:12:15Z</time>
      </trkpt>
      <trkpt lat="45.48811" lon="5.98466">
        <ele>311.1</ele>
        <time>2013-10-03T16:12:17Z</time>
      </trkpt>
      <trkpt lat="45.48818" lon="5.98465">
        <ele>311.2</ele>
        <time>2013-10-03T16:12:19Z</time>
      </trkpt>
      <trkpt lat="45.48826" lon="5.98465">
        <ele>311.2</ele>
        <time>2013-10-03T16:12:21Z</time>
      </trkpt>
      <trkpt lat="45.48834" lon="5.98466">
        <ele>311.1</ele>
        <time>2013-10-03T16:12:23Z</time>
      </trkpt>
      <trkpt lat="45.48839" lon="5.98466">
        <ele>310.9</ele>
        <time>2013-10-03T16:12:24Z</time>
      </trkpt>
      <trkpt lat="45.48844" lon="5.98467">
        <ele>310.8</ele>
        <time>2013-10-03T16:12:25Z</time>
      </trkpt>
      <trkpt lat="45.48848" lon="5.98468">
        <ele>310.8</ele>
        <time>2013-10-03T16:12:26Z</time>
      </trkpt>
      <trkpt lat="45.48853" lon="5.98469">
        <ele>310.8</ele>
        <time>2013-10-03T16:12:27Z</time>
      </trkpt>
      <trkpt lat="45.48858" lon="5.98472">
        <ele>310.6</ele>
        <time>2013-10-03T16:12:28Z</time>
      </trkpt>
      <trkpt lat="45.48863" lon="5.98474">
        <ele>310.6</ele>
        <time>2013-10-03T16:12:29Z</time>
      </trkpt>
      <trkpt lat="45.48867" lon="5.98478">
        <ele>310.5</ele>
        <time>2013-10-03T16:12:30Z</time>
      </trkpt>
      <trkpt lat="45.48872" lon="5.98482">
        <ele>310.4</ele>
        <time>2013-10-03T16:12:31Z</time>
      </trkpt>
      <trkpt lat="45.48876" lon="5.98486">
        <ele>310.2</ele>
        <time>2013-10-03T16:12:32Z</time>
      </trkpt>
      <trkpt lat="45.4888" lon="5.98491">
        <ele>309.8</ele>
        <time>2013-10-03T16:12:33Z</time>
      </trkpt>
      <trkpt lat="45.48883" lon="5.98495">
        <ele>309.8</ele>
        <time>2013-10-03T16:12:34Z</time>
      </trkpt>
      <trkpt lat="45.48887" lon="5.98501">
        <ele>309.8</ele>
        <time>2013-10-03T16:12:35Z</time>
      </trkpt>
      <trkpt lat="45.48891" lon="5.98506">
        <ele>309.7</ele>
        <time>2013-10-03T16:12:36Z</time>
      </trkpt>
      <trkpt lat="45.48895" lon="5.9851">
        <ele>309.7</ele>
        <time>2013-10-03T16:12:37Z</time>
      </trkpt>
      <trkpt lat="45.489" lon="5.98514">
        <ele>309.4</ele>
        <time>2013-10-03T16:12:38Z</time>
      </trkpt>
      <trkpt lat="45.48904" lon="5.98517">
        <ele>309.7</ele>
        <time>2013-10-03T16:12:39Z</time>
      </trkpt>
      <trkpt lat="45.48909" lon="5.9852">
        <ele>309.6</ele>
        <time>2013-10-03T16:12:40Z</time>
      </trkpt>
      <trkpt lat="45.48914" lon="5.98522">
        <ele>309.7</ele>
        <time>2013-10-03T16:12:41Z</time>
      </trkpt>
      <trkpt lat="45.48919" lon="5.98525">
        <ele>309.5</ele>
        <time>2013-10-03T16:12:42Z</time>
      </trkpt>
      <trkpt lat="45.48924" lon="5.98527">
        <ele>309.5</ele>
        <time>2013-10-03T16:12:43Z</time>
      </trkpt>
      <trkpt lat="45.48928" lon="5.98531">
        <ele>309.3</ele>
        <time>2013-10-03T16:12:44Z</time>
      </trkpt>
      <trkpt lat="45.48932" lon="5.98536">
        <ele>309.2</ele>
        <time>2013-10-03T16:12:45Z</time>
      </trkpt>
      <trkpt lat="45.48934" lon="5.98542">
        <ele>309.2</ele>
        <time>2013-10-03T16:12:46Z</time>
      </trkpt>
      <trkpt lat="45.48935" lon="5.98549">
        <ele>309</ele>
        <time>2013-10-03T16:12:47Z</time>
      </trkpt>
      <trkpt lat="45.48935" lon="5.98556">
        <ele>309.4</ele>
        <time>2013-10-03T16:12:48Z</time>
      </trkpt>
      <trkpt lat="45.48934" lon="5.98563">
        <ele>309.2</ele>
        <time>2013-10-03T16:12:49Z</time>
      </trkpt>
      <trkpt lat="45.48933" lon="5.9857">
        <ele>309.4</ele>
        <time>2013-10-03T16:12:50Z</time>
      </trkpt>
      <trkpt lat="45.48932" lon="5.98577">
        <ele>309.5</ele>
        <time>2013-10-03T16:12:51Z</time>
      </trkpt>
      <trkpt lat="45.48932" lon="5.98584">
        <ele>309.4</ele>
        <time>2013-10-03T16:12:52Z</time>
      </trkpt>
      <trkpt lat="45.48935" lon="5.98595">
        <ele>310.1</ele>
        <time>2013-10-03T16:12:54Z</time>
      </trkpt>
      <trkpt lat="45.48942" lon="5.986">
        <ele>310</ele>
        <time>2013-10-03T16:12:56Z</time>
      </trkpt>
      <trkpt lat="45.48948" lon="5.98602">
        <ele>310.4</ele>
        <time>2013-10-03T16:12:58Z</time>
      </trkpt>
      <trkpt lat="45.48951" lon="5.98603">
        <ele>310.4</ele>
        <time>2013-10-03T16:12:59Z</time>
      </trkpt>
      <trkpt lat="45.48962" lon="5.98609">
        <ele>311.8</ele>
        <time>2013-10-03T16:13:03Z</time>
      </trkpt>
      <trkpt lat="45.48969" lon="5.98614">
        <ele>311.8</ele>
        <time>2013-10-03T16:13:06Z</time>
      </trkpt>
      <trkpt lat="45.48976" lon="5.98618">
        <ele>311.8</ele>
        <time>2013-10-03T16:13:09Z</time>
      </trkpt>
      <trkpt lat="45.48984" lon="5.98624">
        <ele>312.7</ele>
        <time>2013-10-03T16:13:12Z</time>
      </trkpt>
      <trkpt lat="45.4899" lon="5.98632">
        <ele>313.1</ele>
        <time>2013-10-03T16:13:15Z</time>
      </trkpt>
      <trkpt lat="45.48994" lon="5.98644">
        <ele>313.6</ele>
        <time>2013-10-03T16:13:18Z</time>
      </trkpt>
      <trkpt lat="45.48996" lon="5.98652">
        <ele>314</ele>
        <time>2013-10-03T16:13:20Z</time>
      </trkpt>
      <trkpt lat="45.48997" lon="5.98661">
        <ele>314.1</ele>
        <time>2013-10-03T16:13:22Z</time>
      </trkpt>
      <trkpt lat="45.48999" lon="5.98669">
        <ele>314.3</ele>
        <time>2013-10-03T16:13:24Z</time>
      </trkpt>
      <trkpt lat="45.49" lon="5.98679">
        <ele>314.7</ele>
        <time>2013-10-03T16:13:26Z</time>
      </trkpt>
      <trkpt lat="45.49001" lon="5.98689">
        <ele>314.9</ele>
        <time>2013-10-03T16:13:28Z</time>
      </trkpt>
      <trkpt lat="45.49001" lon="5.98699">
        <ele>315.1</ele>
        <time>2013-10-03T16:13:30Z</time>
      </trkpt>
      <trkpt lat="45.49001" lon="5.9871">
        <ele>315.2</ele>
        <time>2013-10-03T16:13:32Z</time>
      </trkpt>
      <trkpt lat="45.49001" lon="5.98722">
        <ele>315.5</ele>
        <time>2013-10-03T16:13:34Z</time>
      </trkpt>
      <trkpt lat="45.49001" lon="5.98733">
        <ele>315.5</ele>
        <time>2013-10-03T16:13:36Z</time>
      </trkpt>
      <trkpt lat="45.49002" lon="5.98745">
        <ele>315.8</ele>
        <time>2013-10-03T16:13:38Z</time>
      </trkpt>
      <trkpt lat="45.49003" lon="5.98757">
        <ele>315.6</ele>
        <time>2013-10-03T16:13:40Z</time>
      </trkpt>
      <trkpt lat="45.49003" lon="5.98768">
        <ele>315.7</ele>
        <time>2013-10-03T16:13:42Z</time>
      </trkpt>
      <trkpt lat="45.49002" lon="5.9878">
        <ele>315.7</ele>
        <time>2013-10-03T16:13:44Z</time>
      </trkpt>
      <trkpt lat="45.49002" lon="5.9879">
        <ele>315.9</ele>
        <time>2013-10-03T16:13:46Z</time>
      </trkpt>
      <trkpt lat="45.49003" lon="5.98799">
        <ele>316.4</ele>
        <time>2013-10-03T16:13:48Z</time>
      </trkpt>
      <trkpt lat="45.49005" lon="5.98811">
        <ele>317.4</ele>
        <time>2013-10-03T16:13:51Z</time>
      </trkpt>
      <trkpt lat="45.49008" lon="5.98822">
        <ele>317.7</ele>
        <time>2013-10-03T16:13:54Z</time>
      </trkpt>
      <trkpt lat="45.4901" lon="5.98833">
        <ele>318.4</ele>
        <time>2013-10-03T16:13:57Z</time>
      </trkpt>
      <trkpt lat="45.49012" lon="5.98846">
        <ele>318.9</ele>
        <time>2013-10-03T16:14:00Z</time>
      </trkpt>
      <trkpt lat="45.49013" lon="5.9885">
        <ele>318.9</ele>
        <time>2013-10-03T16:14:01Z</time>
      </trkpt>
      <trkpt lat="45.49016" lon="5.98863">
        <ele>319.2</ele>
        <time>2013-10-03T16:14:04Z</time>
      </trkpt>
      <trkpt lat="45.49019" lon="5.98871">
        <ele>318.8</ele>
        <time>2013-10-03T16:14:06Z</time>
      </trkpt>
      <trkpt lat="45.49023" lon="5.98879">
        <ele>318.7</ele>
        <time>2013-10-03T16:14:08Z</time>
      </trkpt>
      <trkpt lat="45.49027" lon="5.98886">
        <ele>318.7</ele>
        <time>2013-10-03T16:14:10Z</time>
      </trkpt>
      <trkpt lat="45.49032" lon="5.98893">
        <ele>318.7</ele>
        <time>2013-10-03T16:14:12Z</time>
      </trkpt>
      <trkpt lat="45.49037" lon="5.989">
        <ele>319.1</ele>
        <time>2013-10-03T16:14:14Z</time>
      </trkpt>
      <trkpt lat="45.49044" lon="5.98906">
        <ele>319.2</ele>
        <time>2013-10-03T16:14:16Z</time>
      </trkpt>
      <trkpt lat="45.4905" lon="5.98908">
        <ele>319.4</ele>
        <time>2013-10-03T16:14:18Z</time>
      </trkpt>
      <trkpt lat="45.49056" lon="5.9891">
        <ele>319.5</ele>
        <time>2013-10-03T16:14:20Z</time>
      </trkpt>
      <trkpt lat="45.49063" lon="5.98913">
        <ele>319.2</ele>
        <time>2013-10-03T16:14:22Z</time>
      </trkpt>
      <trkpt lat="45.4907" lon="5.98917">
        <ele>319.1</ele>
        <time>2013-10-03T16:14:24Z</time>
      </trkpt>
      <trkpt lat="45.49075" lon="5.98923">
        <ele>319.4</ele>
        <time>2013-10-03T16:14:26Z</time>
      </trkpt>
      <trkpt lat="45.4908" lon="5.98931">
        <ele>319.4</ele>
        <time>2013-10-03T16:14:28Z</time>
      </trkpt>
      <trkpt lat="45.49084" lon="5.98939">
        <ele>319.4</ele>
        <time>2013-10-03T16:14:30Z</time>
      </trkpt>
      <trkpt lat="45.49086" lon="5.98947">
        <ele>319.3</ele>
        <time>2013-10-03T16:14:32Z</time>
      </trkpt>
      <trkpt lat="45.4909" lon="5.98955">
        <ele>319.6</ele>
        <time>2013-10-03T16:14:34Z</time>
      </trkpt>
      <trkpt lat="45.49091" lon="5.98963">
        <ele>319.5</ele>
        <time>2013-10-03T16:14:36Z</time>
      </trkpt>
      <trkpt lat="45.49092" lon="5.98972">
        <ele>320</ele>
        <time>2013-10-03T16:14:38Z</time>
      </trkpt>
      <trkpt lat="45.49093" lon="5.98981">
        <ele>319.7</ele>
        <time>2013-10-03T16:14:40Z</time>
      </trkpt>
      <trkpt lat="45.49092" lon="5.98991">
        <ele>320</ele>
        <time>2013-10-03T16:14:42Z</time>
      </trkpt>
      <trkpt lat="45.49091" lon="5.99">
        <ele>320.3</ele>
        <time>2013-10-03T16:14:44Z</time>
      </trkpt>
      <trkpt lat="45.4909" lon="5.99009">
        <ele>319.8</ele>
        <time>2013-10-03T16:14:46Z</time>
      </trkpt>
      <trkpt lat="45.49087" lon="5.99019">
        <ele>320.1</ele>
        <time>2013-10-03T16:14:48Z</time>
      </trkpt>
      <trkpt lat="45.49085" lon="5.99029">
        <ele>319.9</ele>
        <time>2013-10-03T16:14:50Z</time>
      </trkpt>
      <trkpt lat="45.49083" lon="5.99039">
        <ele>319.7</ele>
        <time>2013-10-03T16:14:52Z</time>
      </trkpt>
      <trkpt lat="45.49082" lon="5.9905">
        <ele>319.7</ele>
        <time>2013-10-03T16:14:54Z</time>
      </trkpt>
      <trkpt lat="45.49081" lon="5.9906">
        <ele>319.8</ele>
        <time>2013-10-03T16:14:56Z</time>
      </trkpt>
      <trkpt lat="45.4908" lon="5.9907">
        <ele>320</ele>
        <time>2013-10-03T16:14:58Z</time>
      </trkpt>
      <trkpt lat="45.4908" lon="5.99081">
        <ele>319.9</ele>
        <time>2013-10-03T16:15:00Z</time>
      </trkpt>
      <trkpt lat="45.49081" lon="5.99092">
        <ele>320.1</ele>
        <time>2013-10-03T16:15:02Z</time>
      </trkpt>
      <trkpt lat="45.49081" lon="5.99097">
        <ele>320.3</ele>
        <time>2013-10-03T16:15:03Z</time>
      </trkpt>
      <trkpt lat="45.49083" lon="5.99113">
        <ele>320.2</ele>
        <time>2013-10-03T16:15:06Z</time>
      </trkpt>
      <trkpt lat="45.49085" lon="5.99123">
        <ele>320.2</ele>
        <time>2013-10-03T16:15:08Z</time>
      </trkpt>
      <trkpt lat="45.49087" lon="5.99133">
        <ele>320.3</ele>
        <time>2013-10-03T16:15:10Z</time>
      </trkpt>
      <trkpt lat="45.49088" lon="5.99143">
        <ele>320.3</ele>
        <time>2013-10-03T16:15:12Z</time>
      </trkpt>
      <trkpt lat="45.49089" lon="5.99153">
        <ele>320.6</ele>
        <time>2013-10-03T16:15:14Z</time>
      </trkpt>
      <trkpt lat="45.4909" lon="5.99162">
        <ele>320.9</ele>
        <time>2013-10-03T16:15:16Z</time>
      </trkpt>
      <trkpt lat="45.4909" lon="5.99173">
        <ele>321</ele>
        <time>2013-10-03T16:15:18Z</time>
      </trkpt>
      <trkpt lat="45.49089" lon="5.99184">
        <ele>321.1</ele>
        <time>2013-10-03T16:15:20Z</time>
      </trkpt>
      <trkpt lat="45.49088" lon="5.99195">
        <ele>321.2</ele>
        <time>2013-10-03T16:15:22Z</time>
      </trkpt>
      <trkpt lat="45.49089" lon="5.99206">
        <ele>320.9</ele>
        <time>2013-10-03T16:15:24Z</time>
      </trkpt>
      <trkpt lat="45.49091" lon="5.99217">
        <ele>320.8</ele>
        <time>2013-10-03T16:15:26Z</time>
      </trkpt>
      <trkpt lat="45.49094" lon="5.99227">
        <ele>320.5</ele>
        <time>2013-10-03T16:15:28Z</time>
      </trkpt>
      <trkpt lat="45.49098" lon="5.99236">
        <ele>320.6</ele>
        <time>2013-10-03T16:15:30Z</time>
      </trkpt>
      <trkpt lat="45.49103" lon="5.99245">
        <ele>320.5</ele>
        <time>2013-10-03T16:15:32Z</time>
      </trkpt>
      <trkpt lat="45.49107" lon="5.99255">
        <ele>320.5</ele>
        <time>2013-10-03T16:15:34Z</time>
      </trkpt>
      <trkpt lat="45.49112" lon="5.99266">
        <ele>320.6</ele>
        <time>2013-10-03T16:15:36Z</time>
      </trkpt>
      <trkpt lat="45.49115" lon="5.99277">
        <ele>320.7</ele>
        <time>2013-10-03T16:15:38Z</time>
      </trkpt>
      <trkpt lat="45.49117" lon="5.99289">
        <ele>320.4</ele>
        <time>2013-10-03T16:15:40Z</time>
      </trkpt>
      <trkpt lat="45.49117" lon="5.99295">
        <ele>320.3</ele>
        <time>2013-10-03T16:15:41Z</time>
      </trkpt>
      <trkpt lat="45.49117" lon="5.99302">
        <ele>320.1</ele>
        <time>2013-10-03T16:15:42Z</time>
      </trkpt>
      <trkpt lat="45.49117" lon="5.99309">
        <ele>320</ele>
        <time>2013-10-03T16:15:43Z</time>
      </trkpt>
      <trkpt lat="45.49117" lon="5.99316">
        <ele>319.7</ele>
        <time>2013-10-03T16:15:44Z</time>
      </trkpt>
      <trkpt lat="45.49117" lon="5.99323">
        <ele>319.6</ele>
        <time>2013-10-03T16:15:45Z</time>
      </trkpt>
      <trkpt lat="45.49116" lon="5.9933">
        <ele>319.4</ele>
        <time>2013-10-03T16:15:46Z</time>
      </trkpt>
      <trkpt lat="45.49116" lon="5.99337">
        <ele>319.1</ele>
        <time>2013-10-03T16:15:47Z</time>
      </trkpt>
      <trkpt lat="45.49116" lon="5.99344">
        <ele>319</ele>
        <time>2013-10-03T16:15:48Z</time>
      </trkpt>
      <trkpt lat="45.49115" lon="5.99351">
        <ele>319</ele>
        <time>2013-10-03T16:15:49Z</time>
      </trkpt>
      <trkpt lat="45.49114" lon="5.99358">
        <ele>318.7</ele>
        <time>2013-10-03T16:15:50Z</time>
      </trkpt>
      <trkpt lat="45.49113" lon="5.99366">
        <ele>318.7</ele>
        <time>2013-10-03T16:15:51Z</time>
      </trkpt>
      <trkpt lat="45.49112" lon="5.99372">
        <ele>318.9</ele>
        <time>2013-10-03T16:15:52Z</time>
      </trkpt>
      <trkpt lat="45.49111" lon="5.99379">
        <ele>318.8</ele>
        <time>2013-10-03T16:15:53Z</time>
      </trkpt>
      <trkpt lat="45.4911" lon="5.99385">
        <ele>318.8</ele>
        <time>2013-10-03T16:15:54Z</time>
      </trkpt>
      <trkpt lat="45.4911" lon="5.99392">
        <ele>318.7</ele>
        <time>2013-10-03T16:15:55Z</time>
      </trkpt>
      <trkpt lat="45.4911" lon="5.99399">
        <ele>318.6</ele>
        <time>2013-10-03T16:15:56Z</time>
      </trkpt>
      <trkpt lat="45.49111" lon="5.99405">
        <ele>318.6</ele>
        <time>2013-10-03T16:15:57Z</time>
      </trkpt>
      <trkpt lat="45.49112" lon="5.99418">
        <ele>318.4</ele>
        <time>2013-10-03T16:15:59Z</time>
      </trkpt>
      <trkpt lat="45.49112" lon="5.9943">
        <ele>318.5</ele>
        <time>2013-10-03T16:16:01Z</time>
      </trkpt>
      <trkpt lat="45.49113" lon="5.99442">
        <ele>318.3</ele>
        <time>2013-10-03T16:16:03Z</time>
      </trkpt>
      <trkpt lat="45.49112" lon="5.99448">
        <ele>318.3</ele>
        <time>2013-10-03T16:16:04Z</time>
      </trkpt>
      <trkpt lat="45.49113" lon="5.99461">
        <ele>318.1</ele>
        <time>2013-10-03T16:16:06Z</time>
      </trkpt>
      <trkpt lat="45.49113" lon="5.99468">
        <ele>318.3</ele>
        <time>2013-10-03T16:16:07Z</time>
      </trkpt>
      <trkpt lat="45.49114" lon="5.99474">
        <ele>318.3</ele>
        <time>2013-10-03T16:16:08Z</time>
      </trkpt>
      <trkpt lat="45.49114" lon="5.99481">
        <ele>318.3</ele>
        <time>2013-10-03T16:16:09Z</time>
      </trkpt>
      <trkpt lat="45.49115" lon="5.99493">
        <ele>318.2</ele>
        <time>2013-10-03T16:16:11Z</time>
      </trkpt>
      <trkpt lat="45.49116" lon="5.99505">
        <ele>318.1</ele>
        <time>2013-10-03T16:16:13Z</time>
      </trkpt>
      <trkpt lat="45.49117" lon="5.99517">
        <ele>317.9</ele>
        <time>2013-10-03T16:16:15Z</time>
      </trkpt>
      <trkpt lat="45.49117" lon="5.99528">
        <ele>318.1</ele>
        <time>2013-10-03T16:16:17Z</time>
      </trkpt>
      <trkpt lat="45.49115" lon="5.99538">
        <ele>318</ele>
        <time>2013-10-03T16:16:19Z</time>
      </trkpt>
      <trkpt lat="45.49113" lon="5.99549">
        <ele>318</ele>
        <time>2013-10-03T16:16:21Z</time>
      </trkpt>
      <trkpt lat="45.49112" lon="5.9956">
        <ele>318.2</ele>
        <time>2013-10-03T16:16:23Z</time>
      </trkpt>
      <trkpt lat="45.4911" lon="5.99572">
        <ele>318.3</ele>
        <time>2013-10-03T16:16:25Z</time>
      </trkpt>
      <trkpt lat="45.49112" lon="5.99584">
        <ele>318.1</ele>
        <time>2013-10-03T16:16:27Z</time>
      </trkpt>
      <trkpt lat="45.49115" lon="5.99595">
        <ele>318.1</ele>
        <time>2013-10-03T16:16:29Z</time>
      </trkpt>
      <trkpt lat="45.49119" lon="5.99605">
        <ele>318.2</ele>
        <time>2013-10-03T16:16:31Z</time>
      </trkpt>
      <trkpt lat="45.49124" lon="5.99615">
        <ele>318.2</ele>
        <time>2013-10-03T16:16:33Z</time>
      </trkpt>
      <trkpt lat="45.49127" lon="5.99626">
        <ele>318.1</ele>
        <time>2013-10-03T16:16:35Z</time>
      </trkpt>
      <trkpt lat="45.4913" lon="5.99637">
        <ele>318</ele>
        <time>2013-10-03T16:16:37Z</time>
      </trkpt>
      <trkpt lat="45.49133" lon="5.99649">
        <ele>318.1</ele>
        <time>2013-10-03T16:16:39Z</time>
      </trkpt>
      <trkpt lat="45.49137" lon="5.9966">
        <ele>318.2</ele>
        <time>2013-10-03T16:16:41Z</time>
      </trkpt>
      <trkpt lat="45.49141" lon="5.99671">
        <ele>318.2</ele>
        <time>2013-10-03T16:16:43Z</time>
      </trkpt>
      <trkpt lat="45.49144" lon="5.99682">
        <ele>318.2</ele>
        <time>2013-10-03T16:16:45Z</time>
      </trkpt>
      <trkpt lat="45.49148" lon="5.99693">
        <ele>318.5</ele>
        <time>2013-10-03T16:16:47Z</time>
      </trkpt>
      <trkpt lat="45.49152" lon="5.99705">
        <ele>318.3</ele>
        <time>2013-10-03T16:16:49Z</time>
      </trkpt>
      <trkpt lat="45.49155" lon="5.99716">
        <ele>318.5</ele>
        <time>2013-10-03T16:16:51Z</time>
      </trkpt>
      <trkpt lat="45.49159" lon="5.99728">
        <ele>318.7</ele>
        <time>2013-10-03T16:16:53Z</time>
      </trkpt>
      <trkpt lat="45.49162" lon="5.99739">
        <ele>318.6</ele>
        <time>2013-10-03T16:16:55Z</time>
      </trkpt>
      <trkpt lat="45.49165" lon="5.9975">
        <ele>318.7</ele>
        <time>2013-10-03T16:16:57Z</time>
      </trkpt>
      <trkpt lat="45.49167" lon="5.99762">
        <ele>318.8</ele>
        <time>2013-10-03T16:16:59Z</time>
      </trkpt>
      <trkpt lat="45.49167" lon="5.99774">
        <ele>318.9</ele>
        <time>2013-10-03T16:17:01Z</time>
      </trkpt>
      <trkpt lat="45.49167" lon="5.99786">
        <ele>318.8</ele>
        <time>2013-10-03T16:17:03Z</time>
      </trkpt>
      <trkpt lat="45.49166" lon="5.99793">
        <ele>319</ele>
        <time>2013-10-03T16:17:04Z</time>
      </trkpt>
      <trkpt lat="45.49164" lon="5.99805">
        <ele>319.1</ele>
        <time>2013-10-03T16:17:06Z</time>
      </trkpt>
      <trkpt lat="45.49163" lon="5.99811">
        <ele>319.2</ele>
        <time>2013-10-03T16:17:07Z</time>
      </trkpt>
      <trkpt lat="45.49161" lon="5.99827">
        <ele>319.4</ele>
        <time>2013-10-03T16:17:10Z</time>
      </trkpt>
      <trkpt lat="45.49161" lon="5.99839">
        <ele>320.2</ele>
        <time>2013-10-03T16:17:15Z</time>
      </trkpt>
      <trkpt lat="45.49166" lon="5.99849">
        <ele>320.4</ele>
        <time>2013-10-03T16:17:20Z</time>
      </trkpt>
      <trkpt lat="45.49171" lon="5.99859">
        <ele>320.9</ele>
        <time>2013-10-03T16:17:23Z</time>
      </trkpt>
      <trkpt lat="45.49176" lon="5.99864">
        <ele>321.2</ele>
        <time>2013-10-03T16:17:25Z</time>
      </trkpt>
      <trkpt lat="45.49182" lon="5.99869">
        <ele>321.4</ele>
        <time>2013-10-03T16:17:27Z</time>
      </trkpt>
      <trkpt lat="45.49188" lon="5.99874">
        <ele>321.4</ele>
        <time>2013-10-03T16:17:29Z</time>
      </trkpt>
      <trkpt lat="45.49194" lon="5.99879">
        <ele>321.8</ele>
        <time>2013-10-03T16:17:31Z</time>
      </trkpt>
      <trkpt lat="45.492" lon="5.99884">
        <ele>322</ele>
        <time>2013-10-03T16:17:33Z</time>
      </trkpt>
      <trkpt lat="45.49207" lon="5.99888">
        <ele>322.2</ele>
        <time>2013-10-03T16:17:35Z</time>
      </trkpt>
      <trkpt lat="45.49215" lon="5.99894">
        <ele>322.3</ele>
        <time>2013-10-03T16:17:37Z</time>
      </trkpt>
      <trkpt lat="45.49222" lon="5.99899">
        <ele>322.5</ele>
        <time>2013-10-03T16:17:39Z</time>
      </trkpt>
      <trkpt lat="45.49229" lon="5.99905">
        <ele>322.7</ele>
        <time>2013-10-03T16:17:41Z</time>
      </trkpt>
      <trkpt lat="45.49236" lon="5.99911">
        <ele>322.9</ele>
        <time>2013-10-03T16:17:43Z</time>
      </trkpt>
      <trkpt lat="45.49243" lon="5.99917">
        <ele>323.3</ele>
        <time>2013-10-03T16:17:45Z</time>
      </trkpt>
      <trkpt lat="45.4925" lon="5.99923">
        <ele>323.5</ele>
        <time>2013-10-03T16:17:47Z</time>
      </trkpt>
      <trkpt lat="45.49258" lon="5.99929">
        <ele>323.6</ele>
        <time>2013-10-03T16:17:49Z</time>
      </trkpt>
      <trkpt lat="45.49264" lon="5.99935">
        <ele>324</ele>
        <time>2013-10-03T16:17:51Z</time>
      </trkpt>
      <trkpt lat="45.49271" lon="5.99941">
        <ele>324.2</ele>
        <time>2013-10-03T16:17:53Z</time>
      </trkpt>
      <trkpt lat="45.49278" lon="5.99947">
        <ele>324.4</ele>
        <time>2013-10-03T16:17:55Z</time>
      </trkpt>
      <trkpt lat="45.49284" lon="5.99954">
        <ele>324.4</ele>
        <time>2013-10-03T16:17:57Z</time>
      </trkpt>
      <trkpt lat="45.4929" lon="5.99961">
        <ele>324.6</ele>
        <time>2013-10-03T16:17:59Z</time>
      </trkpt>
      <trkpt lat="45.49297" lon="5.99968">
        <ele>324.9</ele>
        <time>2013-10-03T16:18:01Z</time>
      </trkpt>
      <trkpt lat="45.49303" lon="5.99975">
        <ele>324.9</ele>
        <time>2013-10-03T16:18:03Z</time>
      </trkpt>
      <trkpt lat="45.4931" lon="5.99981">
        <ele>324.9</ele>
        <time>2013-10-03T16:18:05Z</time>
      </trkpt>
      <trkpt lat="45.49318" lon="5.99988">
        <ele>325.1</ele>
        <time>2013-10-03T16:18:07Z</time>
      </trkpt>
      <trkpt lat="45.49321" lon="5.99992">
        <ele>325.3</ele>
        <time>2013-10-03T16:18:08Z</time>
      </trkpt>
      <trkpt lat="45.49325" lon="5.99996">
        <ele>325.4</ele>
        <time>2013-10-03T16:18:09Z</time>
      </trkpt>
      <trkpt lat="45.49329" lon="5.99999">
        <ele>325.6</ele>
        <time>2013-10-03T16:18:10Z</time>
      </trkpt>
      <trkpt lat="45.49333" lon="6.00003">
        <ele>325.5</ele>
        <time>2013-10-03T16:18:11Z</time>
      </trkpt>
      <trkpt lat="45.49336" lon="6.00007">
        <ele>325.6</ele>
        <time>2013-10-03T16:18:12Z</time>
      </trkpt>
      <trkpt lat="45.49344" lon="6.00014">
        <ele>325.9</ele>
        <time>2013-10-03T16:18:14Z</time>
      </trkpt>
      <trkpt lat="45.49351" lon="6.00022">
        <ele>326</ele>
        <time>2013-10-03T16:18:16Z</time>
      </trkpt>
      <trkpt lat="45.49358" lon="6.00028">
        <ele>326.2</ele>
        <time>2013-10-03T16:18:18Z</time>
      </trkpt>
      <trkpt lat="45.49366" lon="6.00035">
        <ele>326.6</ele>
        <time>2013-10-03T16:18:20Z</time>
      </trkpt>
      <trkpt lat="45.49373" lon="6.00042">
        <ele>326.6</ele>
        <time>2013-10-03T16:18:22Z</time>
      </trkpt>
      <trkpt lat="45.4938" lon="6.00049">
        <ele>326.7</ele>
        <time>2013-10-03T16:18:24Z</time>
      </trkpt>
      <trkpt lat="45.49388" lon="6.00056">
        <ele>327.1</ele>
        <time>2013-10-03T16:18:26Z</time>
      </trkpt>
      <trkpt lat="45.49392" lon="6.00059">
        <ele>327.2</ele>
        <time>2013-10-03T16:18:27Z</time>
      </trkpt>
      <trkpt lat="45.49396" lon="6.00062">
        <ele>327.4</ele>
        <time>2013-10-03T16:18:28Z</time>
      </trkpt>
      <trkpt lat="45.494" lon="6.00066">
        <ele>327.6</ele>
        <time>2013-10-03T16:18:29Z</time>
      </trkpt>
      <trkpt lat="45.49404" lon="6.00069">
        <ele>327.6</ele>
        <time>2013-10-03T16:18:30Z</time>
      </trkpt>
      <trkpt lat="45.49407" lon="6.00072">
        <ele>327.8</ele>
        <time>2013-10-03T16:18:31Z</time>
      </trkpt>
      <trkpt lat="45.49411" lon="6.00076">
        <ele>327.9</ele>
        <time>2013-10-03T16:18:32Z</time>
      </trkpt>
      <trkpt lat="45.49415" lon="6.00079">
        <ele>327.9</ele>
        <time>2013-10-03T16:18:33Z</time>
      </trkpt>
      <trkpt lat="45.49423" lon="6.00086">
        <ele>328.1</ele>
        <time>2013-10-03T16:18:35Z</time>
      </trkpt>
      <trkpt lat="45.49427" lon="6.00089">
        <ele>328.3</ele>
        <time>2013-10-03T16:18:36Z</time>
      </trkpt>
      <trkpt lat="45.49431" lon="6.00092">
        <ele>328.2</ele>
        <time>2013-10-03T16:18:37Z</time>
      </trkpt>
      <trkpt lat="45.49438" lon="6.00098">
        <ele>328.6</ele>
        <time>2013-10-03T16:18:39Z</time>
      </trkpt>
      <trkpt lat="45.49443" lon="6.00101">
        <ele>328.6</ele>
        <time>2013-10-03T16:18:40Z</time>
      </trkpt>
      <trkpt lat="45.49447" lon="6.00104">
        <ele>328.8</ele>
        <time>2013-10-03T16:18:41Z</time>
      </trkpt>
      <trkpt lat="45.49451" lon="6.00106">
        <ele>329</ele>
        <time>2013-10-03T16:18:42Z</time>
      </trkpt>
      <trkpt lat="45.49455" lon="6.00109">
        <ele>329.1</ele>
        <time>2013-10-03T16:18:43Z</time>
      </trkpt>
      <trkpt lat="45.4946" lon="6.00111">
        <ele>329.3</ele>
        <time>2013-10-03T16:18:44Z</time>
      </trkpt>
      <trkpt lat="45.49464" lon="6.00113">
        <ele>329.4</ele>
        <time>2013-10-03T16:18:45Z</time>
      </trkpt>
      <trkpt lat="45.49469" lon="6.00115">
        <ele>329.3</ele>
        <time>2013-10-03T16:18:46Z</time>
      </trkpt>
      <trkpt lat="45.49473" lon="6.00117">
        <ele>329.2</ele>
        <time>2013-10-03T16:18:47Z</time>
      </trkpt>
      <trkpt lat="45.49478" lon="6.00119">
        <ele>329.3</ele>
        <time>2013-10-03T16:18:48Z</time>
      </trkpt>
      <trkpt lat="45.49482" lon="6.00121">
        <ele>329.3</ele>
        <time>2013-10-03T16:18:49Z</time>
      </trkpt>
      <trkpt lat="45.49487" lon="6.00123">
        <ele>329.4</ele>
        <time>2013-10-03T16:18:50Z</time>
      </trkpt>
      <trkpt lat="45.49492" lon="6.00124">
        <ele>329.6</ele>
        <time>2013-10-03T16:18:51Z</time>
      </trkpt>
      <trkpt lat="45.49497" lon="6.00126">
        <ele>329.4</ele>
        <time>2013-10-03T16:18:52Z</time>
      </trkpt>
      <trkpt lat="45.49501" lon="6.00128">
        <ele>329.5</ele>
        <time>2013-10-03T16:18:53Z</time>
      </trkpt>
      <trkpt lat="45.49506" lon="6.0013">
        <ele>329.6</ele>
        <time>2013-10-03T16:18:54Z</time>
      </trkpt>
      <trkpt lat="45.4951" lon="6.00132">
        <ele>329.5</ele>
        <time>2013-10-03T16:18:55Z</time>
      </trkpt>
      <trkpt lat="45.49515" lon="6.00134">
        <ele>329.6</ele>
        <time>2013-10-03T16:18:56Z</time>
      </trkpt>
      <trkpt lat="45.4952" lon="6.00136">
        <ele>329.8</ele>
        <time>2013-10-03T16:18:57Z</time>
      </trkpt>
      <trkpt lat="45.49524" lon="6.00137">
        <ele>329.9</ele>
        <time>2013-10-03T16:18:58Z</time>
      </trkpt>
      <trkpt lat="45.49529" lon="6.00139">
        <ele>330</ele>
        <time>2013-10-03T16:18:59Z</time>
      </trkpt>
      <trkpt lat="45.49533" lon="6.00141">
        <ele>330.2</ele>
        <time>2013-10-03T16:19:00Z</time>
      </trkpt>
      <trkpt lat="45.49538" lon="6.00142">
        <ele>330.2</ele>
        <time>2013-10-03T16:19:01Z</time>
      </trkpt>
      <trkpt lat="45.49542" lon="6.00144">
        <ele>330.2</ele>
        <time>2013-10-03T16:19:02Z</time>
      </trkpt>
      <trkpt lat="45.49547" lon="6.00146">
        <ele>330.4</ele>
        <time>2013-10-03T16:19:03Z</time>
      </trkpt>
      <trkpt lat="45.49551" lon="6.00148">
        <ele>330.6</ele>
        <time>2013-10-03T16:19:04Z</time>
      </trkpt>
      <trkpt lat="45.49559" lon="6.00151">
        <ele>331</ele>
        <time>2013-10-03T16:19:06Z</time>
      </trkpt>
      <trkpt lat="45.49564" lon="6.00153">
        <ele>331</ele>
        <time>2013-10-03T16:19:07Z</time>
      </trkpt>
      <trkpt lat="45.49568" lon="6.00155">
        <ele>331.2</ele>
        <time>2013-10-03T16:19:08Z</time>
      </trkpt>
      <trkpt lat="45.49573" lon="6.00156">
        <ele>331.3</ele>
        <time>2013-10-03T16:19:09Z</time>
      </trkpt>
      <trkpt lat="45.49581" lon="6.0016">
        <ele>331.7</ele>
        <time>2013-10-03T16:19:11Z</time>
      </trkpt>
      <trkpt lat="45.4959" lon="6.00164">
        <ele>332.2</ele>
        <time>2013-10-03T16:19:13Z</time>
      </trkpt>
      <trkpt lat="45.49598" lon="6.00168">
        <ele>332.6</ele>
        <time>2013-10-03T16:19:15Z</time>
      </trkpt>
      <trkpt lat="45.49606" lon="6.00173">
        <ele>333</ele>
        <time>2013-10-03T16:19:17Z</time>
      </trkpt>
      <trkpt lat="45.49613" lon="6.00176">
        <ele>333.2</ele>
        <time>2013-10-03T16:19:19Z</time>
      </trkpt>
      <trkpt lat="45.49621" lon="6.00179">
        <ele>333.9</ele>
        <time>2013-10-03T16:19:21Z</time>
      </trkpt>
      <trkpt lat="45.49628" lon="6.00181">
        <ele>334.5</ele>
        <time>2013-10-03T16:19:23Z</time>
      </trkpt>
      <trkpt lat="45.49636" lon="6.00181">
        <ele>335</ele>
        <time>2013-10-03T16:19:25Z</time>
      </trkpt>
      <trkpt lat="45.49644" lon="6.00179">
        <ele>335.2</ele>
        <time>2013-10-03T16:19:27Z</time>
      </trkpt>
      <trkpt lat="45.49651" lon="6.00175">
        <ele>335.6</ele>
        <time>2013-10-03T16:19:29Z</time>
      </trkpt>
      <trkpt lat="45.49658" lon="6.0017">
        <ele>336</ele>
        <time>2013-10-03T16:19:31Z</time>
      </trkpt>
      <trkpt lat="45.49665" lon="6.00165">
        <ele>336.4</ele>
        <time>2013-10-03T16:19:33Z</time>
      </trkpt>
      <trkpt lat="45.49672" lon="6.0016">
        <ele>336.8</ele>
        <time>2013-10-03T16:19:35Z</time>
      </trkpt>
      <trkpt lat="45.49679" lon="6.00155">
        <ele>337.2</ele>
        <time>2013-10-03T16:19:37Z</time>
      </trkpt>
      <trkpt lat="45.49686" lon="6.0015">
        <ele>337.5</ele>
        <time>2013-10-03T16:19:39Z</time>
      </trkpt>
      <trkpt lat="45.49693" lon="6.00144">
        <ele>337.7</ele>
        <time>2013-10-03T16:19:41Z</time>
      </trkpt>
      <trkpt lat="45.497" lon="6.00139">
        <ele>338.3</ele>
        <time>2013-10-03T16:19:43Z</time>
      </trkpt>
      <trkpt lat="45.49707" lon="6.00133">
        <ele>338.8</ele>
        <time>2013-10-03T16:19:45Z</time>
      </trkpt>
      <trkpt lat="45.49714" lon="6.00127">
        <ele>338.9</ele>
        <time>2013-10-03T16:19:47Z</time>
      </trkpt>
      <trkpt lat="45.49721" lon="6.00122">
        <ele>339.2</ele>
        <time>2013-10-03T16:19:49Z</time>
      </trkpt>
      <trkpt lat="45.49728" lon="6.00117">
        <ele>339.5</ele>
        <time>2013-10-03T16:19:51Z</time>
      </trkpt>
      <trkpt lat="45.49735" lon="6.00111">
        <ele>339.8</ele>
        <time>2013-10-03T16:19:53Z</time>
      </trkpt>
      <trkpt lat="45.49742" lon="6.00106">
        <ele>340.5</ele>
        <time>2013-10-03T16:19:55Z</time>
      </trkpt>
      <trkpt lat="45.49749" lon="6.001">
        <ele>340.9</ele>
        <time>2013-10-03T16:19:57Z</time>
      </trkpt>
      <trkpt lat="45.49756" lon="6.00094">
        <ele>341.4</ele>
        <time>2013-10-03T16:19:59Z</time>
      </trkpt>
      <trkpt lat="45.49763" lon="6.00089">
        <ele>341.6</ele>
        <time>2013-10-03T16:20:01Z</time>
      </trkpt>
      <trkpt lat="45.49769" lon="6.00084">
        <ele>341.8</ele>
        <time>2013-10-03T16:20:03Z</time>
      </trkpt>
      <trkpt lat="45.49776" lon="6.00078">
        <ele>342</ele>
        <time>2013-10-03T16:20:05Z</time>
      </trkpt>
      <trkpt lat="45.49783" lon="6.00072">
        <ele>342.3</ele>
        <time>2013-10-03T16:20:07Z</time>
      </trkpt>
      <trkpt lat="45.4979" lon="6.00066">
        <ele>342.6</ele>
        <time>2013-10-03T16:20:09Z</time>
      </trkpt>
      <trkpt lat="45.49794" lon="6.00063">
        <ele>342.8</ele>
        <time>2013-10-03T16:20:10Z</time>
      </trkpt>
      <trkpt lat="45.49804" lon="6.00056">
        <ele>343</ele>
        <time>2013-10-03T16:20:13Z</time>
      </trkpt>
      <trkpt lat="45.49812" lon="6.00052">
        <ele>343.6</ele>
        <time>2013-10-03T16:20:15Z</time>
      </trkpt>
      <trkpt lat="45.49819" lon="6.00051">
        <ele>343.7</ele>
        <time>2013-10-03T16:20:17Z</time>
      </trkpt>
      <trkpt lat="45.49826" lon="6.00053">
        <ele>344.1</ele>
        <time>2013-10-03T16:20:19Z</time>
      </trkpt>
      <trkpt lat="45.49833" lon="6.00055">
        <ele>344.4</ele>
        <time>2013-10-03T16:20:21Z</time>
      </trkpt>
      <trkpt lat="45.4984" lon="6.00057">
        <ele>344.6</ele>
        <time>2013-10-03T16:20:23Z</time>
      </trkpt>
      <trkpt lat="45.49848" lon="6.00058">
        <ele>344.9</ele>
        <time>2013-10-03T16:20:25Z</time>
      </trkpt>
      <trkpt lat="45.49855" lon="6.00059">
        <ele>345.2</ele>
        <time>2013-10-03T16:20:27Z</time>
      </trkpt>
      <trkpt lat="45.49864" lon="6.0006">
        <ele>345.7</ele>
        <time>2013-10-03T16:20:29Z</time>
      </trkpt>
      <trkpt lat="45.49872" lon="6.00063">
        <ele>345.9</ele>
        <time>2013-10-03T16:20:31Z</time>
      </trkpt>
      <trkpt lat="45.4988" lon="6.00062">
        <ele>346.2</ele>
        <time>2013-10-03T16:20:33Z</time>
      </trkpt>
      <trkpt lat="45.49887" lon="6.00055">
        <ele>346.2</ele>
        <time>2013-10-03T16:20:35Z</time>
      </trkpt>
      <trkpt lat="45.49889" lon="6.00043">
        <ele>346.5</ele>
        <time>2013-10-03T16:20:37Z</time>
      </trkpt>
      <trkpt lat="45.49894" lon="6.00033">
        <ele>346.8</ele>
        <time>2013-10-03T16:20:39Z</time>
      </trkpt>
      <trkpt lat="45.499" lon="6.00025">
        <ele>346.8</ele>
        <time>2013-10-03T16:20:41Z</time>
      </trkpt>
      <trkpt lat="45.49907" lon="6.00018">
        <ele>346.9</ele>
        <time>2013-10-03T16:20:43Z</time>
      </trkpt>
      <trkpt lat="45.49914" lon="6.00012">
        <ele>347</ele>
        <time>2013-10-03T16:20:45Z</time>
      </trkpt>
      <trkpt lat="45.4992" lon="6.00005">
        <ele>347.4</ele>
        <time>2013-10-03T16:20:47Z</time>
      </trkpt>
      <trkpt lat="45.49926" lon="5.99999">
        <ele>347.4</ele>
        <time>2013-10-03T16:20:49Z</time>
      </trkpt>
      <trkpt lat="45.49932" lon="5.99993">
        <ele>347.6</ele>
        <time>2013-10-03T16:20:51Z</time>
      </trkpt>
      <trkpt lat="45.49939" lon="5.99986">
        <ele>347.7</ele>
        <time>2013-10-03T16:20:53Z</time>
      </trkpt>
      <trkpt lat="45.49945" lon="5.99981">
        <ele>347.7</ele>
        <time>2013-10-03T16:20:55Z</time>
      </trkpt>
      <trkpt lat="45.49953" lon="5.99975">
        <ele>347.7</ele>
        <time>2013-10-03T16:20:57Z</time>
      </trkpt>
      <trkpt lat="45.49957" lon="5.99971">
        <ele>347.8</ele>
        <time>2013-10-03T16:20:58Z</time>
      </trkpt>
      <trkpt lat="45.4996" lon="5.99967">
        <ele>347.9</ele>
        <time>2013-10-03T16:20:59Z</time>
      </trkpt>
      <trkpt lat="45.49964" lon="5.99962">
        <ele>348.1</ele>
        <time>2013-10-03T16:21:00Z</time>
      </trkpt>
      <trkpt lat="45.49967" lon="5.99958">
        <ele>348.3</ele>
        <time>2013-10-03T16:21:01Z</time>
      </trkpt>
      <trkpt lat="45.49971" lon="5.99954">
        <ele>348.4</ele>
        <time>2013-10-03T16:21:02Z</time>
      </trkpt>
      <trkpt lat="45.49979" lon="5.99948">
        <ele>348.8</ele>
        <time>2013-10-03T16:21:04Z</time>
      </trkpt>
      <trkpt lat="45.49986" lon="5.99942">
        <ele>349.3</ele>
        <time>2013-10-03T16:21:06Z</time>
      </trkpt>
      <trkpt lat="45.49992" lon="5.99936">
        <ele>349.4</ele>
        <time>2013-10-03T16:21:08Z</time>
      </trkpt>
      <trkpt lat="45.49998" lon="5.99932">
        <ele>349.5</ele>
        <time>2013-10-03T16:21:10Z</time>
      </trkpt>
      <trkpt lat="45.50001" lon="5.9993">
        <ele>349.6</ele>
        <time>2013-10-03T16:21:11Z</time>
      </trkpt>
      <trkpt lat="45.5001" lon="5.99922">
        <ele>350.3</ele>
        <time>2013-10-03T16:21:14Z</time>
      </trkpt>
      <trkpt lat="45.50016" lon="5.99918">
        <ele>350.6</ele>
        <time>2013-10-03T16:21:16Z</time>
      </trkpt>
      <trkpt lat="45.50023" lon="5.99915">
        <ele>351.1</ele>
        <time>2013-10-03T16:21:18Z</time>
      </trkpt>
      <trkpt lat="45.50029" lon="5.9991">
        <ele>351.3</ele>
        <time>2013-10-03T16:21:20Z</time>
      </trkpt>
      <trkpt lat="45.50035" lon="5.99904">
        <ele>351.7</ele>
        <time>2013-10-03T16:21:22Z</time>
      </trkpt>
      <trkpt lat="45.50041" lon="5.99898">
        <ele>351.9</ele>
        <time>2013-10-03T16:21:24Z</time>
      </trkpt>
      <trkpt lat="45.50047" lon="5.99893">
        <ele>352.3</ele>
        <time>2013-10-03T16:21:26Z</time>
      </trkpt>
      <trkpt lat="45.50052" lon="5.99888">
        <ele>352.6</ele>
        <time>2013-10-03T16:21:28Z</time>
      </trkpt>
      <trkpt lat="45.50057" lon="5.99881">
        <ele>353</ele>
        <time>2013-10-03T16:21:30Z</time>
      </trkpt>
      <trkpt lat="45.50062" lon="5.99874">
        <ele>353.4</ele>
        <time>2013-10-03T16:21:32Z</time>
      </trkpt>
      <trkpt lat="45.50067" lon="5.99867">
        <ele>353.9</ele>
        <time>2013-10-03T16:21:34Z</time>
      </trkpt>
      <trkpt lat="45.50072" lon="5.99859">
        <ele>354.3</ele>
        <time>2013-10-03T16:21:36Z</time>
      </trkpt>
      <trkpt lat="45.50077" lon="5.99852">
        <ele>354.4</ele>
        <time>2013-10-03T16:21:38Z</time>
      </trkpt>
      <trkpt lat="45.50083" lon="5.99844">
        <ele>353.1</ele>
        <time>2013-10-03T16:21:41Z</time>
      </trkpt>
      <trkpt lat="45.5009" lon="5.99845">
        <ele>353.9</ele>
        <time>2013-10-03T16:21:44Z</time>
      </trkpt>
      <trkpt lat="45.50097" lon="5.99844">
        <ele>354.1</ele>
        <time>2013-10-03T16:21:46Z</time>
      </trkpt>
      <trkpt lat="45.50105" lon="5.99846">
        <ele>354.3</ele>
        <time>2013-10-03T16:21:48Z</time>
      </trkpt>
      <trkpt lat="45.50111" lon="5.9985">
        <ele>354.5</ele>
        <time>2013-10-03T16:21:50Z</time>
      </trkpt>
      <trkpt lat="45.50119" lon="5.9985">
        <ele>354.5</ele>
        <time>2013-10-03T16:21:52Z</time>
      </trkpt>
      <trkpt lat="45.50126" lon="5.99845">
        <ele>354.7</ele>
        <time>2013-10-03T16:21:54Z</time>
      </trkpt>
      <trkpt lat="45.50133" lon="5.99839">
        <ele>355</ele>
        <time>2013-10-03T16:21:56Z</time>
      </trkpt>
      <trkpt lat="45.5014" lon="5.99834">
        <ele>355.4</ele>
        <time>2013-10-03T16:21:58Z</time>
      </trkpt>
      <trkpt lat="45.50146" lon="5.99827">
        <ele>355.8</ele>
        <time>2013-10-03T16:22:00Z</time>
      </trkpt>
      <trkpt lat="45.50152" lon="5.99819">
        <ele>356</ele>
        <time>2013-10-03T16:22:02Z</time>
      </trkpt>
      <trkpt lat="45.50158" lon="5.99813">
        <ele>356.2</ele>
        <time>2013-10-03T16:22:04Z</time>
      </trkpt>
      <trkpt lat="45.50164" lon="5.99807">
        <ele>356.3</ele>
        <time>2013-10-03T16:22:06Z</time>
      </trkpt>
      <trkpt lat="45.50171" lon="5.99799">
        <ele>356.3</ele>
        <time>2013-10-03T16:22:08Z</time>
      </trkpt>
      <trkpt lat="45.50177" lon="5.99791">
        <ele>356.2</ele>
        <time>2013-10-03T16:22:10Z</time>
      </trkpt>
      <trkpt lat="45.50181" lon="5.99787">
        <ele>356.3</ele>
        <time>2013-10-03T16:22:11Z</time>
      </trkpt>
      <trkpt lat="45.50184" lon="5.99783">
        <ele>356.5</ele>
        <time>2013-10-03T16:22:12Z</time>
      </trkpt>
      <trkpt lat="45.5019" lon="5.99767">
        <ele>356.7</ele>
        <time>2013-10-03T16:22:15Z</time>
      </trkpt>
      <trkpt lat="45.50193" lon="5.99756">
        <ele>357.1</ele>
        <time>2013-10-03T16:22:17Z</time>
      </trkpt>
      <trkpt lat="45.50199" lon="5.99748">
        <ele>357.2</ele>
        <time>2013-10-03T16:22:19Z</time>
      </trkpt>
      <trkpt lat="45.50206" lon="5.99741">
        <ele>356.5</ele>
        <time>2013-10-03T16:22:21Z</time>
      </trkpt>
      <trkpt lat="45.50213" lon="5.99734">
        <ele>356.9</ele>
        <time>2013-10-03T16:22:23Z</time>
      </trkpt>
      <trkpt lat="45.50219" lon="5.99728">
        <ele>357.3</ele>
        <time>2013-10-03T16:22:25Z</time>
      </trkpt>
      <trkpt lat="45.50226" lon="5.99729">
        <ele>357.4</ele>
        <time>2013-10-03T16:22:27Z</time>
      </trkpt>
      <trkpt lat="45.50232" lon="5.99739">
        <ele>357.4</ele>
        <time>2013-10-03T16:22:29Z</time>
      </trkpt>
      <trkpt lat="45.50236" lon="5.99749">
        <ele>355.9</ele>
        <time>2013-10-03T16:22:51Z</time>
      </trkpt>
      <trkpt lat="45.50234" lon="5.99757">
        <ele>354.4</ele>
        <time>2013-10-03T16:23:03Z</time>
      </trkpt>
    </trkseg>
  </trk>
</gpx>